<?xml version="1.0" encoding="UTF-8" standalone="no" ?>
<gpx xmlns="http://www.topografix.com/GPX/1/1" xmlns:xsi="http://www.w3.org/2001/XMLSchema-instance" xsi:schemaLocation="http://www.topografix.com/GPX/1/1 http://www.topografix.com/GPX/1/1/gpx.xsd" version="1.1" creator="VisuGPX - https://www.visugpx.com">
  <metadata>
    <name>rando grimbosq</name>
    <desc><![CDATA[Tour de la forêt de Grimbosq motte féodale parc animalier]]></desc>
  </metadata>
  <trk>
    <name><![CDATA[20181228202520-RcJYv]]></name>
    <trkseg>
      <trkpt lat="49.06327" lon="-0.44753">
        <ele>53</ele>
        <time>2018-12-28T13:46:30Z</time>
      </trkpt>
      <trkpt lat="49.06331" lon="-0.44757">
        <ele>53</ele>
        <time>2018-12-28T13:46:31Z</time>
      </trkpt>
      <trkpt lat="49.06334" lon="-0.44758">
        <ele>53.1</ele>
        <time>2018-12-28T13:46:32Z</time>
      </trkpt>
      <trkpt lat="49.06337" lon="-0.44766">
        <ele>53.1</ele>
        <time>2018-12-28T13:46:33Z</time>
      </trkpt>
      <trkpt lat="49.06337" lon="-0.44771">
        <ele>53.2</ele>
        <time>2018-12-28T13:46:35Z</time>
      </trkpt>
      <trkpt lat="49.06337" lon="-0.44775">
        <ele>53.2</ele>
        <time>2018-12-28T13:46:36Z</time>
      </trkpt>
      <trkpt lat="49.06334" lon="-0.44773">
        <ele>53.2</ele>
        <time>2018-12-28T13:46:37Z</time>
      </trkpt>
      <trkpt lat="49.06331" lon="-0.44781">
        <ele>53.3</ele>
        <time>2018-12-28T13:46:40Z</time>
      </trkpt>
      <trkpt lat="49.06328" lon="-0.44781">
        <ele>53.3</ele>
        <time>2018-12-28T13:46:41Z</time>
      </trkpt>
      <trkpt lat="49.06328" lon="-0.44791">
        <ele>53.4</ele>
        <time>2018-12-28T13:46:44Z</time>
      </trkpt>
      <trkpt lat="49.0633" lon="-0.44796">
        <ele>53.9</ele>
        <time>2018-12-28T13:46:45Z</time>
      </trkpt>
      <trkpt lat="49.0633" lon="-0.44804">
        <ele>54.5</ele>
        <time>2018-12-28T13:46:47Z</time>
      </trkpt>
      <trkpt lat="49.06331" lon="-0.44809">
        <ele>55</ele>
        <time>2018-12-28T13:46:48Z</time>
      </trkpt>
      <trkpt lat="49.06331" lon="-0.44815">
        <ele>55.6</ele>
        <time>2018-12-28T13:46:49Z</time>
      </trkpt>
      <trkpt lat="49.06326" lon="-0.4482">
        <ele>55.8</ele>
        <time>2018-12-28T13:46:52Z</time>
      </trkpt>
      <trkpt lat="49.06324" lon="-0.44829">
        <ele>56.1</ele>
        <time>2018-12-28T13:46:54Z</time>
      </trkpt>
      <trkpt lat="49.06325" lon="-0.44834">
        <ele>56.3</ele>
        <time>2018-12-28T13:46:58Z</time>
      </trkpt>
      <trkpt lat="49.06329" lon="-0.44835">
        <ele>56.5</ele>
        <time>2018-12-28T13:46:59Z</time>
      </trkpt>
      <trkpt lat="49.06331" lon="-0.44839">
        <ele>56.6</ele>
        <time>2018-12-28T13:47:00Z</time>
      </trkpt>
      <trkpt lat="49.06328" lon="-0.44837">
        <ele>56.8</ele>
        <time>2018-12-28T13:47:02Z</time>
      </trkpt>
      <trkpt lat="49.06327" lon="-0.44844">
        <ele>57</ele>
        <time>2018-12-28T13:47:03Z</time>
      </trkpt>
      <trkpt lat="49.06321" lon="-0.44837">
        <ele>57.3</ele>
        <time>2018-12-28T13:47:04Z</time>
      </trkpt>
      <trkpt lat="49.06319" lon="-0.44835">
        <ele>57.4</ele>
        <time>2018-12-28T13:47:06Z</time>
      </trkpt>
      <trkpt lat="49.06314" lon="-0.44834">
        <ele>57.7</ele>
        <time>2018-12-28T13:47:10Z</time>
      </trkpt>
      <trkpt lat="49.0631" lon="-0.44833">
        <ele>57.9</ele>
        <time>2018-12-28T13:47:12Z</time>
      </trkpt>
      <trkpt lat="49.06307" lon="-0.44832">
        <ele>58.1</ele>
        <time>2018-12-28T13:47:13Z</time>
      </trkpt>
      <trkpt lat="49.06304" lon="-0.44832">
        <ele>58.3</ele>
        <time>2018-12-28T13:47:14Z</time>
      </trkpt>
      <trkpt lat="49.06302" lon="-0.44835">
        <ele>58.5</ele>
        <time>2018-12-28T13:47:15Z</time>
      </trkpt>
      <trkpt lat="49.06299" lon="-0.44837">
        <ele>58.7</ele>
        <time>2018-12-28T13:47:22Z</time>
      </trkpt>
      <trkpt lat="49.06295" lon="-0.44839">
        <ele>58.9</ele>
        <time>2018-12-28T13:47:25Z</time>
      </trkpt>
      <trkpt lat="49.06293" lon="-0.44843">
        <ele>59.1</ele>
        <time>2018-12-28T13:47:28Z</time>
      </trkpt>
      <trkpt lat="49.0629" lon="-0.44845">
        <ele>59.2</ele>
        <time>2018-12-28T13:47:32Z</time>
      </trkpt>
      <trkpt lat="49.06287" lon="-0.44847">
        <ele>59.4</ele>
        <time>2018-12-28T13:47:35Z</time>
      </trkpt>
      <trkpt lat="49.06285" lon="-0.44849">
        <ele>59.6</ele>
        <time>2018-12-28T13:47:37Z</time>
      </trkpt>
      <trkpt lat="49.06281" lon="-0.44852">
        <ele>59.8</ele>
        <time>2018-12-28T13:47:40Z</time>
      </trkpt>
      <trkpt lat="49.06278" lon="-0.44854">
        <ele>59.9</ele>
        <time>2018-12-28T13:47:43Z</time>
      </trkpt>
      <trkpt lat="49.06274" lon="-0.44856">
        <ele>60.1</ele>
        <time>2018-12-28T13:47:46Z</time>
      </trkpt>
      <trkpt lat="49.06271" lon="-0.44856">
        <ele>60.2</ele>
        <time>2018-12-28T13:47:48Z</time>
      </trkpt>
      <trkpt lat="49.06268" lon="-0.44858">
        <ele>60.4</ele>
        <time>2018-12-28T13:47:51Z</time>
      </trkpt>
      <trkpt lat="49.06265" lon="-0.4486">
        <ele>60.5</ele>
        <time>2018-12-28T13:47:54Z</time>
      </trkpt>
      <trkpt lat="49.06262" lon="-0.4486">
        <ele>60.6</ele>
        <time>2018-12-28T13:47:56Z</time>
      </trkpt>
      <trkpt lat="49.06259" lon="-0.44862">
        <ele>60.7</ele>
        <time>2018-12-28T13:47:59Z</time>
      </trkpt>
      <trkpt lat="49.06256" lon="-0.44866">
        <ele>60.9</ele>
        <time>2018-12-28T13:48:02Z</time>
      </trkpt>
      <trkpt lat="49.06253" lon="-0.44867">
        <ele>61.1</ele>
        <time>2018-12-28T13:48:04Z</time>
      </trkpt>
      <trkpt lat="49.0625" lon="-0.44868">
        <ele>61.2</ele>
        <time>2018-12-28T13:48:06Z</time>
      </trkpt>
      <trkpt lat="49.06247" lon="-0.44869">
        <ele>61.4</ele>
        <time>2018-12-28T13:48:08Z</time>
      </trkpt>
      <trkpt lat="49.06244" lon="-0.44871">
        <ele>61.5</ele>
        <time>2018-12-28T13:48:11Z</time>
      </trkpt>
      <trkpt lat="49.06242" lon="-0.44873">
        <ele>61.7</ele>
        <time>2018-12-28T13:48:13Z</time>
      </trkpt>
      <trkpt lat="49.06238" lon="-0.44874">
        <ele>61.8</ele>
        <time>2018-12-28T13:48:16Z</time>
      </trkpt>
      <trkpt lat="49.06235" lon="-0.44875">
        <ele>62</ele>
        <time>2018-12-28T13:48:19Z</time>
      </trkpt>
      <trkpt lat="49.06232" lon="-0.44875">
        <ele>62.1</ele>
        <time>2018-12-28T13:48:21Z</time>
      </trkpt>
      <trkpt lat="49.0623" lon="-0.44877">
        <ele>62.2</ele>
        <time>2018-12-28T13:48:31Z</time>
      </trkpt>
      <trkpt lat="49.06226" lon="-0.44878">
        <ele>62.4</ele>
        <time>2018-12-28T13:48:37Z</time>
      </trkpt>
      <trkpt lat="49.06223" lon="-0.44877">
        <ele>62.5</ele>
        <time>2018-12-28T13:48:39Z</time>
      </trkpt>
      <trkpt lat="49.06219" lon="-0.44878">
        <ele>62.7</ele>
        <time>2018-12-28T13:48:43Z</time>
      </trkpt>
      <trkpt lat="49.06215" lon="-0.44878">
        <ele>62.8</ele>
        <time>2018-12-28T13:48:45Z</time>
      </trkpt>
      <trkpt lat="49.06212" lon="-0.4488">
        <ele>63</ele>
        <time>2018-12-28T13:48:47Z</time>
      </trkpt>
      <trkpt lat="49.0621" lon="-0.44884">
        <ele>63.1</ele>
        <time>2018-12-28T13:48:51Z</time>
      </trkpt>
      <trkpt lat="49.06209" lon="-0.44889">
        <ele>62.5</ele>
        <time>2018-12-28T13:48:55Z</time>
      </trkpt>
      <trkpt lat="49.06209" lon="-0.44894">
        <ele>62.3</ele>
        <time>2018-12-28T13:48:58Z</time>
      </trkpt>
      <trkpt lat="49.06211" lon="-0.44898">
        <ele>62.2</ele>
        <time>2018-12-28T13:49:00Z</time>
      </trkpt>
      <trkpt lat="49.06212" lon="-0.44902">
        <ele>62.1</ele>
        <time>2018-12-28T13:49:02Z</time>
      </trkpt>
      <trkpt lat="49.06214" lon="-0.44906">
        <ele>62</ele>
        <time>2018-12-28T13:49:04Z</time>
      </trkpt>
      <trkpt lat="49.06215" lon="-0.44911">
        <ele>61.9</ele>
        <time>2018-12-28T13:49:06Z</time>
      </trkpt>
      <trkpt lat="49.06217" lon="-0.44915">
        <ele>61.8</ele>
        <time>2018-12-28T13:49:08Z</time>
      </trkpt>
      <trkpt lat="49.0622" lon="-0.4492">
        <ele>61.8</ele>
        <time>2018-12-28T13:49:11Z</time>
      </trkpt>
      <trkpt lat="49.06221" lon="-0.44923">
        <ele>61.7</ele>
        <time>2018-12-28T13:49:13Z</time>
      </trkpt>
      <trkpt lat="49.06224" lon="-0.44928">
        <ele>61.7</ele>
        <time>2018-12-28T13:49:15Z</time>
      </trkpt>
      <trkpt lat="49.06227" lon="-0.44933">
        <ele>61.5</ele>
        <time>2018-12-28T13:49:17Z</time>
      </trkpt>
      <trkpt lat="49.06228" lon="-0.44938">
        <ele>61.4</ele>
        <time>2018-12-28T13:49:19Z</time>
      </trkpt>
      <trkpt lat="49.06229" lon="-0.44943">
        <ele>61.2</ele>
        <time>2018-12-28T13:49:21Z</time>
      </trkpt>
      <trkpt lat="49.0623" lon="-0.44947">
        <ele>61.1</ele>
        <time>2018-12-28T13:49:23Z</time>
      </trkpt>
      <trkpt lat="49.06232" lon="-0.44952">
        <ele>60.9</ele>
        <time>2018-12-28T13:49:25Z</time>
      </trkpt>
      <trkpt lat="49.06234" lon="-0.44955">
        <ele>60.7</ele>
        <time>2018-12-28T13:49:27Z</time>
      </trkpt>
      <trkpt lat="49.06236" lon="-0.4496">
        <ele>60.5</ele>
        <time>2018-12-28T13:49:30Z</time>
      </trkpt>
      <trkpt lat="49.06238" lon="-0.44965">
        <ele>60.3</ele>
        <time>2018-12-28T13:49:33Z</time>
      </trkpt>
      <trkpt lat="49.06241" lon="-0.44969">
        <ele>60.1</ele>
        <time>2018-12-28T13:49:35Z</time>
      </trkpt>
      <trkpt lat="49.06243" lon="-0.44975">
        <ele>59.9</ele>
        <time>2018-12-28T13:49:37Z</time>
      </trkpt>
      <trkpt lat="49.06244" lon="-0.4498">
        <ele>59.7</ele>
        <time>2018-12-28T13:49:39Z</time>
      </trkpt>
      <trkpt lat="49.06246" lon="-0.44985">
        <ele>59.4</ele>
        <time>2018-12-28T13:49:42Z</time>
      </trkpt>
      <trkpt lat="49.06248" lon="-0.44989">
        <ele>59.2</ele>
        <time>2018-12-28T13:49:44Z</time>
      </trkpt>
      <trkpt lat="49.06249" lon="-0.44994">
        <ele>58.9</ele>
        <time>2018-12-28T13:49:47Z</time>
      </trkpt>
      <trkpt lat="49.0625" lon="-0.44999">
        <ele>58.7</ele>
        <time>2018-12-28T13:49:52Z</time>
      </trkpt>
      <trkpt lat="49.06252" lon="-0.45004">
        <ele>58.3</ele>
        <time>2018-12-28T13:49:55Z</time>
      </trkpt>
      <trkpt lat="49.06254" lon="-0.45009">
        <ele>58</ele>
        <time>2018-12-28T13:49:58Z</time>
      </trkpt>
      <trkpt lat="49.06256" lon="-0.45014">
        <ele>57.7</ele>
        <time>2018-12-28T13:50:01Z</time>
      </trkpt>
      <trkpt lat="49.06256" lon="-0.45018">
        <ele>57.5</ele>
        <time>2018-12-28T13:50:03Z</time>
      </trkpt>
      <trkpt lat="49.06257" lon="-0.45024">
        <ele>57.2</ele>
        <time>2018-12-28T13:50:06Z</time>
      </trkpt>
      <trkpt lat="49.06257" lon="-0.45031">
        <ele>56.8</ele>
        <time>2018-12-28T13:50:08Z</time>
      </trkpt>
      <trkpt lat="49.06258" lon="-0.45037">
        <ele>56.6</ele>
        <time>2018-12-28T13:50:10Z</time>
      </trkpt>
      <trkpt lat="49.06258" lon="-0.45041">
        <ele>56.4</ele>
        <time>2018-12-28T13:50:12Z</time>
      </trkpt>
      <trkpt lat="49.06259" lon="-0.45046">
        <ele>56.2</ele>
        <time>2018-12-28T13:50:14Z</time>
      </trkpt>
      <trkpt lat="49.0626" lon="-0.4505">
        <ele>56</ele>
        <time>2018-12-28T13:50:16Z</time>
      </trkpt>
      <trkpt lat="49.06262" lon="-0.45054">
        <ele>55.8</ele>
        <time>2018-12-28T13:50:18Z</time>
      </trkpt>
      <trkpt lat="49.06264" lon="-0.45058">
        <ele>55.7</ele>
        <time>2018-12-28T13:50:20Z</time>
      </trkpt>
      <trkpt lat="49.06265" lon="-0.45062">
        <ele>55.5</ele>
        <time>2018-12-28T13:50:22Z</time>
      </trkpt>
      <trkpt lat="49.06266" lon="-0.45067">
        <ele>55.4</ele>
        <time>2018-12-28T13:50:24Z</time>
      </trkpt>
      <trkpt lat="49.06268" lon="-0.45071">
        <ele>55.2</ele>
        <time>2018-12-28T13:50:26Z</time>
      </trkpt>
      <trkpt lat="49.06269" lon="-0.45075">
        <ele>55</ele>
        <time>2018-12-28T13:50:28Z</time>
      </trkpt>
      <trkpt lat="49.06272" lon="-0.45079">
        <ele>54.9</ele>
        <time>2018-12-28T13:50:31Z</time>
      </trkpt>
      <trkpt lat="49.06274" lon="-0.45084">
        <ele>54.7</ele>
        <time>2018-12-28T13:50:34Z</time>
      </trkpt>
      <trkpt lat="49.06275" lon="-0.45088">
        <ele>54.6</ele>
        <time>2018-12-28T13:50:36Z</time>
      </trkpt>
      <trkpt lat="49.06276" lon="-0.45092">
        <ele>54.4</ele>
        <time>2018-12-28T13:50:38Z</time>
      </trkpt>
      <trkpt lat="49.06278" lon="-0.45096">
        <ele>54.3</ele>
        <time>2018-12-28T13:50:40Z</time>
      </trkpt>
      <trkpt lat="49.06279" lon="-0.45101">
        <ele>54.2</ele>
        <time>2018-12-28T13:50:42Z</time>
      </trkpt>
      <trkpt lat="49.0628" lon="-0.45105">
        <ele>54</ele>
        <time>2018-12-28T13:50:44Z</time>
      </trkpt>
      <trkpt lat="49.06281" lon="-0.4511">
        <ele>53.9</ele>
        <time>2018-12-28T13:50:46Z</time>
      </trkpt>
      <trkpt lat="49.06282" lon="-0.45114">
        <ele>53.7</ele>
        <time>2018-12-28T13:50:48Z</time>
      </trkpt>
      <trkpt lat="49.06283" lon="-0.45118">
        <ele>53.6</ele>
        <time>2018-12-28T13:50:50Z</time>
      </trkpt>
      <trkpt lat="49.06284" lon="-0.45122">
        <ele>53.4</ele>
        <time>2018-12-28T13:50:52Z</time>
      </trkpt>
      <trkpt lat="49.06286" lon="-0.45127">
        <ele>53.2</ele>
        <time>2018-12-28T13:50:55Z</time>
      </trkpt>
      <trkpt lat="49.06287" lon="-0.45131">
        <ele>53</ele>
        <time>2018-12-28T13:50:57Z</time>
      </trkpt>
      <trkpt lat="49.06288" lon="-0.45135">
        <ele>52.9</ele>
        <time>2018-12-28T13:50:59Z</time>
      </trkpt>
      <trkpt lat="49.0629" lon="-0.45139">
        <ele>52.7</ele>
        <time>2018-12-28T13:51:01Z</time>
      </trkpt>
      <trkpt lat="49.06291" lon="-0.45143">
        <ele>52.5</ele>
        <time>2018-12-28T13:51:03Z</time>
      </trkpt>
      <trkpt lat="49.06293" lon="-0.45148">
        <ele>52.2</ele>
        <time>2018-12-28T13:51:05Z</time>
      </trkpt>
      <trkpt lat="49.06294" lon="-0.45152">
        <ele>51.9</ele>
        <time>2018-12-28T13:51:07Z</time>
      </trkpt>
      <trkpt lat="49.06296" lon="-0.45156">
        <ele>51.7</ele>
        <time>2018-12-28T13:51:09Z</time>
      </trkpt>
      <trkpt lat="49.06297" lon="-0.45161">
        <ele>51.4</ele>
        <time>2018-12-28T13:51:11Z</time>
      </trkpt>
      <trkpt lat="49.06299" lon="-0.45166">
        <ele>51.1</ele>
        <time>2018-12-28T13:51:13Z</time>
      </trkpt>
      <trkpt lat="49.06301" lon="-0.4517">
        <ele>50.9</ele>
        <time>2018-12-28T13:51:15Z</time>
      </trkpt>
      <trkpt lat="49.06302" lon="-0.45174">
        <ele>50.6</ele>
        <time>2018-12-28T13:51:17Z</time>
      </trkpt>
      <trkpt lat="49.06303" lon="-0.45179">
        <ele>50.4</ele>
        <time>2018-12-28T13:51:19Z</time>
      </trkpt>
      <trkpt lat="49.06304" lon="-0.45183">
        <ele>50.2</ele>
        <time>2018-12-28T13:51:21Z</time>
      </trkpt>
      <trkpt lat="49.06305" lon="-0.45188">
        <ele>50</ele>
        <time>2018-12-28T13:51:23Z</time>
      </trkpt>
      <trkpt lat="49.06306" lon="-0.45191">
        <ele>49.8</ele>
        <time>2018-12-28T13:51:25Z</time>
      </trkpt>
      <trkpt lat="49.06308" lon="-0.45196">
        <ele>49.6</ele>
        <time>2018-12-28T13:51:27Z</time>
      </trkpt>
      <trkpt lat="49.06309" lon="-0.452">
        <ele>49.4</ele>
        <time>2018-12-28T13:51:29Z</time>
      </trkpt>
      <trkpt lat="49.0631" lon="-0.45204">
        <ele>49.2</ele>
        <time>2018-12-28T13:51:31Z</time>
      </trkpt>
      <trkpt lat="49.06311" lon="-0.45208">
        <ele>49</ele>
        <time>2018-12-28T13:51:33Z</time>
      </trkpt>
      <trkpt lat="49.06313" lon="-0.45212">
        <ele>48.8</ele>
        <time>2018-12-28T13:51:35Z</time>
      </trkpt>
      <trkpt lat="49.06314" lon="-0.45216">
        <ele>48.7</ele>
        <time>2018-12-28T13:51:37Z</time>
      </trkpt>
      <trkpt lat="49.06315" lon="-0.4522">
        <ele>48.5</ele>
        <time>2018-12-28T13:51:39Z</time>
      </trkpt>
      <trkpt lat="49.06316" lon="-0.45224">
        <ele>48.3</ele>
        <time>2018-12-28T13:51:41Z</time>
      </trkpt>
      <trkpt lat="49.06318" lon="-0.45229">
        <ele>48.2</ele>
        <time>2018-12-28T13:51:43Z</time>
      </trkpt>
      <trkpt lat="49.0632" lon="-0.45233">
        <ele>48</ele>
        <time>2018-12-28T13:51:45Z</time>
      </trkpt>
      <trkpt lat="49.06322" lon="-0.45238">
        <ele>47.8</ele>
        <time>2018-12-28T13:51:48Z</time>
      </trkpt>
      <trkpt lat="49.06324" lon="-0.45243">
        <ele>47.6</ele>
        <time>2018-12-28T13:51:51Z</time>
      </trkpt>
      <trkpt lat="49.06325" lon="-0.45246">
        <ele>47.5</ele>
        <time>2018-12-28T13:51:53Z</time>
      </trkpt>
      <trkpt lat="49.06327" lon="-0.4525">
        <ele>47.4</ele>
        <time>2018-12-28T13:51:55Z</time>
      </trkpt>
      <trkpt lat="49.06328" lon="-0.45254">
        <ele>47.2</ele>
        <time>2018-12-28T13:51:57Z</time>
      </trkpt>
      <trkpt lat="49.06329" lon="-0.45258">
        <ele>47.1</ele>
        <time>2018-12-28T13:51:59Z</time>
      </trkpt>
      <trkpt lat="49.06331" lon="-0.45263">
        <ele>47</ele>
        <time>2018-12-28T13:52:01Z</time>
      </trkpt>
      <trkpt lat="49.06333" lon="-0.45268">
        <ele>46.9</ele>
        <time>2018-12-28T13:52:04Z</time>
      </trkpt>
      <trkpt lat="49.06334" lon="-0.45271">
        <ele>46.8</ele>
        <time>2018-12-28T13:52:06Z</time>
      </trkpt>
      <trkpt lat="49.06335" lon="-0.45276">
        <ele>46.7</ele>
        <time>2018-12-28T13:52:08Z</time>
      </trkpt>
      <trkpt lat="49.06338" lon="-0.45281">
        <ele>46.6</ele>
        <time>2018-12-28T13:52:11Z</time>
      </trkpt>
      <trkpt lat="49.06338" lon="-0.45287">
        <ele>46.5</ele>
        <time>2018-12-28T13:52:14Z</time>
      </trkpt>
      <trkpt lat="49.06339" lon="-0.45291">
        <ele>46.4</ele>
        <time>2018-12-28T13:52:16Z</time>
      </trkpt>
      <trkpt lat="49.06341" lon="-0.45295">
        <ele>46.3</ele>
        <time>2018-12-28T13:52:18Z</time>
      </trkpt>
      <trkpt lat="49.06343" lon="-0.45299">
        <ele>46.2</ele>
        <time>2018-12-28T13:52:20Z</time>
      </trkpt>
      <trkpt lat="49.06344" lon="-0.45304">
        <ele>46</ele>
        <time>2018-12-28T13:52:22Z</time>
      </trkpt>
      <trkpt lat="49.06346" lon="-0.45308">
        <ele>45.9</ele>
        <time>2018-12-28T13:52:24Z</time>
      </trkpt>
      <trkpt lat="49.06348" lon="-0.45313">
        <ele>45.7</ele>
        <time>2018-12-28T13:52:26Z</time>
      </trkpt>
      <trkpt lat="49.06349" lon="-0.45317">
        <ele>45.6</ele>
        <time>2018-12-28T13:52:28Z</time>
      </trkpt>
      <trkpt lat="49.06351" lon="-0.45322">
        <ele>45.4</ele>
        <time>2018-12-28T13:52:31Z</time>
      </trkpt>
      <trkpt lat="49.06352" lon="-0.45327">
        <ele>45.1</ele>
        <time>2018-12-28T13:52:34Z</time>
      </trkpt>
      <trkpt lat="49.06351" lon="-0.45331">
        <ele>44.9</ele>
        <time>2018-12-28T13:52:36Z</time>
      </trkpt>
      <trkpt lat="49.06352" lon="-0.45336">
        <ele>44.1</ele>
        <time>2018-12-28T13:52:39Z</time>
      </trkpt>
      <trkpt lat="49.06351" lon="-0.45341">
        <ele>43.6</ele>
        <time>2018-12-28T13:52:42Z</time>
      </trkpt>
      <trkpt lat="49.06351" lon="-0.45345">
        <ele>43.1</ele>
        <time>2018-12-28T13:52:45Z</time>
      </trkpt>
      <trkpt lat="49.06351" lon="-0.45351">
        <ele>42.5</ele>
        <time>2018-12-28T13:52:47Z</time>
      </trkpt>
      <trkpt lat="49.06352" lon="-0.45355">
        <ele>42</ele>
        <time>2018-12-28T13:52:48Z</time>
      </trkpt>
      <trkpt lat="49.06352" lon="-0.4536">
        <ele>41.6</ele>
        <time>2018-12-28T13:52:49Z</time>
      </trkpt>
      <trkpt lat="49.06352" lon="-0.45364">
        <ele>41.2</ele>
        <time>2018-12-28T13:52:51Z</time>
      </trkpt>
      <trkpt lat="49.06351" lon="-0.45369">
        <ele>40.6</ele>
        <time>2018-12-28T13:52:53Z</time>
      </trkpt>
      <trkpt lat="49.06349" lon="-0.45373">
        <ele>40.2</ele>
        <time>2018-12-28T13:52:55Z</time>
      </trkpt>
      <trkpt lat="49.06348" lon="-0.45379">
        <ele>39.7</ele>
        <time>2018-12-28T13:52:58Z</time>
      </trkpt>
      <trkpt lat="49.06348" lon="-0.45383">
        <ele>39.3</ele>
        <time>2018-12-28T13:53:00Z</time>
      </trkpt>
      <trkpt lat="49.06349" lon="-0.45387">
        <ele>39</ele>
        <time>2018-12-28T13:53:02Z</time>
      </trkpt>
      <trkpt lat="49.06349" lon="-0.45392">
        <ele>38.6</ele>
        <time>2018-12-28T13:53:05Z</time>
      </trkpt>
      <trkpt lat="49.06348" lon="-0.45397">
        <ele>38.3</ele>
        <time>2018-12-28T13:53:07Z</time>
      </trkpt>
      <trkpt lat="49.06347" lon="-0.45401">
        <ele>38</ele>
        <time>2018-12-28T13:53:09Z</time>
      </trkpt>
      <trkpt lat="49.06346" lon="-0.45406">
        <ele>37.7</ele>
        <time>2018-12-28T13:53:11Z</time>
      </trkpt>
      <trkpt lat="49.06345" lon="-0.45412">
        <ele>37.4</ele>
        <time>2018-12-28T13:53:14Z</time>
      </trkpt>
      <trkpt lat="49.06343" lon="-0.45414">
        <ele>37.1</ele>
        <time>2018-12-28T13:53:16Z</time>
      </trkpt>
      <trkpt lat="49.0634" lon="-0.45418">
        <ele>36.9</ele>
        <time>2018-12-28T13:53:19Z</time>
      </trkpt>
      <trkpt lat="49.06339" lon="-0.45424">
        <ele>36.6</ele>
        <time>2018-12-28T13:53:22Z</time>
      </trkpt>
      <trkpt lat="49.06337" lon="-0.45428">
        <ele>36.3</ele>
        <time>2018-12-28T13:53:24Z</time>
      </trkpt>
      <trkpt lat="49.06336" lon="-0.45433">
        <ele>36.1</ele>
        <time>2018-12-28T13:53:26Z</time>
      </trkpt>
      <trkpt lat="49.06334" lon="-0.45437">
        <ele>35.9</ele>
        <time>2018-12-28T13:53:28Z</time>
      </trkpt>
      <trkpt lat="49.06334" lon="-0.45441">
        <ele>35.7</ele>
        <time>2018-12-28T13:53:30Z</time>
      </trkpt>
      <trkpt lat="49.06333" lon="-0.45445">
        <ele>35.6</ele>
        <time>2018-12-28T13:53:33Z</time>
      </trkpt>
      <trkpt lat="49.06331" lon="-0.4545">
        <ele>35.4</ele>
        <time>2018-12-28T13:53:36Z</time>
      </trkpt>
      <trkpt lat="49.0633" lon="-0.45454">
        <ele>35.2</ele>
        <time>2018-12-28T13:53:38Z</time>
      </trkpt>
      <trkpt lat="49.06328" lon="-0.45459">
        <ele>35</ele>
        <time>2018-12-28T13:53:40Z</time>
      </trkpt>
      <trkpt lat="49.06327" lon="-0.45463">
        <ele>34.8</ele>
        <time>2018-12-28T13:53:42Z</time>
      </trkpt>
      <trkpt lat="49.06326" lon="-0.45467">
        <ele>34.7</ele>
        <time>2018-12-28T13:53:44Z</time>
      </trkpt>
      <trkpt lat="49.06325" lon="-0.45473">
        <ele>34.5</ele>
        <time>2018-12-28T13:53:47Z</time>
      </trkpt>
      <trkpt lat="49.06323" lon="-0.45478">
        <ele>34.3</ele>
        <time>2018-12-28T13:53:50Z</time>
      </trkpt>
      <trkpt lat="49.06321" lon="-0.45482">
        <ele>34.1</ele>
        <time>2018-12-28T13:53:52Z</time>
      </trkpt>
      <trkpt lat="49.06321" lon="-0.45487">
        <ele>34</ele>
        <time>2018-12-28T13:53:54Z</time>
      </trkpt>
      <trkpt lat="49.06319" lon="-0.45492">
        <ele>33.9</ele>
        <time>2018-12-28T13:53:57Z</time>
      </trkpt>
      <trkpt lat="49.06317" lon="-0.45498">
        <ele>33.7</ele>
        <time>2018-12-28T13:54:03Z</time>
      </trkpt>
      <trkpt lat="49.06315" lon="-0.45503">
        <ele>33.5</ele>
        <time>2018-12-28T13:54:06Z</time>
      </trkpt>
      <trkpt lat="49.06314" lon="-0.45508">
        <ele>33.4</ele>
        <time>2018-12-28T13:54:08Z</time>
      </trkpt>
      <trkpt lat="49.06313" lon="-0.45512">
        <ele>33.3</ele>
        <time>2018-12-28T13:54:10Z</time>
      </trkpt>
      <trkpt lat="49.06312" lon="-0.45516">
        <ele>33.2</ele>
        <time>2018-12-28T13:54:12Z</time>
      </trkpt>
      <trkpt lat="49.06311" lon="-0.45521">
        <ele>33</ele>
        <time>2018-12-28T13:54:14Z</time>
      </trkpt>
      <trkpt lat="49.0631" lon="-0.45525">
        <ele>32.9</ele>
        <time>2018-12-28T13:54:16Z</time>
      </trkpt>
      <trkpt lat="49.06309" lon="-0.4553">
        <ele>32.8</ele>
        <time>2018-12-28T13:54:18Z</time>
      </trkpt>
      <trkpt lat="49.06308" lon="-0.45534">
        <ele>32.7</ele>
        <time>2018-12-28T13:54:21Z</time>
      </trkpt>
      <trkpt lat="49.06305" lon="-0.4554">
        <ele>32.5</ele>
        <time>2018-12-28T13:54:30Z</time>
      </trkpt>
      <trkpt lat="49.06303" lon="-0.45547">
        <ele>32.4</ele>
        <time>2018-12-28T13:54:32Z</time>
      </trkpt>
      <trkpt lat="49.06301" lon="-0.45551">
        <ele>32.4</ele>
        <time>2018-12-28T13:54:34Z</time>
      </trkpt>
      <trkpt lat="49.06298" lon="-0.45554">
        <ele>32.3</ele>
        <time>2018-12-28T13:54:36Z</time>
      </trkpt>
      <trkpt lat="49.06296" lon="-0.45556">
        <ele>32.3</ele>
        <time>2018-12-28T13:54:38Z</time>
      </trkpt>
      <trkpt lat="49.06294" lon="-0.4556">
        <ele>32.3</ele>
        <time>2018-12-28T13:54:40Z</time>
      </trkpt>
      <trkpt lat="49.06292" lon="-0.45565">
        <ele>32.2</ele>
        <time>2018-12-28T13:54:49Z</time>
      </trkpt>
      <trkpt lat="49.0629" lon="-0.45569">
        <ele>32.2</ele>
        <time>2018-12-28T13:54:50Z</time>
      </trkpt>
      <trkpt lat="49.06287" lon="-0.45575">
        <ele>32.2</ele>
        <time>2018-12-28T13:54:52Z</time>
      </trkpt>
      <trkpt lat="49.06283" lon="-0.45579">
        <ele>32.2</ele>
        <time>2018-12-28T13:54:54Z</time>
      </trkpt>
      <trkpt lat="49.06281" lon="-0.45581">
        <ele>32.2</ele>
        <time>2018-12-28T13:54:56Z</time>
      </trkpt>
      <trkpt lat="49.06278" lon="-0.45584">
        <ele>32.2</ele>
        <time>2018-12-28T13:54:58Z</time>
      </trkpt>
      <trkpt lat="49.06276" lon="-0.45587">
        <ele>32.2</ele>
        <time>2018-12-28T13:55:00Z</time>
      </trkpt>
      <trkpt lat="49.06273" lon="-0.45589">
        <ele>32.3</ele>
        <time>2018-12-28T13:55:03Z</time>
      </trkpt>
      <trkpt lat="49.06271" lon="-0.45593">
        <ele>32.3</ele>
        <time>2018-12-28T13:55:05Z</time>
      </trkpt>
      <trkpt lat="49.06268" lon="-0.45597">
        <ele>32.3</ele>
        <time>2018-12-28T13:55:07Z</time>
      </trkpt>
      <trkpt lat="49.06266" lon="-0.456">
        <ele>32.3</ele>
        <time>2018-12-28T13:55:09Z</time>
      </trkpt>
      <trkpt lat="49.06264" lon="-0.45604">
        <ele>32.3</ele>
        <time>2018-12-28T13:55:13Z</time>
      </trkpt>
      <trkpt lat="49.06261" lon="-0.45608">
        <ele>32.4</ele>
        <time>2018-12-28T13:55:16Z</time>
      </trkpt>
      <trkpt lat="49.06257" lon="-0.4561">
        <ele>32.4</ele>
        <time>2018-12-28T13:55:19Z</time>
      </trkpt>
      <trkpt lat="49.06254" lon="-0.45612">
        <ele>32.4</ele>
        <time>2018-12-28T13:55:21Z</time>
      </trkpt>
      <trkpt lat="49.06251" lon="-0.45613">
        <ele>32.5</ele>
        <time>2018-12-28T13:55:23Z</time>
      </trkpt>
      <trkpt lat="49.06248" lon="-0.45615">
        <ele>32.6</ele>
        <time>2018-12-28T13:55:25Z</time>
      </trkpt>
      <trkpt lat="49.06246" lon="-0.45617">
        <ele>32.7</ele>
        <time>2018-12-28T13:55:27Z</time>
      </trkpt>
      <trkpt lat="49.06242" lon="-0.4562">
        <ele>32.8</ele>
        <time>2018-12-28T13:55:29Z</time>
      </trkpt>
      <trkpt lat="49.06239" lon="-0.45621">
        <ele>33</ele>
        <time>2018-12-28T13:55:31Z</time>
      </trkpt>
      <trkpt lat="49.06236" lon="-0.45623">
        <ele>33.1</ele>
        <time>2018-12-28T13:55:33Z</time>
      </trkpt>
      <trkpt lat="49.06232" lon="-0.45624">
        <ele>33.3</ele>
        <time>2018-12-28T13:55:36Z</time>
      </trkpt>
      <trkpt lat="49.06229" lon="-0.45625">
        <ele>33.5</ele>
        <time>2018-12-28T13:55:42Z</time>
      </trkpt>
      <trkpt lat="49.06226" lon="-0.45623">
        <ele>33.7</ele>
        <time>2018-12-28T13:55:44Z</time>
      </trkpt>
      <trkpt lat="49.06224" lon="-0.4562">
        <ele>34.8</ele>
        <time>2018-12-28T13:55:46Z</time>
      </trkpt>
      <trkpt lat="49.06222" lon="-0.45615">
        <ele>35.2</ele>
        <time>2018-12-28T13:55:49Z</time>
      </trkpt>
      <trkpt lat="49.06221" lon="-0.45611">
        <ele>35.6</ele>
        <time>2018-12-28T13:55:51Z</time>
      </trkpt>
      <trkpt lat="49.06219" lon="-0.45607">
        <ele>36</ele>
        <time>2018-12-28T13:55:53Z</time>
      </trkpt>
      <trkpt lat="49.06216" lon="-0.45604">
        <ele>36.5</ele>
        <time>2018-12-28T13:55:55Z</time>
      </trkpt>
      <trkpt lat="49.06214" lon="-0.456">
        <ele>36.9</ele>
        <time>2018-12-28T13:55:57Z</time>
      </trkpt>
      <trkpt lat="49.06213" lon="-0.45597">
        <ele>37.4</ele>
        <time>2018-12-28T13:55:59Z</time>
      </trkpt>
      <trkpt lat="49.06211" lon="-0.45592">
        <ele>38</ele>
        <time>2018-12-28T13:56:02Z</time>
      </trkpt>
      <trkpt lat="49.06209" lon="-0.45587">
        <ele>38.6</ele>
        <time>2018-12-28T13:56:05Z</time>
      </trkpt>
      <trkpt lat="49.06208" lon="-0.45583">
        <ele>39.1</ele>
        <time>2018-12-28T13:56:07Z</time>
      </trkpt>
      <trkpt lat="49.06207" lon="-0.45577">
        <ele>39.7</ele>
        <time>2018-12-28T13:56:10Z</time>
      </trkpt>
      <trkpt lat="49.06206" lon="-0.45572">
        <ele>40.2</ele>
        <time>2018-12-28T13:56:13Z</time>
      </trkpt>
      <trkpt lat="49.06204" lon="-0.45569">
        <ele>40.7</ele>
        <time>2018-12-28T13:56:16Z</time>
      </trkpt>
      <trkpt lat="49.06202" lon="-0.45565">
        <ele>41.2</ele>
        <time>2018-12-28T13:56:19Z</time>
      </trkpt>
      <trkpt lat="49.06201" lon="-0.45559">
        <ele>41.8</ele>
        <time>2018-12-28T13:56:22Z</time>
      </trkpt>
      <trkpt lat="49.062" lon="-0.45556">
        <ele>42.1</ele>
        <time>2018-12-28T13:56:24Z</time>
      </trkpt>
      <trkpt lat="49.06198" lon="-0.45552">
        <ele>42.5</ele>
        <time>2018-12-28T13:56:26Z</time>
      </trkpt>
      <trkpt lat="49.06196" lon="-0.45548">
        <ele>42.9</ele>
        <time>2018-12-28T13:56:29Z</time>
      </trkpt>
      <trkpt lat="49.06195" lon="-0.45544">
        <ele>43.2</ele>
        <time>2018-12-28T13:56:31Z</time>
      </trkpt>
      <trkpt lat="49.06195" lon="-0.45538">
        <ele>43.6</ele>
        <time>2018-12-28T13:56:34Z</time>
      </trkpt>
      <trkpt lat="49.06194" lon="-0.45533">
        <ele>44</ele>
        <time>2018-12-28T13:56:37Z</time>
      </trkpt>
      <trkpt lat="49.06193" lon="-0.45528">
        <ele>44.3</ele>
        <time>2018-12-28T13:56:39Z</time>
      </trkpt>
      <trkpt lat="49.06192" lon="-0.45524">
        <ele>44.6</ele>
        <time>2018-12-28T13:56:41Z</time>
      </trkpt>
      <trkpt lat="49.06191" lon="-0.45518">
        <ele>45</ele>
        <time>2018-12-28T13:56:44Z</time>
      </trkpt>
      <trkpt lat="49.06189" lon="-0.45514">
        <ele>45.3</ele>
        <time>2018-12-28T13:56:46Z</time>
      </trkpt>
      <trkpt lat="49.06187" lon="-0.45511">
        <ele>45.6</ele>
        <time>2018-12-28T13:56:48Z</time>
      </trkpt>
      <trkpt lat="49.06186" lon="-0.45507">
        <ele>45.9</ele>
        <time>2018-12-28T13:56:50Z</time>
      </trkpt>
      <trkpt lat="49.06185" lon="-0.45502">
        <ele>46.2</ele>
        <time>2018-12-28T13:56:52Z</time>
      </trkpt>
      <trkpt lat="49.06184" lon="-0.45497">
        <ele>46.7</ele>
        <time>2018-12-28T13:56:54Z</time>
      </trkpt>
      <trkpt lat="49.06182" lon="-0.45494">
        <ele>47.1</ele>
        <time>2018-12-28T13:56:56Z</time>
      </trkpt>
      <trkpt lat="49.06181" lon="-0.4549">
        <ele>47.6</ele>
        <time>2018-12-28T13:56:58Z</time>
      </trkpt>
      <trkpt lat="49.06179" lon="-0.45485">
        <ele>48.2</ele>
        <time>2018-12-28T13:57:01Z</time>
      </trkpt>
      <trkpt lat="49.06178" lon="-0.45481">
        <ele>48.7</ele>
        <time>2018-12-28T13:57:03Z</time>
      </trkpt>
      <trkpt lat="49.06176" lon="-0.45477">
        <ele>49.3</ele>
        <time>2018-12-28T13:57:06Z</time>
      </trkpt>
      <trkpt lat="49.06174" lon="-0.45472">
        <ele>50</ele>
        <time>2018-12-28T13:57:09Z</time>
      </trkpt>
      <trkpt lat="49.06172" lon="-0.45467">
        <ele>50.7</ele>
        <time>2018-12-28T13:57:12Z</time>
      </trkpt>
      <trkpt lat="49.06171" lon="-0.45461">
        <ele>51.2</ele>
        <time>2018-12-28T13:57:15Z</time>
      </trkpt>
      <trkpt lat="49.06169" lon="-0.45458">
        <ele>51.5</ele>
        <time>2018-12-28T13:57:17Z</time>
      </trkpt>
      <trkpt lat="49.06167" lon="-0.45452">
        <ele>51.8</ele>
        <time>2018-12-28T13:57:20Z</time>
      </trkpt>
      <trkpt lat="49.06166" lon="-0.45448">
        <ele>52.1</ele>
        <time>2018-12-28T13:57:22Z</time>
      </trkpt>
      <trkpt lat="49.06165" lon="-0.45444">
        <ele>52.3</ele>
        <time>2018-12-28T13:57:24Z</time>
      </trkpt>
      <trkpt lat="49.06164" lon="-0.4544">
        <ele>52.5</ele>
        <time>2018-12-28T13:57:26Z</time>
      </trkpt>
      <trkpt lat="49.06162" lon="-0.45435">
        <ele>52.9</ele>
        <time>2018-12-28T13:57:29Z</time>
      </trkpt>
      <trkpt lat="49.06161" lon="-0.45429">
        <ele>53.3</ele>
        <time>2018-12-28T13:57:31Z</time>
      </trkpt>
      <trkpt lat="49.06159" lon="-0.45425">
        <ele>53.6</ele>
        <time>2018-12-28T13:57:33Z</time>
      </trkpt>
      <trkpt lat="49.06158" lon="-0.4542">
        <ele>53.9</ele>
        <time>2018-12-28T13:57:35Z</time>
      </trkpt>
      <trkpt lat="49.06157" lon="-0.45416">
        <ele>54.2</ele>
        <time>2018-12-28T13:57:37Z</time>
      </trkpt>
      <trkpt lat="49.06154" lon="-0.45411">
        <ele>54.6</ele>
        <time>2018-12-28T13:57:40Z</time>
      </trkpt>
      <trkpt lat="49.06153" lon="-0.45407">
        <ele>54.8</ele>
        <time>2018-12-28T13:57:42Z</time>
      </trkpt>
      <trkpt lat="49.06151" lon="-0.45403">
        <ele>55.1</ele>
        <time>2018-12-28T13:57:44Z</time>
      </trkpt>
      <trkpt lat="49.0615" lon="-0.45399">
        <ele>55.4</ele>
        <time>2018-12-28T13:57:46Z</time>
      </trkpt>
      <trkpt lat="49.06146" lon="-0.45395">
        <ele>55.8</ele>
        <time>2018-12-28T13:57:49Z</time>
      </trkpt>
      <trkpt lat="49.06144" lon="-0.45391">
        <ele>56</ele>
        <time>2018-12-28T13:57:51Z</time>
      </trkpt>
      <trkpt lat="49.06143" lon="-0.45388">
        <ele>56.3</ele>
        <time>2018-12-28T13:57:53Z</time>
      </trkpt>
      <trkpt lat="49.06142" lon="-0.45384">
        <ele>56.5</ele>
        <time>2018-12-28T13:57:56Z</time>
      </trkpt>
      <trkpt lat="49.06141" lon="-0.45378">
        <ele>56.8</ele>
        <time>2018-12-28T13:57:59Z</time>
      </trkpt>
      <trkpt lat="49.0614" lon="-0.45373">
        <ele>57.1</ele>
        <time>2018-12-28T13:58:01Z</time>
      </trkpt>
      <trkpt lat="49.06138" lon="-0.4537">
        <ele>57.3</ele>
        <time>2018-12-28T13:58:03Z</time>
      </trkpt>
      <trkpt lat="49.06136" lon="-0.45364">
        <ele>57.6</ele>
        <time>2018-12-28T13:58:06Z</time>
      </trkpt>
      <trkpt lat="49.06134" lon="-0.4536">
        <ele>57.9</ele>
        <time>2018-12-28T13:58:08Z</time>
      </trkpt>
      <trkpt lat="49.06132" lon="-0.45355">
        <ele>58.1</ele>
        <time>2018-12-28T13:58:10Z</time>
      </trkpt>
      <trkpt lat="49.06131" lon="-0.45351">
        <ele>58.3</ele>
        <time>2018-12-28T13:58:12Z</time>
      </trkpt>
      <trkpt lat="49.0613" lon="-0.45347">
        <ele>58.5</ele>
        <time>2018-12-28T13:58:14Z</time>
      </trkpt>
      <trkpt lat="49.06128" lon="-0.45343">
        <ele>58.6</ele>
        <time>2018-12-28T13:58:16Z</time>
      </trkpt>
      <trkpt lat="49.06125" lon="-0.45341">
        <ele>58.8</ele>
        <time>2018-12-28T13:58:18Z</time>
      </trkpt>
      <trkpt lat="49.06124" lon="-0.45335">
        <ele>59</ele>
        <time>2018-12-28T13:58:21Z</time>
      </trkpt>
      <trkpt lat="49.06122" lon="-0.4533">
        <ele>59.2</ele>
        <time>2018-12-28T13:58:24Z</time>
      </trkpt>
      <trkpt lat="49.06121" lon="-0.45326">
        <ele>59.4</ele>
        <time>2018-12-28T13:58:26Z</time>
      </trkpt>
      <trkpt lat="49.0612" lon="-0.45321">
        <ele>59.6</ele>
        <time>2018-12-28T13:58:29Z</time>
      </trkpt>
      <trkpt lat="49.06119" lon="-0.45315">
        <ele>59.7</ele>
        <time>2018-12-28T13:58:32Z</time>
      </trkpt>
      <trkpt lat="49.06118" lon="-0.4531">
        <ele>59.9</ele>
        <time>2018-12-28T13:58:35Z</time>
      </trkpt>
      <trkpt lat="49.06116" lon="-0.45305">
        <ele>60.1</ele>
        <time>2018-12-28T13:58:38Z</time>
      </trkpt>
      <trkpt lat="49.06115" lon="-0.45299">
        <ele>60.3</ele>
        <time>2018-12-28T13:58:41Z</time>
      </trkpt>
      <trkpt lat="49.06114" lon="-0.45294">
        <ele>60.4</ele>
        <time>2018-12-28T13:58:43Z</time>
      </trkpt>
      <trkpt lat="49.06113" lon="-0.45288">
        <ele>60.6</ele>
        <time>2018-12-28T13:58:45Z</time>
      </trkpt>
      <trkpt lat="49.06112" lon="-0.45284">
        <ele>60.7</ele>
        <time>2018-12-28T13:58:47Z</time>
      </trkpt>
      <trkpt lat="49.0611" lon="-0.4528">
        <ele>60.8</ele>
        <time>2018-12-28T13:58:50Z</time>
      </trkpt>
      <trkpt lat="49.06109" lon="-0.45275">
        <ele>60.9</ele>
        <time>2018-12-28T13:58:53Z</time>
      </trkpt>
      <trkpt lat="49.06108" lon="-0.4527">
        <ele>61.1</ele>
        <time>2018-12-28T13:58:55Z</time>
      </trkpt>
      <trkpt lat="49.06106" lon="-0.45265">
        <ele>61.2</ele>
        <time>2018-12-28T13:58:57Z</time>
      </trkpt>
      <trkpt lat="49.06105" lon="-0.45259">
        <ele>61.3</ele>
        <time>2018-12-28T13:58:59Z</time>
      </trkpt>
      <trkpt lat="49.06103" lon="-0.45255">
        <ele>61.4</ele>
        <time>2018-12-28T13:59:01Z</time>
      </trkpt>
      <trkpt lat="49.06102" lon="-0.45251">
        <ele>61.5</ele>
        <time>2018-12-28T13:59:03Z</time>
      </trkpt>
      <trkpt lat="49.06102" lon="-0.45246">
        <ele>61.6</ele>
        <time>2018-12-28T13:59:05Z</time>
      </trkpt>
      <trkpt lat="49.061" lon="-0.45242">
        <ele>61.7</ele>
        <time>2018-12-28T13:59:07Z</time>
      </trkpt>
      <trkpt lat="49.06098" lon="-0.45237">
        <ele>61.8</ele>
        <time>2018-12-28T13:59:09Z</time>
      </trkpt>
      <trkpt lat="49.06097" lon="-0.45233">
        <ele>61.9</ele>
        <time>2018-12-28T13:59:11Z</time>
      </trkpt>
      <trkpt lat="49.06095" lon="-0.45229">
        <ele>62.1</ele>
        <time>2018-12-28T13:59:14Z</time>
      </trkpt>
      <trkpt lat="49.06092" lon="-0.45224">
        <ele>62.2</ele>
        <time>2018-12-28T13:59:16Z</time>
      </trkpt>
      <trkpt lat="49.0609" lon="-0.45219">
        <ele>62.3</ele>
        <time>2018-12-28T13:59:18Z</time>
      </trkpt>
      <trkpt lat="49.0609" lon="-0.45215">
        <ele>62.4</ele>
        <time>2018-12-28T13:59:20Z</time>
      </trkpt>
      <trkpt lat="49.0609" lon="-0.45211">
        <ele>62.5</ele>
        <time>2018-12-28T13:59:22Z</time>
      </trkpt>
      <trkpt lat="49.06088" lon="-0.45205">
        <ele>62.7</ele>
        <time>2018-12-28T13:59:25Z</time>
      </trkpt>
      <trkpt lat="49.06086" lon="-0.45201">
        <ele>62.8</ele>
        <time>2018-12-28T13:59:27Z</time>
      </trkpt>
      <trkpt lat="49.06084" lon="-0.45197">
        <ele>62.9</ele>
        <time>2018-12-28T13:59:29Z</time>
      </trkpt>
      <trkpt lat="49.06084" lon="-0.45192">
        <ele>63</ele>
        <time>2018-12-28T13:59:32Z</time>
      </trkpt>
      <trkpt lat="49.06082" lon="-0.45187">
        <ele>63.2</ele>
        <time>2018-12-28T13:59:36Z</time>
      </trkpt>
      <trkpt lat="49.0608" lon="-0.45182">
        <ele>63.3</ele>
        <time>2018-12-28T13:59:39Z</time>
      </trkpt>
      <trkpt lat="49.06079" lon="-0.45178">
        <ele>63.4</ele>
        <time>2018-12-28T13:59:41Z</time>
      </trkpt>
      <trkpt lat="49.06077" lon="-0.45174">
        <ele>63.5</ele>
        <time>2018-12-28T13:59:43Z</time>
      </trkpt>
      <trkpt lat="49.06075" lon="-0.45169">
        <ele>63.6</ele>
        <time>2018-12-28T13:59:45Z</time>
      </trkpt>
      <trkpt lat="49.06073" lon="-0.45164">
        <ele>63.8</ele>
        <time>2018-12-28T13:59:48Z</time>
      </trkpt>
      <trkpt lat="49.06071" lon="-0.4516">
        <ele>63.8</ele>
        <time>2018-12-28T13:59:50Z</time>
      </trkpt>
      <trkpt lat="49.06069" lon="-0.45155">
        <ele>64</ele>
        <time>2018-12-28T13:59:52Z</time>
      </trkpt>
      <trkpt lat="49.06067" lon="-0.4515">
        <ele>64.1</ele>
        <time>2018-12-28T13:59:54Z</time>
      </trkpt>
      <trkpt lat="49.06066" lon="-0.45144">
        <ele>64.2</ele>
        <time>2018-12-28T13:59:56Z</time>
      </trkpt>
      <trkpt lat="49.06064" lon="-0.4514">
        <ele>64.3</ele>
        <time>2018-12-28T13:59:58Z</time>
      </trkpt>
      <trkpt lat="49.06062" lon="-0.45135">
        <ele>64.4</ele>
        <time>2018-12-28T14:00:00Z</time>
      </trkpt>
      <trkpt lat="49.06061" lon="-0.4513">
        <ele>64.5</ele>
        <time>2018-12-28T14:00:02Z</time>
      </trkpt>
      <trkpt lat="49.0606" lon="-0.45125">
        <ele>64.6</ele>
        <time>2018-12-28T14:00:04Z</time>
      </trkpt>
      <trkpt lat="49.06059" lon="-0.45121">
        <ele>64.7</ele>
        <time>2018-12-28T14:00:06Z</time>
      </trkpt>
      <trkpt lat="49.06057" lon="-0.45118">
        <ele>64.8</ele>
        <time>2018-12-28T14:00:09Z</time>
      </trkpt>
      <trkpt lat="49.06055" lon="-0.45113">
        <ele>64.9</ele>
        <time>2018-12-28T14:00:12Z</time>
      </trkpt>
      <trkpt lat="49.06053" lon="-0.4511">
        <ele>65</ele>
        <time>2018-12-28T14:00:14Z</time>
      </trkpt>
      <trkpt lat="49.06051" lon="-0.45106">
        <ele>65.1</ele>
        <time>2018-12-28T14:00:16Z</time>
      </trkpt>
      <trkpt lat="49.0605" lon="-0.45102">
        <ele>65.2</ele>
        <time>2018-12-28T14:00:18Z</time>
      </trkpt>
      <trkpt lat="49.06049" lon="-0.45097">
        <ele>65.2</ele>
        <time>2018-12-28T14:00:20Z</time>
      </trkpt>
      <trkpt lat="49.06046" lon="-0.45092">
        <ele>65.3</ele>
        <time>2018-12-28T14:00:22Z</time>
      </trkpt>
      <trkpt lat="49.06042" lon="-0.45087">
        <ele>65.5</ele>
        <time>2018-12-28T14:00:24Z</time>
      </trkpt>
      <trkpt lat="49.06041" lon="-0.45081">
        <ele>65.6</ele>
        <time>2018-12-28T14:00:28Z</time>
      </trkpt>
      <trkpt lat="49.06041" lon="-0.45074">
        <ele>65.7</ele>
        <time>2018-12-28T14:00:33Z</time>
      </trkpt>
      <trkpt lat="49.0604" lon="-0.45068">
        <ele>65.8</ele>
        <time>2018-12-28T14:00:35Z</time>
      </trkpt>
      <trkpt lat="49.06039" lon="-0.45065">
        <ele>65.9</ele>
        <time>2018-12-28T14:00:38Z</time>
      </trkpt>
      <trkpt lat="49.06037" lon="-0.4506">
        <ele>66</ele>
        <time>2018-12-28T14:00:41Z</time>
      </trkpt>
      <trkpt lat="49.06036" lon="-0.45055">
        <ele>66</ele>
        <time>2018-12-28T14:00:44Z</time>
      </trkpt>
      <trkpt lat="49.06034" lon="-0.45049">
        <ele>66.2</ele>
        <time>2018-12-28T14:00:48Z</time>
      </trkpt>
      <trkpt lat="49.06035" lon="-0.45044">
        <ele>66.3</ele>
        <time>2018-12-28T14:00:50Z</time>
      </trkpt>
      <trkpt lat="49.06033" lon="-0.4504">
        <ele>66.4</ele>
        <time>2018-12-28T14:00:54Z</time>
      </trkpt>
      <trkpt lat="49.06031" lon="-0.45037">
        <ele>66.5</ele>
        <time>2018-12-28T14:00:56Z</time>
      </trkpt>
      <trkpt lat="49.06027" lon="-0.45034">
        <ele>66.6</ele>
        <time>2018-12-28T14:00:58Z</time>
      </trkpt>
      <trkpt lat="49.06024" lon="-0.45034">
        <ele>67</ele>
        <time>2018-12-28T14:01:00Z</time>
      </trkpt>
      <trkpt lat="49.06021" lon="-0.45035">
        <ele>67.1</ele>
        <time>2018-12-28T14:01:02Z</time>
      </trkpt>
      <trkpt lat="49.06018" lon="-0.45036">
        <ele>67.1</ele>
        <time>2018-12-28T14:01:04Z</time>
      </trkpt>
      <trkpt lat="49.06015" lon="-0.45038">
        <ele>67.2</ele>
        <time>2018-12-28T14:01:06Z</time>
      </trkpt>
      <trkpt lat="49.06012" lon="-0.45039">
        <ele>67.2</ele>
        <time>2018-12-28T14:01:09Z</time>
      </trkpt>
      <trkpt lat="49.06009" lon="-0.45042">
        <ele>67.3</ele>
        <time>2018-12-28T14:01:11Z</time>
      </trkpt>
      <trkpt lat="49.06006" lon="-0.45044">
        <ele>67.3</ele>
        <time>2018-12-28T14:01:13Z</time>
      </trkpt>
      <trkpt lat="49.06004" lon="-0.45046">
        <ele>67.3</ele>
        <time>2018-12-28T14:01:15Z</time>
      </trkpt>
      <trkpt lat="49.06" lon="-0.45049">
        <ele>67.4</ele>
        <time>2018-12-28T14:01:18Z</time>
      </trkpt>
      <trkpt lat="49.05998" lon="-0.4505">
        <ele>67.4</ele>
        <time>2018-12-28T14:01:20Z</time>
      </trkpt>
      <trkpt lat="49.05994" lon="-0.45052">
        <ele>67.5</ele>
        <time>2018-12-28T14:01:23Z</time>
      </trkpt>
      <trkpt lat="49.0599" lon="-0.45054">
        <ele>67.5</ele>
        <time>2018-12-28T14:01:25Z</time>
      </trkpt>
      <trkpt lat="49.05986" lon="-0.45057">
        <ele>67.6</ele>
        <time>2018-12-28T14:01:27Z</time>
      </trkpt>
      <trkpt lat="49.05981" lon="-0.45059">
        <ele>67.7</ele>
        <time>2018-12-28T14:01:29Z</time>
      </trkpt>
      <trkpt lat="49.05979" lon="-0.45061">
        <ele>67.7</ele>
        <time>2018-12-28T14:01:30Z</time>
      </trkpt>
      <trkpt lat="49.05975" lon="-0.45062">
        <ele>67.8</ele>
        <time>2018-12-28T14:01:32Z</time>
      </trkpt>
      <trkpt lat="49.05971" lon="-0.45064">
        <ele>67.8</ele>
        <time>2018-12-28T14:01:34Z</time>
      </trkpt>
      <trkpt lat="49.05968" lon="-0.45066">
        <ele>67.8</ele>
        <time>2018-12-28T14:01:36Z</time>
      </trkpt>
      <trkpt lat="49.05965" lon="-0.45068">
        <ele>67.9</ele>
        <time>2018-12-28T14:01:39Z</time>
      </trkpt>
      <trkpt lat="49.05962" lon="-0.4507">
        <ele>67.9</ele>
        <time>2018-12-28T14:01:41Z</time>
      </trkpt>
      <trkpt lat="49.0596" lon="-0.45072">
        <ele>67.9</ele>
        <time>2018-12-28T14:01:43Z</time>
      </trkpt>
      <trkpt lat="49.05957" lon="-0.45077">
        <ele>68</ele>
        <time>2018-12-28T14:01:46Z</time>
      </trkpt>
      <trkpt lat="49.05954" lon="-0.45081">
        <ele>68</ele>
        <time>2018-12-28T14:01:49Z</time>
      </trkpt>
      <trkpt lat="49.05952" lon="-0.45083">
        <ele>68.1</ele>
        <time>2018-12-28T14:01:51Z</time>
      </trkpt>
      <trkpt lat="49.05948" lon="-0.45085">
        <ele>68.1</ele>
        <time>2018-12-28T14:01:54Z</time>
      </trkpt>
      <trkpt lat="49.05946" lon="-0.45087">
        <ele>68.1</ele>
        <time>2018-12-28T14:01:56Z</time>
      </trkpt>
      <trkpt lat="49.05943" lon="-0.45089">
        <ele>68.1</ele>
        <time>2018-12-28T14:01:59Z</time>
      </trkpt>
      <trkpt lat="49.05939" lon="-0.45092">
        <ele>68.2</ele>
        <time>2018-12-28T14:02:02Z</time>
      </trkpt>
      <trkpt lat="49.05936" lon="-0.45094">
        <ele>68.2</ele>
        <time>2018-12-28T14:02:05Z</time>
      </trkpt>
      <trkpt lat="49.05932" lon="-0.45098">
        <ele>68.2</ele>
        <time>2018-12-28T14:02:08Z</time>
      </trkpt>
      <trkpt lat="49.0593" lon="-0.451">
        <ele>68.3</ele>
        <time>2018-12-28T14:02:10Z</time>
      </trkpt>
      <trkpt lat="49.05927" lon="-0.45101">
        <ele>68.3</ele>
        <time>2018-12-28T14:02:12Z</time>
      </trkpt>
      <trkpt lat="49.05924" lon="-0.45104">
        <ele>68.3</ele>
        <time>2018-12-28T14:02:15Z</time>
      </trkpt>
      <trkpt lat="49.05922" lon="-0.45107">
        <ele>68.3</ele>
        <time>2018-12-28T14:02:17Z</time>
      </trkpt>
      <trkpt lat="49.05919" lon="-0.45108">
        <ele>68.3</ele>
        <time>2018-12-28T14:02:19Z</time>
      </trkpt>
      <trkpt lat="49.05916" lon="-0.4511">
        <ele>68.4</ele>
        <time>2018-12-28T14:02:22Z</time>
      </trkpt>
      <trkpt lat="49.05914" lon="-0.45113">
        <ele>68.4</ele>
        <time>2018-12-28T14:02:25Z</time>
      </trkpt>
      <trkpt lat="49.05911" lon="-0.45115">
        <ele>68.4</ele>
        <time>2018-12-28T14:02:28Z</time>
      </trkpt>
      <trkpt lat="49.05907" lon="-0.45117">
        <ele>68.4</ele>
        <time>2018-12-28T14:02:30Z</time>
      </trkpt>
      <trkpt lat="49.05904" lon="-0.45118">
        <ele>68.4</ele>
        <time>2018-12-28T14:02:32Z</time>
      </trkpt>
      <trkpt lat="49.05901" lon="-0.4512">
        <ele>68.4</ele>
        <time>2018-12-28T14:02:34Z</time>
      </trkpt>
      <trkpt lat="49.05899" lon="-0.45123">
        <ele>68.4</ele>
        <time>2018-12-28T14:02:36Z</time>
      </trkpt>
      <trkpt lat="49.05896" lon="-0.45124">
        <ele>68.4</ele>
        <time>2018-12-28T14:02:38Z</time>
      </trkpt>
      <trkpt lat="49.05893" lon="-0.45127">
        <ele>68.4</ele>
        <time>2018-12-28T14:02:40Z</time>
      </trkpt>
      <trkpt lat="49.0589" lon="-0.45129">
        <ele>68.4</ele>
        <time>2018-12-28T14:02:42Z</time>
      </trkpt>
      <trkpt lat="49.05887" lon="-0.45132">
        <ele>68.4</ele>
        <time>2018-12-28T14:02:45Z</time>
      </trkpt>
      <trkpt lat="49.05884" lon="-0.45134">
        <ele>68.4</ele>
        <time>2018-12-28T14:02:47Z</time>
      </trkpt>
      <trkpt lat="49.05882" lon="-0.45137">
        <ele>68.4</ele>
        <time>2018-12-28T14:02:50Z</time>
      </trkpt>
      <trkpt lat="49.0588" lon="-0.4514">
        <ele>68.4</ele>
        <time>2018-12-28T14:02:53Z</time>
      </trkpt>
      <trkpt lat="49.05878" lon="-0.45143">
        <ele>68.3</ele>
        <time>2018-12-28T14:02:55Z</time>
      </trkpt>
      <trkpt lat="49.05876" lon="-0.45146">
        <ele>68.2</ele>
        <time>2018-12-28T14:02:57Z</time>
      </trkpt>
      <trkpt lat="49.05872" lon="-0.4515">
        <ele>68.1</ele>
        <time>2018-12-28T14:03:00Z</time>
      </trkpt>
      <trkpt lat="49.0587" lon="-0.45152">
        <ele>68</ele>
        <time>2018-12-28T14:03:02Z</time>
      </trkpt>
      <trkpt lat="49.05866" lon="-0.45154">
        <ele>67.9</ele>
        <time>2018-12-28T14:03:04Z</time>
      </trkpt>
      <trkpt lat="49.05863" lon="-0.45155">
        <ele>67.8</ele>
        <time>2018-12-28T14:03:06Z</time>
      </trkpt>
      <trkpt lat="49.05861" lon="-0.45157">
        <ele>67.7</ele>
        <time>2018-12-28T14:03:08Z</time>
      </trkpt>
      <trkpt lat="49.05857" lon="-0.45159">
        <ele>67.6</ele>
        <time>2018-12-28T14:03:10Z</time>
      </trkpt>
      <trkpt lat="49.05854" lon="-0.45161">
        <ele>67.5</ele>
        <time>2018-12-28T14:03:12Z</time>
      </trkpt>
      <trkpt lat="49.0585" lon="-0.45162">
        <ele>67.4</ele>
        <time>2018-12-28T14:03:14Z</time>
      </trkpt>
      <trkpt lat="49.05847" lon="-0.45164">
        <ele>67.2</ele>
        <time>2018-12-28T14:03:16Z</time>
      </trkpt>
      <trkpt lat="49.05844" lon="-0.45166">
        <ele>67.1</ele>
        <time>2018-12-28T14:03:18Z</time>
      </trkpt>
      <trkpt lat="49.0584" lon="-0.45168">
        <ele>66.9</ele>
        <time>2018-12-28T14:03:21Z</time>
      </trkpt>
      <trkpt lat="49.05837" lon="-0.4517">
        <ele>66.6</ele>
        <time>2018-12-28T14:03:23Z</time>
      </trkpt>
      <trkpt lat="49.05834" lon="-0.45173">
        <ele>66.3</ele>
        <time>2018-12-28T14:03:25Z</time>
      </trkpt>
      <trkpt lat="49.0583" lon="-0.45175">
        <ele>66</ele>
        <time>2018-12-28T14:03:27Z</time>
      </trkpt>
      <trkpt lat="49.05828" lon="-0.45176">
        <ele>65.8</ele>
        <time>2018-12-28T14:03:29Z</time>
      </trkpt>
      <trkpt lat="49.05825" lon="-0.45178">
        <ele>65.6</ele>
        <time>2018-12-28T14:03:31Z</time>
      </trkpt>
      <trkpt lat="49.05822" lon="-0.45181">
        <ele>65.5</ele>
        <time>2018-12-28T14:03:33Z</time>
      </trkpt>
      <trkpt lat="49.05819" lon="-0.45182">
        <ele>65.5</ele>
        <time>2018-12-28T14:03:35Z</time>
      </trkpt>
      <trkpt lat="49.05816" lon="-0.45184">
        <ele>65.4</ele>
        <time>2018-12-28T14:03:38Z</time>
      </trkpt>
      <trkpt lat="49.05813" lon="-0.45184">
        <ele>65.3</ele>
        <time>2018-12-28T14:03:40Z</time>
      </trkpt>
      <trkpt lat="49.0581" lon="-0.45185">
        <ele>65.3</ele>
        <time>2018-12-28T14:03:43Z</time>
      </trkpt>
      <trkpt lat="49.05806" lon="-0.45185">
        <ele>65.2</ele>
        <time>2018-12-28T14:03:46Z</time>
      </trkpt>
      <trkpt lat="49.05802" lon="-0.45186">
        <ele>65.1</ele>
        <time>2018-12-28T14:03:48Z</time>
      </trkpt>
      <trkpt lat="49.05799" lon="-0.45187">
        <ele>65</ele>
        <time>2018-12-28T14:03:50Z</time>
      </trkpt>
      <trkpt lat="49.05795" lon="-0.45189">
        <ele>65</ele>
        <time>2018-12-28T14:03:53Z</time>
      </trkpt>
      <trkpt lat="49.05792" lon="-0.4519">
        <ele>64.9</ele>
        <time>2018-12-28T14:03:55Z</time>
      </trkpt>
      <trkpt lat="49.05789" lon="-0.45192">
        <ele>64.9</ele>
        <time>2018-12-28T14:03:57Z</time>
      </trkpt>
      <trkpt lat="49.05786" lon="-0.45193">
        <ele>64.8</ele>
        <time>2018-12-28T14:03:59Z</time>
      </trkpt>
      <trkpt lat="49.05782" lon="-0.45195">
        <ele>64.8</ele>
        <time>2018-12-28T14:04:01Z</time>
      </trkpt>
      <trkpt lat="49.05778" lon="-0.45197">
        <ele>64.7</ele>
        <time>2018-12-28T14:04:03Z</time>
      </trkpt>
      <trkpt lat="49.05775" lon="-0.45198">
        <ele>64.6</ele>
        <time>2018-12-28T14:04:05Z</time>
      </trkpt>
      <trkpt lat="49.05772" lon="-0.45201">
        <ele>64.6</ele>
        <time>2018-12-28T14:04:07Z</time>
      </trkpt>
      <trkpt lat="49.05769" lon="-0.45202">
        <ele>64.5</ele>
        <time>2018-12-28T14:04:10Z</time>
      </trkpt>
      <trkpt lat="49.05768" lon="-0.45197">
        <ele>64.5</ele>
        <time>2018-12-28T14:04:14Z</time>
      </trkpt>
      <trkpt lat="49.05768" lon="-0.45192">
        <ele>64.9</ele>
        <time>2018-12-28T14:04:16Z</time>
      </trkpt>
      <trkpt lat="49.05768" lon="-0.45188">
        <ele>65.3</ele>
        <time>2018-12-28T14:04:18Z</time>
      </trkpt>
      <trkpt lat="49.05768" lon="-0.45183">
        <ele>65.7</ele>
        <time>2018-12-28T14:04:20Z</time>
      </trkpt>
      <trkpt lat="49.05769" lon="-0.45177">
        <ele>66.1</ele>
        <time>2018-12-28T14:04:23Z</time>
      </trkpt>
      <trkpt lat="49.0577" lon="-0.45173">
        <ele>66.4</ele>
        <time>2018-12-28T14:04:25Z</time>
      </trkpt>
      <trkpt lat="49.05771" lon="-0.45169">
        <ele>66.7</ele>
        <time>2018-12-28T14:04:27Z</time>
      </trkpt>
      <trkpt lat="49.05773" lon="-0.45164">
        <ele>67</ele>
        <time>2018-12-28T14:04:30Z</time>
      </trkpt>
      <trkpt lat="49.05774" lon="-0.45157">
        <ele>67.3</ele>
        <time>2018-12-28T14:04:33Z</time>
      </trkpt>
      <trkpt lat="49.05775" lon="-0.45153">
        <ele>67.5</ele>
        <time>2018-12-28T14:04:35Z</time>
      </trkpt>
      <trkpt lat="49.05775" lon="-0.45148">
        <ele>67.8</ele>
        <time>2018-12-28T14:04:38Z</time>
      </trkpt>
      <trkpt lat="49.05776" lon="-0.45144">
        <ele>68</ele>
        <time>2018-12-28T14:04:40Z</time>
      </trkpt>
      <trkpt lat="49.05777" lon="-0.45138">
        <ele>68.3</ele>
        <time>2018-12-28T14:04:43Z</time>
      </trkpt>
      <trkpt lat="49.05777" lon="-0.45134">
        <ele>68.4</ele>
        <time>2018-12-28T14:04:45Z</time>
      </trkpt>
      <trkpt lat="49.05778" lon="-0.4513">
        <ele>68.6</ele>
        <time>2018-12-28T14:04:47Z</time>
      </trkpt>
      <trkpt lat="49.05779" lon="-0.45125">
        <ele>68.8</ele>
        <time>2018-12-28T14:04:49Z</time>
      </trkpt>
      <trkpt lat="49.05779" lon="-0.45121">
        <ele>69</ele>
        <time>2018-12-28T14:04:51Z</time>
      </trkpt>
      <trkpt lat="49.05779" lon="-0.45115">
        <ele>69.1</ele>
        <time>2018-12-28T14:04:54Z</time>
      </trkpt>
      <trkpt lat="49.05779" lon="-0.45111">
        <ele>69.3</ele>
        <time>2018-12-28T14:04:56Z</time>
      </trkpt>
      <trkpt lat="49.05779" lon="-0.45106">
        <ele>69.4</ele>
        <time>2018-12-28T14:04:58Z</time>
      </trkpt>
      <trkpt lat="49.05779" lon="-0.45102">
        <ele>69.5</ele>
        <time>2018-12-28T14:05:00Z</time>
      </trkpt>
      <trkpt lat="49.0578" lon="-0.45097">
        <ele>69.6</ele>
        <time>2018-12-28T14:05:03Z</time>
      </trkpt>
      <trkpt lat="49.05782" lon="-0.45093">
        <ele>69.7</ele>
        <time>2018-12-28T14:05:05Z</time>
      </trkpt>
      <trkpt lat="49.05783" lon="-0.45088">
        <ele>69.7</ele>
        <time>2018-12-28T14:05:07Z</time>
      </trkpt>
      <trkpt lat="49.05785" lon="-0.45081">
        <ele>69.8</ele>
        <time>2018-12-28T14:05:09Z</time>
      </trkpt>
      <trkpt lat="49.05786" lon="-0.45076">
        <ele>69.9</ele>
        <time>2018-12-28T14:05:11Z</time>
      </trkpt>
      <trkpt lat="49.05786" lon="-0.45069">
        <ele>70</ele>
        <time>2018-12-28T14:05:13Z</time>
      </trkpt>
      <trkpt lat="49.05786" lon="-0.45065">
        <ele>70.1</ele>
        <time>2018-12-28T14:05:15Z</time>
      </trkpt>
      <trkpt lat="49.05786" lon="-0.4506">
        <ele>70.3</ele>
        <time>2018-12-28T14:05:17Z</time>
      </trkpt>
      <trkpt lat="49.05786" lon="-0.45056">
        <ele>70.4</ele>
        <time>2018-12-28T14:05:20Z</time>
      </trkpt>
      <trkpt lat="49.05785" lon="-0.45051">
        <ele>70.6</ele>
        <time>2018-12-28T14:05:23Z</time>
      </trkpt>
      <trkpt lat="49.05784" lon="-0.45045">
        <ele>70.9</ele>
        <time>2018-12-28T14:05:25Z</time>
      </trkpt>
      <trkpt lat="49.05785" lon="-0.45041">
        <ele>71.1</ele>
        <time>2018-12-28T14:05:27Z</time>
      </trkpt>
      <trkpt lat="49.05785" lon="-0.45035">
        <ele>71.3</ele>
        <time>2018-12-28T14:05:30Z</time>
      </trkpt>
      <trkpt lat="49.05785" lon="-0.45029">
        <ele>71.6</ele>
        <time>2018-12-28T14:05:33Z</time>
      </trkpt>
      <trkpt lat="49.05785" lon="-0.45025">
        <ele>71.8</ele>
        <time>2018-12-28T14:05:35Z</time>
      </trkpt>
      <trkpt lat="49.05786" lon="-0.45019">
        <ele>72.1</ele>
        <time>2018-12-28T14:05:37Z</time>
      </trkpt>
      <trkpt lat="49.05786" lon="-0.45014">
        <ele>72.4</ele>
        <time>2018-12-28T14:05:39Z</time>
      </trkpt>
      <trkpt lat="49.05787" lon="-0.45009">
        <ele>72.6</ele>
        <time>2018-12-28T14:05:41Z</time>
      </trkpt>
      <trkpt lat="49.05788" lon="-0.45004">
        <ele>72.9</ele>
        <time>2018-12-28T14:05:43Z</time>
      </trkpt>
      <trkpt lat="49.05789" lon="-0.45">
        <ele>73.1</ele>
        <time>2018-12-28T14:05:45Z</time>
      </trkpt>
      <trkpt lat="49.05789" lon="-0.44995">
        <ele>73.4</ele>
        <time>2018-12-28T14:05:47Z</time>
      </trkpt>
      <trkpt lat="49.0579" lon="-0.44989">
        <ele>73.7</ele>
        <time>2018-12-28T14:05:50Z</time>
      </trkpt>
      <trkpt lat="49.05791" lon="-0.44983">
        <ele>74</ele>
        <time>2018-12-28T14:05:54Z</time>
      </trkpt>
      <trkpt lat="49.05791" lon="-0.44979">
        <ele>74.2</ele>
        <time>2018-12-28T14:05:56Z</time>
      </trkpt>
      <trkpt lat="49.05793" lon="-0.44973">
        <ele>74.6</ele>
        <time>2018-12-28T14:05:59Z</time>
      </trkpt>
      <trkpt lat="49.05793" lon="-0.44969">
        <ele>74.5</ele>
        <time>2018-12-28T14:06:02Z</time>
      </trkpt>
      <trkpt lat="49.05795" lon="-0.44964">
        <ele>74.5</ele>
        <time>2018-12-28T14:06:06Z</time>
      </trkpt>
      <trkpt lat="49.05797" lon="-0.44959">
        <ele>74.4</ele>
        <time>2018-12-28T14:06:09Z</time>
      </trkpt>
      <trkpt lat="49.05799" lon="-0.44954">
        <ele>74.4</ele>
        <time>2018-12-28T14:06:11Z</time>
      </trkpt>
      <trkpt lat="49.05802" lon="-0.44947">
        <ele>74.3</ele>
        <time>2018-12-28T14:06:13Z</time>
      </trkpt>
      <trkpt lat="49.05802" lon="-0.44943">
        <ele>74.3</ele>
        <time>2018-12-28T14:06:14Z</time>
      </trkpt>
      <trkpt lat="49.05804" lon="-0.44939">
        <ele>74.2</ele>
        <time>2018-12-28T14:06:15Z</time>
      </trkpt>
      <trkpt lat="49.05805" lon="-0.44934">
        <ele>74.2</ele>
        <time>2018-12-28T14:06:17Z</time>
      </trkpt>
      <trkpt lat="49.05804" lon="-0.44928">
        <ele>74.2</ele>
        <time>2018-12-28T14:06:19Z</time>
      </trkpt>
      <trkpt lat="49.05805" lon="-0.44924">
        <ele>74.2</ele>
        <time>2018-12-28T14:06:22Z</time>
      </trkpt>
      <trkpt lat="49.05808" lon="-0.44918">
        <ele>74.2</ele>
        <time>2018-12-28T14:06:28Z</time>
      </trkpt>
      <trkpt lat="49.05809" lon="-0.44913">
        <ele>74.2</ele>
        <time>2018-12-28T14:06:29Z</time>
      </trkpt>
      <trkpt lat="49.05811" lon="-0.44908">
        <ele>74.2</ele>
        <time>2018-12-28T14:06:30Z</time>
      </trkpt>
      <trkpt lat="49.05811" lon="-0.44903">
        <ele>74.2</ele>
        <time>2018-12-28T14:06:31Z</time>
      </trkpt>
      <trkpt lat="49.05812" lon="-0.44898">
        <ele>74.2</ele>
        <time>2018-12-28T14:06:33Z</time>
      </trkpt>
      <trkpt lat="49.05813" lon="-0.44893">
        <ele>74.3</ele>
        <time>2018-12-28T14:06:35Z</time>
      </trkpt>
      <trkpt lat="49.05814" lon="-0.44888">
        <ele>74.3</ele>
        <time>2018-12-28T14:06:37Z</time>
      </trkpt>
      <trkpt lat="49.05814" lon="-0.44883">
        <ele>74.3</ele>
        <time>2018-12-28T14:06:39Z</time>
      </trkpt>
      <trkpt lat="49.05815" lon="-0.44879">
        <ele>74.4</ele>
        <time>2018-12-28T14:06:45Z</time>
      </trkpt>
      <trkpt lat="49.05816" lon="-0.44874">
        <ele>74.4</ele>
        <time>2018-12-28T14:06:48Z</time>
      </trkpt>
      <trkpt lat="49.05817" lon="-0.44868">
        <ele>74.5</ele>
        <time>2018-12-28T14:06:52Z</time>
      </trkpt>
      <trkpt lat="49.05817" lon="-0.44863">
        <ele>74.5</ele>
        <time>2018-12-28T14:06:54Z</time>
      </trkpt>
      <trkpt lat="49.05818" lon="-0.44859">
        <ele>74.6</ele>
        <time>2018-12-28T14:06:56Z</time>
      </trkpt>
      <trkpt lat="49.05819" lon="-0.44854">
        <ele>74.7</ele>
        <time>2018-12-28T14:06:58Z</time>
      </trkpt>
      <trkpt lat="49.05821" lon="-0.44847">
        <ele>74.8</ele>
        <time>2018-12-28T14:07:00Z</time>
      </trkpt>
      <trkpt lat="49.05821" lon="-0.44843">
        <ele>74.8</ele>
        <time>2018-12-28T14:07:01Z</time>
      </trkpt>
      <trkpt lat="49.05822" lon="-0.44838">
        <ele>74.8</ele>
        <time>2018-12-28T14:07:02Z</time>
      </trkpt>
      <trkpt lat="49.05821" lon="-0.44833">
        <ele>74.9</ele>
        <time>2018-12-28T14:07:04Z</time>
      </trkpt>
      <trkpt lat="49.05821" lon="-0.44828">
        <ele>74.9</ele>
        <time>2018-12-28T14:07:06Z</time>
      </trkpt>
      <trkpt lat="49.05822" lon="-0.44822">
        <ele>74.9</ele>
        <time>2018-12-28T14:07:09Z</time>
      </trkpt>
      <trkpt lat="49.05823" lon="-0.44818">
        <ele>75</ele>
        <time>2018-12-28T14:07:11Z</time>
      </trkpt>
      <trkpt lat="49.05824" lon="-0.44812">
        <ele>75</ele>
        <time>2018-12-28T14:07:14Z</time>
      </trkpt>
      <trkpt lat="49.05824" lon="-0.44808">
        <ele>75</ele>
        <time>2018-12-28T14:07:16Z</time>
      </trkpt>
      <trkpt lat="49.05823" lon="-0.44802">
        <ele>75</ele>
        <time>2018-12-28T14:07:18Z</time>
      </trkpt>
      <trkpt lat="49.05824" lon="-0.44796">
        <ele>75</ele>
        <time>2018-12-28T14:07:20Z</time>
      </trkpt>
      <trkpt lat="49.05823" lon="-0.44791">
        <ele>75</ele>
        <time>2018-12-28T14:07:22Z</time>
      </trkpt>
      <trkpt lat="49.05822" lon="-0.44785">
        <ele>75</ele>
        <time>2018-12-28T14:07:24Z</time>
      </trkpt>
      <trkpt lat="49.05822" lon="-0.44781">
        <ele>75</ele>
        <time>2018-12-28T14:07:26Z</time>
      </trkpt>
      <trkpt lat="49.05821" lon="-0.44776">
        <ele>75</ele>
        <time>2018-12-28T14:07:28Z</time>
      </trkpt>
      <trkpt lat="49.05822" lon="-0.44772">
        <ele>75</ele>
        <time>2018-12-28T14:07:31Z</time>
      </trkpt>
      <trkpt lat="49.05823" lon="-0.44766">
        <ele>75</ele>
        <time>2018-12-28T14:07:36Z</time>
      </trkpt>
      <trkpt lat="49.05823" lon="-0.4476">
        <ele>75</ele>
        <time>2018-12-28T14:07:38Z</time>
      </trkpt>
      <trkpt lat="49.05824" lon="-0.44756">
        <ele>74.9</ele>
        <time>2018-12-28T14:07:40Z</time>
      </trkpt>
      <trkpt lat="49.05824" lon="-0.44752">
        <ele>74.9</ele>
        <time>2018-12-28T14:07:42Z</time>
      </trkpt>
      <trkpt lat="49.05825" lon="-0.44747">
        <ele>74.9</ele>
        <time>2018-12-28T14:07:44Z</time>
      </trkpt>
      <trkpt lat="49.05826" lon="-0.44743">
        <ele>74.8</ele>
        <time>2018-12-28T14:07:46Z</time>
      </trkpt>
      <trkpt lat="49.05827" lon="-0.44737">
        <ele>74.8</ele>
        <time>2018-12-28T14:07:49Z</time>
      </trkpt>
      <trkpt lat="49.05828" lon="-0.44732">
        <ele>74.7</ele>
        <time>2018-12-28T14:07:52Z</time>
      </trkpt>
      <trkpt lat="49.05829" lon="-0.44728">
        <ele>74.7</ele>
        <time>2018-12-28T14:07:54Z</time>
      </trkpt>
      <trkpt lat="49.05829" lon="-0.44723">
        <ele>74.6</ele>
        <time>2018-12-28T14:07:56Z</time>
      </trkpt>
      <trkpt lat="49.0583" lon="-0.44719">
        <ele>74.6</ele>
        <time>2018-12-28T14:07:58Z</time>
      </trkpt>
      <trkpt lat="49.0583" lon="-0.44714">
        <ele>74.5</ele>
        <time>2018-12-28T14:08:00Z</time>
      </trkpt>
      <trkpt lat="49.0583" lon="-0.4471">
        <ele>74.5</ele>
        <time>2018-12-28T14:08:03Z</time>
      </trkpt>
      <trkpt lat="49.05832" lon="-0.44703">
        <ele>74.4</ele>
        <time>2018-12-28T14:08:08Z</time>
      </trkpt>
      <trkpt lat="49.05832" lon="-0.44698">
        <ele>74.4</ele>
        <time>2018-12-28T14:08:10Z</time>
      </trkpt>
      <trkpt lat="49.05832" lon="-0.44694">
        <ele>74.3</ele>
        <time>2018-12-28T14:08:12Z</time>
      </trkpt>
      <trkpt lat="49.05832" lon="-0.44689">
        <ele>74.3</ele>
        <time>2018-12-28T14:08:14Z</time>
      </trkpt>
      <trkpt lat="49.05833" lon="-0.44683">
        <ele>74.2</ele>
        <time>2018-12-28T14:08:16Z</time>
      </trkpt>
      <trkpt lat="49.05834" lon="-0.44678">
        <ele>74.1</ele>
        <time>2018-12-28T14:08:18Z</time>
      </trkpt>
      <trkpt lat="49.05834" lon="-0.44674">
        <ele>74.1</ele>
        <time>2018-12-28T14:08:20Z</time>
      </trkpt>
      <trkpt lat="49.05835" lon="-0.44669">
        <ele>74.1</ele>
        <time>2018-12-28T14:08:22Z</time>
      </trkpt>
      <trkpt lat="49.05834" lon="-0.44664">
        <ele>74.2</ele>
        <time>2018-12-28T14:08:24Z</time>
      </trkpt>
      <trkpt lat="49.05833" lon="-0.44659">
        <ele>74.2</ele>
        <time>2018-12-28T14:08:26Z</time>
      </trkpt>
      <trkpt lat="49.0583" lon="-0.44656">
        <ele>74.3</ele>
        <time>2018-12-28T14:08:29Z</time>
      </trkpt>
      <trkpt lat="49.05826" lon="-0.44655">
        <ele>74.3</ele>
        <time>2018-12-28T14:08:32Z</time>
      </trkpt>
      <trkpt lat="49.05823" lon="-0.44654">
        <ele>74.4</ele>
        <time>2018-12-28T14:08:34Z</time>
      </trkpt>
      <trkpt lat="49.05819" lon="-0.44654">
        <ele>74.4</ele>
        <time>2018-12-28T14:08:37Z</time>
      </trkpt>
      <trkpt lat="49.05816" lon="-0.44654">
        <ele>74.5</ele>
        <time>2018-12-28T14:08:40Z</time>
      </trkpt>
      <trkpt lat="49.05812" lon="-0.44654">
        <ele>74.6</ele>
        <time>2018-12-28T14:08:43Z</time>
      </trkpt>
      <trkpt lat="49.05808" lon="-0.44653">
        <ele>74.6</ele>
        <time>2018-12-28T14:08:45Z</time>
      </trkpt>
      <trkpt lat="49.05804" lon="-0.44652">
        <ele>74.7</ele>
        <time>2018-12-28T14:08:47Z</time>
      </trkpt>
      <trkpt lat="49.058" lon="-0.4465">
        <ele>74.7</ele>
        <time>2018-12-28T14:08:49Z</time>
      </trkpt>
      <trkpt lat="49.05796" lon="-0.44647">
        <ele>74.8</ele>
        <time>2018-12-28T14:08:51Z</time>
      </trkpt>
      <trkpt lat="49.05791" lon="-0.44645">
        <ele>74.9</ele>
        <time>2018-12-28T14:08:53Z</time>
      </trkpt>
      <trkpt lat="49.05788" lon="-0.44642">
        <ele>74.9</ele>
        <time>2018-12-28T14:08:55Z</time>
      </trkpt>
      <trkpt lat="49.05784" lon="-0.4464">
        <ele>74.9</ele>
        <time>2018-12-28T14:08:58Z</time>
      </trkpt>
      <trkpt lat="49.05781" lon="-0.44637">
        <ele>75</ele>
        <time>2018-12-28T14:09:01Z</time>
      </trkpt>
      <trkpt lat="49.05778" lon="-0.44636">
        <ele>75</ele>
        <time>2018-12-28T14:09:03Z</time>
      </trkpt>
      <trkpt lat="49.05775" lon="-0.44635">
        <ele>75</ele>
        <time>2018-12-28T14:09:05Z</time>
      </trkpt>
      <trkpt lat="49.05772" lon="-0.44635">
        <ele>75.1</ele>
        <time>2018-12-28T14:09:08Z</time>
      </trkpt>
      <trkpt lat="49.05769" lon="-0.44633">
        <ele>75.1</ele>
        <time>2018-12-28T14:09:13Z</time>
      </trkpt>
      <trkpt lat="49.05765" lon="-0.44631">
        <ele>75.2</ele>
        <time>2018-12-28T14:09:15Z</time>
      </trkpt>
      <trkpt lat="49.05761" lon="-0.44629">
        <ele>75.2</ele>
        <time>2018-12-28T14:09:17Z</time>
      </trkpt>
      <trkpt lat="49.05759" lon="-0.44627">
        <ele>75.2</ele>
        <time>2018-12-28T14:09:19Z</time>
      </trkpt>
      <trkpt lat="49.05754" lon="-0.44625">
        <ele>75.3</ele>
        <time>2018-12-28T14:09:23Z</time>
      </trkpt>
      <trkpt lat="49.05751" lon="-0.44623">
        <ele>75.3</ele>
        <time>2018-12-28T14:09:25Z</time>
      </trkpt>
      <trkpt lat="49.05748" lon="-0.44623">
        <ele>75.4</ele>
        <time>2018-12-28T14:09:27Z</time>
      </trkpt>
      <trkpt lat="49.05744" lon="-0.44622">
        <ele>75.4</ele>
        <time>2018-12-28T14:09:30Z</time>
      </trkpt>
      <trkpt lat="49.05741" lon="-0.44621">
        <ele>75.4</ele>
        <time>2018-12-28T14:09:32Z</time>
      </trkpt>
      <trkpt lat="49.05739" lon="-0.44619">
        <ele>75.5</ele>
        <time>2018-12-28T14:09:34Z</time>
      </trkpt>
      <trkpt lat="49.05735" lon="-0.44616">
        <ele>75.5</ele>
        <time>2018-12-28T14:09:36Z</time>
      </trkpt>
      <trkpt lat="49.05733" lon="-0.44614">
        <ele>75.5</ele>
        <time>2018-12-28T14:09:37Z</time>
      </trkpt>
      <trkpt lat="49.0573" lon="-0.44611">
        <ele>75.6</ele>
        <time>2018-12-28T14:09:38Z</time>
      </trkpt>
      <trkpt lat="49.05727" lon="-0.44609">
        <ele>75.6</ele>
        <time>2018-12-28T14:09:40Z</time>
      </trkpt>
      <trkpt lat="49.05724" lon="-0.44607">
        <ele>75.7</ele>
        <time>2018-12-28T14:09:42Z</time>
      </trkpt>
      <trkpt lat="49.05721" lon="-0.44605">
        <ele>75.7</ele>
        <time>2018-12-28T14:09:44Z</time>
      </trkpt>
      <trkpt lat="49.05718" lon="-0.44603">
        <ele>75.7</ele>
        <time>2018-12-28T14:09:46Z</time>
      </trkpt>
      <trkpt lat="49.05715" lon="-0.44602">
        <ele>75.7</ele>
        <time>2018-12-28T14:09:49Z</time>
      </trkpt>
      <trkpt lat="49.05712" lon="-0.44601">
        <ele>75.8</ele>
        <time>2018-12-28T14:09:51Z</time>
      </trkpt>
      <trkpt lat="49.05709" lon="-0.44599">
        <ele>75.8</ele>
        <time>2018-12-28T14:09:54Z</time>
      </trkpt>
      <trkpt lat="49.05706" lon="-0.44598">
        <ele>75.8</ele>
        <time>2018-12-28T14:09:56Z</time>
      </trkpt>
      <trkpt lat="49.05703" lon="-0.44596">
        <ele>75.9</ele>
        <time>2018-12-28T14:09:58Z</time>
      </trkpt>
      <trkpt lat="49.057" lon="-0.44594">
        <ele>75.9</ele>
        <time>2018-12-28T14:10:00Z</time>
      </trkpt>
      <trkpt lat="49.05696" lon="-0.44591">
        <ele>75.9</ele>
        <time>2018-12-28T14:10:03Z</time>
      </trkpt>
      <trkpt lat="49.05693" lon="-0.44588">
        <ele>76</ele>
        <time>2018-12-28T14:10:05Z</time>
      </trkpt>
      <trkpt lat="49.05689" lon="-0.44586">
        <ele>76</ele>
        <time>2018-12-28T14:10:08Z</time>
      </trkpt>
      <trkpt lat="49.05686" lon="-0.44584">
        <ele>76</ele>
        <time>2018-12-28T14:10:10Z</time>
      </trkpt>
      <trkpt lat="49.05683" lon="-0.44583">
        <ele>76.1</ele>
        <time>2018-12-28T14:10:12Z</time>
      </trkpt>
      <trkpt lat="49.0568" lon="-0.44581">
        <ele>76.1</ele>
        <time>2018-12-28T14:10:14Z</time>
      </trkpt>
      <trkpt lat="49.05677" lon="-0.44579">
        <ele>76.1</ele>
        <time>2018-12-28T14:10:16Z</time>
      </trkpt>
      <trkpt lat="49.05673" lon="-0.44576">
        <ele>76.2</ele>
        <time>2018-12-28T14:10:19Z</time>
      </trkpt>
      <trkpt lat="49.0567" lon="-0.44575">
        <ele>76.2</ele>
        <time>2018-12-28T14:10:21Z</time>
      </trkpt>
      <trkpt lat="49.05666" lon="-0.44572">
        <ele>76.2</ele>
        <time>2018-12-28T14:10:23Z</time>
      </trkpt>
      <trkpt lat="49.05663" lon="-0.44571">
        <ele>76.3</ele>
        <time>2018-12-28T14:10:25Z</time>
      </trkpt>
      <trkpt lat="49.0566" lon="-0.44569">
        <ele>76.3</ele>
        <time>2018-12-28T14:10:28Z</time>
      </trkpt>
      <trkpt lat="49.05657" lon="-0.44567">
        <ele>76.3</ele>
        <time>2018-12-28T14:10:32Z</time>
      </trkpt>
      <trkpt lat="49.05654" lon="-0.44566">
        <ele>76.4</ele>
        <time>2018-12-28T14:10:36Z</time>
      </trkpt>
      <trkpt lat="49.05651" lon="-0.44565">
        <ele>76.4</ele>
        <time>2018-12-28T14:10:39Z</time>
      </trkpt>
      <trkpt lat="49.05648" lon="-0.44563">
        <ele>76.4</ele>
        <time>2018-12-28T14:10:41Z</time>
      </trkpt>
      <trkpt lat="49.05644" lon="-0.4456">
        <ele>76.5</ele>
        <time>2018-12-28T14:10:44Z</time>
      </trkpt>
      <trkpt lat="49.05641" lon="-0.44558">
        <ele>76.5</ele>
        <time>2018-12-28T14:10:46Z</time>
      </trkpt>
      <trkpt lat="49.05638" lon="-0.44556">
        <ele>76.4</ele>
        <time>2018-12-28T14:10:48Z</time>
      </trkpt>
      <trkpt lat="49.05635" lon="-0.44555">
        <ele>76.3</ele>
        <time>2018-12-28T14:10:49Z</time>
      </trkpt>
      <trkpt lat="49.05632" lon="-0.44554">
        <ele>76.2</ele>
        <time>2018-12-28T14:10:51Z</time>
      </trkpt>
      <trkpt lat="49.05628" lon="-0.44552">
        <ele>76</ele>
        <time>2018-12-28T14:10:53Z</time>
      </trkpt>
      <trkpt lat="49.05625" lon="-0.44549">
        <ele>75.9</ele>
        <time>2018-12-28T14:10:55Z</time>
      </trkpt>
      <trkpt lat="49.05621" lon="-0.44547">
        <ele>75.7</ele>
        <time>2018-12-28T14:10:58Z</time>
      </trkpt>
      <trkpt lat="49.05618" lon="-0.44545">
        <ele>75.6</ele>
        <time>2018-12-28T14:11:00Z</time>
      </trkpt>
      <trkpt lat="49.05614" lon="-0.44543">
        <ele>75.5</ele>
        <time>2018-12-28T14:11:03Z</time>
      </trkpt>
      <trkpt lat="49.05611" lon="-0.44541">
        <ele>75.4</ele>
        <time>2018-12-28T14:11:06Z</time>
      </trkpt>
      <trkpt lat="49.05608" lon="-0.44539">
        <ele>75.4</ele>
        <time>2018-12-28T14:11:08Z</time>
      </trkpt>
      <trkpt lat="49.05605" lon="-0.44537">
        <ele>75.3</ele>
        <time>2018-12-28T14:11:10Z</time>
      </trkpt>
      <trkpt lat="49.05601" lon="-0.44535">
        <ele>75.3</ele>
        <time>2018-12-28T14:11:13Z</time>
      </trkpt>
      <trkpt lat="49.05599" lon="-0.44533">
        <ele>75.3</ele>
        <time>2018-12-28T14:11:15Z</time>
      </trkpt>
      <trkpt lat="49.05596" lon="-0.44532">
        <ele>75.4</ele>
        <time>2018-12-28T14:11:17Z</time>
      </trkpt>
      <trkpt lat="49.05593" lon="-0.44529">
        <ele>75.4</ele>
        <time>2018-12-28T14:11:19Z</time>
      </trkpt>
      <trkpt lat="49.0559" lon="-0.44527">
        <ele>75.4</ele>
        <time>2018-12-28T14:11:21Z</time>
      </trkpt>
      <trkpt lat="49.05587" lon="-0.44526">
        <ele>75.4</ele>
        <time>2018-12-28T14:11:24Z</time>
      </trkpt>
      <trkpt lat="49.05584" lon="-0.44524">
        <ele>75.4</ele>
        <time>2018-12-28T14:11:27Z</time>
      </trkpt>
      <trkpt lat="49.0558" lon="-0.44522">
        <ele>75.4</ele>
        <time>2018-12-28T14:11:30Z</time>
      </trkpt>
      <trkpt lat="49.05577" lon="-0.44521">
        <ele>75.4</ele>
        <time>2018-12-28T14:11:33Z</time>
      </trkpt>
      <trkpt lat="49.05574" lon="-0.44519">
        <ele>75.4</ele>
        <time>2018-12-28T14:11:35Z</time>
      </trkpt>
      <trkpt lat="49.0557" lon="-0.44517">
        <ele>75.4</ele>
        <time>2018-12-28T14:11:38Z</time>
      </trkpt>
      <trkpt lat="49.05567" lon="-0.44516">
        <ele>75.5</ele>
        <time>2018-12-28T14:11:41Z</time>
      </trkpt>
      <trkpt lat="49.05564" lon="-0.44515">
        <ele>75.5</ele>
        <time>2018-12-28T14:11:43Z</time>
      </trkpt>
      <trkpt lat="49.05561" lon="-0.44515">
        <ele>75.6</ele>
        <time>2018-12-28T14:11:45Z</time>
      </trkpt>
      <trkpt lat="49.05558" lon="-0.44515">
        <ele>75.7</ele>
        <time>2018-12-28T14:11:48Z</time>
      </trkpt>
      <trkpt lat="49.05554" lon="-0.44511">
        <ele>75.8</ele>
        <time>2018-12-28T14:11:53Z</time>
      </trkpt>
      <trkpt lat="49.0555" lon="-0.44507">
        <ele>76</ele>
        <time>2018-12-28T14:11:55Z</time>
      </trkpt>
      <trkpt lat="49.05546" lon="-0.44505">
        <ele>75.9</ele>
        <time>2018-12-28T14:11:57Z</time>
      </trkpt>
      <trkpt lat="49.05543" lon="-0.44502">
        <ele>75.9</ele>
        <time>2018-12-28T14:11:59Z</time>
      </trkpt>
      <trkpt lat="49.0554" lon="-0.44499">
        <ele>75.9</ele>
        <time>2018-12-28T14:12:01Z</time>
      </trkpt>
      <trkpt lat="49.05536" lon="-0.44495">
        <ele>75.8</ele>
        <time>2018-12-28T14:12:03Z</time>
      </trkpt>
      <trkpt lat="49.05534" lon="-0.44491">
        <ele>75.8</ele>
        <time>2018-12-28T14:12:05Z</time>
      </trkpt>
      <trkpt lat="49.05531" lon="-0.44489">
        <ele>75.8</ele>
        <time>2018-12-28T14:12:07Z</time>
      </trkpt>
      <trkpt lat="49.05529" lon="-0.44487">
        <ele>75.8</ele>
        <time>2018-12-28T14:12:09Z</time>
      </trkpt>
      <trkpt lat="49.05526" lon="-0.44486">
        <ele>75.8</ele>
        <time>2018-12-28T14:12:11Z</time>
      </trkpt>
      <trkpt lat="49.05522" lon="-0.44485">
        <ele>75.7</ele>
        <time>2018-12-28T14:12:14Z</time>
      </trkpt>
      <trkpt lat="49.0552" lon="-0.44483">
        <ele>75.7</ele>
        <time>2018-12-28T14:12:16Z</time>
      </trkpt>
      <trkpt lat="49.05517" lon="-0.44482">
        <ele>75.7</ele>
        <time>2018-12-28T14:12:18Z</time>
      </trkpt>
      <trkpt lat="49.05514" lon="-0.44481">
        <ele>75.7</ele>
        <time>2018-12-28T14:12:20Z</time>
      </trkpt>
      <trkpt lat="49.05511" lon="-0.4448">
        <ele>75.7</ele>
        <time>2018-12-28T14:12:22Z</time>
      </trkpt>
      <trkpt lat="49.05508" lon="-0.44479">
        <ele>75.7</ele>
        <time>2018-12-28T14:12:24Z</time>
      </trkpt>
      <trkpt lat="49.05505" lon="-0.44477">
        <ele>75.7</ele>
        <time>2018-12-28T14:12:26Z</time>
      </trkpt>
      <trkpt lat="49.05502" lon="-0.44476">
        <ele>75.7</ele>
        <time>2018-12-28T14:12:28Z</time>
      </trkpt>
      <trkpt lat="49.05499" lon="-0.44475">
        <ele>75.7</ele>
        <time>2018-12-28T14:12:31Z</time>
      </trkpt>
      <trkpt lat="49.05496" lon="-0.44474">
        <ele>75.7</ele>
        <time>2018-12-28T14:12:34Z</time>
      </trkpt>
      <trkpt lat="49.05492" lon="-0.44471">
        <ele>75.7</ele>
        <time>2018-12-28T14:12:37Z</time>
      </trkpt>
      <trkpt lat="49.05489" lon="-0.4447">
        <ele>75.8</ele>
        <time>2018-12-28T14:12:40Z</time>
      </trkpt>
      <trkpt lat="49.05486" lon="-0.4447">
        <ele>75.8</ele>
        <time>2018-12-28T14:12:42Z</time>
      </trkpt>
      <trkpt lat="49.05483" lon="-0.44467">
        <ele>75.9</ele>
        <time>2018-12-28T14:12:45Z</time>
      </trkpt>
      <trkpt lat="49.0548" lon="-0.44466">
        <ele>75.9</ele>
        <time>2018-12-28T14:12:47Z</time>
      </trkpt>
      <trkpt lat="49.05476" lon="-0.44465">
        <ele>75.9</ele>
        <time>2018-12-28T14:12:50Z</time>
      </trkpt>
      <trkpt lat="49.05472" lon="-0.44464">
        <ele>75.9</ele>
        <time>2018-12-28T14:12:53Z</time>
      </trkpt>
      <trkpt lat="49.05469" lon="-0.44462">
        <ele>76</ele>
        <time>2018-12-28T14:12:55Z</time>
      </trkpt>
      <trkpt lat="49.05467" lon="-0.44461">
        <ele>76</ele>
        <time>2018-12-28T14:12:57Z</time>
      </trkpt>
      <trkpt lat="49.05464" lon="-0.44458">
        <ele>76</ele>
        <time>2018-12-28T14:12:59Z</time>
      </trkpt>
      <trkpt lat="49.05461" lon="-0.44456">
        <ele>76</ele>
        <time>2018-12-28T14:13:02Z</time>
      </trkpt>
      <trkpt lat="49.05458" lon="-0.44454">
        <ele>76</ele>
        <time>2018-12-28T14:13:04Z</time>
      </trkpt>
      <trkpt lat="49.05455" lon="-0.44452">
        <ele>76.1</ele>
        <time>2018-12-28T14:13:06Z</time>
      </trkpt>
      <trkpt lat="49.05451" lon="-0.44451">
        <ele>76.1</ele>
        <time>2018-12-28T14:13:09Z</time>
      </trkpt>
      <trkpt lat="49.05448" lon="-0.4445">
        <ele>76.1</ele>
        <time>2018-12-28T14:13:11Z</time>
      </trkpt>
      <trkpt lat="49.05444" lon="-0.44449">
        <ele>76.1</ele>
        <time>2018-12-28T14:13:13Z</time>
      </trkpt>
      <trkpt lat="49.0544" lon="-0.44446">
        <ele>76.2</ele>
        <time>2018-12-28T14:13:15Z</time>
      </trkpt>
      <trkpt lat="49.05437" lon="-0.44443">
        <ele>76.2</ele>
        <time>2018-12-28T14:13:16Z</time>
      </trkpt>
      <trkpt lat="49.05434" lon="-0.44439">
        <ele>76.2</ele>
        <time>2018-12-28T14:13:18Z</time>
      </trkpt>
      <trkpt lat="49.05431" lon="-0.44437">
        <ele>76.2</ele>
        <time>2018-12-28T14:13:20Z</time>
      </trkpt>
      <trkpt lat="49.05427" lon="-0.44435">
        <ele>76.3</ele>
        <time>2018-12-28T14:13:22Z</time>
      </trkpt>
      <trkpt lat="49.05425" lon="-0.44434">
        <ele>76.3</ele>
        <time>2018-12-28T14:13:24Z</time>
      </trkpt>
      <trkpt lat="49.05422" lon="-0.44433">
        <ele>76.3</ele>
        <time>2018-12-28T14:13:26Z</time>
      </trkpt>
      <trkpt lat="49.05419" lon="-0.44431">
        <ele>76.4</ele>
        <time>2018-12-28T14:13:29Z</time>
      </trkpt>
      <trkpt lat="49.05415" lon="-0.4443">
        <ele>76.4</ele>
        <time>2018-12-28T14:13:32Z</time>
      </trkpt>
      <trkpt lat="49.05412" lon="-0.44427">
        <ele>76.5</ele>
        <time>2018-12-28T14:13:35Z</time>
      </trkpt>
      <trkpt lat="49.05408" lon="-0.44426">
        <ele>76.6</ele>
        <time>2018-12-28T14:13:37Z</time>
      </trkpt>
      <trkpt lat="49.05405" lon="-0.44425">
        <ele>76.7</ele>
        <time>2018-12-28T14:13:39Z</time>
      </trkpt>
      <trkpt lat="49.05401" lon="-0.44424">
        <ele>76.8</ele>
        <time>2018-12-28T14:13:41Z</time>
      </trkpt>
      <trkpt lat="49.05398" lon="-0.44424">
        <ele>76.9</ele>
        <time>2018-12-28T14:13:43Z</time>
      </trkpt>
      <trkpt lat="49.05394" lon="-0.44422">
        <ele>77</ele>
        <time>2018-12-28T14:13:45Z</time>
      </trkpt>
      <trkpt lat="49.05391" lon="-0.44419">
        <ele>77.2</ele>
        <time>2018-12-28T14:13:48Z</time>
      </trkpt>
      <trkpt lat="49.05388" lon="-0.44418">
        <ele>77.3</ele>
        <time>2018-12-28T14:13:51Z</time>
      </trkpt>
      <trkpt lat="49.05385" lon="-0.44415">
        <ele>77.5</ele>
        <time>2018-12-28T14:13:55Z</time>
      </trkpt>
      <trkpt lat="49.05383" lon="-0.44413">
        <ele>77.7</ele>
        <time>2018-12-28T14:13:57Z</time>
      </trkpt>
      <trkpt lat="49.05379" lon="-0.44411">
        <ele>77.9</ele>
        <time>2018-12-28T14:14:00Z</time>
      </trkpt>
      <trkpt lat="49.05376" lon="-0.44408">
        <ele>78.1</ele>
        <time>2018-12-28T14:14:03Z</time>
      </trkpt>
      <trkpt lat="49.05373" lon="-0.44404">
        <ele>78.3</ele>
        <time>2018-12-28T14:14:06Z</time>
      </trkpt>
      <trkpt lat="49.0537" lon="-0.44403">
        <ele>78.4</ele>
        <time>2018-12-28T14:14:08Z</time>
      </trkpt>
      <trkpt lat="49.05366" lon="-0.44403">
        <ele>78.6</ele>
        <time>2018-12-28T14:14:10Z</time>
      </trkpt>
      <trkpt lat="49.05362" lon="-0.44402">
        <ele>78.7</ele>
        <time>2018-12-28T14:14:12Z</time>
      </trkpt>
      <trkpt lat="49.05359" lon="-0.44401">
        <ele>78.8</ele>
        <time>2018-12-28T14:14:14Z</time>
      </trkpt>
      <trkpt lat="49.05355" lon="-0.44399">
        <ele>78.9</ele>
        <time>2018-12-28T14:14:16Z</time>
      </trkpt>
      <trkpt lat="49.05353" lon="-0.44396">
        <ele>79.1</ele>
        <time>2018-12-28T14:14:18Z</time>
      </trkpt>
      <trkpt lat="49.0535" lon="-0.44393">
        <ele>79.2</ele>
        <time>2018-12-28T14:14:20Z</time>
      </trkpt>
      <trkpt lat="49.05348" lon="-0.4439">
        <ele>79.3</ele>
        <time>2018-12-28T14:14:22Z</time>
      </trkpt>
      <trkpt lat="49.05344" lon="-0.44388">
        <ele>79.4</ele>
        <time>2018-12-28T14:14:25Z</time>
      </trkpt>
      <trkpt lat="49.05341" lon="-0.44387">
        <ele>79.5</ele>
        <time>2018-12-28T14:14:28Z</time>
      </trkpt>
      <trkpt lat="49.05337" lon="-0.44388">
        <ele>79.6</ele>
        <time>2018-12-28T14:14:31Z</time>
      </trkpt>
      <trkpt lat="49.05334" lon="-0.44387">
        <ele>79.7</ele>
        <time>2018-12-28T14:14:33Z</time>
      </trkpt>
      <trkpt lat="49.05331" lon="-0.44386">
        <ele>79.8</ele>
        <time>2018-12-28T14:14:35Z</time>
      </trkpt>
      <trkpt lat="49.05329" lon="-0.44385">
        <ele>79.8</ele>
        <time>2018-12-28T14:14:37Z</time>
      </trkpt>
      <trkpt lat="49.05325" lon="-0.44384">
        <ele>79.7</ele>
        <time>2018-12-28T14:14:40Z</time>
      </trkpt>
      <trkpt lat="49.05323" lon="-0.44383">
        <ele>79.7</ele>
        <time>2018-12-28T14:14:42Z</time>
      </trkpt>
      <trkpt lat="49.05319" lon="-0.44381">
        <ele>79.7</ele>
        <time>2018-12-28T14:14:45Z</time>
      </trkpt>
      <trkpt lat="49.05316" lon="-0.44378">
        <ele>79.6</ele>
        <time>2018-12-28T14:14:48Z</time>
      </trkpt>
      <trkpt lat="49.05312" lon="-0.44375">
        <ele>79.6</ele>
        <time>2018-12-28T14:14:50Z</time>
      </trkpt>
      <trkpt lat="49.05308" lon="-0.44372">
        <ele>79.6</ele>
        <time>2018-12-28T14:14:52Z</time>
      </trkpt>
      <trkpt lat="49.05303" lon="-0.44369">
        <ele>79.6</ele>
        <time>2018-12-28T14:14:54Z</time>
      </trkpt>
      <trkpt lat="49.05299" lon="-0.44367">
        <ele>79.5</ele>
        <time>2018-12-28T14:14:56Z</time>
      </trkpt>
      <trkpt lat="49.05295" lon="-0.44367">
        <ele>79.5</ele>
        <time>2018-12-28T14:14:58Z</time>
      </trkpt>
      <trkpt lat="49.05291" lon="-0.44367">
        <ele>79.5</ele>
        <time>2018-12-28T14:15:01Z</time>
      </trkpt>
      <trkpt lat="49.05288" lon="-0.44364">
        <ele>79.5</ele>
        <time>2018-12-28T14:15:04Z</time>
      </trkpt>
      <trkpt lat="49.05285" lon="-0.44361">
        <ele>79.4</ele>
        <time>2018-12-28T14:15:07Z</time>
      </trkpt>
      <trkpt lat="49.05282" lon="-0.44359">
        <ele>79.4</ele>
        <time>2018-12-28T14:15:09Z</time>
      </trkpt>
      <trkpt lat="49.05278" lon="-0.44358">
        <ele>79.4</ele>
        <time>2018-12-28T14:15:12Z</time>
      </trkpt>
      <trkpt lat="49.05275" lon="-0.44355">
        <ele>79.4</ele>
        <time>2018-12-28T14:15:15Z</time>
      </trkpt>
      <trkpt lat="49.05272" lon="-0.44354">
        <ele>79.4</ele>
        <time>2018-12-28T14:15:18Z</time>
      </trkpt>
      <trkpt lat="49.05269" lon="-0.44352">
        <ele>79.4</ele>
        <time>2018-12-28T14:15:20Z</time>
      </trkpt>
      <trkpt lat="49.05265" lon="-0.4435">
        <ele>79.4</ele>
        <time>2018-12-28T14:15:23Z</time>
      </trkpt>
      <trkpt lat="49.05263" lon="-0.44349">
        <ele>79.4</ele>
        <time>2018-12-28T14:15:25Z</time>
      </trkpt>
      <trkpt lat="49.05259" lon="-0.44346">
        <ele>79.3</ele>
        <time>2018-12-28T14:15:27Z</time>
      </trkpt>
      <trkpt lat="49.05256" lon="-0.44342">
        <ele>79.3</ele>
        <time>2018-12-28T14:15:29Z</time>
      </trkpt>
      <trkpt lat="49.05251" lon="-0.44339">
        <ele>79.3</ele>
        <time>2018-12-28T14:15:31Z</time>
      </trkpt>
      <trkpt lat="49.05249" lon="-0.44336">
        <ele>79.2</ele>
        <time>2018-12-28T14:15:32Z</time>
      </trkpt>
      <trkpt lat="49.05246" lon="-0.44332">
        <ele>79.2</ele>
        <time>2018-12-28T14:15:33Z</time>
      </trkpt>
      <trkpt lat="49.05244" lon="-0.44329">
        <ele>79.2</ele>
        <time>2018-12-28T14:15:35Z</time>
      </trkpt>
      <trkpt lat="49.05241" lon="-0.44326">
        <ele>79.1</ele>
        <time>2018-12-28T14:15:38Z</time>
      </trkpt>
      <trkpt lat="49.05237" lon="-0.44325">
        <ele>79.1</ele>
        <time>2018-12-28T14:15:41Z</time>
      </trkpt>
      <trkpt lat="49.05234" lon="-0.44324">
        <ele>79.1</ele>
        <time>2018-12-28T14:15:43Z</time>
      </trkpt>
      <trkpt lat="49.05231" lon="-0.44322">
        <ele>79.1</ele>
        <time>2018-12-28T14:15:45Z</time>
      </trkpt>
      <trkpt lat="49.05228" lon="-0.44321">
        <ele>79.1</ele>
        <time>2018-12-28T14:15:47Z</time>
      </trkpt>
      <trkpt lat="49.05224" lon="-0.4432">
        <ele>79.1</ele>
        <time>2018-12-28T14:15:50Z</time>
      </trkpt>
      <trkpt lat="49.05221" lon="-0.44321">
        <ele>79.1</ele>
        <time>2018-12-28T14:15:53Z</time>
      </trkpt>
      <trkpt lat="49.05218" lon="-0.4432">
        <ele>79.1</ele>
        <time>2018-12-28T14:15:58Z</time>
      </trkpt>
      <trkpt lat="49.05215" lon="-0.44319">
        <ele>79.1</ele>
        <time>2018-12-28T14:16:00Z</time>
      </trkpt>
      <trkpt lat="49.05212" lon="-0.44317">
        <ele>79.2</ele>
        <time>2018-12-28T14:16:03Z</time>
      </trkpt>
      <trkpt lat="49.05209" lon="-0.44317">
        <ele>79.2</ele>
        <time>2018-12-28T14:16:06Z</time>
      </trkpt>
      <trkpt lat="49.05205" lon="-0.44315">
        <ele>79.2</ele>
        <time>2018-12-28T14:16:08Z</time>
      </trkpt>
      <trkpt lat="49.05201" lon="-0.44313">
        <ele>79.3</ele>
        <time>2018-12-28T14:16:10Z</time>
      </trkpt>
      <trkpt lat="49.05197" lon="-0.4431">
        <ele>79.4</ele>
        <time>2018-12-28T14:16:12Z</time>
      </trkpt>
      <trkpt lat="49.05192" lon="-0.44308">
        <ele>79.5</ele>
        <time>2018-12-28T14:16:14Z</time>
      </trkpt>
      <trkpt lat="49.05189" lon="-0.4431">
        <ele>79.5</ele>
        <time>2018-12-28T14:16:18Z</time>
      </trkpt>
      <trkpt lat="49.05186" lon="-0.44308">
        <ele>79.6</ele>
        <time>2018-12-28T14:16:20Z</time>
      </trkpt>
      <trkpt lat="49.05183" lon="-0.44306">
        <ele>79.7</ele>
        <time>2018-12-28T14:16:22Z</time>
      </trkpt>
      <trkpt lat="49.05179" lon="-0.44305">
        <ele>79.8</ele>
        <time>2018-12-28T14:16:25Z</time>
      </trkpt>
      <trkpt lat="49.05176" lon="-0.44304">
        <ele>79.8</ele>
        <time>2018-12-28T14:16:27Z</time>
      </trkpt>
      <trkpt lat="49.05174" lon="-0.44303">
        <ele>79.8</ele>
        <time>2018-12-28T14:16:29Z</time>
      </trkpt>
      <trkpt lat="49.05171" lon="-0.44301">
        <ele>79.8</ele>
        <time>2018-12-28T14:16:31Z</time>
      </trkpt>
      <trkpt lat="49.05167" lon="-0.443">
        <ele>79.8</ele>
        <time>2018-12-28T14:16:34Z</time>
      </trkpt>
      <trkpt lat="49.05164" lon="-0.443">
        <ele>79.9</ele>
        <time>2018-12-28T14:16:37Z</time>
      </trkpt>
      <trkpt lat="49.05161" lon="-0.44301">
        <ele>79.9</ele>
        <time>2018-12-28T14:16:39Z</time>
      </trkpt>
      <trkpt lat="49.05158" lon="-0.44302">
        <ele>79.9</ele>
        <time>2018-12-28T14:16:41Z</time>
      </trkpt>
      <trkpt lat="49.05155" lon="-0.44303">
        <ele>79.9</ele>
        <time>2018-12-28T14:16:44Z</time>
      </trkpt>
      <trkpt lat="49.05151" lon="-0.44304">
        <ele>80</ele>
        <time>2018-12-28T14:16:47Z</time>
      </trkpt>
      <trkpt lat="49.05148" lon="-0.44306">
        <ele>80</ele>
        <time>2018-12-28T14:16:49Z</time>
      </trkpt>
      <trkpt lat="49.05144" lon="-0.44307">
        <ele>80</ele>
        <time>2018-12-28T14:16:52Z</time>
      </trkpt>
      <trkpt lat="49.05141" lon="-0.44308">
        <ele>80.1</ele>
        <time>2018-12-28T14:16:54Z</time>
      </trkpt>
      <trkpt lat="49.05139" lon="-0.44309">
        <ele>80.1</ele>
        <time>2018-12-28T14:16:56Z</time>
      </trkpt>
      <trkpt lat="49.05135" lon="-0.4431">
        <ele>80.1</ele>
        <time>2018-12-28T14:16:58Z</time>
      </trkpt>
      <trkpt lat="49.05132" lon="-0.4431">
        <ele>80.2</ele>
        <time>2018-12-28T14:17:00Z</time>
      </trkpt>
      <trkpt lat="49.05129" lon="-0.4431">
        <ele>80.2</ele>
        <time>2018-12-28T14:17:02Z</time>
      </trkpt>
      <trkpt lat="49.05127" lon="-0.44309">
        <ele>80.2</ele>
        <time>2018-12-28T14:17:04Z</time>
      </trkpt>
      <trkpt lat="49.05123" lon="-0.44311">
        <ele>80.3</ele>
        <time>2018-12-28T14:17:07Z</time>
      </trkpt>
      <trkpt lat="49.0512" lon="-0.44312">
        <ele>80.3</ele>
        <time>2018-12-28T14:17:09Z</time>
      </trkpt>
      <trkpt lat="49.05117" lon="-0.44313">
        <ele>80.3</ele>
        <time>2018-12-28T14:17:11Z</time>
      </trkpt>
      <trkpt lat="49.05114" lon="-0.44314">
        <ele>80.4</ele>
        <time>2018-12-28T14:17:13Z</time>
      </trkpt>
      <trkpt lat="49.0511" lon="-0.44314">
        <ele>80.4</ele>
        <time>2018-12-28T14:17:15Z</time>
      </trkpt>
      <trkpt lat="49.05105" lon="-0.44313">
        <ele>80.5</ele>
        <time>2018-12-28T14:17:17Z</time>
      </trkpt>
      <trkpt lat="49.05102" lon="-0.44312">
        <ele>80.5</ele>
        <time>2018-12-28T14:17:19Z</time>
      </trkpt>
      <trkpt lat="49.05099" lon="-0.44312">
        <ele>80.5</ele>
        <time>2018-12-28T14:17:21Z</time>
      </trkpt>
      <trkpt lat="49.05096" lon="-0.44312">
        <ele>80.5</ele>
        <time>2018-12-28T14:17:23Z</time>
      </trkpt>
      <trkpt lat="49.05092" lon="-0.44312">
        <ele>80.6</ele>
        <time>2018-12-28T14:17:26Z</time>
      </trkpt>
      <trkpt lat="49.05089" lon="-0.44312">
        <ele>80.6</ele>
        <time>2018-12-28T14:17:29Z</time>
      </trkpt>
      <trkpt lat="49.05086" lon="-0.44313">
        <ele>80.7</ele>
        <time>2018-12-28T14:17:32Z</time>
      </trkpt>
      <trkpt lat="49.05083" lon="-0.44315">
        <ele>80.7</ele>
        <time>2018-12-28T14:17:34Z</time>
      </trkpt>
      <trkpt lat="49.0508" lon="-0.44318">
        <ele>80.7</ele>
        <time>2018-12-28T14:17:37Z</time>
      </trkpt>
      <trkpt lat="49.05077" lon="-0.44321">
        <ele>80.8</ele>
        <time>2018-12-28T14:17:40Z</time>
      </trkpt>
      <trkpt lat="49.05074" lon="-0.44323">
        <ele>80.8</ele>
        <time>2018-12-28T14:17:43Z</time>
      </trkpt>
      <trkpt lat="49.05071" lon="-0.44325">
        <ele>80.9</ele>
        <time>2018-12-28T14:17:46Z</time>
      </trkpt>
      <trkpt lat="49.05068" lon="-0.44323">
        <ele>80.9</ele>
        <time>2018-12-28T14:17:48Z</time>
      </trkpt>
      <trkpt lat="49.05065" lon="-0.44323">
        <ele>80.9</ele>
        <time>2018-12-28T14:17:50Z</time>
      </trkpt>
      <trkpt lat="49.05061" lon="-0.44322">
        <ele>81</ele>
        <time>2018-12-28T14:17:52Z</time>
      </trkpt>
      <trkpt lat="49.05057" lon="-0.44323">
        <ele>81</ele>
        <time>2018-12-28T14:17:55Z</time>
      </trkpt>
      <trkpt lat="49.05054" lon="-0.44323">
        <ele>81.1</ele>
        <time>2018-12-28T14:17:57Z</time>
      </trkpt>
      <trkpt lat="49.0505" lon="-0.44325">
        <ele>81.1</ele>
        <time>2018-12-28T14:18:00Z</time>
      </trkpt>
      <trkpt lat="49.05046" lon="-0.44325">
        <ele>81.1</ele>
        <time>2018-12-28T14:18:03Z</time>
      </trkpt>
      <trkpt lat="49.05043" lon="-0.44326">
        <ele>81.2</ele>
        <time>2018-12-28T14:18:05Z</time>
      </trkpt>
      <trkpt lat="49.05041" lon="-0.44327">
        <ele>81.2</ele>
        <time>2018-12-28T14:18:07Z</time>
      </trkpt>
      <trkpt lat="49.05037" lon="-0.44328">
        <ele>81.2</ele>
        <time>2018-12-28T14:18:10Z</time>
      </trkpt>
      <trkpt lat="49.05034" lon="-0.44329">
        <ele>81.3</ele>
        <time>2018-12-28T14:18:13Z</time>
      </trkpt>
      <trkpt lat="49.05032" lon="-0.4433">
        <ele>81.3</ele>
        <time>2018-12-28T14:18:15Z</time>
      </trkpt>
      <trkpt lat="49.05029" lon="-0.44332">
        <ele>81.3</ele>
        <time>2018-12-28T14:18:17Z</time>
      </trkpt>
      <trkpt lat="49.05024" lon="-0.44333">
        <ele>81.4</ele>
        <time>2018-12-28T14:18:20Z</time>
      </trkpt>
      <trkpt lat="49.05021" lon="-0.44335">
        <ele>81.4</ele>
        <time>2018-12-28T14:18:22Z</time>
      </trkpt>
      <trkpt lat="49.05017" lon="-0.44337">
        <ele>81.5</ele>
        <time>2018-12-28T14:18:24Z</time>
      </trkpt>
      <trkpt lat="49.05012" lon="-0.44335">
        <ele>81.5</ele>
        <time>2018-12-28T14:18:26Z</time>
      </trkpt>
      <trkpt lat="49.05009" lon="-0.44334">
        <ele>81.5</ele>
        <time>2018-12-28T14:18:27Z</time>
      </trkpt>
      <trkpt lat="49.05006" lon="-0.44335">
        <ele>81.6</ele>
        <time>2018-12-28T14:18:29Z</time>
      </trkpt>
      <trkpt lat="49.05002" lon="-0.44335">
        <ele>81.6</ele>
        <time>2018-12-28T14:18:31Z</time>
      </trkpt>
      <trkpt lat="49.04999" lon="-0.44336">
        <ele>81.6</ele>
        <time>2018-12-28T14:18:33Z</time>
      </trkpt>
      <trkpt lat="49.04995" lon="-0.44336">
        <ele>81.7</ele>
        <time>2018-12-28T14:18:36Z</time>
      </trkpt>
      <trkpt lat="49.04992" lon="-0.44337">
        <ele>81.7</ele>
        <time>2018-12-28T14:18:38Z</time>
      </trkpt>
      <trkpt lat="49.04989" lon="-0.44336">
        <ele>81.7</ele>
        <time>2018-12-28T14:18:40Z</time>
      </trkpt>
      <trkpt lat="49.04985" lon="-0.44337">
        <ele>81.8</ele>
        <time>2018-12-28T14:18:43Z</time>
      </trkpt>
      <trkpt lat="49.04982" lon="-0.44338">
        <ele>81.8</ele>
        <time>2018-12-28T14:18:46Z</time>
      </trkpt>
      <trkpt lat="49.04979" lon="-0.44338">
        <ele>81.8</ele>
        <time>2018-12-28T14:18:48Z</time>
      </trkpt>
      <trkpt lat="49.04976" lon="-0.44338">
        <ele>81.9</ele>
        <time>2018-12-28T14:18:50Z</time>
      </trkpt>
      <trkpt lat="49.04973" lon="-0.44339">
        <ele>81.9</ele>
        <time>2018-12-28T14:18:52Z</time>
      </trkpt>
      <trkpt lat="49.04969" lon="-0.44341">
        <ele>81.9</ele>
        <time>2018-12-28T14:18:55Z</time>
      </trkpt>
      <trkpt lat="49.04965" lon="-0.4434">
        <ele>82</ele>
        <time>2018-12-28T14:18:57Z</time>
      </trkpt>
      <trkpt lat="49.0496" lon="-0.44339">
        <ele>82</ele>
        <time>2018-12-28T14:18:59Z</time>
      </trkpt>
      <trkpt lat="49.04956" lon="-0.44339">
        <ele>82.1</ele>
        <time>2018-12-28T14:19:01Z</time>
      </trkpt>
      <trkpt lat="49.04952" lon="-0.4434">
        <ele>82.1</ele>
        <time>2018-12-28T14:19:04Z</time>
      </trkpt>
      <trkpt lat="49.04948" lon="-0.44341">
        <ele>82.1</ele>
        <time>2018-12-28T14:19:07Z</time>
      </trkpt>
      <trkpt lat="49.04945" lon="-0.44341">
        <ele>82.2</ele>
        <time>2018-12-28T14:19:09Z</time>
      </trkpt>
      <trkpt lat="49.04942" lon="-0.44342">
        <ele>82.2</ele>
        <time>2018-12-28T14:19:11Z</time>
      </trkpt>
      <trkpt lat="49.04939" lon="-0.44344">
        <ele>82.2</ele>
        <time>2018-12-28T14:19:14Z</time>
      </trkpt>
      <trkpt lat="49.04936" lon="-0.44345">
        <ele>82.3</ele>
        <time>2018-12-28T14:19:17Z</time>
      </trkpt>
      <trkpt lat="49.04932" lon="-0.44346">
        <ele>82.3</ele>
        <time>2018-12-28T14:19:20Z</time>
      </trkpt>
      <trkpt lat="49.04929" lon="-0.44347">
        <ele>82.3</ele>
        <time>2018-12-28T14:19:22Z</time>
      </trkpt>
      <trkpt lat="49.04926" lon="-0.44348">
        <ele>82.4</ele>
        <time>2018-12-28T14:19:24Z</time>
      </trkpt>
      <trkpt lat="49.04922" lon="-0.44349">
        <ele>82.4</ele>
        <time>2018-12-28T14:19:26Z</time>
      </trkpt>
      <trkpt lat="49.04919" lon="-0.4435">
        <ele>82.4</ele>
        <time>2018-12-28T14:19:29Z</time>
      </trkpt>
      <trkpt lat="49.04916" lon="-0.44351">
        <ele>82.4</ele>
        <time>2018-12-28T14:19:31Z</time>
      </trkpt>
      <trkpt lat="49.04913" lon="-0.44351">
        <ele>82.5</ele>
        <time>2018-12-28T14:19:33Z</time>
      </trkpt>
      <trkpt lat="49.0491" lon="-0.44351">
        <ele>82.5</ele>
        <time>2018-12-28T14:19:35Z</time>
      </trkpt>
      <trkpt lat="49.04907" lon="-0.44352">
        <ele>82.5</ele>
        <time>2018-12-28T14:19:38Z</time>
      </trkpt>
      <trkpt lat="49.04904" lon="-0.44353">
        <ele>82.5</ele>
        <time>2018-12-28T14:19:40Z</time>
      </trkpt>
      <trkpt lat="49.04901" lon="-0.44352">
        <ele>82.6</ele>
        <time>2018-12-28T14:19:45Z</time>
      </trkpt>
      <trkpt lat="49.04898" lon="-0.44348">
        <ele>82.6</ele>
        <time>2018-12-28T14:19:47Z</time>
      </trkpt>
      <trkpt lat="49.04895" lon="-0.44346">
        <ele>82.5</ele>
        <time>2018-12-28T14:19:48Z</time>
      </trkpt>
      <trkpt lat="49.04892" lon="-0.44342">
        <ele>82.5</ele>
        <time>2018-12-28T14:19:50Z</time>
      </trkpt>
      <trkpt lat="49.0489" lon="-0.44336">
        <ele>82.4</ele>
        <time>2018-12-28T14:19:56Z</time>
      </trkpt>
      <trkpt lat="49.04889" lon="-0.44331">
        <ele>82.3</ele>
        <time>2018-12-28T14:19:58Z</time>
      </trkpt>
      <trkpt lat="49.04887" lon="-0.44326">
        <ele>82.3</ele>
        <time>2018-12-28T14:20:00Z</time>
      </trkpt>
      <trkpt lat="49.04883" lon="-0.4432">
        <ele>82.1</ele>
        <time>2018-12-28T14:20:02Z</time>
      </trkpt>
      <trkpt lat="49.0488" lon="-0.44315">
        <ele>81.9</ele>
        <time>2018-12-28T14:20:04Z</time>
      </trkpt>
      <trkpt lat="49.04878" lon="-0.44312">
        <ele>81.8</ele>
        <time>2018-12-28T14:20:06Z</time>
      </trkpt>
      <trkpt lat="49.04876" lon="-0.44308">
        <ele>81.6</ele>
        <time>2018-12-28T14:20:09Z</time>
      </trkpt>
      <trkpt lat="49.04874" lon="-0.44303">
        <ele>81.5</ele>
        <time>2018-12-28T14:20:12Z</time>
      </trkpt>
      <trkpt lat="49.04872" lon="-0.443">
        <ele>81.3</ele>
        <time>2018-12-28T14:20:14Z</time>
      </trkpt>
      <trkpt lat="49.04871" lon="-0.44296">
        <ele>81.1</ele>
        <time>2018-12-28T14:20:17Z</time>
      </trkpt>
      <trkpt lat="49.04869" lon="-0.44292">
        <ele>80.9</ele>
        <time>2018-12-28T14:20:20Z</time>
      </trkpt>
      <trkpt lat="49.04867" lon="-0.44287">
        <ele>80.6</ele>
        <time>2018-12-28T14:20:24Z</time>
      </trkpt>
      <trkpt lat="49.04865" lon="-0.44284">
        <ele>80.4</ele>
        <time>2018-12-28T14:20:27Z</time>
      </trkpt>
      <trkpt lat="49.04863" lon="-0.44279">
        <ele>80.1</ele>
        <time>2018-12-28T14:20:34Z</time>
      </trkpt>
      <trkpt lat="49.04861" lon="-0.44273">
        <ele>79.8</ele>
        <time>2018-12-28T14:20:36Z</time>
      </trkpt>
      <trkpt lat="49.0486" lon="-0.44269">
        <ele>79.6</ele>
        <time>2018-12-28T14:20:37Z</time>
      </trkpt>
      <trkpt lat="49.04858" lon="-0.44264">
        <ele>79.3</ele>
        <time>2018-12-28T14:20:38Z</time>
      </trkpt>
      <trkpt lat="49.04856" lon="-0.44261">
        <ele>79.1</ele>
        <time>2018-12-28T14:20:39Z</time>
      </trkpt>
      <trkpt lat="49.04853" lon="-0.44256">
        <ele>78.9</ele>
        <time>2018-12-28T14:20:40Z</time>
      </trkpt>
      <trkpt lat="49.04851" lon="-0.44252">
        <ele>78.7</ele>
        <time>2018-12-28T14:20:41Z</time>
      </trkpt>
      <trkpt lat="49.04849" lon="-0.44248">
        <ele>78.5</ele>
        <time>2018-12-28T14:20:42Z</time>
      </trkpt>
      <trkpt lat="49.04846" lon="-0.44244">
        <ele>78.3</ele>
        <time>2018-12-28T14:20:44Z</time>
      </trkpt>
      <trkpt lat="49.04843" lon="-0.44239">
        <ele>78.1</ele>
        <time>2018-12-28T14:20:46Z</time>
      </trkpt>
      <trkpt lat="49.04841" lon="-0.44236">
        <ele>78.1</ele>
        <time>2018-12-28T14:20:48Z</time>
      </trkpt>
      <trkpt lat="49.04839" lon="-0.44231">
        <ele>77.9</ele>
        <time>2018-12-28T14:20:51Z</time>
      </trkpt>
      <trkpt lat="49.04837" lon="-0.44227">
        <ele>78.1</ele>
        <time>2018-12-28T14:20:53Z</time>
      </trkpt>
      <trkpt lat="49.04835" lon="-0.4422">
        <ele>78.3</ele>
        <time>2018-12-28T14:21:00Z</time>
      </trkpt>
      <trkpt lat="49.04833" lon="-0.44214">
        <ele>78.5</ele>
        <time>2018-12-28T14:21:02Z</time>
      </trkpt>
      <trkpt lat="49.04831" lon="-0.44209">
        <ele>78.7</ele>
        <time>2018-12-28T14:21:04Z</time>
      </trkpt>
      <trkpt lat="49.04829" lon="-0.44205">
        <ele>78.8</ele>
        <time>2018-12-28T14:21:06Z</time>
      </trkpt>
      <trkpt lat="49.04828" lon="-0.442">
        <ele>78.8</ele>
        <time>2018-12-28T14:21:08Z</time>
      </trkpt>
      <trkpt lat="49.04828" lon="-0.44195">
        <ele>78.9</ele>
        <time>2018-12-28T14:21:10Z</time>
      </trkpt>
      <trkpt lat="49.04827" lon="-0.4419">
        <ele>79</ele>
        <time>2018-12-28T14:21:12Z</time>
      </trkpt>
      <trkpt lat="49.04826" lon="-0.44185">
        <ele>79.1</ele>
        <time>2018-12-28T14:21:16Z</time>
      </trkpt>
      <trkpt lat="49.04825" lon="-0.4418">
        <ele>79.1</ele>
        <time>2018-12-28T14:21:19Z</time>
      </trkpt>
      <trkpt lat="49.04825" lon="-0.44175">
        <ele>79.2</ele>
        <time>2018-12-28T14:21:22Z</time>
      </trkpt>
      <trkpt lat="49.04824" lon="-0.4417">
        <ele>79.3</ele>
        <time>2018-12-28T14:21:24Z</time>
      </trkpt>
      <trkpt lat="49.04824" lon="-0.44164">
        <ele>79.5</ele>
        <time>2018-12-28T14:21:27Z</time>
      </trkpt>
      <trkpt lat="49.04824" lon="-0.4416">
        <ele>79.6</ele>
        <time>2018-12-28T14:21:30Z</time>
      </trkpt>
      <trkpt lat="49.04824" lon="-0.44155">
        <ele>79.7</ele>
        <time>2018-12-28T14:21:32Z</time>
      </trkpt>
      <trkpt lat="49.04824" lon="-0.4415">
        <ele>79.9</ele>
        <time>2018-12-28T14:21:34Z</time>
      </trkpt>
      <trkpt lat="49.04824" lon="-0.44146">
        <ele>80.1</ele>
        <time>2018-12-28T14:21:36Z</time>
      </trkpt>
      <trkpt lat="49.04823" lon="-0.44141">
        <ele>80.3</ele>
        <time>2018-12-28T14:21:38Z</time>
      </trkpt>
      <trkpt lat="49.04822" lon="-0.44136">
        <ele>80.5</ele>
        <time>2018-12-28T14:21:40Z</time>
      </trkpt>
      <trkpt lat="49.04822" lon="-0.44132">
        <ele>80.6</ele>
        <time>2018-12-28T14:21:42Z</time>
      </trkpt>
      <trkpt lat="49.04821" lon="-0.44126">
        <ele>80.8</ele>
        <time>2018-12-28T14:21:44Z</time>
      </trkpt>
      <trkpt lat="49.04821" lon="-0.44121">
        <ele>80.9</ele>
        <time>2018-12-28T14:21:46Z</time>
      </trkpt>
      <trkpt lat="49.0482" lon="-0.44115">
        <ele>81.1</ele>
        <time>2018-12-28T14:21:49Z</time>
      </trkpt>
      <trkpt lat="49.04819" lon="-0.4411">
        <ele>81.2</ele>
        <time>2018-12-28T14:21:51Z</time>
      </trkpt>
      <trkpt lat="49.04818" lon="-0.44106">
        <ele>81.2</ele>
        <time>2018-12-28T14:21:53Z</time>
      </trkpt>
      <trkpt lat="49.04817" lon="-0.441">
        <ele>81.3</ele>
        <time>2018-12-28T14:21:55Z</time>
      </trkpt>
      <trkpt lat="49.04816" lon="-0.44096">
        <ele>81.4</ele>
        <time>2018-12-28T14:21:57Z</time>
      </trkpt>
      <trkpt lat="49.04815" lon="-0.44092">
        <ele>81.5</ele>
        <time>2018-12-28T14:22:00Z</time>
      </trkpt>
      <trkpt lat="49.04812" lon="-0.44088">
        <ele>81.6</ele>
        <time>2018-12-28T14:22:02Z</time>
      </trkpt>
      <trkpt lat="49.0481" lon="-0.44086">
        <ele>81.7</ele>
        <time>2018-12-28T14:22:04Z</time>
      </trkpt>
      <trkpt lat="49.04806" lon="-0.44084">
        <ele>81.9</ele>
        <time>2018-12-28T14:22:07Z</time>
      </trkpt>
      <trkpt lat="49.04803" lon="-0.44082">
        <ele>82.1</ele>
        <time>2018-12-28T14:22:11Z</time>
      </trkpt>
      <trkpt lat="49.04799" lon="-0.4408">
        <ele>82.3</ele>
        <time>2018-12-28T14:22:14Z</time>
      </trkpt>
      <trkpt lat="49.04796" lon="-0.44078">
        <ele>82.4</ele>
        <time>2018-12-28T14:22:16Z</time>
      </trkpt>
      <trkpt lat="49.04793" lon="-0.44077">
        <ele>82.6</ele>
        <time>2018-12-28T14:22:18Z</time>
      </trkpt>
      <trkpt lat="49.0479" lon="-0.44076">
        <ele>82.7</ele>
        <time>2018-12-28T14:22:20Z</time>
      </trkpt>
      <trkpt lat="49.04787" lon="-0.44075">
        <ele>82.9</ele>
        <time>2018-12-28T14:22:22Z</time>
      </trkpt>
      <trkpt lat="49.04785" lon="-0.44074">
        <ele>83</ele>
        <time>2018-12-28T14:22:24Z</time>
      </trkpt>
      <trkpt lat="49.04782" lon="-0.44072">
        <ele>83.1</ele>
        <time>2018-12-28T14:22:26Z</time>
      </trkpt>
      <trkpt lat="49.04779" lon="-0.4407">
        <ele>83.2</ele>
        <time>2018-12-28T14:22:28Z</time>
      </trkpt>
      <trkpt lat="49.04776" lon="-0.44069">
        <ele>83.4</ele>
        <time>2018-12-28T14:22:31Z</time>
      </trkpt>
      <trkpt lat="49.04773" lon="-0.44067">
        <ele>83.5</ele>
        <time>2018-12-28T14:22:33Z</time>
      </trkpt>
      <trkpt lat="49.0477" lon="-0.44066">
        <ele>83.6</ele>
        <time>2018-12-28T14:22:35Z</time>
      </trkpt>
      <trkpt lat="49.04766" lon="-0.44066">
        <ele>83.8</ele>
        <time>2018-12-28T14:22:37Z</time>
      </trkpt>
      <trkpt lat="49.04763" lon="-0.44065">
        <ele>83.9</ele>
        <time>2018-12-28T14:22:39Z</time>
      </trkpt>
      <trkpt lat="49.0476" lon="-0.44063">
        <ele>84</ele>
        <time>2018-12-28T14:22:41Z</time>
      </trkpt>
      <trkpt lat="49.04757" lon="-0.44062">
        <ele>84.1</ele>
        <time>2018-12-28T14:22:43Z</time>
      </trkpt>
      <trkpt lat="49.04753" lon="-0.44059">
        <ele>84.3</ele>
        <time>2018-12-28T14:22:46Z</time>
      </trkpt>
      <trkpt lat="49.04751" lon="-0.44058">
        <ele>84.4</ele>
        <time>2018-12-28T14:22:48Z</time>
      </trkpt>
      <trkpt lat="49.04748" lon="-0.44057">
        <ele>84.5</ele>
        <time>2018-12-28T14:22:50Z</time>
      </trkpt>
      <trkpt lat="49.04745" lon="-0.44056">
        <ele>84.6</ele>
        <time>2018-12-28T14:22:52Z</time>
      </trkpt>
      <trkpt lat="49.04741" lon="-0.44055">
        <ele>84.7</ele>
        <time>2018-12-28T14:22:55Z</time>
      </trkpt>
      <trkpt lat="49.04738" lon="-0.44053">
        <ele>84.8</ele>
        <time>2018-12-28T14:22:57Z</time>
      </trkpt>
      <trkpt lat="49.04735" lon="-0.44051">
        <ele>84.9</ele>
        <time>2018-12-28T14:23:00Z</time>
      </trkpt>
      <trkpt lat="49.04732" lon="-0.44044">
        <ele>85</ele>
        <time>2018-12-28T14:23:03Z</time>
      </trkpt>
      <trkpt lat="49.0473" lon="-0.44041">
        <ele>85.1</ele>
        <time>2018-12-28T14:23:05Z</time>
      </trkpt>
      <trkpt lat="49.04726" lon="-0.4404">
        <ele>85.2</ele>
        <time>2018-12-28T14:23:07Z</time>
      </trkpt>
      <trkpt lat="49.04723" lon="-0.44039">
        <ele>85.3</ele>
        <time>2018-12-28T14:23:09Z</time>
      </trkpt>
      <trkpt lat="49.04721" lon="-0.44039">
        <ele>85.4</ele>
        <time>2018-12-28T14:23:11Z</time>
      </trkpt>
      <trkpt lat="49.04717" lon="-0.44038">
        <ele>85.5</ele>
        <time>2018-12-28T14:23:14Z</time>
      </trkpt>
      <trkpt lat="49.04714" lon="-0.44037">
        <ele>85.5</ele>
        <time>2018-12-28T14:23:17Z</time>
      </trkpt>
      <trkpt lat="49.04711" lon="-0.44035">
        <ele>85.5</ele>
        <time>2018-12-28T14:23:20Z</time>
      </trkpt>
      <trkpt lat="49.04707" lon="-0.44035">
        <ele>85.6</ele>
        <time>2018-12-28T14:23:23Z</time>
      </trkpt>
      <trkpt lat="49.04704" lon="-0.44034">
        <ele>85.8</ele>
        <time>2018-12-28T14:23:25Z</time>
      </trkpt>
      <trkpt lat="49.04701" lon="-0.44032">
        <ele>85.9</ele>
        <time>2018-12-28T14:23:27Z</time>
      </trkpt>
      <trkpt lat="49.04698" lon="-0.4403">
        <ele>86.2</ele>
        <time>2018-12-28T14:23:29Z</time>
      </trkpt>
      <trkpt lat="49.04696" lon="-0.44027">
        <ele>86.3</ele>
        <time>2018-12-28T14:23:31Z</time>
      </trkpt>
      <trkpt lat="49.04693" lon="-0.44026">
        <ele>86.5</ele>
        <time>2018-12-28T14:23:33Z</time>
      </trkpt>
      <trkpt lat="49.0469" lon="-0.44025">
        <ele>86.7</ele>
        <time>2018-12-28T14:23:36Z</time>
      </trkpt>
      <trkpt lat="49.04687" lon="-0.44024">
        <ele>86.8</ele>
        <time>2018-12-28T14:23:39Z</time>
      </trkpt>
      <trkpt lat="49.04684" lon="-0.44022">
        <ele>87</ele>
        <time>2018-12-28T14:23:42Z</time>
      </trkpt>
      <trkpt lat="49.0468" lon="-0.44021">
        <ele>87.1</ele>
        <time>2018-12-28T14:23:45Z</time>
      </trkpt>
      <trkpt lat="49.04677" lon="-0.44019">
        <ele>87.2</ele>
        <time>2018-12-28T14:23:48Z</time>
      </trkpt>
      <trkpt lat="49.04674" lon="-0.44018">
        <ele>87.4</ele>
        <time>2018-12-28T14:23:50Z</time>
      </trkpt>
      <trkpt lat="49.04671" lon="-0.44016">
        <ele>87.5</ele>
        <time>2018-12-28T14:23:52Z</time>
      </trkpt>
      <trkpt lat="49.04667" lon="-0.44011">
        <ele>87.8</ele>
        <time>2018-12-28T14:23:54Z</time>
      </trkpt>
      <trkpt lat="49.04665" lon="-0.44009">
        <ele>88.1</ele>
        <time>2018-12-28T14:23:55Z</time>
      </trkpt>
      <trkpt lat="49.04662" lon="-0.44005">
        <ele>88.3</ele>
        <time>2018-12-28T14:23:57Z</time>
      </trkpt>
      <trkpt lat="49.04659" lon="-0.44002">
        <ele>88.4</ele>
        <time>2018-12-28T14:23:59Z</time>
      </trkpt>
      <trkpt lat="49.04655" lon="-0.43999">
        <ele>88.8</ele>
        <time>2018-12-28T14:24:01Z</time>
      </trkpt>
      <trkpt lat="49.04651" lon="-0.43996">
        <ele>89.1</ele>
        <time>2018-12-28T14:24:03Z</time>
      </trkpt>
      <trkpt lat="49.04647" lon="-0.43994">
        <ele>89.3</ele>
        <time>2018-12-28T14:24:05Z</time>
      </trkpt>
      <trkpt lat="49.04645" lon="-0.43992">
        <ele>89.5</ele>
        <time>2018-12-28T14:24:06Z</time>
      </trkpt>
      <trkpt lat="49.0464" lon="-0.4399">
        <ele>89.8</ele>
        <time>2018-12-28T14:24:08Z</time>
      </trkpt>
      <trkpt lat="49.04636" lon="-0.43989">
        <ele>90</ele>
        <time>2018-12-28T14:24:10Z</time>
      </trkpt>
      <trkpt lat="49.04632" lon="-0.43988">
        <ele>90.3</ele>
        <time>2018-12-28T14:24:12Z</time>
      </trkpt>
      <trkpt lat="49.04629" lon="-0.43987">
        <ele>90.4</ele>
        <time>2018-12-28T14:24:18Z</time>
      </trkpt>
      <trkpt lat="49.04627" lon="-0.43987">
        <ele>90.5</ele>
        <time>2018-12-28T14:24:20Z</time>
      </trkpt>
      <trkpt lat="49.04623" lon="-0.43987">
        <ele>90.6</ele>
        <time>2018-12-28T14:24:23Z</time>
      </trkpt>
      <trkpt lat="49.0462" lon="-0.43986">
        <ele>90.7</ele>
        <time>2018-12-28T14:24:26Z</time>
      </trkpt>
      <trkpt lat="49.04617" lon="-0.43984">
        <ele>91</ele>
        <time>2018-12-28T14:24:31Z</time>
      </trkpt>
      <trkpt lat="49.04613" lon="-0.43983">
        <ele>91.1</ele>
        <time>2018-12-28T14:24:34Z</time>
      </trkpt>
      <trkpt lat="49.04609" lon="-0.43982">
        <ele>91.2</ele>
        <time>2018-12-28T14:24:37Z</time>
      </trkpt>
      <trkpt lat="49.04606" lon="-0.4398">
        <ele>91.3</ele>
        <time>2018-12-28T14:24:40Z</time>
      </trkpt>
      <trkpt lat="49.04602" lon="-0.43979">
        <ele>91.5</ele>
        <time>2018-12-28T14:24:43Z</time>
      </trkpt>
      <trkpt lat="49.04599" lon="-0.43977">
        <ele>91.6</ele>
        <time>2018-12-28T14:24:46Z</time>
      </trkpt>
      <trkpt lat="49.04595" lon="-0.43975">
        <ele>91.7</ele>
        <time>2018-12-28T14:24:49Z</time>
      </trkpt>
      <trkpt lat="49.04592" lon="-0.43973">
        <ele>91.8</ele>
        <time>2018-12-28T14:24:53Z</time>
      </trkpt>
      <trkpt lat="49.0459" lon="-0.43971">
        <ele>91.9</ele>
        <time>2018-12-28T14:24:55Z</time>
      </trkpt>
      <trkpt lat="49.04587" lon="-0.43968">
        <ele>92</ele>
        <time>2018-12-28T14:24:57Z</time>
      </trkpt>
      <trkpt lat="49.04584" lon="-0.43966">
        <ele>92.1</ele>
        <time>2018-12-28T14:24:59Z</time>
      </trkpt>
      <trkpt lat="49.0458" lon="-0.43964">
        <ele>92.2</ele>
        <time>2018-12-28T14:25:01Z</time>
      </trkpt>
      <trkpt lat="49.04576" lon="-0.43961">
        <ele>92.3</ele>
        <time>2018-12-28T14:25:03Z</time>
      </trkpt>
      <trkpt lat="49.04573" lon="-0.4396">
        <ele>92.5</ele>
        <time>2018-12-28T14:25:05Z</time>
      </trkpt>
      <trkpt lat="49.0457" lon="-0.43959">
        <ele>92.6</ele>
        <time>2018-12-28T14:25:07Z</time>
      </trkpt>
      <trkpt lat="49.04566" lon="-0.43958">
        <ele>92.7</ele>
        <time>2018-12-28T14:25:09Z</time>
      </trkpt>
      <trkpt lat="49.04563" lon="-0.43955">
        <ele>92.8</ele>
        <time>2018-12-28T14:25:12Z</time>
      </trkpt>
      <trkpt lat="49.04559" lon="-0.43954">
        <ele>93</ele>
        <time>2018-12-28T14:25:14Z</time>
      </trkpt>
      <trkpt lat="49.04554" lon="-0.4395">
        <ele>93.1</ele>
        <time>2018-12-28T14:25:16Z</time>
      </trkpt>
      <trkpt lat="49.0455" lon="-0.43948">
        <ele>93.3</ele>
        <time>2018-12-28T14:25:18Z</time>
      </trkpt>
      <trkpt lat="49.04547" lon="-0.43946">
        <ele>93.4</ele>
        <time>2018-12-28T14:25:20Z</time>
      </trkpt>
      <trkpt lat="49.04543" lon="-0.43944">
        <ele>93.5</ele>
        <time>2018-12-28T14:25:22Z</time>
      </trkpt>
      <trkpt lat="49.0454" lon="-0.43942">
        <ele>93.6</ele>
        <time>2018-12-28T14:25:24Z</time>
      </trkpt>
      <trkpt lat="49.04537" lon="-0.43941">
        <ele>93.7</ele>
        <time>2018-12-28T14:25:26Z</time>
      </trkpt>
      <trkpt lat="49.04533" lon="-0.4394">
        <ele>93.8</ele>
        <time>2018-12-28T14:25:29Z</time>
      </trkpt>
      <trkpt lat="49.0453" lon="-0.43939">
        <ele>93.9</ele>
        <time>2018-12-28T14:25:32Z</time>
      </trkpt>
      <trkpt lat="49.04527" lon="-0.43937">
        <ele>94.1</ele>
        <time>2018-12-28T14:25:35Z</time>
      </trkpt>
      <trkpt lat="49.04523" lon="-0.43935">
        <ele>94.2</ele>
        <time>2018-12-28T14:25:38Z</time>
      </trkpt>
      <trkpt lat="49.0452" lon="-0.43935">
        <ele>94.2</ele>
        <time>2018-12-28T14:25:41Z</time>
      </trkpt>
      <trkpt lat="49.04517" lon="-0.43935">
        <ele>94.3</ele>
        <time>2018-12-28T14:25:44Z</time>
      </trkpt>
      <trkpt lat="49.04515" lon="-0.43933">
        <ele>94.4</ele>
        <time>2018-12-28T14:25:47Z</time>
      </trkpt>
      <trkpt lat="49.04511" lon="-0.4393">
        <ele>94.4</ele>
        <time>2018-12-28T14:25:50Z</time>
      </trkpt>
      <trkpt lat="49.04508" lon="-0.43929">
        <ele>94.5</ele>
        <time>2018-12-28T14:25:52Z</time>
      </trkpt>
      <trkpt lat="49.04505" lon="-0.43927">
        <ele>94.6</ele>
        <time>2018-12-28T14:25:55Z</time>
      </trkpt>
      <trkpt lat="49.04502" lon="-0.43926">
        <ele>94.6</ele>
        <time>2018-12-28T14:25:58Z</time>
      </trkpt>
      <trkpt lat="49.04499" lon="-0.43925">
        <ele>94.7</ele>
        <time>2018-12-28T14:26:00Z</time>
      </trkpt>
      <trkpt lat="49.04496" lon="-0.43923">
        <ele>94.8</ele>
        <time>2018-12-28T14:26:02Z</time>
      </trkpt>
      <trkpt lat="49.04494" lon="-0.43922">
        <ele>94.8</ele>
        <time>2018-12-28T14:26:04Z</time>
      </trkpt>
      <trkpt lat="49.0449" lon="-0.43918">
        <ele>94.9</ele>
        <time>2018-12-28T14:26:06Z</time>
      </trkpt>
      <trkpt lat="49.04487" lon="-0.43915">
        <ele>95</ele>
        <time>2018-12-28T14:26:08Z</time>
      </trkpt>
      <trkpt lat="49.04484" lon="-0.43913">
        <ele>95.1</ele>
        <time>2018-12-28T14:26:10Z</time>
      </trkpt>
      <trkpt lat="49.04481" lon="-0.43911">
        <ele>95.1</ele>
        <time>2018-12-28T14:26:12Z</time>
      </trkpt>
      <trkpt lat="49.04478" lon="-0.4391">
        <ele>95.2</ele>
        <time>2018-12-28T14:26:15Z</time>
      </trkpt>
      <trkpt lat="49.04475" lon="-0.43908">
        <ele>95.2</ele>
        <time>2018-12-28T14:26:18Z</time>
      </trkpt>
      <trkpt lat="49.0447" lon="-0.43906">
        <ele>95.3</ele>
        <time>2018-12-28T14:26:22Z</time>
      </trkpt>
      <trkpt lat="49.04466" lon="-0.43905">
        <ele>95.4</ele>
        <time>2018-12-28T14:26:25Z</time>
      </trkpt>
      <trkpt lat="49.04462" lon="-0.43903">
        <ele>95.5</ele>
        <time>2018-12-28T14:26:28Z</time>
      </trkpt>
      <trkpt lat="49.04457" lon="-0.43901">
        <ele>95.5</ele>
        <time>2018-12-28T14:26:30Z</time>
      </trkpt>
      <trkpt lat="49.04454" lon="-0.43899">
        <ele>95.6</ele>
        <time>2018-12-28T14:26:31Z</time>
      </trkpt>
      <trkpt lat="49.04449" lon="-0.43897">
        <ele>95.6</ele>
        <time>2018-12-28T14:26:33Z</time>
      </trkpt>
      <trkpt lat="49.04445" lon="-0.43896">
        <ele>95.7</ele>
        <time>2018-12-28T14:26:35Z</time>
      </trkpt>
      <trkpt lat="49.04442" lon="-0.43894">
        <ele>95.7</ele>
        <time>2018-12-28T14:26:40Z</time>
      </trkpt>
      <trkpt lat="49.04439" lon="-0.43893">
        <ele>95.8</ele>
        <time>2018-12-28T14:26:42Z</time>
      </trkpt>
      <trkpt lat="49.04436" lon="-0.43892">
        <ele>95.8</ele>
        <time>2018-12-28T14:26:44Z</time>
      </trkpt>
      <trkpt lat="49.04434" lon="-0.4389">
        <ele>95.8</ele>
        <time>2018-12-28T14:26:46Z</time>
      </trkpt>
      <trkpt lat="49.04431" lon="-0.43888">
        <ele>95.9</ele>
        <time>2018-12-28T14:26:48Z</time>
      </trkpt>
      <trkpt lat="49.04427" lon="-0.43887">
        <ele>95.9</ele>
        <time>2018-12-28T14:26:50Z</time>
      </trkpt>
      <trkpt lat="49.04425" lon="-0.43885">
        <ele>95.9</ele>
        <time>2018-12-28T14:26:53Z</time>
      </trkpt>
      <trkpt lat="49.04421" lon="-0.43882">
        <ele>96</ele>
        <time>2018-12-28T14:26:56Z</time>
      </trkpt>
      <trkpt lat="49.04418" lon="-0.4388">
        <ele>96</ele>
        <time>2018-12-28T14:26:58Z</time>
      </trkpt>
      <trkpt lat="49.04415" lon="-0.43879">
        <ele>96.1</ele>
        <time>2018-12-28T14:27:00Z</time>
      </trkpt>
      <trkpt lat="49.04412" lon="-0.43877">
        <ele>96.1</ele>
        <time>2018-12-28T14:27:02Z</time>
      </trkpt>
      <trkpt lat="49.04409" lon="-0.43877">
        <ele>96.1</ele>
        <time>2018-12-28T14:27:04Z</time>
      </trkpt>
      <trkpt lat="49.04406" lon="-0.43875">
        <ele>96.2</ele>
        <time>2018-12-28T14:27:06Z</time>
      </trkpt>
      <trkpt lat="49.04404" lon="-0.43874">
        <ele>96.2</ele>
        <time>2018-12-28T14:27:08Z</time>
      </trkpt>
      <trkpt lat="49.044" lon="-0.43872">
        <ele>96.3</ele>
        <time>2018-12-28T14:27:11Z</time>
      </trkpt>
      <trkpt lat="49.04397" lon="-0.4387">
        <ele>96.3</ele>
        <time>2018-12-28T14:27:13Z</time>
      </trkpt>
      <trkpt lat="49.04395" lon="-0.43869">
        <ele>96.3</ele>
        <time>2018-12-28T14:27:15Z</time>
      </trkpt>
      <trkpt lat="49.04391" lon="-0.43867">
        <ele>96.4</ele>
        <time>2018-12-28T14:27:18Z</time>
      </trkpt>
      <trkpt lat="49.04388" lon="-0.43866">
        <ele>96.4</ele>
        <time>2018-12-28T14:27:20Z</time>
      </trkpt>
      <trkpt lat="49.04386" lon="-0.43864">
        <ele>96.4</ele>
        <time>2018-12-28T14:27:22Z</time>
      </trkpt>
      <trkpt lat="49.04382" lon="-0.43862">
        <ele>96.4</ele>
        <time>2018-12-28T14:27:25Z</time>
      </trkpt>
      <trkpt lat="49.04378" lon="-0.4386">
        <ele>96.4</ele>
        <time>2018-12-28T14:27:27Z</time>
      </trkpt>
      <trkpt lat="49.04374" lon="-0.43859">
        <ele>96.4</ele>
        <time>2018-12-28T14:27:29Z</time>
      </trkpt>
      <trkpt lat="49.04371" lon="-0.43857">
        <ele>96.4</ele>
        <time>2018-12-28T14:27:31Z</time>
      </trkpt>
      <trkpt lat="49.04367" lon="-0.43853">
        <ele>96.4</ele>
        <time>2018-12-28T14:27:33Z</time>
      </trkpt>
      <trkpt lat="49.04364" lon="-0.4385">
        <ele>96.4</ele>
        <time>2018-12-28T14:27:35Z</time>
      </trkpt>
      <trkpt lat="49.04361" lon="-0.43848">
        <ele>96.5</ele>
        <time>2018-12-28T14:27:37Z</time>
      </trkpt>
      <trkpt lat="49.04358" lon="-0.43847">
        <ele>96.5</ele>
        <time>2018-12-28T14:27:39Z</time>
      </trkpt>
      <trkpt lat="49.04355" lon="-0.43845">
        <ele>96.5</ele>
        <time>2018-12-28T14:27:41Z</time>
      </trkpt>
      <trkpt lat="49.04352" lon="-0.43843">
        <ele>96.5</ele>
        <time>2018-12-28T14:27:43Z</time>
      </trkpt>
      <trkpt lat="49.04349" lon="-0.43842">
        <ele>96.6</ele>
        <time>2018-12-28T14:27:45Z</time>
      </trkpt>
      <trkpt lat="49.04347" lon="-0.43842">
        <ele>96.6</ele>
        <time>2018-12-28T14:27:47Z</time>
      </trkpt>
      <trkpt lat="49.04344" lon="-0.43841">
        <ele>96.7</ele>
        <time>2018-12-28T14:27:49Z</time>
      </trkpt>
      <trkpt lat="49.0434" lon="-0.4384">
        <ele>96.7</ele>
        <time>2018-12-28T14:27:52Z</time>
      </trkpt>
      <trkpt lat="49.04337" lon="-0.43839">
        <ele>96.8</ele>
        <time>2018-12-28T14:27:55Z</time>
      </trkpt>
      <trkpt lat="49.04334" lon="-0.43837">
        <ele>96.9</ele>
        <time>2018-12-28T14:27:57Z</time>
      </trkpt>
      <trkpt lat="49.04331" lon="-0.43835">
        <ele>97</ele>
        <time>2018-12-28T14:28:00Z</time>
      </trkpt>
      <trkpt lat="49.04327" lon="-0.43833">
        <ele>97.1</ele>
        <time>2018-12-28T14:28:03Z</time>
      </trkpt>
      <trkpt lat="49.04325" lon="-0.43831">
        <ele>97.3</ele>
        <time>2018-12-28T14:28:05Z</time>
      </trkpt>
      <trkpt lat="49.04322" lon="-0.43828">
        <ele>97.4</ele>
        <time>2018-12-28T14:28:08Z</time>
      </trkpt>
      <trkpt lat="49.04319" lon="-0.43827">
        <ele>97.5</ele>
        <time>2018-12-28T14:28:10Z</time>
      </trkpt>
      <trkpt lat="49.04316" lon="-0.43826">
        <ele>97.6</ele>
        <time>2018-12-28T14:28:12Z</time>
      </trkpt>
      <trkpt lat="49.04312" lon="-0.43825">
        <ele>97.8</ele>
        <time>2018-12-28T14:28:14Z</time>
      </trkpt>
      <trkpt lat="49.04308" lon="-0.43822">
        <ele>98</ele>
        <time>2018-12-28T14:28:16Z</time>
      </trkpt>
      <trkpt lat="49.04305" lon="-0.43819">
        <ele>98.2</ele>
        <time>2018-12-28T14:28:18Z</time>
      </trkpt>
      <trkpt lat="49.04302" lon="-0.43818">
        <ele>98.4</ele>
        <time>2018-12-28T14:28:20Z</time>
      </trkpt>
      <trkpt lat="49.04299" lon="-0.43817">
        <ele>98.6</ele>
        <time>2018-12-28T14:28:22Z</time>
      </trkpt>
      <trkpt lat="49.04294" lon="-0.43815">
        <ele>98.8</ele>
        <time>2018-12-28T14:28:25Z</time>
      </trkpt>
      <trkpt lat="49.04291" lon="-0.43812">
        <ele>99</ele>
        <time>2018-12-28T14:28:27Z</time>
      </trkpt>
      <trkpt lat="49.04287" lon="-0.43812">
        <ele>99.3</ele>
        <time>2018-12-28T14:28:30Z</time>
      </trkpt>
      <trkpt lat="49.04283" lon="-0.43809">
        <ele>99.6</ele>
        <time>2018-12-28T14:28:33Z</time>
      </trkpt>
      <trkpt lat="49.0428" lon="-0.43807">
        <ele>99.8</ele>
        <time>2018-12-28T14:28:35Z</time>
      </trkpt>
      <trkpt lat="49.04277" lon="-0.43805">
        <ele>99.9</ele>
        <time>2018-12-28T14:28:37Z</time>
      </trkpt>
      <trkpt lat="49.04274" lon="-0.43804">
        <ele>100.1</ele>
        <time>2018-12-28T14:28:39Z</time>
      </trkpt>
      <trkpt lat="49.0427" lon="-0.43803">
        <ele>100.3</ele>
        <time>2018-12-28T14:28:42Z</time>
      </trkpt>
      <trkpt lat="49.04267" lon="-0.438">
        <ele>100.5</ele>
        <time>2018-12-28T14:28:44Z</time>
      </trkpt>
      <trkpt lat="49.04263" lon="-0.43797">
        <ele>100.8</ele>
        <time>2018-12-28T14:28:46Z</time>
      </trkpt>
      <trkpt lat="49.04259" lon="-0.43796">
        <ele>101</ele>
        <time>2018-12-28T14:28:48Z</time>
      </trkpt>
      <trkpt lat="49.04256" lon="-0.43794">
        <ele>101.3</ele>
        <time>2018-12-28T14:28:50Z</time>
      </trkpt>
      <trkpt lat="49.04252" lon="-0.43793">
        <ele>101.5</ele>
        <time>2018-12-28T14:28:52Z</time>
      </trkpt>
      <trkpt lat="49.04249" lon="-0.43792">
        <ele>101.6</ele>
        <time>2018-12-28T14:28:53Z</time>
      </trkpt>
      <trkpt lat="49.04244" lon="-0.43788">
        <ele>101.9</ele>
        <time>2018-12-28T14:28:55Z</time>
      </trkpt>
      <trkpt lat="49.04241" lon="-0.43785">
        <ele>102.1</ele>
        <time>2018-12-28T14:28:57Z</time>
      </trkpt>
      <trkpt lat="49.04237" lon="-0.43782">
        <ele>102.4</ele>
        <time>2018-12-28T14:29:00Z</time>
      </trkpt>
      <trkpt lat="49.04235" lon="-0.43781">
        <ele>102.5</ele>
        <time>2018-12-28T14:29:02Z</time>
      </trkpt>
      <trkpt lat="49.04232" lon="-0.43778">
        <ele>102.8</ele>
        <time>2018-12-28T14:29:04Z</time>
      </trkpt>
      <trkpt lat="49.04229" lon="-0.43777">
        <ele>102.9</ele>
        <time>2018-12-28T14:29:06Z</time>
      </trkpt>
      <trkpt lat="49.04225" lon="-0.43776">
        <ele>103.1</ele>
        <time>2018-12-28T14:29:10Z</time>
      </trkpt>
      <trkpt lat="49.04223" lon="-0.43773">
        <ele>103.3</ele>
        <time>2018-12-28T14:29:12Z</time>
      </trkpt>
      <trkpt lat="49.0422" lon="-0.43771">
        <ele>103.5</ele>
        <time>2018-12-28T14:29:14Z</time>
      </trkpt>
      <trkpt lat="49.04216" lon="-0.43769">
        <ele>103.7</ele>
        <time>2018-12-28T14:29:16Z</time>
      </trkpt>
      <trkpt lat="49.04213" lon="-0.43769">
        <ele>103.8</ele>
        <time>2018-12-28T14:29:18Z</time>
      </trkpt>
      <trkpt lat="49.04211" lon="-0.43768">
        <ele>104</ele>
        <time>2018-12-28T14:29:20Z</time>
      </trkpt>
      <trkpt lat="49.04208" lon="-0.43767">
        <ele>104.1</ele>
        <time>2018-12-28T14:29:22Z</time>
      </trkpt>
      <trkpt lat="49.04204" lon="-0.43767">
        <ele>104.4</ele>
        <time>2018-12-28T14:29:25Z</time>
      </trkpt>
      <trkpt lat="49.04201" lon="-0.43767">
        <ele>104.7</ele>
        <time>2018-12-28T14:29:28Z</time>
      </trkpt>
      <trkpt lat="49.04197" lon="-0.43766">
        <ele>105</ele>
        <time>2018-12-28T14:29:32Z</time>
      </trkpt>
      <trkpt lat="49.04193" lon="-0.43765">
        <ele>105.3</ele>
        <time>2018-12-28T14:29:35Z</time>
      </trkpt>
      <trkpt lat="49.0419" lon="-0.43764">
        <ele>105.7</ele>
        <time>2018-12-28T14:29:38Z</time>
      </trkpt>
      <trkpt lat="49.04186" lon="-0.43762">
        <ele>105.9</ele>
        <time>2018-12-28T14:29:41Z</time>
      </trkpt>
      <trkpt lat="49.04183" lon="-0.43757">
        <ele>106.3</ele>
        <time>2018-12-28T14:29:43Z</time>
      </trkpt>
      <trkpt lat="49.0418" lon="-0.43751">
        <ele>106.6</ele>
        <time>2018-12-28T14:29:45Z</time>
      </trkpt>
      <trkpt lat="49.04176" lon="-0.43748">
        <ele>107.1</ele>
        <time>2018-12-28T14:29:48Z</time>
      </trkpt>
      <trkpt lat="49.04173" lon="-0.43746">
        <ele>107.4</ele>
        <time>2018-12-28T14:29:50Z</time>
      </trkpt>
      <trkpt lat="49.04171" lon="-0.43743">
        <ele>107.7</ele>
        <time>2018-12-28T14:29:52Z</time>
      </trkpt>
      <trkpt lat="49.04168" lon="-0.4374">
        <ele>108.2</ele>
        <time>2018-12-28T14:29:55Z</time>
      </trkpt>
      <trkpt lat="49.04165" lon="-0.43739">
        <ele>108.5</ele>
        <time>2018-12-28T14:29:58Z</time>
      </trkpt>
      <trkpt lat="49.04162" lon="-0.43737">
        <ele>108.8</ele>
        <time>2018-12-28T14:30:00Z</time>
      </trkpt>
      <trkpt lat="49.04159" lon="-0.43737">
        <ele>109</ele>
        <time>2018-12-28T14:30:03Z</time>
      </trkpt>
      <trkpt lat="49.04156" lon="-0.43735">
        <ele>109.2</ele>
        <time>2018-12-28T14:30:05Z</time>
      </trkpt>
      <trkpt lat="49.04153" lon="-0.43734">
        <ele>109.5</ele>
        <time>2018-12-28T14:30:08Z</time>
      </trkpt>
      <trkpt lat="49.0415" lon="-0.43733">
        <ele>109.8</ele>
        <time>2018-12-28T14:30:11Z</time>
      </trkpt>
      <trkpt lat="49.04147" lon="-0.43732">
        <ele>110</ele>
        <time>2018-12-28T14:30:14Z</time>
      </trkpt>
      <trkpt lat="49.04144" lon="-0.43731">
        <ele>110.2</ele>
        <time>2018-12-28T14:30:16Z</time>
      </trkpt>
      <trkpt lat="49.04141" lon="-0.43729">
        <ele>110.4</ele>
        <time>2018-12-28T14:30:18Z</time>
      </trkpt>
      <trkpt lat="49.04138" lon="-0.43728">
        <ele>110.6</ele>
        <time>2018-12-28T14:30:20Z</time>
      </trkpt>
      <trkpt lat="49.04134" lon="-0.43727">
        <ele>110.8</ele>
        <time>2018-12-28T14:30:22Z</time>
      </trkpt>
      <trkpt lat="49.04131" lon="-0.43726">
        <ele>111</ele>
        <time>2018-12-28T14:30:24Z</time>
      </trkpt>
      <trkpt lat="49.04127" lon="-0.43724">
        <ele>111.1</ele>
        <time>2018-12-28T14:30:26Z</time>
      </trkpt>
      <trkpt lat="49.04124" lon="-0.43722">
        <ele>111.3</ele>
        <time>2018-12-28T14:30:28Z</time>
      </trkpt>
      <trkpt lat="49.04121" lon="-0.43723">
        <ele>111.5</ele>
        <time>2018-12-28T14:30:41Z</time>
      </trkpt>
      <trkpt lat="49.04118" lon="-0.43722">
        <ele>111.7</ele>
        <time>2018-12-28T14:30:44Z</time>
      </trkpt>
      <trkpt lat="49.04114" lon="-0.4372">
        <ele>111.8</ele>
        <time>2018-12-28T14:30:47Z</time>
      </trkpt>
      <trkpt lat="49.04111" lon="-0.43718">
        <ele>112.1</ele>
        <time>2018-12-28T14:30:50Z</time>
      </trkpt>
      <trkpt lat="49.04108" lon="-0.43716">
        <ele>112.4</ele>
        <time>2018-12-28T14:30:53Z</time>
      </trkpt>
      <trkpt lat="49.04105" lon="-0.43714">
        <ele>112.4</ele>
        <time>2018-12-28T14:30:55Z</time>
      </trkpt>
      <trkpt lat="49.04102" lon="-0.43713">
        <ele>112.6</ele>
        <time>2018-12-28T14:30:57Z</time>
      </trkpt>
      <trkpt lat="49.04099" lon="-0.43712">
        <ele>112.8</ele>
        <time>2018-12-28T14:30:59Z</time>
      </trkpt>
      <trkpt lat="49.04097" lon="-0.4371">
        <ele>112.9</ele>
        <time>2018-12-28T14:31:01Z</time>
      </trkpt>
      <trkpt lat="49.04094" lon="-0.43708">
        <ele>113.1</ele>
        <time>2018-12-28T14:31:03Z</time>
      </trkpt>
      <trkpt lat="49.04091" lon="-0.43706">
        <ele>113.3</ele>
        <time>2018-12-28T14:31:05Z</time>
      </trkpt>
      <trkpt lat="49.04088" lon="-0.43704">
        <ele>113.5</ele>
        <time>2018-12-28T14:31:08Z</time>
      </trkpt>
      <trkpt lat="49.04085" lon="-0.43704">
        <ele>113.7</ele>
        <time>2018-12-28T14:31:11Z</time>
      </trkpt>
      <trkpt lat="49.04082" lon="-0.43703">
        <ele>114</ele>
        <time>2018-12-28T14:31:14Z</time>
      </trkpt>
      <trkpt lat="49.0408" lon="-0.437">
        <ele>114.2</ele>
        <time>2018-12-28T14:31:16Z</time>
      </trkpt>
      <trkpt lat="49.04077" lon="-0.43699">
        <ele>114.4</ele>
        <time>2018-12-28T14:31:18Z</time>
      </trkpt>
      <trkpt lat="49.04073" lon="-0.43697">
        <ele>114.6</ele>
        <time>2018-12-28T14:31:20Z</time>
      </trkpt>
      <trkpt lat="49.0407" lon="-0.43694">
        <ele>114.9</ele>
        <time>2018-12-28T14:31:22Z</time>
      </trkpt>
      <trkpt lat="49.04066" lon="-0.43691">
        <ele>115.2</ele>
        <time>2018-12-28T14:31:24Z</time>
      </trkpt>
      <trkpt lat="49.04063" lon="-0.43688">
        <ele>115.4</ele>
        <time>2018-12-28T14:31:26Z</time>
      </trkpt>
      <trkpt lat="49.0406" lon="-0.43685">
        <ele>115.6</ele>
        <time>2018-12-28T14:31:28Z</time>
      </trkpt>
      <trkpt lat="49.04057" lon="-0.43684">
        <ele>115.8</ele>
        <time>2018-12-28T14:31:31Z</time>
      </trkpt>
      <trkpt lat="49.04054" lon="-0.43682">
        <ele>116</ele>
        <time>2018-12-28T14:31:34Z</time>
      </trkpt>
      <trkpt lat="49.0405" lon="-0.43681">
        <ele>116.2</ele>
        <time>2018-12-28T14:31:37Z</time>
      </trkpt>
      <trkpt lat="49.04047" lon="-0.43679">
        <ele>116.4</ele>
        <time>2018-12-28T14:31:40Z</time>
      </trkpt>
      <trkpt lat="49.04045" lon="-0.43677">
        <ele>116.6</ele>
        <time>2018-12-28T14:31:42Z</time>
      </trkpt>
      <trkpt lat="49.04041" lon="-0.43676">
        <ele>116.8</ele>
        <time>2018-12-28T14:31:45Z</time>
      </trkpt>
      <trkpt lat="49.04038" lon="-0.43675">
        <ele>117</ele>
        <time>2018-12-28T14:31:47Z</time>
      </trkpt>
      <trkpt lat="49.04034" lon="-0.43675">
        <ele>117.1</ele>
        <time>2018-12-28T14:31:50Z</time>
      </trkpt>
      <trkpt lat="49.04031" lon="-0.43675">
        <ele>117.3</ele>
        <time>2018-12-28T14:31:53Z</time>
      </trkpt>
      <trkpt lat="49.04028" lon="-0.43673">
        <ele>117.4</ele>
        <time>2018-12-28T14:31:56Z</time>
      </trkpt>
      <trkpt lat="49.04025" lon="-0.43672">
        <ele>117.6</ele>
        <time>2018-12-28T14:31:59Z</time>
      </trkpt>
      <trkpt lat="49.04021" lon="-0.43671">
        <ele>117.7</ele>
        <time>2018-12-28T14:32:05Z</time>
      </trkpt>
      <trkpt lat="49.04017" lon="-0.43669">
        <ele>117.8</ele>
        <time>2018-12-28T14:32:08Z</time>
      </trkpt>
      <trkpt lat="49.04015" lon="-0.43668">
        <ele>117.9</ele>
        <time>2018-12-28T14:32:10Z</time>
      </trkpt>
      <trkpt lat="49.04012" lon="-0.43668">
        <ele>118</ele>
        <time>2018-12-28T14:32:12Z</time>
      </trkpt>
      <trkpt lat="49.04008" lon="-0.43666">
        <ele>118.1</ele>
        <time>2018-12-28T14:32:14Z</time>
      </trkpt>
      <trkpt lat="49.04005" lon="-0.43665">
        <ele>118.2</ele>
        <time>2018-12-28T14:32:16Z</time>
      </trkpt>
      <trkpt lat="49.04001" lon="-0.43664">
        <ele>118.3</ele>
        <time>2018-12-28T14:32:18Z</time>
      </trkpt>
      <trkpt lat="49.03997" lon="-0.43662">
        <ele>118.4</ele>
        <time>2018-12-28T14:32:20Z</time>
      </trkpt>
      <trkpt lat="49.03993" lon="-0.43659">
        <ele>118.5</ele>
        <time>2018-12-28T14:32:22Z</time>
      </trkpt>
      <trkpt lat="49.0399" lon="-0.43656">
        <ele>118.7</ele>
        <time>2018-12-28T14:32:24Z</time>
      </trkpt>
      <trkpt lat="49.03987" lon="-0.43654">
        <ele>118.9</ele>
        <time>2018-12-28T14:32:26Z</time>
      </trkpt>
      <trkpt lat="49.03984" lon="-0.43652">
        <ele>119.2</ele>
        <time>2018-12-28T14:32:28Z</time>
      </trkpt>
      <trkpt lat="49.03981" lon="-0.4365">
        <ele>119.4</ele>
        <time>2018-12-28T14:32:30Z</time>
      </trkpt>
      <trkpt lat="49.03978" lon="-0.43648">
        <ele>119.6</ele>
        <time>2018-12-28T14:32:32Z</time>
      </trkpt>
      <trkpt lat="49.03975" lon="-0.43647">
        <ele>119.9</ele>
        <time>2018-12-28T14:32:35Z</time>
      </trkpt>
      <trkpt lat="49.03972" lon="-0.43647">
        <ele>120.1</ele>
        <time>2018-12-28T14:32:37Z</time>
      </trkpt>
      <trkpt lat="49.03969" lon="-0.43646">
        <ele>120.4</ele>
        <time>2018-12-28T14:32:40Z</time>
      </trkpt>
      <trkpt lat="49.03965" lon="-0.43644">
        <ele>120.7</ele>
        <time>2018-12-28T14:32:43Z</time>
      </trkpt>
      <trkpt lat="49.03961" lon="-0.43643">
        <ele>120.9</ele>
        <time>2018-12-28T14:32:46Z</time>
      </trkpt>
      <trkpt lat="49.03958" lon="-0.43641">
        <ele>121.2</ele>
        <time>2018-12-28T14:32:49Z</time>
      </trkpt>
      <trkpt lat="49.03953" lon="-0.4364">
        <ele>121.6</ele>
        <time>2018-12-28T14:32:52Z</time>
      </trkpt>
      <trkpt lat="49.0395" lon="-0.43638">
        <ele>121.8</ele>
        <time>2018-12-28T14:32:54Z</time>
      </trkpt>
      <trkpt lat="49.03947" lon="-0.43636">
        <ele>122.1</ele>
        <time>2018-12-28T14:32:57Z</time>
      </trkpt>
      <trkpt lat="49.03944" lon="-0.43635">
        <ele>122.4</ele>
        <time>2018-12-28T14:33:02Z</time>
      </trkpt>
      <trkpt lat="49.0394" lon="-0.43634">
        <ele>122.8</ele>
        <time>2018-12-28T14:33:04Z</time>
      </trkpt>
      <trkpt lat="49.03936" lon="-0.43632">
        <ele>123.1</ele>
        <time>2018-12-28T14:33:06Z</time>
      </trkpt>
      <trkpt lat="49.03933" lon="-0.43632">
        <ele>123.3</ele>
        <time>2018-12-28T14:33:08Z</time>
      </trkpt>
      <trkpt lat="49.03929" lon="-0.4363">
        <ele>123.5</ele>
        <time>2018-12-28T14:33:10Z</time>
      </trkpt>
      <trkpt lat="49.03925" lon="-0.4363">
        <ele>123.8</ele>
        <time>2018-12-28T14:33:13Z</time>
      </trkpt>
      <trkpt lat="49.03922" lon="-0.43629">
        <ele>123.9</ele>
        <time>2018-12-28T14:33:17Z</time>
      </trkpt>
      <trkpt lat="49.03919" lon="-0.43628">
        <ele>124.1</ele>
        <time>2018-12-28T14:33:19Z</time>
      </trkpt>
      <trkpt lat="49.03916" lon="-0.43627">
        <ele>124.2</ele>
        <time>2018-12-28T14:33:21Z</time>
      </trkpt>
      <trkpt lat="49.03913" lon="-0.43627">
        <ele>124.4</ele>
        <time>2018-12-28T14:33:23Z</time>
      </trkpt>
      <trkpt lat="49.0391" lon="-0.43626">
        <ele>124.5</ele>
        <time>2018-12-28T14:33:25Z</time>
      </trkpt>
      <trkpt lat="49.03908" lon="-0.43624">
        <ele>124.6</ele>
        <time>2018-12-28T14:33:27Z</time>
      </trkpt>
      <trkpt lat="49.03904" lon="-0.43622">
        <ele>124.8</ele>
        <time>2018-12-28T14:33:30Z</time>
      </trkpt>
      <trkpt lat="49.039" lon="-0.43622">
        <ele>125</ele>
        <time>2018-12-28T14:33:32Z</time>
      </trkpt>
      <trkpt lat="49.03898" lon="-0.43622">
        <ele>125.1</ele>
        <time>2018-12-28T14:33:34Z</time>
      </trkpt>
      <trkpt lat="49.03895" lon="-0.43621">
        <ele>125.3</ele>
        <time>2018-12-28T14:33:36Z</time>
      </trkpt>
      <trkpt lat="49.03892" lon="-0.43619">
        <ele>125.4</ele>
        <time>2018-12-28T14:33:38Z</time>
      </trkpt>
      <trkpt lat="49.03889" lon="-0.43616">
        <ele>125.5</ele>
        <time>2018-12-28T14:33:40Z</time>
      </trkpt>
      <trkpt lat="49.03886" lon="-0.43615">
        <ele>125.7</ele>
        <time>2018-12-28T14:33:43Z</time>
      </trkpt>
      <trkpt lat="49.03882" lon="-0.43612">
        <ele>125.9</ele>
        <time>2018-12-28T14:33:45Z</time>
      </trkpt>
      <trkpt lat="49.03879" lon="-0.43611">
        <ele>126</ele>
        <time>2018-12-28T14:33:47Z</time>
      </trkpt>
      <trkpt lat="49.03876" lon="-0.43609">
        <ele>126.2</ele>
        <time>2018-12-28T14:33:49Z</time>
      </trkpt>
      <trkpt lat="49.03872" lon="-0.43607">
        <ele>126.3</ele>
        <time>2018-12-28T14:33:51Z</time>
      </trkpt>
      <trkpt lat="49.03869" lon="-0.43606">
        <ele>126.4</ele>
        <time>2018-12-28T14:33:53Z</time>
      </trkpt>
      <trkpt lat="49.03866" lon="-0.43604">
        <ele>126.5</ele>
        <time>2018-12-28T14:33:55Z</time>
      </trkpt>
      <trkpt lat="49.03863" lon="-0.43603">
        <ele>126.5</ele>
        <time>2018-12-28T14:33:57Z</time>
      </trkpt>
      <trkpt lat="49.0386" lon="-0.43603">
        <ele>126.6</ele>
        <time>2018-12-28T14:33:59Z</time>
      </trkpt>
      <trkpt lat="49.03858" lon="-0.43604">
        <ele>126.7</ele>
        <time>2018-12-28T14:34:02Z</time>
      </trkpt>
      <trkpt lat="49.03855" lon="-0.43603">
        <ele>126.8</ele>
        <time>2018-12-28T14:34:05Z</time>
      </trkpt>
      <trkpt lat="49.03851" lon="-0.43602">
        <ele>126.9</ele>
        <time>2018-12-28T14:34:08Z</time>
      </trkpt>
      <trkpt lat="49.03848" lon="-0.43602">
        <ele>127</ele>
        <time>2018-12-28T14:34:10Z</time>
      </trkpt>
      <trkpt lat="49.03845" lon="-0.43601">
        <ele>127.1</ele>
        <time>2018-12-28T14:34:12Z</time>
      </trkpt>
      <trkpt lat="49.03842" lon="-0.436">
        <ele>127.2</ele>
        <time>2018-12-28T14:34:15Z</time>
      </trkpt>
      <trkpt lat="49.03838" lon="-0.43598">
        <ele>127.2</ele>
        <time>2018-12-28T14:34:17Z</time>
      </trkpt>
      <trkpt lat="49.03835" lon="-0.43597">
        <ele>127.3</ele>
        <time>2018-12-28T14:34:19Z</time>
      </trkpt>
      <trkpt lat="49.03831" lon="-0.43595">
        <ele>127.2</ele>
        <time>2018-12-28T14:34:21Z</time>
      </trkpt>
      <trkpt lat="49.03828" lon="-0.43594">
        <ele>127.2</ele>
        <time>2018-12-28T14:34:23Z</time>
      </trkpt>
      <trkpt lat="49.03825" lon="-0.43591">
        <ele>127.1</ele>
        <time>2018-12-28T14:34:26Z</time>
      </trkpt>
      <trkpt lat="49.03822" lon="-0.43589">
        <ele>127.1</ele>
        <time>2018-12-28T14:34:28Z</time>
      </trkpt>
      <trkpt lat="49.03819" lon="-0.43588">
        <ele>127.1</ele>
        <time>2018-12-28T14:34:30Z</time>
      </trkpt>
      <trkpt lat="49.03815" lon="-0.43587">
        <ele>127.1</ele>
        <time>2018-12-28T14:34:32Z</time>
      </trkpt>
      <trkpt lat="49.03812" lon="-0.43586">
        <ele>127.2</ele>
        <time>2018-12-28T14:34:34Z</time>
      </trkpt>
      <trkpt lat="49.03809" lon="-0.43586">
        <ele>127.2</ele>
        <time>2018-12-28T14:34:36Z</time>
      </trkpt>
      <trkpt lat="49.03806" lon="-0.43585">
        <ele>127.3</ele>
        <time>2018-12-28T14:34:38Z</time>
      </trkpt>
      <trkpt lat="49.03803" lon="-0.43583">
        <ele>127.3</ele>
        <time>2018-12-28T14:34:40Z</time>
      </trkpt>
      <trkpt lat="49.038" lon="-0.43582">
        <ele>127.4</ele>
        <time>2018-12-28T14:34:42Z</time>
      </trkpt>
      <trkpt lat="49.03798" lon="-0.43581">
        <ele>127.4</ele>
        <time>2018-12-28T14:34:44Z</time>
      </trkpt>
      <trkpt lat="49.03794" lon="-0.43579">
        <ele>127.5</ele>
        <time>2018-12-28T14:34:46Z</time>
      </trkpt>
      <trkpt lat="49.03791" lon="-0.43577">
        <ele>127.5</ele>
        <time>2018-12-28T14:34:48Z</time>
      </trkpt>
      <trkpt lat="49.03788" lon="-0.43575">
        <ele>127.6</ele>
        <time>2018-12-28T14:34:50Z</time>
      </trkpt>
      <trkpt lat="49.03785" lon="-0.43574">
        <ele>127.7</ele>
        <time>2018-12-28T14:34:53Z</time>
      </trkpt>
      <trkpt lat="49.03782" lon="-0.43573">
        <ele>127.7</ele>
        <time>2018-12-28T14:34:55Z</time>
      </trkpt>
      <trkpt lat="49.03779" lon="-0.43571">
        <ele>127.8</ele>
        <time>2018-12-28T14:34:57Z</time>
      </trkpt>
      <trkpt lat="49.03776" lon="-0.4357">
        <ele>127.9</ele>
        <time>2018-12-28T14:34:59Z</time>
      </trkpt>
      <trkpt lat="49.03772" lon="-0.43569">
        <ele>128</ele>
        <time>2018-12-28T14:35:01Z</time>
      </trkpt>
      <trkpt lat="49.03769" lon="-0.43568">
        <ele>128</ele>
        <time>2018-12-28T14:35:03Z</time>
      </trkpt>
      <trkpt lat="49.03766" lon="-0.43568">
        <ele>128.1</ele>
        <time>2018-12-28T14:35:05Z</time>
      </trkpt>
      <trkpt lat="49.03763" lon="-0.43566">
        <ele>128.2</ele>
        <time>2018-12-28T14:35:07Z</time>
      </trkpt>
      <trkpt lat="49.03759" lon="-0.43565">
        <ele>128.3</ele>
        <time>2018-12-28T14:35:10Z</time>
      </trkpt>
      <trkpt lat="49.03756" lon="-0.43563">
        <ele>128.4</ele>
        <time>2018-12-28T14:35:13Z</time>
      </trkpt>
      <trkpt lat="49.03753" lon="-0.43562">
        <ele>128.4</ele>
        <time>2018-12-28T14:35:15Z</time>
      </trkpt>
      <trkpt lat="49.0375" lon="-0.4356">
        <ele>128.5</ele>
        <time>2018-12-28T14:35:17Z</time>
      </trkpt>
      <trkpt lat="49.03746" lon="-0.43558">
        <ele>128.6</ele>
        <time>2018-12-28T14:35:19Z</time>
      </trkpt>
      <trkpt lat="49.03742" lon="-0.43556">
        <ele>128.7</ele>
        <time>2018-12-28T14:35:21Z</time>
      </trkpt>
      <trkpt lat="49.0374" lon="-0.43556">
        <ele>128.8</ele>
        <time>2018-12-28T14:35:23Z</time>
      </trkpt>
      <trkpt lat="49.03736" lon="-0.43555">
        <ele>128.9</ele>
        <time>2018-12-28T14:35:26Z</time>
      </trkpt>
      <trkpt lat="49.03732" lon="-0.43553">
        <ele>128.9</ele>
        <time>2018-12-28T14:35:29Z</time>
      </trkpt>
      <trkpt lat="49.03729" lon="-0.43552">
        <ele>129</ele>
        <time>2018-12-28T14:35:31Z</time>
      </trkpt>
      <trkpt lat="49.03727" lon="-0.4355">
        <ele>129.1</ele>
        <time>2018-12-28T14:35:33Z</time>
      </trkpt>
      <trkpt lat="49.03723" lon="-0.43548">
        <ele>129.2</ele>
        <time>2018-12-28T14:35:36Z</time>
      </trkpt>
      <trkpt lat="49.0372" lon="-0.43549">
        <ele>129.3</ele>
        <time>2018-12-28T14:35:39Z</time>
      </trkpt>
      <trkpt lat="49.03716" lon="-0.43549">
        <ele>129.4</ele>
        <time>2018-12-28T14:35:42Z</time>
      </trkpt>
      <trkpt lat="49.03712" lon="-0.43548">
        <ele>129.5</ele>
        <time>2018-12-28T14:35:45Z</time>
      </trkpt>
      <trkpt lat="49.03709" lon="-0.43546">
        <ele>129.6</ele>
        <time>2018-12-28T14:35:47Z</time>
      </trkpt>
      <trkpt lat="49.03706" lon="-0.43545">
        <ele>129.7</ele>
        <time>2018-12-28T14:35:49Z</time>
      </trkpt>
      <trkpt lat="49.03703" lon="-0.43545">
        <ele>129.8</ele>
        <time>2018-12-28T14:35:52Z</time>
      </trkpt>
      <trkpt lat="49.037" lon="-0.43545">
        <ele>129.9</ele>
        <time>2018-12-28T14:35:56Z</time>
      </trkpt>
      <trkpt lat="49.03696" lon="-0.43544">
        <ele>130</ele>
        <time>2018-12-28T14:36:00Z</time>
      </trkpt>
      <trkpt lat="49.03693" lon="-0.43543">
        <ele>130.1</ele>
        <time>2018-12-28T14:36:02Z</time>
      </trkpt>
      <trkpt lat="49.03691" lon="-0.43541">
        <ele>130.2</ele>
        <time>2018-12-28T14:36:04Z</time>
      </trkpt>
      <trkpt lat="49.03688" lon="-0.4354">
        <ele>130.4</ele>
        <time>2018-12-28T14:36:06Z</time>
      </trkpt>
      <trkpt lat="49.03685" lon="-0.43539">
        <ele>130.5</ele>
        <time>2018-12-28T14:36:08Z</time>
      </trkpt>
      <trkpt lat="49.03682" lon="-0.43537">
        <ele>130.6</ele>
        <time>2018-12-28T14:36:10Z</time>
      </trkpt>
      <trkpt lat="49.03679" lon="-0.43536">
        <ele>130.7</ele>
        <time>2018-12-28T14:36:12Z</time>
      </trkpt>
      <trkpt lat="49.03676" lon="-0.43535">
        <ele>130.8</ele>
        <time>2018-12-28T14:36:14Z</time>
      </trkpt>
      <trkpt lat="49.03673" lon="-0.43533">
        <ele>130.9</ele>
        <time>2018-12-28T14:36:15Z</time>
      </trkpt>
      <trkpt lat="49.0367" lon="-0.43532">
        <ele>131</ele>
        <time>2018-12-28T14:36:16Z</time>
      </trkpt>
      <trkpt lat="49.03665" lon="-0.4353">
        <ele>131.2</ele>
        <time>2018-12-28T14:36:18Z</time>
      </trkpt>
      <trkpt lat="49.03661" lon="-0.43528">
        <ele>131.3</ele>
        <time>2018-12-28T14:36:20Z</time>
      </trkpt>
      <trkpt lat="49.03659" lon="-0.43527">
        <ele>131.4</ele>
        <time>2018-12-28T14:36:22Z</time>
      </trkpt>
      <trkpt lat="49.03656" lon="-0.43525">
        <ele>131.5</ele>
        <time>2018-12-28T14:36:24Z</time>
      </trkpt>
      <trkpt lat="49.03652" lon="-0.43525">
        <ele>131.6</ele>
        <time>2018-12-28T14:36:27Z</time>
      </trkpt>
      <trkpt lat="49.03648" lon="-0.43524">
        <ele>131.7</ele>
        <time>2018-12-28T14:36:30Z</time>
      </trkpt>
      <trkpt lat="49.03645" lon="-0.43523">
        <ele>131.8</ele>
        <time>2018-12-28T14:36:32Z</time>
      </trkpt>
      <trkpt lat="49.03642" lon="-0.43522">
        <ele>131.9</ele>
        <time>2018-12-28T14:36:34Z</time>
      </trkpt>
      <trkpt lat="49.03639" lon="-0.43522">
        <ele>132</ele>
        <time>2018-12-28T14:36:36Z</time>
      </trkpt>
      <trkpt lat="49.03636" lon="-0.4352">
        <ele>132.1</ele>
        <time>2018-12-28T14:36:38Z</time>
      </trkpt>
      <trkpt lat="49.03633" lon="-0.43519">
        <ele>132.2</ele>
        <time>2018-12-28T14:36:40Z</time>
      </trkpt>
      <trkpt lat="49.0363" lon="-0.43519">
        <ele>132.3</ele>
        <time>2018-12-28T14:36:42Z</time>
      </trkpt>
      <trkpt lat="49.03627" lon="-0.43518">
        <ele>132.5</ele>
        <time>2018-12-28T14:36:45Z</time>
      </trkpt>
      <trkpt lat="49.03624" lon="-0.43517">
        <ele>132.6</ele>
        <time>2018-12-28T14:36:48Z</time>
      </trkpt>
      <trkpt lat="49.03621" lon="-0.43516">
        <ele>132.7</ele>
        <time>2018-12-28T14:36:50Z</time>
      </trkpt>
      <trkpt lat="49.03618" lon="-0.43515">
        <ele>132.8</ele>
        <time>2018-12-28T14:36:52Z</time>
      </trkpt>
      <trkpt lat="49.03615" lon="-0.43514">
        <ele>133</ele>
        <time>2018-12-28T14:36:55Z</time>
      </trkpt>
      <trkpt lat="49.03611" lon="-0.43513">
        <ele>133.2</ele>
        <time>2018-12-28T14:36:58Z</time>
      </trkpt>
      <trkpt lat="49.03608" lon="-0.43512">
        <ele>133.3</ele>
        <time>2018-12-28T14:37:00Z</time>
      </trkpt>
      <trkpt lat="49.03605" lon="-0.4351">
        <ele>133.5</ele>
        <time>2018-12-28T14:37:02Z</time>
      </trkpt>
      <trkpt lat="49.03601" lon="-0.43508">
        <ele>133.6</ele>
        <time>2018-12-28T14:37:05Z</time>
      </trkpt>
      <trkpt lat="49.03598" lon="-0.43507">
        <ele>133.8</ele>
        <time>2018-12-28T14:37:09Z</time>
      </trkpt>
      <trkpt lat="49.03595" lon="-0.43506">
        <ele>134</ele>
        <time>2018-12-28T14:37:11Z</time>
      </trkpt>
      <trkpt lat="49.03591" lon="-0.43506">
        <ele>134.2</ele>
        <time>2018-12-28T14:37:13Z</time>
      </trkpt>
      <trkpt lat="49.03588" lon="-0.43505">
        <ele>134.4</ele>
        <time>2018-12-28T14:37:15Z</time>
      </trkpt>
      <trkpt lat="49.03585" lon="-0.43504">
        <ele>134.5</ele>
        <time>2018-12-28T14:37:18Z</time>
      </trkpt>
      <trkpt lat="49.0358" lon="-0.43505">
        <ele>134.8</ele>
        <time>2018-12-28T14:37:23Z</time>
      </trkpt>
      <trkpt lat="49.03576" lon="-0.43505">
        <ele>135</ele>
        <time>2018-12-28T14:37:25Z</time>
      </trkpt>
      <trkpt lat="49.03574" lon="-0.43504">
        <ele>135.2</ele>
        <time>2018-12-28T14:37:27Z</time>
      </trkpt>
      <trkpt lat="49.0357" lon="-0.43504">
        <ele>135.4</ele>
        <time>2018-12-28T14:37:30Z</time>
      </trkpt>
      <trkpt lat="49.03567" lon="-0.43502">
        <ele>135.6</ele>
        <time>2018-12-28T14:37:32Z</time>
      </trkpt>
      <trkpt lat="49.03563" lon="-0.435">
        <ele>135.8</ele>
        <time>2018-12-28T14:37:34Z</time>
      </trkpt>
      <trkpt lat="49.03561" lon="-0.43498">
        <ele>135.9</ele>
        <time>2018-12-28T14:37:36Z</time>
      </trkpt>
      <trkpt lat="49.03557" lon="-0.43496">
        <ele>136.2</ele>
        <time>2018-12-28T14:37:39Z</time>
      </trkpt>
      <trkpt lat="49.03554" lon="-0.43495">
        <ele>136.3</ele>
        <time>2018-12-28T14:37:41Z</time>
      </trkpt>
      <trkpt lat="49.0355" lon="-0.43494">
        <ele>136.6</ele>
        <time>2018-12-28T14:37:44Z</time>
      </trkpt>
      <trkpt lat="49.03547" lon="-0.43492">
        <ele>136.8</ele>
        <time>2018-12-28T14:37:47Z</time>
      </trkpt>
      <trkpt lat="49.03543" lon="-0.43492">
        <ele>137</ele>
        <time>2018-12-28T14:37:50Z</time>
      </trkpt>
      <trkpt lat="49.03541" lon="-0.43491">
        <ele>137.1</ele>
        <time>2018-12-28T14:37:52Z</time>
      </trkpt>
      <trkpt lat="49.03537" lon="-0.4349">
        <ele>137.4</ele>
        <time>2018-12-28T14:37:55Z</time>
      </trkpt>
      <trkpt lat="49.03534" lon="-0.43488">
        <ele>137.6</ele>
        <time>2018-12-28T14:37:57Z</time>
      </trkpt>
      <trkpt lat="49.0353" lon="-0.43487">
        <ele>137.8</ele>
        <time>2018-12-28T14:38:00Z</time>
      </trkpt>
      <trkpt lat="49.03527" lon="-0.43486">
        <ele>138</ele>
        <time>2018-12-28T14:38:02Z</time>
      </trkpt>
      <trkpt lat="49.03524" lon="-0.43485">
        <ele>138.2</ele>
        <time>2018-12-28T14:38:04Z</time>
      </trkpt>
      <trkpt lat="49.0352" lon="-0.43484">
        <ele>138.4</ele>
        <time>2018-12-28T14:38:06Z</time>
      </trkpt>
      <trkpt lat="49.03517" lon="-0.43482">
        <ele>138.7</ele>
        <time>2018-12-28T14:38:08Z</time>
      </trkpt>
      <trkpt lat="49.03513" lon="-0.43481">
        <ele>138.9</ele>
        <time>2018-12-28T14:38:11Z</time>
      </trkpt>
      <trkpt lat="49.0351" lon="-0.43479">
        <ele>139.1</ele>
        <time>2018-12-28T14:38:14Z</time>
      </trkpt>
      <trkpt lat="49.03506" lon="-0.43477">
        <ele>139.3</ele>
        <time>2018-12-28T14:38:17Z</time>
      </trkpt>
      <trkpt lat="49.03503" lon="-0.43474">
        <ele>139.4</ele>
        <time>2018-12-28T14:38:20Z</time>
      </trkpt>
      <trkpt lat="49.035" lon="-0.43473">
        <ele>139.6</ele>
        <time>2018-12-28T14:38:22Z</time>
      </trkpt>
      <trkpt lat="49.03497" lon="-0.43472">
        <ele>139.7</ele>
        <time>2018-12-28T14:38:24Z</time>
      </trkpt>
      <trkpt lat="49.03493" lon="-0.43471">
        <ele>139.8</ele>
        <time>2018-12-28T14:38:27Z</time>
      </trkpt>
      <trkpt lat="49.0349" lon="-0.4347">
        <ele>139.9</ele>
        <time>2018-12-28T14:38:30Z</time>
      </trkpt>
      <trkpt lat="49.03487" lon="-0.43468">
        <ele>140</ele>
        <time>2018-12-28T14:38:33Z</time>
      </trkpt>
      <trkpt lat="49.03484" lon="-0.43466">
        <ele>140</ele>
        <time>2018-12-28T14:38:36Z</time>
      </trkpt>
      <trkpt lat="49.03481" lon="-0.43464">
        <ele>140.1</ele>
        <time>2018-12-28T14:39:09Z</time>
      </trkpt>
      <trkpt lat="49.03479" lon="-0.43469">
        <ele>140.2</ele>
        <time>2018-12-28T14:39:11Z</time>
      </trkpt>
      <trkpt lat="49.03476" lon="-0.43472">
        <ele>140.3</ele>
        <time>2018-12-28T14:39:13Z</time>
      </trkpt>
      <trkpt lat="49.03474" lon="-0.4348">
        <ele>140.4</ele>
        <time>2018-12-28T14:39:17Z</time>
      </trkpt>
      <trkpt lat="49.03474" lon="-0.43485">
        <ele>140.4</ele>
        <time>2018-12-28T14:39:18Z</time>
      </trkpt>
      <trkpt lat="49.03471" lon="-0.43481">
        <ele>140.5</ele>
        <time>2018-12-28T14:39:27Z</time>
      </trkpt>
      <trkpt lat="49.03469" lon="-0.43476">
        <ele>140.5</ele>
        <time>2018-12-28T14:39:30Z</time>
      </trkpt>
      <trkpt lat="49.03467" lon="-0.43472">
        <ele>140.5</ele>
        <time>2018-12-28T14:39:32Z</time>
      </trkpt>
      <trkpt lat="49.03466" lon="-0.43469">
        <ele>140.5</ele>
        <time>2018-12-28T14:39:34Z</time>
      </trkpt>
      <trkpt lat="49.03463" lon="-0.43467">
        <ele>140.5</ele>
        <time>2018-12-28T14:39:36Z</time>
      </trkpt>
      <trkpt lat="49.0346" lon="-0.43464">
        <ele>140.5</ele>
        <time>2018-12-28T14:39:39Z</time>
      </trkpt>
      <trkpt lat="49.03458" lon="-0.43461">
        <ele>140.6</ele>
        <time>2018-12-28T14:39:42Z</time>
      </trkpt>
      <trkpt lat="49.03455" lon="-0.43459">
        <ele>140.6</ele>
        <time>2018-12-28T14:39:45Z</time>
      </trkpt>
      <trkpt lat="49.03452" lon="-0.43457">
        <ele>140.6</ele>
        <time>2018-12-28T14:39:48Z</time>
      </trkpt>
      <trkpt lat="49.03449" lon="-0.43455">
        <ele>140.6</ele>
        <time>2018-12-28T14:39:51Z</time>
      </trkpt>
      <trkpt lat="49.03446" lon="-0.43454">
        <ele>140.6</ele>
        <time>2018-12-28T14:39:54Z</time>
      </trkpt>
      <trkpt lat="49.03442" lon="-0.43453">
        <ele>140.6</ele>
        <time>2018-12-28T14:39:57Z</time>
      </trkpt>
      <trkpt lat="49.03439" lon="-0.43453">
        <ele>140.6</ele>
        <time>2018-12-28T14:40:00Z</time>
      </trkpt>
      <trkpt lat="49.03436" lon="-0.43452">
        <ele>140.7</ele>
        <time>2018-12-28T14:40:21Z</time>
      </trkpt>
      <trkpt lat="49.03432" lon="-0.43453">
        <ele>140.7</ele>
        <time>2018-12-28T14:40:24Z</time>
      </trkpt>
      <trkpt lat="49.03429" lon="-0.43449">
        <ele>140.8</ele>
        <time>2018-12-28T14:40:27Z</time>
      </trkpt>
      <trkpt lat="49.03425" lon="-0.43449">
        <ele>140.8</ele>
        <time>2018-12-28T14:40:29Z</time>
      </trkpt>
      <trkpt lat="49.03421" lon="-0.43449">
        <ele>140.9</ele>
        <time>2018-12-28T14:40:31Z</time>
      </trkpt>
      <trkpt lat="49.03418" lon="-0.43447">
        <ele>141</ele>
        <time>2018-12-28T14:40:33Z</time>
      </trkpt>
      <trkpt lat="49.03415" lon="-0.43446">
        <ele>141</ele>
        <time>2018-12-28T14:40:36Z</time>
      </trkpt>
      <trkpt lat="49.03412" lon="-0.43444">
        <ele>141.1</ele>
        <time>2018-12-28T14:40:40Z</time>
      </trkpt>
      <trkpt lat="49.03408" lon="-0.43443">
        <ele>141.2</ele>
        <time>2018-12-28T14:40:43Z</time>
      </trkpt>
      <trkpt lat="49.03406" lon="-0.43441">
        <ele>141.3</ele>
        <time>2018-12-28T14:40:45Z</time>
      </trkpt>
      <trkpt lat="49.03402" lon="-0.43437">
        <ele>141.4</ele>
        <time>2018-12-28T14:40:48Z</time>
      </trkpt>
      <trkpt lat="49.03399" lon="-0.43435">
        <ele>141.4</ele>
        <time>2018-12-28T14:40:53Z</time>
      </trkpt>
      <trkpt lat="49.03396" lon="-0.43434">
        <ele>141.5</ele>
        <time>2018-12-28T14:40:56Z</time>
      </trkpt>
      <trkpt lat="49.03393" lon="-0.43433">
        <ele>141.6</ele>
        <time>2018-12-28T14:40:58Z</time>
      </trkpt>
      <trkpt lat="49.0339" lon="-0.43433">
        <ele>141.6</ele>
        <time>2018-12-28T14:41:01Z</time>
      </trkpt>
      <trkpt lat="49.03386" lon="-0.43432">
        <ele>141.6</ele>
        <time>2018-12-28T14:41:04Z</time>
      </trkpt>
      <trkpt lat="49.03383" lon="-0.43431">
        <ele>141.6</ele>
        <time>2018-12-28T14:41:06Z</time>
      </trkpt>
      <trkpt lat="49.0338" lon="-0.43429">
        <ele>141.5</ele>
        <time>2018-12-28T14:41:08Z</time>
      </trkpt>
      <trkpt lat="49.03377" lon="-0.43427">
        <ele>141.5</ele>
        <time>2018-12-28T14:41:11Z</time>
      </trkpt>
      <trkpt lat="49.03374" lon="-0.43425">
        <ele>141.5</ele>
        <time>2018-12-28T14:41:14Z</time>
      </trkpt>
      <trkpt lat="49.0337" lon="-0.43423">
        <ele>141.5</ele>
        <time>2018-12-28T14:41:17Z</time>
      </trkpt>
      <trkpt lat="49.03367" lon="-0.43421">
        <ele>141.5</ele>
        <time>2018-12-28T14:41:20Z</time>
      </trkpt>
      <trkpt lat="49.03364" lon="-0.4342">
        <ele>141.5</ele>
        <time>2018-12-28T14:41:22Z</time>
      </trkpt>
      <trkpt lat="49.03362" lon="-0.43419">
        <ele>141.5</ele>
        <time>2018-12-28T14:41:24Z</time>
      </trkpt>
      <trkpt lat="49.03358" lon="-0.43419">
        <ele>141.5</ele>
        <time>2018-12-28T14:41:27Z</time>
      </trkpt>
      <trkpt lat="49.03354" lon="-0.43418">
        <ele>141.5</ele>
        <time>2018-12-28T14:41:30Z</time>
      </trkpt>
      <trkpt lat="49.03351" lon="-0.43416">
        <ele>141.5</ele>
        <time>2018-12-28T14:41:32Z</time>
      </trkpt>
      <trkpt lat="49.03347" lon="-0.43416">
        <ele>141.5</ele>
        <time>2018-12-28T14:41:34Z</time>
      </trkpt>
      <trkpt lat="49.03344" lon="-0.43414">
        <ele>141.6</ele>
        <time>2018-12-28T14:41:36Z</time>
      </trkpt>
      <trkpt lat="49.03341" lon="-0.43413">
        <ele>141.6</ele>
        <time>2018-12-28T14:41:38Z</time>
      </trkpt>
      <trkpt lat="49.03338" lon="-0.43411">
        <ele>141.7</ele>
        <time>2018-12-28T14:41:41Z</time>
      </trkpt>
      <trkpt lat="49.03335" lon="-0.43409">
        <ele>141.7</ele>
        <time>2018-12-28T14:41:44Z</time>
      </trkpt>
      <trkpt lat="49.03331" lon="-0.43408">
        <ele>141.7</ele>
        <time>2018-12-28T14:41:47Z</time>
      </trkpt>
      <trkpt lat="49.03328" lon="-0.43408">
        <ele>141.8</ele>
        <time>2018-12-28T14:41:50Z</time>
      </trkpt>
      <trkpt lat="49.03325" lon="-0.43406">
        <ele>141.8</ele>
        <time>2018-12-28T14:41:53Z</time>
      </trkpt>
      <trkpt lat="49.03322" lon="-0.43405">
        <ele>141.8</ele>
        <time>2018-12-28T14:41:55Z</time>
      </trkpt>
      <trkpt lat="49.03319" lon="-0.43405">
        <ele>141.9</ele>
        <time>2018-12-28T14:41:58Z</time>
      </trkpt>
      <trkpt lat="49.03316" lon="-0.43404">
        <ele>141.9</ele>
        <time>2018-12-28T14:42:00Z</time>
      </trkpt>
      <trkpt lat="49.03313" lon="-0.43403">
        <ele>141.9</ele>
        <time>2018-12-28T14:42:03Z</time>
      </trkpt>
      <trkpt lat="49.0331" lon="-0.43403">
        <ele>142</ele>
        <time>2018-12-28T14:42:06Z</time>
      </trkpt>
      <trkpt lat="49.03307" lon="-0.43402">
        <ele>142.1</ele>
        <time>2018-12-28T14:42:08Z</time>
      </trkpt>
      <trkpt lat="49.03304" lon="-0.434">
        <ele>142.2</ele>
        <time>2018-12-28T14:42:10Z</time>
      </trkpt>
      <trkpt lat="49.03301" lon="-0.43399">
        <ele>142.3</ele>
        <time>2018-12-28T14:42:12Z</time>
      </trkpt>
      <trkpt lat="49.03297" lon="-0.43397">
        <ele>142.5</ele>
        <time>2018-12-28T14:42:14Z</time>
      </trkpt>
      <trkpt lat="49.03294" lon="-0.43395">
        <ele>142.6</ele>
        <time>2018-12-28T14:42:16Z</time>
      </trkpt>
      <trkpt lat="49.03292" lon="-0.43394">
        <ele>142.7</ele>
        <time>2018-12-28T14:42:18Z</time>
      </trkpt>
      <trkpt lat="49.03288" lon="-0.43393">
        <ele>142.9</ele>
        <time>2018-12-28T14:42:20Z</time>
      </trkpt>
      <trkpt lat="49.03285" lon="-0.43391">
        <ele>142.9</ele>
        <time>2018-12-28T14:42:22Z</time>
      </trkpt>
      <trkpt lat="49.03282" lon="-0.4339">
        <ele>143</ele>
        <time>2018-12-28T14:42:24Z</time>
      </trkpt>
      <trkpt lat="49.03279" lon="-0.43389">
        <ele>143</ele>
        <time>2018-12-28T14:42:26Z</time>
      </trkpt>
      <trkpt lat="49.03277" lon="-0.43388">
        <ele>143.1</ele>
        <time>2018-12-28T14:42:28Z</time>
      </trkpt>
      <trkpt lat="49.03273" lon="-0.43387">
        <ele>143.2</ele>
        <time>2018-12-28T14:42:31Z</time>
      </trkpt>
      <trkpt lat="49.03269" lon="-0.43386">
        <ele>143.2</ele>
        <time>2018-12-28T14:42:34Z</time>
      </trkpt>
      <trkpt lat="49.03266" lon="-0.43385">
        <ele>143.3</ele>
        <time>2018-12-28T14:42:36Z</time>
      </trkpt>
      <trkpt lat="49.03263" lon="-0.43384">
        <ele>143.4</ele>
        <time>2018-12-28T14:42:39Z</time>
      </trkpt>
      <trkpt lat="49.0326" lon="-0.43384">
        <ele>143.4</ele>
        <time>2018-12-28T14:42:41Z</time>
      </trkpt>
      <trkpt lat="49.03257" lon="-0.43382">
        <ele>143.5</ele>
        <time>2018-12-28T14:42:43Z</time>
      </trkpt>
      <trkpt lat="49.03254" lon="-0.43381">
        <ele>143.6</ele>
        <time>2018-12-28T14:42:45Z</time>
      </trkpt>
      <trkpt lat="49.03251" lon="-0.43381">
        <ele>143.6</ele>
        <time>2018-12-28T14:42:47Z</time>
      </trkpt>
      <trkpt lat="49.03248" lon="-0.4338">
        <ele>143.7</ele>
        <time>2018-12-28T14:42:50Z</time>
      </trkpt>
      <trkpt lat="49.03245" lon="-0.43379">
        <ele>143.8</ele>
        <time>2018-12-28T14:42:52Z</time>
      </trkpt>
      <trkpt lat="49.03242" lon="-0.43378">
        <ele>143.9</ele>
        <time>2018-12-28T14:42:54Z</time>
      </trkpt>
      <trkpt lat="49.03238" lon="-0.43376">
        <ele>144.1</ele>
        <time>2018-12-28T14:42:57Z</time>
      </trkpt>
      <trkpt lat="49.03235" lon="-0.43374">
        <ele>144.3</ele>
        <time>2018-12-28T14:42:59Z</time>
      </trkpt>
      <trkpt lat="49.03232" lon="-0.43375">
        <ele>144.6</ele>
        <time>2018-12-28T14:43:02Z</time>
      </trkpt>
      <trkpt lat="49.03229" lon="-0.43375">
        <ele>144.6</ele>
        <time>2018-12-28T14:43:05Z</time>
      </trkpt>
      <trkpt lat="49.03225" lon="-0.43372">
        <ele>144.6</ele>
        <time>2018-12-28T14:43:07Z</time>
      </trkpt>
      <trkpt lat="49.03221" lon="-0.4337">
        <ele>144.6</ele>
        <time>2018-12-28T14:43:09Z</time>
      </trkpt>
      <trkpt lat="49.03219" lon="-0.43368">
        <ele>144.7</ele>
        <time>2018-12-28T14:43:11Z</time>
      </trkpt>
      <trkpt lat="49.03217" lon="-0.43365">
        <ele>144.7</ele>
        <time>2018-12-28T14:43:13Z</time>
      </trkpt>
      <trkpt lat="49.03216" lon="-0.43361">
        <ele>144.7</ele>
        <time>2018-12-28T14:43:15Z</time>
      </trkpt>
      <trkpt lat="49.03216" lon="-0.43355">
        <ele>144.7</ele>
        <time>2018-12-28T14:43:18Z</time>
      </trkpt>
      <trkpt lat="49.03217" lon="-0.43351">
        <ele>144.7</ele>
        <time>2018-12-28T14:43:21Z</time>
      </trkpt>
      <trkpt lat="49.03217" lon="-0.43346">
        <ele>144.7</ele>
        <time>2018-12-28T14:43:25Z</time>
      </trkpt>
      <trkpt lat="49.03218" lon="-0.43341">
        <ele>144.7</ele>
        <time>2018-12-28T14:43:29Z</time>
      </trkpt>
      <trkpt lat="49.03218" lon="-0.43336">
        <ele>144.7</ele>
        <time>2018-12-28T14:43:31Z</time>
      </trkpt>
      <trkpt lat="49.03219" lon="-0.4333">
        <ele>144.7</ele>
        <time>2018-12-28T14:43:34Z</time>
      </trkpt>
      <trkpt lat="49.03221" lon="-0.43326">
        <ele>144.8</ele>
        <time>2018-12-28T14:43:36Z</time>
      </trkpt>
      <trkpt lat="49.03221" lon="-0.43321">
        <ele>144.8</ele>
        <time>2018-12-28T14:43:39Z</time>
      </trkpt>
      <trkpt lat="49.0322" lon="-0.43316">
        <ele>144.8</ele>
        <time>2018-12-28T14:43:41Z</time>
      </trkpt>
      <trkpt lat="49.03221" lon="-0.43311">
        <ele>144.8</ele>
        <time>2018-12-28T14:43:43Z</time>
      </trkpt>
      <trkpt lat="49.03221" lon="-0.43307">
        <ele>144.8</ele>
        <time>2018-12-28T14:43:46Z</time>
      </trkpt>
      <trkpt lat="49.03223" lon="-0.43302">
        <ele>144.8</ele>
        <time>2018-12-28T14:43:48Z</time>
      </trkpt>
      <trkpt lat="49.03224" lon="-0.43298">
        <ele>144.8</ele>
        <time>2018-12-28T14:43:50Z</time>
      </trkpt>
      <trkpt lat="49.03226" lon="-0.43292">
        <ele>144.8</ele>
        <time>2018-12-28T14:43:52Z</time>
      </trkpt>
      <trkpt lat="49.03226" lon="-0.43288">
        <ele>144.8</ele>
        <time>2018-12-28T14:43:54Z</time>
      </trkpt>
      <trkpt lat="49.03228" lon="-0.43282">
        <ele>144.8</ele>
        <time>2018-12-28T14:43:57Z</time>
      </trkpt>
      <trkpt lat="49.03229" lon="-0.43277">
        <ele>144.8</ele>
        <time>2018-12-28T14:44:00Z</time>
      </trkpt>
      <trkpt lat="49.03231" lon="-0.43273">
        <ele>144.8</ele>
        <time>2018-12-28T14:44:02Z</time>
      </trkpt>
      <trkpt lat="49.03234" lon="-0.43269">
        <ele>144.8</ele>
        <time>2018-12-28T14:44:05Z</time>
      </trkpt>
      <trkpt lat="49.03234" lon="-0.43263">
        <ele>144.8</ele>
        <time>2018-12-28T14:44:08Z</time>
      </trkpt>
      <trkpt lat="49.03236" lon="-0.4326">
        <ele>144.8</ele>
        <time>2018-12-28T14:44:10Z</time>
      </trkpt>
      <trkpt lat="49.03239" lon="-0.43255">
        <ele>144.8</ele>
        <time>2018-12-28T14:44:12Z</time>
      </trkpt>
      <trkpt lat="49.0324" lon="-0.4325">
        <ele>144.8</ele>
        <time>2018-12-28T14:44:15Z</time>
      </trkpt>
      <trkpt lat="49.0324" lon="-0.43246">
        <ele>144.8</ele>
        <time>2018-12-28T14:44:17Z</time>
      </trkpt>
      <trkpt lat="49.03241" lon="-0.4324">
        <ele>144.8</ele>
        <time>2018-12-28T14:44:20Z</time>
      </trkpt>
      <trkpt lat="49.03241" lon="-0.43235">
        <ele>144.8</ele>
        <time>2018-12-28T14:44:23Z</time>
      </trkpt>
      <trkpt lat="49.03241" lon="-0.43229">
        <ele>144.8</ele>
        <time>2018-12-28T14:44:26Z</time>
      </trkpt>
      <trkpt lat="49.03242" lon="-0.43224">
        <ele>144.8</ele>
        <time>2018-12-28T14:44:28Z</time>
      </trkpt>
      <trkpt lat="49.03242" lon="-0.4322">
        <ele>144.7</ele>
        <time>2018-12-28T14:44:30Z</time>
      </trkpt>
      <trkpt lat="49.03242" lon="-0.43215">
        <ele>144.7</ele>
        <time>2018-12-28T14:44:33Z</time>
      </trkpt>
      <trkpt lat="49.03242" lon="-0.43209">
        <ele>144.7</ele>
        <time>2018-12-28T14:44:36Z</time>
      </trkpt>
      <trkpt lat="49.03243" lon="-0.43204">
        <ele>144.6</ele>
        <time>2018-12-28T14:44:38Z</time>
      </trkpt>
      <trkpt lat="49.03244" lon="-0.43199">
        <ele>144.5</ele>
        <time>2018-12-28T14:44:40Z</time>
      </trkpt>
      <trkpt lat="49.03245" lon="-0.43194">
        <ele>144.5</ele>
        <time>2018-12-28T14:44:43Z</time>
      </trkpt>
      <trkpt lat="49.03247" lon="-0.4319">
        <ele>144.4</ele>
        <time>2018-12-28T14:44:46Z</time>
      </trkpt>
      <trkpt lat="49.03248" lon="-0.43184">
        <ele>144.4</ele>
        <time>2018-12-28T14:44:49Z</time>
      </trkpt>
      <trkpt lat="49.0325" lon="-0.4318">
        <ele>144.3</ele>
        <time>2018-12-28T14:44:52Z</time>
      </trkpt>
      <trkpt lat="49.03252" lon="-0.43177">
        <ele>144.2</ele>
        <time>2018-12-28T14:44:54Z</time>
      </trkpt>
      <trkpt lat="49.03254" lon="-0.43174">
        <ele>144.1</ele>
        <time>2018-12-28T14:44:56Z</time>
      </trkpt>
      <trkpt lat="49.03256" lon="-0.43169">
        <ele>144</ele>
        <time>2018-12-28T14:44:59Z</time>
      </trkpt>
      <trkpt lat="49.03258" lon="-0.43164">
        <ele>144</ele>
        <time>2018-12-28T14:45:01Z</time>
      </trkpt>
      <trkpt lat="49.03259" lon="-0.4316">
        <ele>143.9</ele>
        <time>2018-12-28T14:45:04Z</time>
      </trkpt>
      <trkpt lat="49.03261" lon="-0.43155">
        <ele>143.8</ele>
        <time>2018-12-28T14:45:08Z</time>
      </trkpt>
      <trkpt lat="49.03262" lon="-0.43151">
        <ele>143.7</ele>
        <time>2018-12-28T14:45:11Z</time>
      </trkpt>
      <trkpt lat="49.03264" lon="-0.43147">
        <ele>143.6</ele>
        <time>2018-12-28T14:45:14Z</time>
      </trkpt>
      <trkpt lat="49.03267" lon="-0.43144">
        <ele>143.5</ele>
        <time>2018-12-28T14:45:18Z</time>
      </trkpt>
      <trkpt lat="49.03269" lon="-0.4314">
        <ele>143.4</ele>
        <time>2018-12-28T14:45:28Z</time>
      </trkpt>
      <trkpt lat="49.03271" lon="-0.43137">
        <ele>143.3</ele>
        <time>2018-12-28T14:45:32Z</time>
      </trkpt>
      <trkpt lat="49.03274" lon="-0.43135">
        <ele>143.3</ele>
        <time>2018-12-28T14:45:40Z</time>
      </trkpt>
      <trkpt lat="49.03276" lon="-0.43134">
        <ele>143.2</ele>
        <time>2018-12-28T14:45:43Z</time>
      </trkpt>
      <trkpt lat="49.03279" lon="-0.43131">
        <ele>143.1</ele>
        <time>2018-12-28T14:45:49Z</time>
      </trkpt>
      <trkpt lat="49.03282" lon="-0.43128">
        <ele>143</ele>
        <time>2018-12-28T14:45:51Z</time>
      </trkpt>
      <trkpt lat="49.03285" lon="-0.43123">
        <ele>142.8</ele>
        <time>2018-12-28T14:45:53Z</time>
      </trkpt>
      <trkpt lat="49.03287" lon="-0.43119">
        <ele>142.7</ele>
        <time>2018-12-28T14:45:55Z</time>
      </trkpt>
      <trkpt lat="49.0329" lon="-0.43114">
        <ele>142.5</ele>
        <time>2018-12-28T14:45:57Z</time>
      </trkpt>
      <trkpt lat="49.03293" lon="-0.43111">
        <ele>142.4</ele>
        <time>2018-12-28T14:45:59Z</time>
      </trkpt>
      <trkpt lat="49.03296" lon="-0.43108">
        <ele>142.2</ele>
        <time>2018-12-28T14:46:02Z</time>
      </trkpt>
      <trkpt lat="49.03298" lon="-0.43107">
        <ele>142.1</ele>
        <time>2018-12-28T14:46:12Z</time>
      </trkpt>
      <trkpt lat="49.03301" lon="-0.43107">
        <ele>141.9</ele>
        <time>2018-12-28T14:46:15Z</time>
      </trkpt>
      <trkpt lat="49.03304" lon="-0.43108">
        <ele>141.8</ele>
        <time>2018-12-28T14:46:21Z</time>
      </trkpt>
      <trkpt lat="49.03307" lon="-0.43109">
        <ele>141.6</ele>
        <time>2018-12-28T14:46:34Z</time>
      </trkpt>
      <trkpt lat="49.0331" lon="-0.4311">
        <ele>141.4</ele>
        <time>2018-12-28T14:46:36Z</time>
      </trkpt>
      <trkpt lat="49.03313" lon="-0.43111">
        <ele>141.2</ele>
        <time>2018-12-28T14:46:39Z</time>
      </trkpt>
      <trkpt lat="49.03316" lon="-0.4311">
        <ele>141</ele>
        <time>2018-12-28T14:46:42Z</time>
      </trkpt>
      <trkpt lat="49.0332" lon="-0.43108">
        <ele>140.8</ele>
        <time>2018-12-28T14:46:45Z</time>
      </trkpt>
      <trkpt lat="49.03323" lon="-0.43108">
        <ele>140.6</ele>
        <time>2018-12-28T14:46:48Z</time>
      </trkpt>
      <trkpt lat="49.03325" lon="-0.43109">
        <ele>140.4</ele>
        <time>2018-12-28T14:46:51Z</time>
      </trkpt>
      <trkpt lat="49.03329" lon="-0.43112">
        <ele>140.1</ele>
        <time>2018-12-28T14:46:54Z</time>
      </trkpt>
      <trkpt lat="49.03333" lon="-0.43113">
        <ele>139.8</ele>
        <time>2018-12-28T14:46:57Z</time>
      </trkpt>
      <trkpt lat="49.03337" lon="-0.43115">
        <ele>139.5</ele>
        <time>2018-12-28T14:47:00Z</time>
      </trkpt>
      <trkpt lat="49.0334" lon="-0.43116">
        <ele>139.4</ele>
        <time>2018-12-28T14:47:02Z</time>
      </trkpt>
      <trkpt lat="49.03343" lon="-0.43117">
        <ele>139.2</ele>
        <time>2018-12-28T14:47:04Z</time>
      </trkpt>
      <trkpt lat="49.03347" lon="-0.43118">
        <ele>139.1</ele>
        <time>2018-12-28T14:47:06Z</time>
      </trkpt>
      <trkpt lat="49.03351" lon="-0.43119">
        <ele>138.9</ele>
        <time>2018-12-28T14:47:08Z</time>
      </trkpt>
      <trkpt lat="49.03355" lon="-0.4312">
        <ele>138.7</ele>
        <time>2018-12-28T14:47:10Z</time>
      </trkpt>
      <trkpt lat="49.03358" lon="-0.4312">
        <ele>138.6</ele>
        <time>2018-12-28T14:47:12Z</time>
      </trkpt>
      <trkpt lat="49.03362" lon="-0.4312">
        <ele>138.4</ele>
        <time>2018-12-28T14:47:15Z</time>
      </trkpt>
      <trkpt lat="49.03365" lon="-0.4312">
        <ele>138.3</ele>
        <time>2018-12-28T14:47:17Z</time>
      </trkpt>
      <trkpt lat="49.03369" lon="-0.43119">
        <ele>138.1</ele>
        <time>2018-12-28T14:47:20Z</time>
      </trkpt>
      <trkpt lat="49.03372" lon="-0.43117">
        <ele>137.8</ele>
        <time>2018-12-28T14:47:25Z</time>
      </trkpt>
      <trkpt lat="49.03375" lon="-0.43115">
        <ele>137.5</ele>
        <time>2018-12-28T14:47:27Z</time>
      </trkpt>
      <trkpt lat="49.03378" lon="-0.43113">
        <ele>137.2</ele>
        <time>2018-12-28T14:47:31Z</time>
      </trkpt>
      <trkpt lat="49.0338" lon="-0.4311">
        <ele>137</ele>
        <time>2018-12-28T14:47:44Z</time>
      </trkpt>
      <trkpt lat="49.03383" lon="-0.43105">
        <ele>136.8</ele>
        <time>2018-12-28T14:47:47Z</time>
      </trkpt>
      <trkpt lat="49.03385" lon="-0.43102">
        <ele>136.7</ele>
        <time>2018-12-28T14:47:49Z</time>
      </trkpt>
      <trkpt lat="49.03389" lon="-0.43101">
        <ele>136.6</ele>
        <time>2018-12-28T14:47:51Z</time>
      </trkpt>
      <trkpt lat="49.03393" lon="-0.431">
        <ele>136.5</ele>
        <time>2018-12-28T14:47:53Z</time>
      </trkpt>
      <trkpt lat="49.03401" lon="-0.43096">
        <ele>136.2</ele>
        <time>2018-12-28T14:47:55Z</time>
      </trkpt>
      <trkpt lat="49.03407" lon="-0.43094">
        <ele>136</ele>
        <time>2018-12-28T14:47:56Z</time>
      </trkpt>
      <trkpt lat="49.03416" lon="-0.43091">
        <ele>135.6</ele>
        <time>2018-12-28T14:47:57Z</time>
      </trkpt>
      <trkpt lat="49.03428" lon="-0.43089">
        <ele>135.1</ele>
        <time>2018-12-28T14:47:58Z</time>
      </trkpt>
      <trkpt lat="49.03432" lon="-0.43087">
        <ele>134.9</ele>
        <time>2018-12-28T14:47:59Z</time>
      </trkpt>
      <trkpt lat="49.03435" lon="-0.43087">
        <ele>134.8</ele>
        <time>2018-12-28T14:48:00Z</time>
      </trkpt>
      <trkpt lat="49.03439" lon="-0.43086">
        <ele>134.7</ele>
        <time>2018-12-28T14:48:02Z</time>
      </trkpt>
      <trkpt lat="49.03442" lon="-0.43086">
        <ele>134.6</ele>
        <time>2018-12-28T14:48:08Z</time>
      </trkpt>
      <trkpt lat="49.0345" lon="-0.43091">
        <ele>134.4</ele>
        <time>2018-12-28T14:48:11Z</time>
      </trkpt>
      <trkpt lat="49.03455" lon="-0.43095">
        <ele>134.2</ele>
        <time>2018-12-28T14:48:12Z</time>
      </trkpt>
      <trkpt lat="49.03463" lon="-0.43096">
        <ele>134</ele>
        <time>2018-12-28T14:48:13Z</time>
      </trkpt>
      <trkpt lat="49.03473" lon="-0.43095">
        <ele>133.6</ele>
        <time>2018-12-28T14:48:14Z</time>
      </trkpt>
      <trkpt lat="49.03477" lon="-0.43095">
        <ele>133.5</ele>
        <time>2018-12-28T14:48:16Z</time>
      </trkpt>
      <trkpt lat="49.0348" lon="-0.43094">
        <ele>133.4</ele>
        <time>2018-12-28T14:48:18Z</time>
      </trkpt>
      <trkpt lat="49.03484" lon="-0.43091">
        <ele>133.2</ele>
        <time>2018-12-28T14:48:19Z</time>
      </trkpt>
      <trkpt lat="49.03488" lon="-0.43093">
        <ele>133.1</ele>
        <time>2018-12-28T14:48:33Z</time>
      </trkpt>
      <trkpt lat="49.03491" lon="-0.43094">
        <ele>132.9</ele>
        <time>2018-12-28T14:48:38Z</time>
      </trkpt>
      <trkpt lat="49.03499" lon="-0.43095">
        <ele>132.6</ele>
        <time>2018-12-28T14:48:40Z</time>
      </trkpt>
      <trkpt lat="49.03502" lon="-0.43095">
        <ele>132.4</ele>
        <time>2018-12-28T14:48:46Z</time>
      </trkpt>
      <trkpt lat="49.03504" lon="-0.43092">
        <ele>132.3</ele>
        <time>2018-12-28T14:48:51Z</time>
      </trkpt>
      <trkpt lat="49.03511" lon="-0.4309">
        <ele>132</ele>
        <time>2018-12-28T14:48:54Z</time>
      </trkpt>
      <trkpt lat="49.03517" lon="-0.43088">
        <ele>131.6</ele>
        <time>2018-12-28T14:48:55Z</time>
      </trkpt>
      <trkpt lat="49.03527" lon="-0.43087">
        <ele>131.2</ele>
        <time>2018-12-28T14:48:57Z</time>
      </trkpt>
      <trkpt lat="49.0353" lon="-0.43086">
        <ele>131</ele>
        <time>2018-12-28T14:48:58Z</time>
      </trkpt>
      <trkpt lat="49.03533" lon="-0.43085">
        <ele>130.9</ele>
        <time>2018-12-28T14:48:59Z</time>
      </trkpt>
      <trkpt lat="49.0354" lon="-0.43083">
        <ele>130.4</ele>
        <time>2018-12-28T14:49:00Z</time>
      </trkpt>
      <trkpt lat="49.03546" lon="-0.43079">
        <ele>130.1</ele>
        <time>2018-12-28T14:49:06Z</time>
      </trkpt>
      <trkpt lat="49.03549" lon="-0.43077">
        <ele>129.9</ele>
        <time>2018-12-28T14:49:17Z</time>
      </trkpt>
      <trkpt lat="49.03552" lon="-0.43075">
        <ele>129.8</ele>
        <time>2018-12-28T14:49:18Z</time>
      </trkpt>
      <trkpt lat="49.03556" lon="-0.43075">
        <ele>129.5</ele>
        <time>2018-12-28T14:49:21Z</time>
      </trkpt>
      <trkpt lat="49.03559" lon="-0.43074">
        <ele>129.3</ele>
        <time>2018-12-28T14:49:24Z</time>
      </trkpt>
      <trkpt lat="49.03562" lon="-0.43072">
        <ele>129.2</ele>
        <time>2018-12-28T14:49:27Z</time>
      </trkpt>
      <trkpt lat="49.03564" lon="-0.43067">
        <ele>129.1</ele>
        <time>2018-12-28T14:49:30Z</time>
      </trkpt>
      <trkpt lat="49.03565" lon="-0.43062">
        <ele>128.9</ele>
        <time>2018-12-28T14:49:32Z</time>
      </trkpt>
      <trkpt lat="49.03565" lon="-0.43057">
        <ele>128.9</ele>
        <time>2018-12-28T14:49:35Z</time>
      </trkpt>
      <trkpt lat="49.03566" lon="-0.43053">
        <ele>128.8</ele>
        <time>2018-12-28T14:49:39Z</time>
      </trkpt>
      <trkpt lat="49.03568" lon="-0.43049">
        <ele>128.7</ele>
        <time>2018-12-28T14:49:41Z</time>
      </trkpt>
      <trkpt lat="49.03569" lon="-0.43045">
        <ele>128.6</ele>
        <time>2018-12-28T14:49:43Z</time>
      </trkpt>
      <trkpt lat="49.0357" lon="-0.43041">
        <ele>128.6</ele>
        <time>2018-12-28T14:49:45Z</time>
      </trkpt>
      <trkpt lat="49.03573" lon="-0.43037">
        <ele>128.5</ele>
        <time>2018-12-28T14:49:48Z</time>
      </trkpt>
      <trkpt lat="49.03575" lon="-0.43033">
        <ele>128.5</ele>
        <time>2018-12-28T14:49:51Z</time>
      </trkpt>
      <trkpt lat="49.03575" lon="-0.43029">
        <ele>128.5</ele>
        <time>2018-12-28T14:49:53Z</time>
      </trkpt>
      <trkpt lat="49.03577" lon="-0.43024">
        <ele>128.5</ele>
        <time>2018-12-28T14:49:56Z</time>
      </trkpt>
      <trkpt lat="49.03577" lon="-0.43019">
        <ele>128.5</ele>
        <time>2018-12-28T14:50:01Z</time>
      </trkpt>
      <trkpt lat="49.03577" lon="-0.43014">
        <ele>128.5</ele>
        <time>2018-12-28T14:50:04Z</time>
      </trkpt>
      <trkpt lat="49.03579" lon="-0.43011">
        <ele>128.6</ele>
        <time>2018-12-28T14:50:06Z</time>
      </trkpt>
      <trkpt lat="49.03579" lon="-0.43007">
        <ele>128.6</ele>
        <time>2018-12-28T14:50:08Z</time>
      </trkpt>
      <trkpt lat="49.03582" lon="-0.43003">
        <ele>128.7</ele>
        <time>2018-12-28T14:50:11Z</time>
      </trkpt>
      <trkpt lat="49.03583" lon="-0.42999">
        <ele>128.8</ele>
        <time>2018-12-28T14:50:14Z</time>
      </trkpt>
      <trkpt lat="49.03584" lon="-0.42995">
        <ele>128.8</ele>
        <time>2018-12-28T14:50:17Z</time>
      </trkpt>
      <trkpt lat="49.03584" lon="-0.42991">
        <ele>128.9</ele>
        <time>2018-12-28T14:50:20Z</time>
      </trkpt>
      <trkpt lat="49.03585" lon="-0.42985">
        <ele>129</ele>
        <time>2018-12-28T14:50:23Z</time>
      </trkpt>
      <trkpt lat="49.03587" lon="-0.42981">
        <ele>129.1</ele>
        <time>2018-12-28T14:50:26Z</time>
      </trkpt>
      <trkpt lat="49.03589" lon="-0.42976">
        <ele>129.2</ele>
        <time>2018-12-28T14:50:31Z</time>
      </trkpt>
      <trkpt lat="49.03591" lon="-0.42973">
        <ele>129.2</ele>
        <time>2018-12-28T14:50:33Z</time>
      </trkpt>
      <trkpt lat="49.03593" lon="-0.42968">
        <ele>129.3</ele>
        <time>2018-12-28T14:50:36Z</time>
      </trkpt>
      <trkpt lat="49.03595" lon="-0.42965">
        <ele>129.3</ele>
        <time>2018-12-28T14:50:38Z</time>
      </trkpt>
      <trkpt lat="49.03598" lon="-0.42962">
        <ele>129.4</ele>
        <time>2018-12-28T14:50:41Z</time>
      </trkpt>
      <trkpt lat="49.03601" lon="-0.4296">
        <ele>129.4</ele>
        <time>2018-12-28T14:50:43Z</time>
      </trkpt>
      <trkpt lat="49.03604" lon="-0.42958">
        <ele>129.4</ele>
        <time>2018-12-28T14:50:45Z</time>
      </trkpt>
      <trkpt lat="49.03605" lon="-0.42953">
        <ele>129.3</ele>
        <time>2018-12-28T14:50:49Z</time>
      </trkpt>
      <trkpt lat="49.03607" lon="-0.42949">
        <ele>129.2</ele>
        <time>2018-12-28T14:50:51Z</time>
      </trkpt>
      <trkpt lat="49.03609" lon="-0.42945">
        <ele>129.1</ele>
        <time>2018-12-28T14:50:53Z</time>
      </trkpt>
      <trkpt lat="49.03611" lon="-0.42942">
        <ele>129.1</ele>
        <time>2018-12-28T14:50:55Z</time>
      </trkpt>
      <trkpt lat="49.03614" lon="-0.42938">
        <ele>128.9</ele>
        <time>2018-12-28T14:50:57Z</time>
      </trkpt>
      <trkpt lat="49.03616" lon="-0.42934">
        <ele>128.7</ele>
        <time>2018-12-28T14:50:59Z</time>
      </trkpt>
      <trkpt lat="49.03618" lon="-0.42931">
        <ele>128.7</ele>
        <time>2018-12-28T14:51:01Z</time>
      </trkpt>
      <trkpt lat="49.0362" lon="-0.42927">
        <ele>128.4</ele>
        <time>2018-12-28T14:51:03Z</time>
      </trkpt>
      <trkpt lat="49.03621" lon="-0.42923">
        <ele>128.2</ele>
        <time>2018-12-28T14:51:05Z</time>
      </trkpt>
      <trkpt lat="49.03623" lon="-0.42919">
        <ele>128.1</ele>
        <time>2018-12-28T14:51:07Z</time>
      </trkpt>
      <trkpt lat="49.03625" lon="-0.42915">
        <ele>127.8</ele>
        <time>2018-12-28T14:51:09Z</time>
      </trkpt>
      <trkpt lat="49.03631" lon="-0.42906">
        <ele>127.1</ele>
        <time>2018-12-28T14:51:11Z</time>
      </trkpt>
      <trkpt lat="49.03637" lon="-0.42902">
        <ele>126.7</ele>
        <time>2018-12-28T14:51:12Z</time>
      </trkpt>
      <trkpt lat="49.0364" lon="-0.42899">
        <ele>126.5</ele>
        <time>2018-12-28T14:51:13Z</time>
      </trkpt>
      <trkpt lat="49.03642" lon="-0.42897">
        <ele>126.2</ele>
        <time>2018-12-28T14:51:15Z</time>
      </trkpt>
      <trkpt lat="49.03645" lon="-0.42894">
        <ele>125.9</ele>
        <time>2018-12-28T14:51:18Z</time>
      </trkpt>
      <trkpt lat="49.03647" lon="-0.4289">
        <ele>125.8</ele>
        <time>2018-12-28T14:51:21Z</time>
      </trkpt>
      <trkpt lat="49.03649" lon="-0.42886">
        <ele>125.5</ele>
        <time>2018-12-28T14:51:27Z</time>
      </trkpt>
      <trkpt lat="49.03652" lon="-0.42884">
        <ele>125.4</ele>
        <time>2018-12-28T14:51:30Z</time>
      </trkpt>
      <trkpt lat="49.03656" lon="-0.42884">
        <ele>125.2</ele>
        <time>2018-12-28T14:51:32Z</time>
      </trkpt>
      <trkpt lat="49.03655" lon="-0.42879">
        <ele>125.1</ele>
        <time>2018-12-28T14:51:33Z</time>
      </trkpt>
      <trkpt lat="49.03655" lon="-0.42874">
        <ele>125.1</ele>
        <time>2018-12-28T14:51:35Z</time>
      </trkpt>
      <trkpt lat="49.03655" lon="-0.42869">
        <ele>125</ele>
        <time>2018-12-28T14:51:36Z</time>
      </trkpt>
      <trkpt lat="49.03657" lon="-0.42867">
        <ele>124.9</ele>
        <time>2018-12-28T14:51:37Z</time>
      </trkpt>
      <trkpt lat="49.03661" lon="-0.42865">
        <ele>124.6</ele>
        <time>2018-12-28T14:51:39Z</time>
      </trkpt>
      <trkpt lat="49.03662" lon="-0.42858">
        <ele>124.2</ele>
        <time>2018-12-28T14:51:41Z</time>
      </trkpt>
      <trkpt lat="49.03663" lon="-0.42853">
        <ele>124.1</ele>
        <time>2018-12-28T14:51:44Z</time>
      </trkpt>
      <trkpt lat="49.03665" lon="-0.42849">
        <ele>123.7</ele>
        <time>2018-12-28T14:51:47Z</time>
      </trkpt>
      <trkpt lat="49.03666" lon="-0.42845">
        <ele>123.2</ele>
        <time>2018-12-28T14:51:50Z</time>
      </trkpt>
      <trkpt lat="49.03666" lon="-0.4284">
        <ele>123.2</ele>
        <time>2018-12-28T14:51:53Z</time>
      </trkpt>
      <trkpt lat="49.03665" lon="-0.42837">
        <ele>123.4</ele>
        <time>2018-12-28T14:51:57Z</time>
      </trkpt>
      <trkpt lat="49.03663" lon="-0.42833">
        <ele>123.4</ele>
        <time>2018-12-28T14:52:01Z</time>
      </trkpt>
      <trkpt lat="49.03666" lon="-0.42829">
        <ele>123.3</ele>
        <time>2018-12-28T14:52:03Z</time>
      </trkpt>
      <trkpt lat="49.0367" lon="-0.42825">
        <ele>122.8</ele>
        <time>2018-12-28T14:52:04Z</time>
      </trkpt>
      <trkpt lat="49.03671" lon="-0.4282">
        <ele>122.9</ele>
        <time>2018-12-28T14:52:07Z</time>
      </trkpt>
      <trkpt lat="49.0367" lon="-0.42815">
        <ele>123</ele>
        <time>2018-12-28T14:52:10Z</time>
      </trkpt>
      <trkpt lat="49.03668" lon="-0.42809">
        <ele>123.3</ele>
        <time>2018-12-28T14:52:13Z</time>
      </trkpt>
      <trkpt lat="49.03667" lon="-0.42803">
        <ele>123.4</ele>
        <time>2018-12-28T14:52:14Z</time>
      </trkpt>
      <trkpt lat="49.03668" lon="-0.42798">
        <ele>123.5</ele>
        <time>2018-12-28T14:52:16Z</time>
      </trkpt>
      <trkpt lat="49.03667" lon="-0.42792">
        <ele>123.5</ele>
        <time>2018-12-28T14:52:19Z</time>
      </trkpt>
      <trkpt lat="49.03668" lon="-0.42788">
        <ele>123.6</ele>
        <time>2018-12-28T14:52:22Z</time>
      </trkpt>
      <trkpt lat="49.0367" lon="-0.42785">
        <ele>123.4</ele>
        <time>2018-12-28T14:52:26Z</time>
      </trkpt>
      <trkpt lat="49.03673" lon="-0.42785">
        <ele>123.3</ele>
        <time>2018-12-28T14:52:31Z</time>
      </trkpt>
      <trkpt lat="49.03676" lon="-0.42786">
        <ele>123.2</ele>
        <time>2018-12-28T14:52:34Z</time>
      </trkpt>
      <trkpt lat="49.03679" lon="-0.42788">
        <ele>123.2</ele>
        <time>2018-12-28T14:52:37Z</time>
      </trkpt>
      <trkpt lat="49.03683" lon="-0.42789">
        <ele>123.1</ele>
        <time>2018-12-28T14:52:40Z</time>
      </trkpt>
      <trkpt lat="49.03686" lon="-0.4279">
        <ele>122.8</ele>
        <time>2018-12-28T14:52:42Z</time>
      </trkpt>
      <trkpt lat="49.03689" lon="-0.42791">
        <ele>122.7</ele>
        <time>2018-12-28T14:52:44Z</time>
      </trkpt>
      <trkpt lat="49.03692" lon="-0.42791">
        <ele>122.6</ele>
        <time>2018-12-28T14:52:46Z</time>
      </trkpt>
      <trkpt lat="49.03695" lon="-0.42791">
        <ele>122.6</ele>
        <time>2018-12-28T14:52:50Z</time>
      </trkpt>
      <trkpt lat="49.03699" lon="-0.42792">
        <ele>122.5</ele>
        <time>2018-12-28T14:52:52Z</time>
      </trkpt>
      <trkpt lat="49.03702" lon="-0.42793">
        <ele>122.2</ele>
        <time>2018-12-28T14:52:54Z</time>
      </trkpt>
      <trkpt lat="49.03706" lon="-0.42792">
        <ele>122.1</ele>
        <time>2018-12-28T14:52:57Z</time>
      </trkpt>
      <trkpt lat="49.0371" lon="-0.42792">
        <ele>122</ele>
        <time>2018-12-28T14:52:59Z</time>
      </trkpt>
      <trkpt lat="49.03715" lon="-0.42792">
        <ele>121.6</ele>
        <time>2018-12-28T14:53:01Z</time>
      </trkpt>
      <trkpt lat="49.03718" lon="-0.42792">
        <ele>121.5</ele>
        <time>2018-12-28T14:53:03Z</time>
      </trkpt>
      <trkpt lat="49.03722" lon="-0.42791">
        <ele>121.3</ele>
        <time>2018-12-28T14:53:05Z</time>
      </trkpt>
      <trkpt lat="49.03725" lon="-0.4279">
        <ele>121</ele>
        <time>2018-12-28T14:53:07Z</time>
      </trkpt>
      <trkpt lat="49.03728" lon="-0.42789">
        <ele>120.9</ele>
        <time>2018-12-28T14:53:10Z</time>
      </trkpt>
      <trkpt lat="49.03731" lon="-0.42789">
        <ele>121</ele>
        <time>2018-12-28T14:53:11Z</time>
      </trkpt>
      <trkpt lat="49.03734" lon="-0.42789">
        <ele>120.7</ele>
        <time>2018-12-28T14:53:12Z</time>
      </trkpt>
      <trkpt lat="49.0374" lon="-0.42789">
        <ele>120.6</ele>
        <time>2018-12-28T14:53:14Z</time>
      </trkpt>
      <trkpt lat="49.03743" lon="-0.42788">
        <ele>120.6</ele>
        <time>2018-12-28T14:53:15Z</time>
      </trkpt>
      <trkpt lat="49.03746" lon="-0.42787">
        <ele>120.6</ele>
        <time>2018-12-28T14:53:16Z</time>
      </trkpt>
      <trkpt lat="49.03752" lon="-0.42787">
        <ele>120.5</ele>
        <time>2018-12-28T14:53:18Z</time>
      </trkpt>
      <trkpt lat="49.03757" lon="-0.42787">
        <ele>120.5</ele>
        <time>2018-12-28T14:53:20Z</time>
      </trkpt>
      <trkpt lat="49.0376" lon="-0.42787">
        <ele>120.5</ele>
        <time>2018-12-28T14:53:22Z</time>
      </trkpt>
      <trkpt lat="49.03764" lon="-0.42786">
        <ele>120.7</ele>
        <time>2018-12-28T14:53:24Z</time>
      </trkpt>
      <trkpt lat="49.03768" lon="-0.42785">
        <ele>120.7</ele>
        <time>2018-12-28T14:53:26Z</time>
      </trkpt>
      <trkpt lat="49.03771" lon="-0.42785">
        <ele>120.7</ele>
        <time>2018-12-28T14:53:32Z</time>
      </trkpt>
      <trkpt lat="49.03774" lon="-0.42786">
        <ele>120.7</ele>
        <time>2018-12-28T14:53:35Z</time>
      </trkpt>
      <trkpt lat="49.03777" lon="-0.42788">
        <ele>120.8</ele>
        <time>2018-12-28T14:53:37Z</time>
      </trkpt>
      <trkpt lat="49.0378" lon="-0.42788">
        <ele>120.8</ele>
        <time>2018-12-28T14:53:39Z</time>
      </trkpt>
      <trkpt lat="49.03783" lon="-0.42786">
        <ele>120.8</ele>
        <time>2018-12-28T14:53:41Z</time>
      </trkpt>
      <trkpt lat="49.03786" lon="-0.42784">
        <ele>120.8</ele>
        <time>2018-12-28T14:53:43Z</time>
      </trkpt>
      <trkpt lat="49.03788" lon="-0.4278">
        <ele>120.6</ele>
        <time>2018-12-28T14:53:45Z</time>
      </trkpt>
      <trkpt lat="49.03789" lon="-0.42776">
        <ele>120.6</ele>
        <time>2018-12-28T14:53:47Z</time>
      </trkpt>
      <trkpt lat="49.03791" lon="-0.42771">
        <ele>120.5</ele>
        <time>2018-12-28T14:53:50Z</time>
      </trkpt>
      <trkpt lat="49.03792" lon="-0.42767">
        <ele>120.6</ele>
        <time>2018-12-28T14:53:53Z</time>
      </trkpt>
      <trkpt lat="49.03793" lon="-0.42762">
        <ele>120.5</ele>
        <time>2018-12-28T14:53:57Z</time>
      </trkpt>
      <trkpt lat="49.03794" lon="-0.42757">
        <ele>120.7</ele>
        <time>2018-12-28T14:54:00Z</time>
      </trkpt>
      <trkpt lat="49.03799" lon="-0.42753">
        <ele>120.6</ele>
        <time>2018-12-28T14:54:02Z</time>
      </trkpt>
      <trkpt lat="49.038" lon="-0.42748">
        <ele>120.9</ele>
        <time>2018-12-28T14:54:04Z</time>
      </trkpt>
      <trkpt lat="49.03801" lon="-0.42742">
        <ele>121.2</ele>
        <time>2018-12-28T14:54:06Z</time>
      </trkpt>
      <trkpt lat="49.03802" lon="-0.42738">
        <ele>121.4</ele>
        <time>2018-12-28T14:54:08Z</time>
      </trkpt>
      <trkpt lat="49.03802" lon="-0.42734">
        <ele>121.7</ele>
        <time>2018-12-28T14:54:11Z</time>
      </trkpt>
      <trkpt lat="49.03803" lon="-0.42728">
        <ele>122.1</ele>
        <time>2018-12-28T14:54:14Z</time>
      </trkpt>
      <trkpt lat="49.03802" lon="-0.42723">
        <ele>122.5</ele>
        <time>2018-12-28T14:54:18Z</time>
      </trkpt>
      <trkpt lat="49.03801" lon="-0.42718">
        <ele>123</ele>
        <time>2018-12-28T14:54:21Z</time>
      </trkpt>
      <trkpt lat="49.038" lon="-0.42713">
        <ele>123.8</ele>
        <time>2018-12-28T14:54:24Z</time>
      </trkpt>
      <trkpt lat="49.03798" lon="-0.42709">
        <ele>124.4</ele>
        <time>2018-12-28T14:54:30Z</time>
      </trkpt>
      <trkpt lat="49.03797" lon="-0.42705">
        <ele>125.1</ele>
        <time>2018-12-28T14:54:33Z</time>
      </trkpt>
      <trkpt lat="49.03796" lon="-0.427">
        <ele>125.7</ele>
        <time>2018-12-28T14:54:36Z</time>
      </trkpt>
      <trkpt lat="49.03794" lon="-0.42695">
        <ele>126.1</ele>
        <time>2018-12-28T14:54:44Z</time>
      </trkpt>
      <trkpt lat="49.03792" lon="-0.4269">
        <ele>126.4</ele>
        <time>2018-12-28T14:54:46Z</time>
      </trkpt>
      <trkpt lat="49.03791" lon="-0.42687">
        <ele>126.7</ele>
        <time>2018-12-28T14:54:48Z</time>
      </trkpt>
      <trkpt lat="49.03789" lon="-0.42683">
        <ele>127</ele>
        <time>2018-12-28T14:54:50Z</time>
      </trkpt>
      <trkpt lat="49.03787" lon="-0.42679">
        <ele>127.3</ele>
        <time>2018-12-28T14:54:52Z</time>
      </trkpt>
      <trkpt lat="49.03786" lon="-0.42675">
        <ele>127.5</ele>
        <time>2018-12-28T14:54:54Z</time>
      </trkpt>
      <trkpt lat="49.03785" lon="-0.42671">
        <ele>127.8</ele>
        <time>2018-12-28T14:54:56Z</time>
      </trkpt>
      <trkpt lat="49.03784" lon="-0.42665">
        <ele>128.1</ele>
        <time>2018-12-28T14:54:59Z</time>
      </trkpt>
      <trkpt lat="49.03783" lon="-0.42661">
        <ele>128.3</ele>
        <time>2018-12-28T14:55:02Z</time>
      </trkpt>
      <trkpt lat="49.03782" lon="-0.42657">
        <ele>128.4</ele>
        <time>2018-12-28T14:55:05Z</time>
      </trkpt>
      <trkpt lat="49.0378" lon="-0.42653">
        <ele>128.6</ele>
        <time>2018-12-28T14:55:13Z</time>
      </trkpt>
      <trkpt lat="49.03778" lon="-0.42649">
        <ele>128.9</ele>
        <time>2018-12-28T14:55:15Z</time>
      </trkpt>
      <trkpt lat="49.03776" lon="-0.42646">
        <ele>129.1</ele>
        <time>2018-12-28T14:55:17Z</time>
      </trkpt>
      <trkpt lat="49.03773" lon="-0.42641">
        <ele>129.3</ele>
        <time>2018-12-28T14:55:25Z</time>
      </trkpt>
      <trkpt lat="49.03771" lon="-0.42636">
        <ele>129.6</ele>
        <time>2018-12-28T14:55:28Z</time>
      </trkpt>
      <trkpt lat="49.0377" lon="-0.42632">
        <ele>129.8</ele>
        <time>2018-12-28T14:55:31Z</time>
      </trkpt>
      <trkpt lat="49.03767" lon="-0.42628">
        <ele>130</ele>
        <time>2018-12-28T14:55:35Z</time>
      </trkpt>
      <trkpt lat="49.03765" lon="-0.42623">
        <ele>130.2</ele>
        <time>2018-12-28T14:55:37Z</time>
      </trkpt>
      <trkpt lat="49.03763" lon="-0.42617">
        <ele>130.5</ele>
        <time>2018-12-28T14:55:39Z</time>
      </trkpt>
      <trkpt lat="49.03761" lon="-0.42612">
        <ele>130.7</ele>
        <time>2018-12-28T14:55:41Z</time>
      </trkpt>
      <trkpt lat="49.03759" lon="-0.42608">
        <ele>130.8</ele>
        <time>2018-12-28T14:55:43Z</time>
      </trkpt>
      <trkpt lat="49.03757" lon="-0.42604">
        <ele>131</ele>
        <time>2018-12-28T14:55:45Z</time>
      </trkpt>
      <trkpt lat="49.03755" lon="-0.42601">
        <ele>131.1</ele>
        <time>2018-12-28T14:55:47Z</time>
      </trkpt>
      <trkpt lat="49.03754" lon="-0.42597">
        <ele>131.3</ele>
        <time>2018-12-28T14:55:49Z</time>
      </trkpt>
      <trkpt lat="49.03752" lon="-0.42592">
        <ele>131.5</ele>
        <time>2018-12-28T14:55:52Z</time>
      </trkpt>
      <trkpt lat="49.0375" lon="-0.42588">
        <ele>131.6</ele>
        <time>2018-12-28T14:55:54Z</time>
      </trkpt>
      <trkpt lat="49.03747" lon="-0.42584">
        <ele>131.8</ele>
        <time>2018-12-28T14:55:57Z</time>
      </trkpt>
      <trkpt lat="49.03745" lon="-0.42581">
        <ele>131.9</ele>
        <time>2018-12-28T14:56:00Z</time>
      </trkpt>
      <trkpt lat="49.03743" lon="-0.42578">
        <ele>132</ele>
        <time>2018-12-28T14:56:03Z</time>
      </trkpt>
      <trkpt lat="49.0374" lon="-0.42573">
        <ele>132.2</ele>
        <time>2018-12-28T14:56:06Z</time>
      </trkpt>
      <trkpt lat="49.03738" lon="-0.42569">
        <ele>132.3</ele>
        <time>2018-12-28T14:56:09Z</time>
      </trkpt>
      <trkpt lat="49.03736" lon="-0.42566">
        <ele>132.5</ele>
        <time>2018-12-28T14:56:12Z</time>
      </trkpt>
      <trkpt lat="49.03734" lon="-0.42563">
        <ele>132.6</ele>
        <time>2018-12-28T14:56:14Z</time>
      </trkpt>
      <trkpt lat="49.03731" lon="-0.42559">
        <ele>132.7</ele>
        <time>2018-12-28T14:56:21Z</time>
      </trkpt>
      <trkpt lat="49.03728" lon="-0.42553">
        <ele>132.9</ele>
        <time>2018-12-28T14:56:23Z</time>
      </trkpt>
      <trkpt lat="49.03724" lon="-0.42549">
        <ele>133</ele>
        <time>2018-12-28T14:56:25Z</time>
      </trkpt>
      <trkpt lat="49.03721" lon="-0.42545">
        <ele>133.2</ele>
        <time>2018-12-28T14:56:27Z</time>
      </trkpt>
      <trkpt lat="49.03719" lon="-0.42542">
        <ele>133.4</ele>
        <time>2018-12-28T14:56:29Z</time>
      </trkpt>
      <trkpt lat="49.03716" lon="-0.42537">
        <ele>133.6</ele>
        <time>2018-12-28T14:56:32Z</time>
      </trkpt>
      <trkpt lat="49.03714" lon="-0.42533">
        <ele>133.7</ele>
        <time>2018-12-28T14:56:35Z</time>
      </trkpt>
      <trkpt lat="49.03712" lon="-0.42529">
        <ele>133.9</ele>
        <time>2018-12-28T14:56:37Z</time>
      </trkpt>
      <trkpt lat="49.03709" lon="-0.42525">
        <ele>134</ele>
        <time>2018-12-28T14:56:40Z</time>
      </trkpt>
      <trkpt lat="49.03707" lon="-0.4252">
        <ele>134.1</ele>
        <time>2018-12-28T14:56:43Z</time>
      </trkpt>
      <trkpt lat="49.03705" lon="-0.42516">
        <ele>134.2</ele>
        <time>2018-12-28T14:56:45Z</time>
      </trkpt>
      <trkpt lat="49.03702" lon="-0.42513">
        <ele>134.3</ele>
        <time>2018-12-28T14:56:48Z</time>
      </trkpt>
      <trkpt lat="49.037" lon="-0.42509">
        <ele>134.5</ele>
        <time>2018-12-28T14:56:51Z</time>
      </trkpt>
      <trkpt lat="49.03698" lon="-0.42506">
        <ele>134.5</ele>
        <time>2018-12-28T14:56:53Z</time>
      </trkpt>
      <trkpt lat="49.03696" lon="-0.42502">
        <ele>134.6</ele>
        <time>2018-12-28T14:56:56Z</time>
      </trkpt>
      <trkpt lat="49.03694" lon="-0.42498">
        <ele>134.8</ele>
        <time>2018-12-28T14:56:58Z</time>
      </trkpt>
      <trkpt lat="49.03691" lon="-0.42494">
        <ele>134.9</ele>
        <time>2018-12-28T14:57:00Z</time>
      </trkpt>
      <trkpt lat="49.03689" lon="-0.42491">
        <ele>135</ele>
        <time>2018-12-28T14:57:02Z</time>
      </trkpt>
      <trkpt lat="49.03687" lon="-0.42487">
        <ele>135</ele>
        <time>2018-12-28T14:57:04Z</time>
      </trkpt>
      <trkpt lat="49.03684" lon="-0.42483">
        <ele>135.1</ele>
        <time>2018-12-28T14:57:07Z</time>
      </trkpt>
      <trkpt lat="49.03682" lon="-0.42479">
        <ele>135.2</ele>
        <time>2018-12-28T14:57:10Z</time>
      </trkpt>
      <trkpt lat="49.0368" lon="-0.42475">
        <ele>135.3</ele>
        <time>2018-12-28T14:57:13Z</time>
      </trkpt>
      <trkpt lat="49.03679" lon="-0.42472">
        <ele>135.4</ele>
        <time>2018-12-28T14:57:15Z</time>
      </trkpt>
      <trkpt lat="49.03677" lon="-0.42467">
        <ele>135.5</ele>
        <time>2018-12-28T14:57:21Z</time>
      </trkpt>
      <trkpt lat="49.03674" lon="-0.42464">
        <ele>135.6</ele>
        <time>2018-12-28T14:57:23Z</time>
      </trkpt>
      <trkpt lat="49.03672" lon="-0.42461">
        <ele>135.6</ele>
        <time>2018-12-28T14:57:25Z</time>
      </trkpt>
      <trkpt lat="49.0367" lon="-0.42457">
        <ele>135.7</ele>
        <time>2018-12-28T14:57:28Z</time>
      </trkpt>
      <trkpt lat="49.03667" lon="-0.42454">
        <ele>135.8</ele>
        <time>2018-12-28T14:57:32Z</time>
      </trkpt>
      <trkpt lat="49.03664" lon="-0.4245">
        <ele>135.8</ele>
        <time>2018-12-28T14:57:34Z</time>
      </trkpt>
      <trkpt lat="49.03662" lon="-0.42447">
        <ele>135.8</ele>
        <time>2018-12-28T14:57:36Z</time>
      </trkpt>
      <trkpt lat="49.0366" lon="-0.42443">
        <ele>135.9</ele>
        <time>2018-12-28T14:57:38Z</time>
      </trkpt>
      <trkpt lat="49.03658" lon="-0.42438">
        <ele>135.9</ele>
        <time>2018-12-28T14:57:40Z</time>
      </trkpt>
      <trkpt lat="49.03656" lon="-0.42433">
        <ele>136</ele>
        <time>2018-12-28T14:57:42Z</time>
      </trkpt>
      <trkpt lat="49.03653" lon="-0.42429">
        <ele>136</ele>
        <time>2018-12-28T14:57:44Z</time>
      </trkpt>
      <trkpt lat="49.03652" lon="-0.42425">
        <ele>136</ele>
        <time>2018-12-28T14:57:46Z</time>
      </trkpt>
      <trkpt lat="49.0365" lon="-0.42421">
        <ele>136.1</ele>
        <time>2018-12-28T14:57:48Z</time>
      </trkpt>
      <trkpt lat="49.03649" lon="-0.42417">
        <ele>136.1</ele>
        <time>2018-12-28T14:57:50Z</time>
      </trkpt>
      <trkpt lat="49.03648" lon="-0.42412">
        <ele>136.2</ele>
        <time>2018-12-28T14:57:53Z</time>
      </trkpt>
      <trkpt lat="49.03648" lon="-0.42405">
        <ele>136.2</ele>
        <time>2018-12-28T14:57:56Z</time>
      </trkpt>
      <trkpt lat="49.03648" lon="-0.424">
        <ele>136.3</ele>
        <time>2018-12-28T14:57:58Z</time>
      </trkpt>
      <trkpt lat="49.03647" lon="-0.42396">
        <ele>136.3</ele>
        <time>2018-12-28T14:58:00Z</time>
      </trkpt>
      <trkpt lat="49.03646" lon="-0.42392">
        <ele>136.3</ele>
        <time>2018-12-28T14:58:02Z</time>
      </trkpt>
      <trkpt lat="49.03646" lon="-0.42385">
        <ele>136.4</ele>
        <time>2018-12-28T14:58:05Z</time>
      </trkpt>
      <trkpt lat="49.03647" lon="-0.42381">
        <ele>136.3</ele>
        <time>2018-12-28T14:58:07Z</time>
      </trkpt>
      <trkpt lat="49.03648" lon="-0.42376">
        <ele>136.3</ele>
        <time>2018-12-28T14:58:10Z</time>
      </trkpt>
      <trkpt lat="49.0365" lon="-0.4237">
        <ele>136.3</ele>
        <time>2018-12-28T14:58:13Z</time>
      </trkpt>
      <trkpt lat="49.03651" lon="-0.42366">
        <ele>136.3</ele>
        <time>2018-12-28T14:58:15Z</time>
      </trkpt>
      <trkpt lat="49.03653" lon="-0.42362">
        <ele>136.3</ele>
        <time>2018-12-28T14:58:19Z</time>
      </trkpt>
      <trkpt lat="49.03657" lon="-0.42361">
        <ele>136.3</ele>
        <time>2018-12-28T14:58:21Z</time>
      </trkpt>
      <trkpt lat="49.03661" lon="-0.42362">
        <ele>136.2</ele>
        <time>2018-12-28T14:58:23Z</time>
      </trkpt>
      <trkpt lat="49.03663" lon="-0.42362">
        <ele>136.2</ele>
        <time>2018-12-28T14:58:25Z</time>
      </trkpt>
      <trkpt lat="49.03667" lon="-0.42361">
        <ele>136.2</ele>
        <time>2018-12-28T14:58:28Z</time>
      </trkpt>
      <trkpt lat="49.03671" lon="-0.4236">
        <ele>136.2</ele>
        <time>2018-12-28T14:58:31Z</time>
      </trkpt>
      <trkpt lat="49.03674" lon="-0.42359">
        <ele>136.2</ele>
        <time>2018-12-28T14:58:34Z</time>
      </trkpt>
      <trkpt lat="49.03677" lon="-0.4236">
        <ele>136.2</ele>
        <time>2018-12-28T14:58:37Z</time>
      </trkpt>
      <trkpt lat="49.0368" lon="-0.42358">
        <ele>136.2</ele>
        <time>2018-12-28T14:58:39Z</time>
      </trkpt>
      <trkpt lat="49.03683" lon="-0.42358">
        <ele>136.1</ele>
        <time>2018-12-28T14:58:42Z</time>
      </trkpt>
      <trkpt lat="49.03686" lon="-0.42358">
        <ele>136.1</ele>
        <time>2018-12-28T14:58:45Z</time>
      </trkpt>
      <trkpt lat="49.0369" lon="-0.42357">
        <ele>136.1</ele>
        <time>2018-12-28T14:58:51Z</time>
      </trkpt>
      <trkpt lat="49.03692" lon="-0.42358">
        <ele>136.1</ele>
        <time>2018-12-28T14:58:53Z</time>
      </trkpt>
      <trkpt lat="49.03695" lon="-0.42358">
        <ele>136.1</ele>
        <time>2018-12-28T14:58:57Z</time>
      </trkpt>
      <trkpt lat="49.03698" lon="-0.42357">
        <ele>136.1</ele>
        <time>2018-12-28T14:59:18Z</time>
      </trkpt>
      <trkpt lat="49.037" lon="-0.42355">
        <ele>136</ele>
        <time>2018-12-28T14:59:20Z</time>
      </trkpt>
      <trkpt lat="49.03704" lon="-0.42353">
        <ele>136</ele>
        <time>2018-12-28T14:59:23Z</time>
      </trkpt>
      <trkpt lat="49.03706" lon="-0.42351">
        <ele>136</ele>
        <time>2018-12-28T14:59:25Z</time>
      </trkpt>
      <trkpt lat="49.03709" lon="-0.42349">
        <ele>135.9</ele>
        <time>2018-12-28T14:59:27Z</time>
      </trkpt>
      <trkpt lat="49.03712" lon="-0.42348">
        <ele>135.9</ele>
        <time>2018-12-28T14:59:30Z</time>
      </trkpt>
      <trkpt lat="49.03716" lon="-0.42349">
        <ele>135.9</ele>
        <time>2018-12-28T14:59:36Z</time>
      </trkpt>
      <trkpt lat="49.03718" lon="-0.42348">
        <ele>135.8</ele>
        <time>2018-12-28T14:59:38Z</time>
      </trkpt>
      <trkpt lat="49.03721" lon="-0.42345">
        <ele>135.8</ele>
        <time>2018-12-28T14:59:42Z</time>
      </trkpt>
      <trkpt lat="49.03724" lon="-0.42344">
        <ele>135.7</ele>
        <time>2018-12-28T14:59:46Z</time>
      </trkpt>
      <trkpt lat="49.03727" lon="-0.42343">
        <ele>135.7</ele>
        <time>2018-12-28T14:59:52Z</time>
      </trkpt>
      <trkpt lat="49.03731" lon="-0.42342">
        <ele>135.6</ele>
        <time>2018-12-28T14:59:59Z</time>
      </trkpt>
      <trkpt lat="49.03735" lon="-0.42343">
        <ele>135.6</ele>
        <time>2018-12-28T15:00:02Z</time>
      </trkpt>
      <trkpt lat="49.03738" lon="-0.42342">
        <ele>135.6</ele>
        <time>2018-12-28T15:00:08Z</time>
      </trkpt>
      <trkpt lat="49.03741" lon="-0.42341">
        <ele>135.5</ele>
        <time>2018-12-28T15:00:10Z</time>
      </trkpt>
      <trkpt lat="49.03744" lon="-0.42341">
        <ele>135.5</ele>
        <time>2018-12-28T15:00:13Z</time>
      </trkpt>
      <trkpt lat="49.03747" lon="-0.4234">
        <ele>135.4</ele>
        <time>2018-12-28T15:00:24Z</time>
      </trkpt>
      <trkpt lat="49.0375" lon="-0.42338">
        <ele>135.4</ele>
        <time>2018-12-28T15:00:26Z</time>
      </trkpt>
      <trkpt lat="49.03753" lon="-0.42335">
        <ele>135.4</ele>
        <time>2018-12-28T15:00:28Z</time>
      </trkpt>
      <trkpt lat="49.03756" lon="-0.42334">
        <ele>135.3</ele>
        <time>2018-12-28T15:00:30Z</time>
      </trkpt>
      <trkpt lat="49.03759" lon="-0.42334">
        <ele>135.3</ele>
        <time>2018-12-28T15:00:32Z</time>
      </trkpt>
      <trkpt lat="49.03763" lon="-0.42332">
        <ele>135.2</ele>
        <time>2018-12-28T15:00:37Z</time>
      </trkpt>
      <trkpt lat="49.03768" lon="-0.42331">
        <ele>135.2</ele>
        <time>2018-12-28T15:00:40Z</time>
      </trkpt>
      <trkpt lat="49.03772" lon="-0.42331">
        <ele>135.1</ele>
        <time>2018-12-28T15:00:42Z</time>
      </trkpt>
      <trkpt lat="49.03775" lon="-0.42332">
        <ele>135.1</ele>
        <time>2018-12-28T15:00:44Z</time>
      </trkpt>
      <trkpt lat="49.03779" lon="-0.42333">
        <ele>135</ele>
        <time>2018-12-28T15:00:46Z</time>
      </trkpt>
      <trkpt lat="49.03782" lon="-0.42334">
        <ele>135</ele>
        <time>2018-12-28T15:00:48Z</time>
      </trkpt>
      <trkpt lat="49.03785" lon="-0.42337">
        <ele>134.9</ele>
        <time>2018-12-28T15:00:52Z</time>
      </trkpt>
      <trkpt lat="49.03789" lon="-0.4234">
        <ele>134.9</ele>
        <time>2018-12-28T15:00:54Z</time>
      </trkpt>
      <trkpt lat="49.03792" lon="-0.42343">
        <ele>134.8</ele>
        <time>2018-12-28T15:00:56Z</time>
      </trkpt>
      <trkpt lat="49.03794" lon="-0.42345">
        <ele>134.8</ele>
        <time>2018-12-28T15:01:00Z</time>
      </trkpt>
      <trkpt lat="49.03797" lon="-0.42347">
        <ele>134.8</ele>
        <time>2018-12-28T15:01:02Z</time>
      </trkpt>
      <trkpt lat="49.03801" lon="-0.42348">
        <ele>134.8</ele>
        <time>2018-12-28T15:01:04Z</time>
      </trkpt>
      <trkpt lat="49.03804" lon="-0.4235">
        <ele>134.8</ele>
        <time>2018-12-28T15:01:06Z</time>
      </trkpt>
      <trkpt lat="49.03807" lon="-0.42352">
        <ele>134.7</ele>
        <time>2018-12-28T15:01:08Z</time>
      </trkpt>
      <trkpt lat="49.03809" lon="-0.42355">
        <ele>134.7</ele>
        <time>2018-12-28T15:01:10Z</time>
      </trkpt>
      <trkpt lat="49.03813" lon="-0.42358">
        <ele>134.7</ele>
        <time>2018-12-28T15:01:12Z</time>
      </trkpt>
      <trkpt lat="49.03817" lon="-0.4236">
        <ele>134.7</ele>
        <time>2018-12-28T15:01:14Z</time>
      </trkpt>
      <trkpt lat="49.03821" lon="-0.42363">
        <ele>134.7</ele>
        <time>2018-12-28T15:01:16Z</time>
      </trkpt>
      <trkpt lat="49.03824" lon="-0.42364">
        <ele>134.7</ele>
        <time>2018-12-28T15:01:17Z</time>
      </trkpt>
      <trkpt lat="49.03829" lon="-0.42365">
        <ele>134.7</ele>
        <time>2018-12-28T15:01:19Z</time>
      </trkpt>
      <trkpt lat="49.03833" lon="-0.42367">
        <ele>134.7</ele>
        <time>2018-12-28T15:01:21Z</time>
      </trkpt>
      <trkpt lat="49.03836" lon="-0.4237">
        <ele>134.7</ele>
        <time>2018-12-28T15:01:23Z</time>
      </trkpt>
      <trkpt lat="49.03839" lon="-0.42371">
        <ele>134.8</ele>
        <time>2018-12-28T15:01:26Z</time>
      </trkpt>
      <trkpt lat="49.03843" lon="-0.42373">
        <ele>134.9</ele>
        <time>2018-12-28T15:01:28Z</time>
      </trkpt>
      <trkpt lat="49.03847" lon="-0.42374">
        <ele>134.9</ele>
        <time>2018-12-28T15:01:30Z</time>
      </trkpt>
      <trkpt lat="49.03851" lon="-0.42375">
        <ele>134.9</ele>
        <time>2018-12-28T15:01:32Z</time>
      </trkpt>
      <trkpt lat="49.03854" lon="-0.42377">
        <ele>134.9</ele>
        <time>2018-12-28T15:01:34Z</time>
      </trkpt>
      <trkpt lat="49.03859" lon="-0.42379">
        <ele>134.9</ele>
        <time>2018-12-28T15:01:36Z</time>
      </trkpt>
      <trkpt lat="49.03862" lon="-0.42381">
        <ele>134.9</ele>
        <time>2018-12-28T15:01:37Z</time>
      </trkpt>
      <trkpt lat="49.03866" lon="-0.42383">
        <ele>134.8</ele>
        <time>2018-12-28T15:01:39Z</time>
      </trkpt>
      <trkpt lat="49.0387" lon="-0.42386">
        <ele>134.8</ele>
        <time>2018-12-28T15:01:41Z</time>
      </trkpt>
      <trkpt lat="49.03872" lon="-0.4239">
        <ele>134.7</ele>
        <time>2018-12-28T15:01:43Z</time>
      </trkpt>
      <trkpt lat="49.03875" lon="-0.42393">
        <ele>134.7</ele>
        <time>2018-12-28T15:01:45Z</time>
      </trkpt>
      <trkpt lat="49.03878" lon="-0.42395">
        <ele>134.6</ele>
        <time>2018-12-28T15:01:51Z</time>
      </trkpt>
      <trkpt lat="49.03881" lon="-0.42399">
        <ele>134.6</ele>
        <time>2018-12-28T15:01:53Z</time>
      </trkpt>
      <trkpt lat="49.03884" lon="-0.42403">
        <ele>134.5</ele>
        <time>2018-12-28T15:01:55Z</time>
      </trkpt>
      <trkpt lat="49.03886" lon="-0.42406">
        <ele>134.4</ele>
        <time>2018-12-28T15:01:57Z</time>
      </trkpt>
      <trkpt lat="49.03888" lon="-0.42409">
        <ele>134.4</ele>
        <time>2018-12-28T15:01:59Z</time>
      </trkpt>
      <trkpt lat="49.03891" lon="-0.42412">
        <ele>134.3</ele>
        <time>2018-12-28T15:02:01Z</time>
      </trkpt>
      <trkpt lat="49.03893" lon="-0.42416">
        <ele>134.3</ele>
        <time>2018-12-28T15:02:03Z</time>
      </trkpt>
      <trkpt lat="49.03895" lon="-0.4242">
        <ele>134.2</ele>
        <time>2018-12-28T15:02:05Z</time>
      </trkpt>
      <trkpt lat="49.03898" lon="-0.42424">
        <ele>134.2</ele>
        <time>2018-12-28T15:02:07Z</time>
      </trkpt>
      <trkpt lat="49.03901" lon="-0.42427">
        <ele>134.1</ele>
        <time>2018-12-28T15:02:09Z</time>
      </trkpt>
      <trkpt lat="49.03903" lon="-0.42429">
        <ele>134.1</ele>
        <time>2018-12-28T15:02:11Z</time>
      </trkpt>
      <trkpt lat="49.03905" lon="-0.42432">
        <ele>134.1</ele>
        <time>2018-12-28T15:02:14Z</time>
      </trkpt>
      <trkpt lat="49.03907" lon="-0.42435">
        <ele>134</ele>
        <time>2018-12-28T15:02:16Z</time>
      </trkpt>
      <trkpt lat="49.0391" lon="-0.42439">
        <ele>134</ele>
        <time>2018-12-28T15:02:19Z</time>
      </trkpt>
      <trkpt lat="49.03913" lon="-0.42443">
        <ele>133.9</ele>
        <time>2018-12-28T15:02:28Z</time>
      </trkpt>
      <trkpt lat="49.03915" lon="-0.42447">
        <ele>133.9</ele>
        <time>2018-12-28T15:02:30Z</time>
      </trkpt>
      <trkpt lat="49.03917" lon="-0.42451">
        <ele>133.8</ele>
        <time>2018-12-28T15:02:32Z</time>
      </trkpt>
      <trkpt lat="49.03919" lon="-0.42455">
        <ele>133.8</ele>
        <time>2018-12-28T15:02:34Z</time>
      </trkpt>
      <trkpt lat="49.0392" lon="-0.4246">
        <ele>133.7</ele>
        <time>2018-12-28T15:02:36Z</time>
      </trkpt>
      <trkpt lat="49.03922" lon="-0.42463">
        <ele>133.7</ele>
        <time>2018-12-28T15:02:38Z</time>
      </trkpt>
      <trkpt lat="49.03923" lon="-0.42467">
        <ele>133.6</ele>
        <time>2018-12-28T15:02:40Z</time>
      </trkpt>
      <trkpt lat="49.03926" lon="-0.4247">
        <ele>133.6</ele>
        <time>2018-12-28T15:02:42Z</time>
      </trkpt>
      <trkpt lat="49.03928" lon="-0.42473">
        <ele>133.5</ele>
        <time>2018-12-28T15:02:45Z</time>
      </trkpt>
      <trkpt lat="49.03931" lon="-0.42477">
        <ele>133.5</ele>
        <time>2018-12-28T15:02:47Z</time>
      </trkpt>
      <trkpt lat="49.03933" lon="-0.42482">
        <ele>133.4</ele>
        <time>2018-12-28T15:02:49Z</time>
      </trkpt>
      <trkpt lat="49.03934" lon="-0.42485">
        <ele>133.3</ele>
        <time>2018-12-28T15:02:57Z</time>
      </trkpt>
      <trkpt lat="49.03936" lon="-0.4249">
        <ele>133.3</ele>
        <time>2018-12-28T15:02:59Z</time>
      </trkpt>
      <trkpt lat="49.03938" lon="-0.42494">
        <ele>133.2</ele>
        <time>2018-12-28T15:03:01Z</time>
      </trkpt>
      <trkpt lat="49.0394" lon="-0.42497">
        <ele>133.1</ele>
        <time>2018-12-28T15:03:03Z</time>
      </trkpt>
      <trkpt lat="49.03942" lon="-0.42502">
        <ele>133.1</ele>
        <time>2018-12-28T15:03:06Z</time>
      </trkpt>
      <trkpt lat="49.03944" lon="-0.42505">
        <ele>133</ele>
        <time>2018-12-28T15:03:08Z</time>
      </trkpt>
      <trkpt lat="49.03945" lon="-0.42509">
        <ele>132.9</ele>
        <time>2018-12-28T15:03:10Z</time>
      </trkpt>
      <trkpt lat="49.03948" lon="-0.42512">
        <ele>132.8</ele>
        <time>2018-12-28T15:03:12Z</time>
      </trkpt>
      <trkpt lat="49.0395" lon="-0.42516">
        <ele>132.7</ele>
        <time>2018-12-28T15:03:14Z</time>
      </trkpt>
      <trkpt lat="49.03951" lon="-0.4252">
        <ele>132.6</ele>
        <time>2018-12-28T15:03:16Z</time>
      </trkpt>
      <trkpt lat="49.03953" lon="-0.42523">
        <ele>132.5</ele>
        <time>2018-12-28T15:03:19Z</time>
      </trkpt>
      <trkpt lat="49.03955" lon="-0.42527">
        <ele>132.5</ele>
        <time>2018-12-28T15:03:21Z</time>
      </trkpt>
      <trkpt lat="49.03957" lon="-0.42531">
        <ele>132.4</ele>
        <time>2018-12-28T15:03:23Z</time>
      </trkpt>
      <trkpt lat="49.03959" lon="-0.42535">
        <ele>132.3</ele>
        <time>2018-12-28T15:03:25Z</time>
      </trkpt>
      <trkpt lat="49.03962" lon="-0.4254">
        <ele>132.2</ele>
        <time>2018-12-28T15:03:27Z</time>
      </trkpt>
      <trkpt lat="49.03964" lon="-0.42543">
        <ele>132.1</ele>
        <time>2018-12-28T15:03:29Z</time>
      </trkpt>
      <trkpt lat="49.03966" lon="-0.42546">
        <ele>132</ele>
        <time>2018-12-28T15:03:31Z</time>
      </trkpt>
      <trkpt lat="49.03968" lon="-0.4255">
        <ele>131.9</ele>
        <time>2018-12-28T15:03:33Z</time>
      </trkpt>
      <trkpt lat="49.0397" lon="-0.42554">
        <ele>131.8</ele>
        <time>2018-12-28T15:03:36Z</time>
      </trkpt>
      <trkpt lat="49.03972" lon="-0.42557">
        <ele>131.7</ele>
        <time>2018-12-28T15:03:38Z</time>
      </trkpt>
      <trkpt lat="49.03974" lon="-0.4256">
        <ele>131.6</ele>
        <time>2018-12-28T15:03:40Z</time>
      </trkpt>
      <trkpt lat="49.03977" lon="-0.42565">
        <ele>131.5</ele>
        <time>2018-12-28T15:03:43Z</time>
      </trkpt>
      <trkpt lat="49.03979" lon="-0.42568">
        <ele>131.5</ele>
        <time>2018-12-28T15:03:45Z</time>
      </trkpt>
      <trkpt lat="49.03981" lon="-0.42572">
        <ele>131.4</ele>
        <time>2018-12-28T15:03:47Z</time>
      </trkpt>
      <trkpt lat="49.03984" lon="-0.42575">
        <ele>131.3</ele>
        <time>2018-12-28T15:03:49Z</time>
      </trkpt>
      <trkpt lat="49.03985" lon="-0.4258">
        <ele>131.2</ele>
        <time>2018-12-28T15:03:51Z</time>
      </trkpt>
      <trkpt lat="49.03988" lon="-0.42584">
        <ele>131.2</ele>
        <time>2018-12-28T15:03:53Z</time>
      </trkpt>
      <trkpt lat="49.0399" lon="-0.42588">
        <ele>131.1</ele>
        <time>2018-12-28T15:03:55Z</time>
      </trkpt>
      <trkpt lat="49.03992" lon="-0.42591">
        <ele>131</ele>
        <time>2018-12-28T15:03:57Z</time>
      </trkpt>
      <trkpt lat="49.03994" lon="-0.42596">
        <ele>130.9</ele>
        <time>2018-12-28T15:04:00Z</time>
      </trkpt>
      <trkpt lat="49.03997" lon="-0.42601">
        <ele>130.8</ele>
        <time>2018-12-28T15:04:03Z</time>
      </trkpt>
      <trkpt lat="49.03999" lon="-0.42604">
        <ele>130.8</ele>
        <time>2018-12-28T15:04:05Z</time>
      </trkpt>
      <trkpt lat="49.04" lon="-0.42608">
        <ele>130.7</ele>
        <time>2018-12-28T15:04:07Z</time>
      </trkpt>
      <trkpt lat="49.04002" lon="-0.42612">
        <ele>130.6</ele>
        <time>2018-12-28T15:04:09Z</time>
      </trkpt>
      <trkpt lat="49.04004" lon="-0.42617">
        <ele>130.6</ele>
        <time>2018-12-28T15:04:12Z</time>
      </trkpt>
      <trkpt lat="49.04007" lon="-0.42621">
        <ele>130.5</ele>
        <time>2018-12-28T15:04:18Z</time>
      </trkpt>
      <trkpt lat="49.04009" lon="-0.42625">
        <ele>130.4</ele>
        <time>2018-12-28T15:04:20Z</time>
      </trkpt>
      <trkpt lat="49.04011" lon="-0.42629">
        <ele>130.4</ele>
        <time>2018-12-28T15:04:22Z</time>
      </trkpt>
      <trkpt lat="49.04013" lon="-0.42632">
        <ele>130.3</ele>
        <time>2018-12-28T15:04:24Z</time>
      </trkpt>
      <trkpt lat="49.04015" lon="-0.42635">
        <ele>130.2</ele>
        <time>2018-12-28T15:04:26Z</time>
      </trkpt>
      <trkpt lat="49.04017" lon="-0.4264">
        <ele>130.2</ele>
        <time>2018-12-28T15:04:28Z</time>
      </trkpt>
      <trkpt lat="49.04019" lon="-0.42644">
        <ele>130.1</ele>
        <time>2018-12-28T15:04:30Z</time>
      </trkpt>
      <trkpt lat="49.04021" lon="-0.42648">
        <ele>130</ele>
        <time>2018-12-28T15:04:33Z</time>
      </trkpt>
      <trkpt lat="49.04024" lon="-0.42652">
        <ele>129.9</ele>
        <time>2018-12-28T15:04:36Z</time>
      </trkpt>
      <trkpt lat="49.04027" lon="-0.42656">
        <ele>129.9</ele>
        <time>2018-12-28T15:04:38Z</time>
      </trkpt>
      <trkpt lat="49.04029" lon="-0.42659">
        <ele>129.8</ele>
        <time>2018-12-28T15:04:40Z</time>
      </trkpt>
      <trkpt lat="49.04031" lon="-0.42662">
        <ele>129.7</ele>
        <time>2018-12-28T15:04:43Z</time>
      </trkpt>
      <trkpt lat="49.04033" lon="-0.42666">
        <ele>129.7</ele>
        <time>2018-12-28T15:04:49Z</time>
      </trkpt>
      <trkpt lat="49.04035" lon="-0.4267">
        <ele>129.6</ele>
        <time>2018-12-28T15:04:51Z</time>
      </trkpt>
      <trkpt lat="49.04036" lon="-0.42675">
        <ele>129.5</ele>
        <time>2018-12-28T15:04:55Z</time>
      </trkpt>
      <trkpt lat="49.04038" lon="-0.42679">
        <ele>129.4</ele>
        <time>2018-12-28T15:04:58Z</time>
      </trkpt>
      <trkpt lat="49.04041" lon="-0.42684">
        <ele>129.3</ele>
        <time>2018-12-28T15:05:01Z</time>
      </trkpt>
      <trkpt lat="49.04043" lon="-0.42688">
        <ele>129.2</ele>
        <time>2018-12-28T15:05:03Z</time>
      </trkpt>
      <trkpt lat="49.04045" lon="-0.42692">
        <ele>129.1</ele>
        <time>2018-12-28T15:05:07Z</time>
      </trkpt>
      <trkpt lat="49.04047" lon="-0.42695">
        <ele>129</ele>
        <time>2018-12-28T15:05:09Z</time>
      </trkpt>
      <trkpt lat="49.04049" lon="-0.42699">
        <ele>128.9</ele>
        <time>2018-12-28T15:05:11Z</time>
      </trkpt>
      <trkpt lat="49.04051" lon="-0.42702">
        <ele>128.8</ele>
        <time>2018-12-28T15:05:13Z</time>
      </trkpt>
      <trkpt lat="49.04053" lon="-0.42705">
        <ele>128.7</ele>
        <time>2018-12-28T15:05:15Z</time>
      </trkpt>
      <trkpt lat="49.04056" lon="-0.42708">
        <ele>128.6</ele>
        <time>2018-12-28T15:05:17Z</time>
      </trkpt>
      <trkpt lat="49.04058" lon="-0.42712">
        <ele>128.5</ele>
        <time>2018-12-28T15:05:19Z</time>
      </trkpt>
      <trkpt lat="49.0406" lon="-0.42716">
        <ele>128.4</ele>
        <time>2018-12-28T15:05:21Z</time>
      </trkpt>
      <trkpt lat="49.04062" lon="-0.42719">
        <ele>128.3</ele>
        <time>2018-12-28T15:05:23Z</time>
      </trkpt>
      <trkpt lat="49.04064" lon="-0.42722">
        <ele>128.2</ele>
        <time>2018-12-28T15:05:25Z</time>
      </trkpt>
      <trkpt lat="49.04066" lon="-0.42725">
        <ele>128</ele>
        <time>2018-12-28T15:05:27Z</time>
      </trkpt>
      <trkpt lat="49.04069" lon="-0.42727">
        <ele>127.9</ele>
        <time>2018-12-28T15:05:29Z</time>
      </trkpt>
      <trkpt lat="49.04071" lon="-0.42731">
        <ele>127.8</ele>
        <time>2018-12-28T15:05:31Z</time>
      </trkpt>
      <trkpt lat="49.04073" lon="-0.42734">
        <ele>127.7</ele>
        <time>2018-12-28T15:05:40Z</time>
      </trkpt>
      <trkpt lat="49.04077" lon="-0.42737">
        <ele>127.6</ele>
        <time>2018-12-28T15:05:42Z</time>
      </trkpt>
      <trkpt lat="49.0408" lon="-0.4274">
        <ele>127.4</ele>
        <time>2018-12-28T15:05:44Z</time>
      </trkpt>
      <trkpt lat="49.04083" lon="-0.42744">
        <ele>127.1</ele>
        <time>2018-12-28T15:05:56Z</time>
      </trkpt>
      <trkpt lat="49.04085" lon="-0.42747">
        <ele>126.9</ele>
        <time>2018-12-28T15:05:58Z</time>
      </trkpt>
      <trkpt lat="49.04088" lon="-0.4275">
        <ele>126.7</ele>
        <time>2018-12-28T15:06:00Z</time>
      </trkpt>
      <trkpt lat="49.0409" lon="-0.42754">
        <ele>126.5</ele>
        <time>2018-12-28T15:06:02Z</time>
      </trkpt>
      <trkpt lat="49.04092" lon="-0.42758">
        <ele>126.4</ele>
        <time>2018-12-28T15:06:04Z</time>
      </trkpt>
      <trkpt lat="49.04094" lon="-0.42761">
        <ele>126.3</ele>
        <time>2018-12-28T15:06:06Z</time>
      </trkpt>
      <trkpt lat="49.04098" lon="-0.42766">
        <ele>126.1</ele>
        <time>2018-12-28T15:06:11Z</time>
      </trkpt>
      <trkpt lat="49.041" lon="-0.42769">
        <ele>126</ele>
        <time>2018-12-28T15:06:14Z</time>
      </trkpt>
      <trkpt lat="49.04102" lon="-0.42774">
        <ele>125.9</ele>
        <time>2018-12-28T15:06:18Z</time>
      </trkpt>
      <trkpt lat="49.04105" lon="-0.42776">
        <ele>125.8</ele>
        <time>2018-12-28T15:06:20Z</time>
      </trkpt>
      <trkpt lat="49.04107" lon="-0.42779">
        <ele>125.7</ele>
        <time>2018-12-28T15:06:22Z</time>
      </trkpt>
      <trkpt lat="49.0411" lon="-0.42782">
        <ele>125.6</ele>
        <time>2018-12-28T15:06:24Z</time>
      </trkpt>
      <trkpt lat="49.04112" lon="-0.42785">
        <ele>125.5</ele>
        <time>2018-12-28T15:06:26Z</time>
      </trkpt>
      <trkpt lat="49.04115" lon="-0.42787">
        <ele>125.4</ele>
        <time>2018-12-28T15:06:29Z</time>
      </trkpt>
      <trkpt lat="49.04118" lon="-0.42789">
        <ele>125.3</ele>
        <time>2018-12-28T15:06:32Z</time>
      </trkpt>
      <trkpt lat="49.0412" lon="-0.42793">
        <ele>125.2</ele>
        <time>2018-12-28T15:06:35Z</time>
      </trkpt>
      <trkpt lat="49.04123" lon="-0.42795">
        <ele>125.1</ele>
        <time>2018-12-28T15:06:38Z</time>
      </trkpt>
      <trkpt lat="49.04126" lon="-0.42799">
        <ele>125</ele>
        <time>2018-12-28T15:06:41Z</time>
      </trkpt>
      <trkpt lat="49.04129" lon="-0.42801">
        <ele>124.9</ele>
        <time>2018-12-28T15:06:43Z</time>
      </trkpt>
      <trkpt lat="49.04132" lon="-0.42804">
        <ele>124.9</ele>
        <time>2018-12-28T15:06:45Z</time>
      </trkpt>
      <trkpt lat="49.04135" lon="-0.42808">
        <ele>124.8</ele>
        <time>2018-12-28T15:06:47Z</time>
      </trkpt>
      <trkpt lat="49.04137" lon="-0.42812">
        <ele>124.7</ele>
        <time>2018-12-28T15:06:50Z</time>
      </trkpt>
      <trkpt lat="49.04139" lon="-0.42815">
        <ele>124.6</ele>
        <time>2018-12-28T15:06:52Z</time>
      </trkpt>
      <trkpt lat="49.04142" lon="-0.42817">
        <ele>124.5</ele>
        <time>2018-12-28T15:06:55Z</time>
      </trkpt>
      <trkpt lat="49.04145" lon="-0.42821">
        <ele>124.5</ele>
        <time>2018-12-28T15:06:58Z</time>
      </trkpt>
      <trkpt lat="49.04148" lon="-0.42825">
        <ele>124.4</ele>
        <time>2018-12-28T15:07:01Z</time>
      </trkpt>
      <trkpt lat="49.0415" lon="-0.42827">
        <ele>124.3</ele>
        <time>2018-12-28T15:07:03Z</time>
      </trkpt>
      <trkpt lat="49.04153" lon="-0.42831">
        <ele>124.2</ele>
        <time>2018-12-28T15:07:05Z</time>
      </trkpt>
      <trkpt lat="49.04155" lon="-0.42835">
        <ele>124.2</ele>
        <time>2018-12-28T15:07:07Z</time>
      </trkpt>
      <trkpt lat="49.04158" lon="-0.42839">
        <ele>124.1</ele>
        <time>2018-12-28T15:07:09Z</time>
      </trkpt>
      <trkpt lat="49.0416" lon="-0.42843">
        <ele>124</ele>
        <time>2018-12-28T15:07:12Z</time>
      </trkpt>
      <trkpt lat="49.04163" lon="-0.42846">
        <ele>123.9</ele>
        <time>2018-12-28T15:07:15Z</time>
      </trkpt>
      <trkpt lat="49.04165" lon="-0.42849">
        <ele>123.9</ele>
        <time>2018-12-28T15:07:17Z</time>
      </trkpt>
      <trkpt lat="49.04168" lon="-0.42851">
        <ele>123.8</ele>
        <time>2018-12-28T15:07:20Z</time>
      </trkpt>
      <trkpt lat="49.0417" lon="-0.42853">
        <ele>123.8</ele>
        <time>2018-12-28T15:07:23Z</time>
      </trkpt>
      <trkpt lat="49.04173" lon="-0.42857">
        <ele>123.7</ele>
        <time>2018-12-28T15:07:27Z</time>
      </trkpt>
      <trkpt lat="49.04176" lon="-0.42861">
        <ele>123.6</ele>
        <time>2018-12-28T15:07:30Z</time>
      </trkpt>
      <trkpt lat="49.04179" lon="-0.42863">
        <ele>123.6</ele>
        <time>2018-12-28T15:07:32Z</time>
      </trkpt>
      <trkpt lat="49.04181" lon="-0.42865">
        <ele>123.5</ele>
        <time>2018-12-28T15:07:34Z</time>
      </trkpt>
      <trkpt lat="49.04184" lon="-0.42868">
        <ele>123.4</ele>
        <time>2018-12-28T15:07:36Z</time>
      </trkpt>
      <trkpt lat="49.04187" lon="-0.4287">
        <ele>123.3</ele>
        <time>2018-12-28T15:07:38Z</time>
      </trkpt>
      <trkpt lat="49.0419" lon="-0.42873">
        <ele>123.3</ele>
        <time>2018-12-28T15:07:40Z</time>
      </trkpt>
      <trkpt lat="49.04193" lon="-0.42875">
        <ele>123.2</ele>
        <time>2018-12-28T15:07:42Z</time>
      </trkpt>
      <trkpt lat="49.04196" lon="-0.42878">
        <ele>123.2</ele>
        <time>2018-12-28T15:07:44Z</time>
      </trkpt>
      <trkpt lat="49.04199" lon="-0.42881">
        <ele>123.1</ele>
        <time>2018-12-28T15:07:46Z</time>
      </trkpt>
      <trkpt lat="49.04202" lon="-0.42885">
        <ele>123.1</ele>
        <time>2018-12-28T15:07:48Z</time>
      </trkpt>
      <trkpt lat="49.04205" lon="-0.42888">
        <ele>123</ele>
        <time>2018-12-28T15:07:51Z</time>
      </trkpt>
      <trkpt lat="49.04208" lon="-0.42891">
        <ele>123</ele>
        <time>2018-12-28T15:07:54Z</time>
      </trkpt>
      <trkpt lat="49.04211" lon="-0.42893">
        <ele>122.9</ele>
        <time>2018-12-28T15:07:58Z</time>
      </trkpt>
      <trkpt lat="49.04214" lon="-0.42895">
        <ele>122.9</ele>
        <time>2018-12-28T15:08:01Z</time>
      </trkpt>
      <trkpt lat="49.04217" lon="-0.42899">
        <ele>122.8</ele>
        <time>2018-12-28T15:08:04Z</time>
      </trkpt>
      <trkpt lat="49.04219" lon="-0.42902">
        <ele>122.8</ele>
        <time>2018-12-28T15:08:06Z</time>
      </trkpt>
      <trkpt lat="49.04222" lon="-0.42905">
        <ele>122.7</ele>
        <time>2018-12-28T15:08:09Z</time>
      </trkpt>
      <trkpt lat="49.04226" lon="-0.42908">
        <ele>122.6</ele>
        <time>2018-12-28T15:08:12Z</time>
      </trkpt>
      <trkpt lat="49.04229" lon="-0.4291">
        <ele>122.5</ele>
        <time>2018-12-28T15:08:14Z</time>
      </trkpt>
      <trkpt lat="49.04231" lon="-0.42912">
        <ele>122.4</ele>
        <time>2018-12-28T15:08:16Z</time>
      </trkpt>
      <trkpt lat="49.04234" lon="-0.42914">
        <ele>122.3</ele>
        <time>2018-12-28T15:08:18Z</time>
      </trkpt>
      <trkpt lat="49.04237" lon="-0.42916">
        <ele>122.2</ele>
        <time>2018-12-28T15:08:20Z</time>
      </trkpt>
      <trkpt lat="49.0424" lon="-0.42917">
        <ele>122</ele>
        <time>2018-12-28T15:08:22Z</time>
      </trkpt>
      <trkpt lat="49.04243" lon="-0.42918">
        <ele>121.9</ele>
        <time>2018-12-28T15:08:24Z</time>
      </trkpt>
      <trkpt lat="49.04246" lon="-0.42919">
        <ele>121.8</ele>
        <time>2018-12-28T15:08:26Z</time>
      </trkpt>
      <trkpt lat="49.04248" lon="-0.42921">
        <ele>121.7</ele>
        <time>2018-12-28T15:08:29Z</time>
      </trkpt>
      <trkpt lat="49.04251" lon="-0.42924">
        <ele>121.6</ele>
        <time>2018-12-28T15:08:31Z</time>
      </trkpt>
      <trkpt lat="49.04255" lon="-0.42927">
        <ele>121.4</ele>
        <time>2018-12-28T15:08:37Z</time>
      </trkpt>
      <trkpt lat="49.04258" lon="-0.42929">
        <ele>121.3</ele>
        <time>2018-12-28T15:08:39Z</time>
      </trkpt>
      <trkpt lat="49.04261" lon="-0.42932">
        <ele>121.2</ele>
        <time>2018-12-28T15:08:41Z</time>
      </trkpt>
      <trkpt lat="49.04264" lon="-0.42933">
        <ele>121.1</ele>
        <time>2018-12-28T15:08:43Z</time>
      </trkpt>
      <trkpt lat="49.04267" lon="-0.42934">
        <ele>121.1</ele>
        <time>2018-12-28T15:08:46Z</time>
      </trkpt>
      <trkpt lat="49.0427" lon="-0.42937">
        <ele>121</ele>
        <time>2018-12-28T15:08:48Z</time>
      </trkpt>
      <trkpt lat="49.04272" lon="-0.42941">
        <ele>121</ele>
        <time>2018-12-28T15:08:51Z</time>
      </trkpt>
      <trkpt lat="49.04275" lon="-0.42945">
        <ele>120.9</ele>
        <time>2018-12-28T15:08:54Z</time>
      </trkpt>
      <trkpt lat="49.04277" lon="-0.42949">
        <ele>120.9</ele>
        <time>2018-12-28T15:08:57Z</time>
      </trkpt>
      <trkpt lat="49.0428" lon="-0.42951">
        <ele>120.9</ele>
        <time>2018-12-28T15:08:59Z</time>
      </trkpt>
      <trkpt lat="49.04282" lon="-0.42953">
        <ele>120.9</ele>
        <time>2018-12-28T15:09:01Z</time>
      </trkpt>
      <trkpt lat="49.04285" lon="-0.42956">
        <ele>120.8</ele>
        <time>2018-12-28T15:09:03Z</time>
      </trkpt>
      <trkpt lat="49.04288" lon="-0.42958">
        <ele>120.8</ele>
        <time>2018-12-28T15:09:05Z</time>
      </trkpt>
      <trkpt lat="49.04291" lon="-0.42961">
        <ele>120.8</ele>
        <time>2018-12-28T15:09:07Z</time>
      </trkpt>
      <trkpt lat="49.04294" lon="-0.42964">
        <ele>120.7</ele>
        <time>2018-12-28T15:09:09Z</time>
      </trkpt>
      <trkpt lat="49.04296" lon="-0.42966">
        <ele>120.7</ele>
        <time>2018-12-28T15:09:11Z</time>
      </trkpt>
      <trkpt lat="49.04298" lon="-0.42969">
        <ele>120.7</ele>
        <time>2018-12-28T15:09:13Z</time>
      </trkpt>
      <trkpt lat="49.04301" lon="-0.42971">
        <ele>120.7</ele>
        <time>2018-12-28T15:09:15Z</time>
      </trkpt>
      <trkpt lat="49.04304" lon="-0.42974">
        <ele>120.7</ele>
        <time>2018-12-28T15:09:17Z</time>
      </trkpt>
      <trkpt lat="49.04306" lon="-0.42977">
        <ele>120.7</ele>
        <time>2018-12-28T15:09:23Z</time>
      </trkpt>
      <trkpt lat="49.04308" lon="-0.4298">
        <ele>120.7</ele>
        <time>2018-12-28T15:09:25Z</time>
      </trkpt>
      <trkpt lat="49.04311" lon="-0.42982">
        <ele>120.7</ele>
        <time>2018-12-28T15:09:27Z</time>
      </trkpt>
      <trkpt lat="49.04314" lon="-0.42985">
        <ele>120.7</ele>
        <time>2018-12-28T15:09:29Z</time>
      </trkpt>
      <trkpt lat="49.04317" lon="-0.42988">
        <ele>120.7</ele>
        <time>2018-12-28T15:09:32Z</time>
      </trkpt>
      <trkpt lat="49.0432" lon="-0.42991">
        <ele>120.7</ele>
        <time>2018-12-28T15:09:34Z</time>
      </trkpt>
      <trkpt lat="49.04322" lon="-0.42994">
        <ele>120.7</ele>
        <time>2018-12-28T15:09:36Z</time>
      </trkpt>
      <trkpt lat="49.04325" lon="-0.42997">
        <ele>120.7</ele>
        <time>2018-12-28T15:09:41Z</time>
      </trkpt>
      <trkpt lat="49.04328" lon="-0.42999">
        <ele>120.7</ele>
        <time>2018-12-28T15:09:43Z</time>
      </trkpt>
      <trkpt lat="49.0433" lon="-0.43001">
        <ele>120.7</ele>
        <time>2018-12-28T15:09:45Z</time>
      </trkpt>
      <trkpt lat="49.04332" lon="-0.43005">
        <ele>120.6</ele>
        <time>2018-12-28T15:09:47Z</time>
      </trkpt>
      <trkpt lat="49.04336" lon="-0.43007">
        <ele>120.6</ele>
        <time>2018-12-28T15:09:50Z</time>
      </trkpt>
      <trkpt lat="49.04339" lon="-0.43009">
        <ele>120.5</ele>
        <time>2018-12-28T15:09:52Z</time>
      </trkpt>
      <trkpt lat="49.04341" lon="-0.43012">
        <ele>120.4</ele>
        <time>2018-12-28T15:09:54Z</time>
      </trkpt>
      <trkpt lat="49.04344" lon="-0.43014">
        <ele>120.3</ele>
        <time>2018-12-28T15:09:56Z</time>
      </trkpt>
      <trkpt lat="49.04347" lon="-0.43017">
        <ele>120.1</ele>
        <time>2018-12-28T15:09:59Z</time>
      </trkpt>
      <trkpt lat="49.0435" lon="-0.4302">
        <ele>119.9</ele>
        <time>2018-12-28T15:10:02Z</time>
      </trkpt>
      <trkpt lat="49.04353" lon="-0.43022">
        <ele>119.6</ele>
        <time>2018-12-28T15:10:04Z</time>
      </trkpt>
      <trkpt lat="49.04356" lon="-0.43026">
        <ele>119.2</ele>
        <time>2018-12-28T15:10:07Z</time>
      </trkpt>
      <trkpt lat="49.04358" lon="-0.43029">
        <ele>118.9</ele>
        <time>2018-12-28T15:10:09Z</time>
      </trkpt>
      <trkpt lat="49.04361" lon="-0.43032">
        <ele>118.5</ele>
        <time>2018-12-28T15:10:11Z</time>
      </trkpt>
      <trkpt lat="49.04364" lon="-0.43034">
        <ele>118.4</ele>
        <time>2018-12-28T15:10:13Z</time>
      </trkpt>
      <trkpt lat="49.04366" lon="-0.43037">
        <ele>118.3</ele>
        <time>2018-12-28T15:10:15Z</time>
      </trkpt>
      <trkpt lat="49.0437" lon="-0.43041">
        <ele>118.1</ele>
        <time>2018-12-28T15:10:17Z</time>
      </trkpt>
      <trkpt lat="49.04373" lon="-0.43044">
        <ele>117.9</ele>
        <time>2018-12-28T15:10:19Z</time>
      </trkpt>
      <trkpt lat="49.04376" lon="-0.43047">
        <ele>117.8</ele>
        <time>2018-12-28T15:10:21Z</time>
      </trkpt>
      <trkpt lat="49.04379" lon="-0.43052">
        <ele>117.6</ele>
        <time>2018-12-28T15:10:26Z</time>
      </trkpt>
      <trkpt lat="49.04382" lon="-0.43054">
        <ele>117.4</ele>
        <time>2018-12-28T15:10:28Z</time>
      </trkpt>
      <trkpt lat="49.04384" lon="-0.43057">
        <ele>117.3</ele>
        <time>2018-12-28T15:10:30Z</time>
      </trkpt>
      <trkpt lat="49.04386" lon="-0.4306">
        <ele>117.2</ele>
        <time>2018-12-28T15:10:32Z</time>
      </trkpt>
      <trkpt lat="49.04389" lon="-0.43063">
        <ele>117</ele>
        <time>2018-12-28T15:10:38Z</time>
      </trkpt>
      <trkpt lat="49.04392" lon="-0.43065">
        <ele>116.9</ele>
        <time>2018-12-28T15:10:40Z</time>
      </trkpt>
      <trkpt lat="49.04395" lon="-0.43068">
        <ele>116.7</ele>
        <time>2018-12-28T15:10:42Z</time>
      </trkpt>
      <trkpt lat="49.04397" lon="-0.43071">
        <ele>116.5</ele>
        <time>2018-12-28T15:10:44Z</time>
      </trkpt>
      <trkpt lat="49.04399" lon="-0.43074">
        <ele>116.3</ele>
        <time>2018-12-28T15:10:46Z</time>
      </trkpt>
      <trkpt lat="49.04402" lon="-0.43077">
        <ele>116.1</ele>
        <time>2018-12-28T15:10:48Z</time>
      </trkpt>
      <trkpt lat="49.04405" lon="-0.43079">
        <ele>115.9</ele>
        <time>2018-12-28T15:10:50Z</time>
      </trkpt>
      <trkpt lat="49.04409" lon="-0.43082">
        <ele>115.6</ele>
        <time>2018-12-28T15:10:54Z</time>
      </trkpt>
      <trkpt lat="49.04412" lon="-0.43084">
        <ele>115.2</ele>
        <time>2018-12-28T15:10:56Z</time>
      </trkpt>
      <trkpt lat="49.04416" lon="-0.43087">
        <ele>114.8</ele>
        <time>2018-12-28T15:10:58Z</time>
      </trkpt>
      <trkpt lat="49.0442" lon="-0.4309">
        <ele>114.5</ele>
        <time>2018-12-28T15:11:00Z</time>
      </trkpt>
      <trkpt lat="49.04423" lon="-0.43092">
        <ele>114.3</ele>
        <time>2018-12-28T15:11:03Z</time>
      </trkpt>
      <trkpt lat="49.04426" lon="-0.43094">
        <ele>114.1</ele>
        <time>2018-12-28T15:11:06Z</time>
      </trkpt>
      <trkpt lat="49.04428" lon="-0.43097">
        <ele>114</ele>
        <time>2018-12-28T15:11:08Z</time>
      </trkpt>
      <trkpt lat="49.04431" lon="-0.431">
        <ele>113.8</ele>
        <time>2018-12-28T15:11:10Z</time>
      </trkpt>
      <trkpt lat="49.04433" lon="-0.43102">
        <ele>113.7</ele>
        <time>2018-12-28T15:11:13Z</time>
      </trkpt>
      <trkpt lat="49.04436" lon="-0.43104">
        <ele>113.5</ele>
        <time>2018-12-28T15:11:16Z</time>
      </trkpt>
      <trkpt lat="49.04439" lon="-0.43106">
        <ele>113.4</ele>
        <time>2018-12-28T15:11:19Z</time>
      </trkpt>
      <trkpt lat="49.04442" lon="-0.43109">
        <ele>113.2</ele>
        <time>2018-12-28T15:11:21Z</time>
      </trkpt>
      <trkpt lat="49.04444" lon="-0.43111">
        <ele>113.1</ele>
        <time>2018-12-28T15:11:23Z</time>
      </trkpt>
      <trkpt lat="49.04447" lon="-0.43114">
        <ele>112.9</ele>
        <time>2018-12-28T15:11:25Z</time>
      </trkpt>
      <trkpt lat="49.0445" lon="-0.43117">
        <ele>112.7</ele>
        <time>2018-12-28T15:11:27Z</time>
      </trkpt>
      <trkpt lat="49.04453" lon="-0.4312">
        <ele>112.4</ele>
        <time>2018-12-28T15:11:30Z</time>
      </trkpt>
      <trkpt lat="49.04456" lon="-0.43123">
        <ele>112.1</ele>
        <time>2018-12-28T15:11:33Z</time>
      </trkpt>
      <trkpt lat="49.04458" lon="-0.43125">
        <ele>111.8</ele>
        <time>2018-12-28T15:11:36Z</time>
      </trkpt>
      <trkpt lat="49.04462" lon="-0.43127">
        <ele>111.5</ele>
        <time>2018-12-28T15:11:39Z</time>
      </trkpt>
      <trkpt lat="49.04466" lon="-0.4313">
        <ele>111.1</ele>
        <time>2018-12-28T15:11:46Z</time>
      </trkpt>
      <trkpt lat="49.04468" lon="-0.43132">
        <ele>110.8</ele>
        <time>2018-12-28T15:11:48Z</time>
      </trkpt>
      <trkpt lat="49.04471" lon="-0.43134">
        <ele>110.5</ele>
        <time>2018-12-28T15:11:50Z</time>
      </trkpt>
      <trkpt lat="49.04473" lon="-0.43137">
        <ele>110.3</ele>
        <time>2018-12-28T15:11:52Z</time>
      </trkpt>
      <trkpt lat="49.04476" lon="-0.4314">
        <ele>110</ele>
        <time>2018-12-28T15:11:54Z</time>
      </trkpt>
      <trkpt lat="49.04479" lon="-0.43142">
        <ele>109.8</ele>
        <time>2018-12-28T15:11:56Z</time>
      </trkpt>
      <trkpt lat="49.04482" lon="-0.43145">
        <ele>109.5</ele>
        <time>2018-12-28T15:11:58Z</time>
      </trkpt>
      <trkpt lat="49.04485" lon="-0.43148">
        <ele>109.3</ele>
        <time>2018-12-28T15:12:00Z</time>
      </trkpt>
      <trkpt lat="49.04488" lon="-0.43151">
        <ele>109</ele>
        <time>2018-12-28T15:12:02Z</time>
      </trkpt>
      <trkpt lat="49.04491" lon="-0.43155">
        <ele>108.8</ele>
        <time>2018-12-28T15:12:04Z</time>
      </trkpt>
      <trkpt lat="49.04496" lon="-0.43157">
        <ele>108.4</ele>
        <time>2018-12-28T15:12:06Z</time>
      </trkpt>
      <trkpt lat="49.04499" lon="-0.43161">
        <ele>108.2</ele>
        <time>2018-12-28T15:12:08Z</time>
      </trkpt>
      <trkpt lat="49.04501" lon="-0.43164">
        <ele>107.9</ele>
        <time>2018-12-28T15:12:10Z</time>
      </trkpt>
      <trkpt lat="49.04504" lon="-0.43167">
        <ele>107.6</ele>
        <time>2018-12-28T15:12:12Z</time>
      </trkpt>
      <trkpt lat="49.04507" lon="-0.43171">
        <ele>107.3</ele>
        <time>2018-12-28T15:12:15Z</time>
      </trkpt>
      <trkpt lat="49.04509" lon="-0.43174">
        <ele>107</ele>
        <time>2018-12-28T15:12:17Z</time>
      </trkpt>
      <trkpt lat="49.04512" lon="-0.43177">
        <ele>106.7</ele>
        <time>2018-12-28T15:12:24Z</time>
      </trkpt>
      <trkpt lat="49.04516" lon="-0.43179">
        <ele>106.5</ele>
        <time>2018-12-28T15:12:26Z</time>
      </trkpt>
      <trkpt lat="49.04519" lon="-0.43181">
        <ele>106.2</ele>
        <time>2018-12-28T15:12:31Z</time>
      </trkpt>
      <trkpt lat="49.04522" lon="-0.43184">
        <ele>106</ele>
        <time>2018-12-28T15:12:33Z</time>
      </trkpt>
      <trkpt lat="49.04524" lon="-0.43187">
        <ele>105.8</ele>
        <time>2018-12-28T15:12:35Z</time>
      </trkpt>
      <trkpt lat="49.04528" lon="-0.4319">
        <ele>105.5</ele>
        <time>2018-12-28T15:12:37Z</time>
      </trkpt>
      <trkpt lat="49.04531" lon="-0.43193">
        <ele>105.3</ele>
        <time>2018-12-28T15:12:39Z</time>
      </trkpt>
      <trkpt lat="49.04534" lon="-0.43195">
        <ele>105.1</ele>
        <time>2018-12-28T15:12:41Z</time>
      </trkpt>
      <trkpt lat="49.04537" lon="-0.43198">
        <ele>104.9</ele>
        <time>2018-12-28T15:12:44Z</time>
      </trkpt>
      <trkpt lat="49.0454" lon="-0.43202">
        <ele>104.7</ele>
        <time>2018-12-28T15:12:46Z</time>
      </trkpt>
      <trkpt lat="49.04542" lon="-0.43204">
        <ele>104.6</ele>
        <time>2018-12-28T15:12:48Z</time>
      </trkpt>
      <trkpt lat="49.04546" lon="-0.43208">
        <ele>104.4</ele>
        <time>2018-12-28T15:12:52Z</time>
      </trkpt>
      <trkpt lat="49.04549" lon="-0.4321">
        <ele>104.3</ele>
        <time>2018-12-28T15:12:54Z</time>
      </trkpt>
      <trkpt lat="49.04552" lon="-0.43212">
        <ele>104.1</ele>
        <time>2018-12-28T15:12:57Z</time>
      </trkpt>
      <trkpt lat="49.04555" lon="-0.43214">
        <ele>104</ele>
        <time>2018-12-28T15:12:59Z</time>
      </trkpt>
      <trkpt lat="49.04558" lon="-0.43217">
        <ele>103.8</ele>
        <time>2018-12-28T15:13:01Z</time>
      </trkpt>
      <trkpt lat="49.04561" lon="-0.43219">
        <ele>103.7</ele>
        <time>2018-12-28T15:13:03Z</time>
      </trkpt>
      <trkpt lat="49.04564" lon="-0.43222">
        <ele>103.5</ele>
        <time>2018-12-28T15:13:05Z</time>
      </trkpt>
      <trkpt lat="49.04567" lon="-0.43225">
        <ele>103.3</ele>
        <time>2018-12-28T15:13:07Z</time>
      </trkpt>
      <trkpt lat="49.04569" lon="-0.43227">
        <ele>103.2</ele>
        <time>2018-12-28T15:13:09Z</time>
      </trkpt>
      <trkpt lat="49.04572" lon="-0.4323">
        <ele>103</ele>
        <time>2018-12-28T15:13:11Z</time>
      </trkpt>
      <trkpt lat="49.04574" lon="-0.43233">
        <ele>102.7</ele>
        <time>2018-12-28T15:13:13Z</time>
      </trkpt>
      <trkpt lat="49.04577" lon="-0.43237">
        <ele>102.5</ele>
        <time>2018-12-28T15:13:15Z</time>
      </trkpt>
      <trkpt lat="49.04579" lon="-0.43241">
        <ele>102.3</ele>
        <time>2018-12-28T15:13:18Z</time>
      </trkpt>
      <trkpt lat="49.04582" lon="-0.43244">
        <ele>102.1</ele>
        <time>2018-12-28T15:13:21Z</time>
      </trkpt>
      <trkpt lat="49.04584" lon="-0.43245">
        <ele>101.9</ele>
        <time>2018-12-28T15:13:23Z</time>
      </trkpt>
      <trkpt lat="49.04587" lon="-0.43248">
        <ele>101.7</ele>
        <time>2018-12-28T15:13:25Z</time>
      </trkpt>
      <trkpt lat="49.0459" lon="-0.4325">
        <ele>101.4</ele>
        <time>2018-12-28T15:13:27Z</time>
      </trkpt>
      <trkpt lat="49.04593" lon="-0.43254">
        <ele>101.1</ele>
        <time>2018-12-28T15:13:29Z</time>
      </trkpt>
      <trkpt lat="49.04596" lon="-0.43256">
        <ele>100.9</ele>
        <time>2018-12-28T15:13:31Z</time>
      </trkpt>
      <trkpt lat="49.04598" lon="-0.4326">
        <ele>100.6</ele>
        <time>2018-12-28T15:13:33Z</time>
      </trkpt>
      <trkpt lat="49.04602" lon="-0.43262">
        <ele>100.4</ele>
        <time>2018-12-28T15:13:36Z</time>
      </trkpt>
      <trkpt lat="49.04605" lon="-0.43266">
        <ele>100.1</ele>
        <time>2018-12-28T15:13:39Z</time>
      </trkpt>
      <trkpt lat="49.04608" lon="-0.43269">
        <ele>99.8</ele>
        <time>2018-12-28T15:13:42Z</time>
      </trkpt>
      <trkpt lat="49.0461" lon="-0.43272">
        <ele>99.5</ele>
        <time>2018-12-28T15:13:45Z</time>
      </trkpt>
      <trkpt lat="49.04613" lon="-0.43276">
        <ele>99.3</ele>
        <time>2018-12-28T15:13:50Z</time>
      </trkpt>
      <trkpt lat="49.04616" lon="-0.43279">
        <ele>99</ele>
        <time>2018-12-28T15:13:54Z</time>
      </trkpt>
      <trkpt lat="49.04618" lon="-0.43281">
        <ele>98.8</ele>
        <time>2018-12-28T15:13:56Z</time>
      </trkpt>
      <trkpt lat="49.04622" lon="-0.43284">
        <ele>98.4</ele>
        <time>2018-12-28T15:13:58Z</time>
      </trkpt>
      <trkpt lat="49.04626" lon="-0.43287">
        <ele>98</ele>
        <time>2018-12-28T15:14:00Z</time>
      </trkpt>
      <trkpt lat="49.0463" lon="-0.4329">
        <ele>97.6</ele>
        <time>2018-12-28T15:14:02Z</time>
      </trkpt>
      <trkpt lat="49.04633" lon="-0.43293">
        <ele>97.4</ele>
        <time>2018-12-28T15:14:04Z</time>
      </trkpt>
      <trkpt lat="49.04636" lon="-0.43297">
        <ele>97</ele>
        <time>2018-12-28T15:14:07Z</time>
      </trkpt>
      <trkpt lat="49.04638" lon="-0.433">
        <ele>96.7</ele>
        <time>2018-12-28T15:14:10Z</time>
      </trkpt>
      <trkpt lat="49.04641" lon="-0.43302">
        <ele>96.4</ele>
        <time>2018-12-28T15:14:12Z</time>
      </trkpt>
      <trkpt lat="49.04644" lon="-0.43304">
        <ele>96.1</ele>
        <time>2018-12-28T15:14:14Z</time>
      </trkpt>
      <trkpt lat="49.04646" lon="-0.43306">
        <ele>95.9</ele>
        <time>2018-12-28T15:14:16Z</time>
      </trkpt>
      <trkpt lat="49.04649" lon="-0.43308">
        <ele>95.6</ele>
        <time>2018-12-28T15:14:18Z</time>
      </trkpt>
      <trkpt lat="49.04652" lon="-0.43311">
        <ele>95.2</ele>
        <time>2018-12-28T15:14:21Z</time>
      </trkpt>
      <trkpt lat="49.04655" lon="-0.43314">
        <ele>94.9</ele>
        <time>2018-12-28T15:14:24Z</time>
      </trkpt>
      <trkpt lat="49.04656" lon="-0.43317">
        <ele>94.6</ele>
        <time>2018-12-28T15:14:26Z</time>
      </trkpt>
      <trkpt lat="49.04659" lon="-0.4332">
        <ele>94.3</ele>
        <time>2018-12-28T15:14:28Z</time>
      </trkpt>
      <trkpt lat="49.04661" lon="-0.43322">
        <ele>94.1</ele>
        <time>2018-12-28T15:14:30Z</time>
      </trkpt>
      <trkpt lat="49.04664" lon="-0.43325">
        <ele>93.8</ele>
        <time>2018-12-28T15:14:33Z</time>
      </trkpt>
      <trkpt lat="49.04666" lon="-0.43329">
        <ele>93.4</ele>
        <time>2018-12-28T15:14:37Z</time>
      </trkpt>
      <trkpt lat="49.04669" lon="-0.43332">
        <ele>93.1</ele>
        <time>2018-12-28T15:14:40Z</time>
      </trkpt>
      <trkpt lat="49.04673" lon="-0.43334">
        <ele>92.7</ele>
        <time>2018-12-28T15:14:43Z</time>
      </trkpt>
      <trkpt lat="49.04677" lon="-0.43336">
        <ele>92.5</ele>
        <time>2018-12-28T15:14:46Z</time>
      </trkpt>
      <trkpt lat="49.0468" lon="-0.43338">
        <ele>92.3</ele>
        <time>2018-12-28T15:14:48Z</time>
      </trkpt>
      <trkpt lat="49.04683" lon="-0.43341">
        <ele>92.1</ele>
        <time>2018-12-28T15:14:51Z</time>
      </trkpt>
      <trkpt lat="49.04686" lon="-0.43345">
        <ele>92</ele>
        <time>2018-12-28T15:14:54Z</time>
      </trkpt>
      <trkpt lat="49.04688" lon="-0.43348">
        <ele>91.8</ele>
        <time>2018-12-28T15:14:57Z</time>
      </trkpt>
      <trkpt lat="49.04691" lon="-0.43351">
        <ele>91.6</ele>
        <time>2018-12-28T15:14:59Z</time>
      </trkpt>
      <trkpt lat="49.04694" lon="-0.43353">
        <ele>91.3</ele>
        <time>2018-12-28T15:15:02Z</time>
      </trkpt>
      <trkpt lat="49.04696" lon="-0.43356">
        <ele>91</ele>
        <time>2018-12-28T15:15:04Z</time>
      </trkpt>
      <trkpt lat="49.04699" lon="-0.43359">
        <ele>90.7</ele>
        <time>2018-12-28T15:15:07Z</time>
      </trkpt>
      <trkpt lat="49.04701" lon="-0.43362">
        <ele>90.5</ele>
        <time>2018-12-28T15:15:10Z</time>
      </trkpt>
      <trkpt lat="49.04704" lon="-0.43365">
        <ele>90.2</ele>
        <time>2018-12-28T15:15:12Z</time>
      </trkpt>
      <trkpt lat="49.04706" lon="-0.43366">
        <ele>90</ele>
        <time>2018-12-28T15:15:14Z</time>
      </trkpt>
      <trkpt lat="49.04709" lon="-0.43369">
        <ele>89.7</ele>
        <time>2018-12-28T15:15:16Z</time>
      </trkpt>
      <trkpt lat="49.04712" lon="-0.43372">
        <ele>89.4</ele>
        <time>2018-12-28T15:15:18Z</time>
      </trkpt>
      <trkpt lat="49.04714" lon="-0.43374">
        <ele>89.2</ele>
        <time>2018-12-28T15:15:20Z</time>
      </trkpt>
      <trkpt lat="49.04717" lon="-0.43377">
        <ele>89</ele>
        <time>2018-12-28T15:15:23Z</time>
      </trkpt>
      <trkpt lat="49.0472" lon="-0.43379">
        <ele>88.7</ele>
        <time>2018-12-28T15:15:27Z</time>
      </trkpt>
      <trkpt lat="49.04723" lon="-0.4338">
        <ele>88.5</ele>
        <time>2018-12-28T15:15:29Z</time>
      </trkpt>
      <trkpt lat="49.04725" lon="-0.43382">
        <ele>88.3</ele>
        <time>2018-12-28T15:15:31Z</time>
      </trkpt>
      <trkpt lat="49.04728" lon="-0.43385">
        <ele>88.2</ele>
        <time>2018-12-28T15:15:34Z</time>
      </trkpt>
      <trkpt lat="49.04731" lon="-0.43388">
        <ele>88</ele>
        <time>2018-12-28T15:15:37Z</time>
      </trkpt>
      <trkpt lat="49.04734" lon="-0.43391">
        <ele>87.8</ele>
        <time>2018-12-28T15:15:40Z</time>
      </trkpt>
      <trkpt lat="49.04737" lon="-0.43394">
        <ele>87.6</ele>
        <time>2018-12-28T15:15:42Z</time>
      </trkpt>
      <trkpt lat="49.04739" lon="-0.43396">
        <ele>87.5</ele>
        <time>2018-12-28T15:15:44Z</time>
      </trkpt>
      <trkpt lat="49.04742" lon="-0.43399">
        <ele>87.3</ele>
        <time>2018-12-28T15:15:46Z</time>
      </trkpt>
      <trkpt lat="49.04743" lon="-0.43402">
        <ele>87.1</ele>
        <time>2018-12-28T15:15:49Z</time>
      </trkpt>
      <trkpt lat="49.04746" lon="-0.43407">
        <ele>86.9</ele>
        <time>2018-12-28T15:15:52Z</time>
      </trkpt>
      <trkpt lat="49.04749" lon="-0.4341">
        <ele>86.6</ele>
        <time>2018-12-28T15:15:55Z</time>
      </trkpt>
      <trkpt lat="49.04751" lon="-0.43413">
        <ele>86.5</ele>
        <time>2018-12-28T15:15:57Z</time>
      </trkpt>
      <trkpt lat="49.04754" lon="-0.43416">
        <ele>86.2</ele>
        <time>2018-12-28T15:15:59Z</time>
      </trkpt>
      <trkpt lat="49.04758" lon="-0.43418">
        <ele>86.1</ele>
        <time>2018-12-28T15:16:01Z</time>
      </trkpt>
      <trkpt lat="49.04761" lon="-0.43421">
        <ele>85.9</ele>
        <time>2018-12-28T15:16:04Z</time>
      </trkpt>
      <trkpt lat="49.04764" lon="-0.43423">
        <ele>85.8</ele>
        <time>2018-12-28T15:16:08Z</time>
      </trkpt>
      <trkpt lat="49.04767" lon="-0.43426">
        <ele>85.6</ele>
        <time>2018-12-28T15:16:10Z</time>
      </trkpt>
      <trkpt lat="49.0477" lon="-0.43429">
        <ele>85.5</ele>
        <time>2018-12-28T15:16:12Z</time>
      </trkpt>
      <trkpt lat="49.04772" lon="-0.43432">
        <ele>85.4</ele>
        <time>2018-12-28T15:16:14Z</time>
      </trkpt>
      <trkpt lat="49.04774" lon="-0.43434">
        <ele>85.3</ele>
        <time>2018-12-28T15:16:16Z</time>
      </trkpt>
      <trkpt lat="49.04778" lon="-0.43437">
        <ele>85.1</ele>
        <time>2018-12-28T15:16:18Z</time>
      </trkpt>
      <trkpt lat="49.04781" lon="-0.4344">
        <ele>85</ele>
        <time>2018-12-28T15:16:20Z</time>
      </trkpt>
      <trkpt lat="49.04784" lon="-0.43442">
        <ele>84.9</ele>
        <time>2018-12-28T15:16:22Z</time>
      </trkpt>
      <trkpt lat="49.04787" lon="-0.43445">
        <ele>84.8</ele>
        <time>2018-12-28T15:16:24Z</time>
      </trkpt>
      <trkpt lat="49.04789" lon="-0.43448">
        <ele>84.7</ele>
        <time>2018-12-28T15:16:27Z</time>
      </trkpt>
      <trkpt lat="49.04792" lon="-0.4345">
        <ele>84.4</ele>
        <time>2018-12-28T15:16:30Z</time>
      </trkpt>
      <trkpt lat="49.04795" lon="-0.43453">
        <ele>84.2</ele>
        <time>2018-12-28T15:16:35Z</time>
      </trkpt>
      <trkpt lat="49.04798" lon="-0.43455">
        <ele>84</ele>
        <time>2018-12-28T15:16:37Z</time>
      </trkpt>
      <trkpt lat="49.04801" lon="-0.4346">
        <ele>83.7</ele>
        <time>2018-12-28T15:16:40Z</time>
      </trkpt>
      <trkpt lat="49.04804" lon="-0.43462">
        <ele>83.5</ele>
        <time>2018-12-28T15:16:42Z</time>
      </trkpt>
      <trkpt lat="49.04807" lon="-0.43465">
        <ele>83.4</ele>
        <time>2018-12-28T15:16:44Z</time>
      </trkpt>
      <trkpt lat="49.04809" lon="-0.43467">
        <ele>83.2</ele>
        <time>2018-12-28T15:16:46Z</time>
      </trkpt>
      <trkpt lat="49.04813" lon="-0.43471">
        <ele>83</ele>
        <time>2018-12-28T15:16:49Z</time>
      </trkpt>
      <trkpt lat="49.04816" lon="-0.43474">
        <ele>82.8</ele>
        <time>2018-12-28T15:16:51Z</time>
      </trkpt>
      <trkpt lat="49.04819" lon="-0.43477">
        <ele>82.6</ele>
        <time>2018-12-28T15:16:54Z</time>
      </trkpt>
      <trkpt lat="49.04821" lon="-0.4348">
        <ele>82.5</ele>
        <time>2018-12-28T15:16:56Z</time>
      </trkpt>
      <trkpt lat="49.04824" lon="-0.43484">
        <ele>82.4</ele>
        <time>2018-12-28T15:16:59Z</time>
      </trkpt>
      <trkpt lat="49.04827" lon="-0.43485">
        <ele>82.4</ele>
        <time>2018-12-28T15:17:02Z</time>
      </trkpt>
      <trkpt lat="49.0483" lon="-0.43488">
        <ele>82.3</ele>
        <time>2018-12-28T15:17:05Z</time>
      </trkpt>
      <trkpt lat="49.04833" lon="-0.4349">
        <ele>82.2</ele>
        <time>2018-12-28T15:17:07Z</time>
      </trkpt>
      <trkpt lat="49.04835" lon="-0.43492">
        <ele>82.1</ele>
        <time>2018-12-28T15:17:09Z</time>
      </trkpt>
      <trkpt lat="49.04839" lon="-0.43495">
        <ele>82</ele>
        <time>2018-12-28T15:17:12Z</time>
      </trkpt>
      <trkpt lat="49.04842" lon="-0.43497">
        <ele>82</ele>
        <time>2018-12-28T15:17:14Z</time>
      </trkpt>
      <trkpt lat="49.04844" lon="-0.43499">
        <ele>81.9</ele>
        <time>2018-12-28T15:17:16Z</time>
      </trkpt>
      <trkpt lat="49.04848" lon="-0.43501">
        <ele>81.8</ele>
        <time>2018-12-28T15:17:19Z</time>
      </trkpt>
      <trkpt lat="49.04851" lon="-0.43504">
        <ele>81.7</ele>
        <time>2018-12-28T15:17:22Z</time>
      </trkpt>
      <trkpt lat="49.04854" lon="-0.43507">
        <ele>81.7</ele>
        <time>2018-12-28T15:17:24Z</time>
      </trkpt>
      <trkpt lat="49.04857" lon="-0.43509">
        <ele>81.6</ele>
        <time>2018-12-28T15:17:26Z</time>
      </trkpt>
      <trkpt lat="49.0486" lon="-0.43512">
        <ele>81.5</ele>
        <time>2018-12-28T15:17:29Z</time>
      </trkpt>
      <trkpt lat="49.04862" lon="-0.43514">
        <ele>81.5</ele>
        <time>2018-12-28T15:17:31Z</time>
      </trkpt>
      <trkpt lat="49.04865" lon="-0.43516">
        <ele>81.5</ele>
        <time>2018-12-28T15:17:34Z</time>
      </trkpt>
      <trkpt lat="49.04868" lon="-0.43518">
        <ele>81.4</ele>
        <time>2018-12-28T15:17:37Z</time>
      </trkpt>
      <trkpt lat="49.04871" lon="-0.43521">
        <ele>81.4</ele>
        <time>2018-12-28T15:17:40Z</time>
      </trkpt>
      <trkpt lat="49.04874" lon="-0.43524">
        <ele>81.3</ele>
        <time>2018-12-28T15:17:45Z</time>
      </trkpt>
      <trkpt lat="49.04876" lon="-0.43527">
        <ele>81.2</ele>
        <time>2018-12-28T15:17:47Z</time>
      </trkpt>
      <trkpt lat="49.0488" lon="-0.4353">
        <ele>81.2</ele>
        <time>2018-12-28T15:17:50Z</time>
      </trkpt>
      <trkpt lat="49.04883" lon="-0.43533">
        <ele>81.1</ele>
        <time>2018-12-28T15:17:53Z</time>
      </trkpt>
      <trkpt lat="49.04886" lon="-0.43537">
        <ele>81.1</ele>
        <time>2018-12-28T15:17:57Z</time>
      </trkpt>
      <trkpt lat="49.04889" lon="-0.4354">
        <ele>81</ele>
        <time>2018-12-28T15:18:00Z</time>
      </trkpt>
      <trkpt lat="49.04891" lon="-0.43543">
        <ele>81</ele>
        <time>2018-12-28T15:18:02Z</time>
      </trkpt>
      <trkpt lat="49.04894" lon="-0.43547">
        <ele>80.9</ele>
        <time>2018-12-28T15:18:05Z</time>
      </trkpt>
      <trkpt lat="49.04897" lon="-0.43549">
        <ele>80.9</ele>
        <time>2018-12-28T15:18:07Z</time>
      </trkpt>
      <trkpt lat="49.049" lon="-0.43551">
        <ele>80.8</ele>
        <time>2018-12-28T15:18:09Z</time>
      </trkpt>
      <trkpt lat="49.04903" lon="-0.43554">
        <ele>80.8</ele>
        <time>2018-12-28T15:18:11Z</time>
      </trkpt>
      <trkpt lat="49.04906" lon="-0.43557">
        <ele>80.7</ele>
        <time>2018-12-28T15:18:13Z</time>
      </trkpt>
      <trkpt lat="49.0491" lon="-0.4356">
        <ele>80.7</ele>
        <time>2018-12-28T15:18:15Z</time>
      </trkpt>
      <trkpt lat="49.04912" lon="-0.43563">
        <ele>80.7</ele>
        <time>2018-12-28T15:18:17Z</time>
      </trkpt>
      <trkpt lat="49.04915" lon="-0.43565">
        <ele>80.6</ele>
        <time>2018-12-28T15:18:19Z</time>
      </trkpt>
      <trkpt lat="49.04917" lon="-0.43567">
        <ele>80.6</ele>
        <time>2018-12-28T15:18:21Z</time>
      </trkpt>
      <trkpt lat="49.0492" lon="-0.4357">
        <ele>80.5</ele>
        <time>2018-12-28T15:18:23Z</time>
      </trkpt>
      <trkpt lat="49.04922" lon="-0.43574">
        <ele>80.5</ele>
        <time>2018-12-28T15:18:25Z</time>
      </trkpt>
      <trkpt lat="49.04925" lon="-0.43577">
        <ele>80.4</ele>
        <time>2018-12-28T15:18:27Z</time>
      </trkpt>
      <trkpt lat="49.04928" lon="-0.4358">
        <ele>80.4</ele>
        <time>2018-12-28T15:18:29Z</time>
      </trkpt>
      <trkpt lat="49.04932" lon="-0.43582">
        <ele>80.3</ele>
        <time>2018-12-28T15:18:31Z</time>
      </trkpt>
      <trkpt lat="49.04934" lon="-0.43584">
        <ele>80.3</ele>
        <time>2018-12-28T15:18:33Z</time>
      </trkpt>
      <trkpt lat="49.04937" lon="-0.43587">
        <ele>80.2</ele>
        <time>2018-12-28T15:18:35Z</time>
      </trkpt>
      <trkpt lat="49.0494" lon="-0.43588">
        <ele>80.2</ele>
        <time>2018-12-28T15:18:37Z</time>
      </trkpt>
      <trkpt lat="49.04943" lon="-0.43589">
        <ele>80.2</ele>
        <time>2018-12-28T15:18:40Z</time>
      </trkpt>
      <trkpt lat="49.04946" lon="-0.43587">
        <ele>80.1</ele>
        <time>2018-12-28T15:18:42Z</time>
      </trkpt>
      <trkpt lat="49.04949" lon="-0.43583">
        <ele>80.1</ele>
        <time>2018-12-28T15:18:45Z</time>
      </trkpt>
      <trkpt lat="49.04952" lon="-0.43583">
        <ele>80</ele>
        <time>2018-12-28T15:19:27Z</time>
      </trkpt>
      <trkpt lat="49.04954" lon="-0.43587">
        <ele>80</ele>
        <time>2018-12-28T15:19:30Z</time>
      </trkpt>
      <trkpt lat="49.04956" lon="-0.43591">
        <ele>80</ele>
        <time>2018-12-28T15:19:33Z</time>
      </trkpt>
      <trkpt lat="49.04959" lon="-0.43594">
        <ele>79.9</ele>
        <time>2018-12-28T15:19:36Z</time>
      </trkpt>
      <trkpt lat="49.04962" lon="-0.43594">
        <ele>79.9</ele>
        <time>2018-12-28T15:19:38Z</time>
      </trkpt>
      <trkpt lat="49.04966" lon="-0.43591">
        <ele>79.8</ele>
        <time>2018-12-28T15:19:41Z</time>
      </trkpt>
      <trkpt lat="49.0497" lon="-0.43591">
        <ele>80</ele>
        <time>2018-12-28T15:19:44Z</time>
      </trkpt>
      <trkpt lat="49.04973" lon="-0.4359">
        <ele>80</ele>
        <time>2018-12-28T15:19:46Z</time>
      </trkpt>
      <trkpt lat="49.04977" lon="-0.43589">
        <ele>80.1</ele>
        <time>2018-12-28T15:19:49Z</time>
      </trkpt>
      <trkpt lat="49.0498" lon="-0.43589">
        <ele>80.1</ele>
        <time>2018-12-28T15:19:51Z</time>
      </trkpt>
      <trkpt lat="49.04983" lon="-0.43588">
        <ele>80.2</ele>
        <time>2018-12-28T15:19:53Z</time>
      </trkpt>
      <trkpt lat="49.04986" lon="-0.43586">
        <ele>80.2</ele>
        <time>2018-12-28T15:19:55Z</time>
      </trkpt>
      <trkpt lat="49.04989" lon="-0.43584">
        <ele>80.3</ele>
        <time>2018-12-28T15:19:57Z</time>
      </trkpt>
      <trkpt lat="49.04993" lon="-0.43583">
        <ele>80.3</ele>
        <time>2018-12-28T15:19:59Z</time>
      </trkpt>
      <trkpt lat="49.04996" lon="-0.43581">
        <ele>80.4</ele>
        <time>2018-12-28T15:20:02Z</time>
      </trkpt>
      <trkpt lat="49.04999" lon="-0.4358">
        <ele>80.4</ele>
        <time>2018-12-28T15:20:05Z</time>
      </trkpt>
      <trkpt lat="49.05002" lon="-0.43579">
        <ele>80.4</ele>
        <time>2018-12-28T15:20:08Z</time>
      </trkpt>
      <trkpt lat="49.05006" lon="-0.43579">
        <ele>80.5</ele>
        <time>2018-12-28T15:20:11Z</time>
      </trkpt>
      <trkpt lat="49.05009" lon="-0.43577">
        <ele>80.5</ele>
        <time>2018-12-28T15:20:13Z</time>
      </trkpt>
      <trkpt lat="49.05012" lon="-0.43577">
        <ele>80.5</ele>
        <time>2018-12-28T15:20:16Z</time>
      </trkpt>
      <trkpt lat="49.05015" lon="-0.43575">
        <ele>80.5</ele>
        <time>2018-12-28T15:20:19Z</time>
      </trkpt>
      <trkpt lat="49.05019" lon="-0.43573">
        <ele>80.5</ele>
        <time>2018-12-28T15:20:22Z</time>
      </trkpt>
      <trkpt lat="49.05022" lon="-0.43572">
        <ele>80.5</ele>
        <time>2018-12-28T15:20:24Z</time>
      </trkpt>
      <trkpt lat="49.05025" lon="-0.43572">
        <ele>80.5</ele>
        <time>2018-12-28T15:20:26Z</time>
      </trkpt>
      <trkpt lat="49.05029" lon="-0.43571">
        <ele>80.6</ele>
        <time>2018-12-28T15:20:28Z</time>
      </trkpt>
      <trkpt lat="49.05032" lon="-0.43569">
        <ele>80.6</ele>
        <time>2018-12-28T15:20:30Z</time>
      </trkpt>
      <trkpt lat="49.05035" lon="-0.43568">
        <ele>80.6</ele>
        <time>2018-12-28T15:20:32Z</time>
      </trkpt>
      <trkpt lat="49.05037" lon="-0.43567">
        <ele>80.6</ele>
        <time>2018-12-28T15:20:34Z</time>
      </trkpt>
      <trkpt lat="49.0504" lon="-0.43565">
        <ele>80.5</ele>
        <time>2018-12-28T15:20:37Z</time>
      </trkpt>
      <trkpt lat="49.05044" lon="-0.43563">
        <ele>80.5</ele>
        <time>2018-12-28T15:20:40Z</time>
      </trkpt>
      <trkpt lat="49.05047" lon="-0.43563">
        <ele>80.5</ele>
        <time>2018-12-28T15:20:42Z</time>
      </trkpt>
      <trkpt lat="49.0505" lon="-0.43563">
        <ele>80.4</ele>
        <time>2018-12-28T15:20:44Z</time>
      </trkpt>
      <trkpt lat="49.05054" lon="-0.43561">
        <ele>80.4</ele>
        <time>2018-12-28T15:20:47Z</time>
      </trkpt>
      <trkpt lat="49.05057" lon="-0.4356">
        <ele>80.4</ele>
        <time>2018-12-28T15:20:49Z</time>
      </trkpt>
      <trkpt lat="49.0506" lon="-0.4356">
        <ele>80.3</ele>
        <time>2018-12-28T15:20:51Z</time>
      </trkpt>
      <trkpt lat="49.05063" lon="-0.43559">
        <ele>80.2</ele>
        <time>2018-12-28T15:20:54Z</time>
      </trkpt>
      <trkpt lat="49.05066" lon="-0.4356">
        <ele>80.1</ele>
        <time>2018-12-28T15:20:56Z</time>
      </trkpt>
      <trkpt lat="49.05069" lon="-0.4356">
        <ele>80.1</ele>
        <time>2018-12-28T15:20:58Z</time>
      </trkpt>
      <trkpt lat="49.05073" lon="-0.4356">
        <ele>79.9</ele>
        <time>2018-12-28T15:21:01Z</time>
      </trkpt>
      <trkpt lat="49.05076" lon="-0.4356">
        <ele>79.9</ele>
        <time>2018-12-28T15:21:03Z</time>
      </trkpt>
      <trkpt lat="49.05079" lon="-0.43558">
        <ele>79.8</ele>
        <time>2018-12-28T15:21:06Z</time>
      </trkpt>
      <trkpt lat="49.05083" lon="-0.43557">
        <ele>79.7</ele>
        <time>2018-12-28T15:21:09Z</time>
      </trkpt>
      <trkpt lat="49.05086" lon="-0.43557">
        <ele>79.5</ele>
        <time>2018-12-28T15:21:11Z</time>
      </trkpt>
      <trkpt lat="49.05089" lon="-0.43557">
        <ele>79.4</ele>
        <time>2018-12-28T15:21:13Z</time>
      </trkpt>
      <trkpt lat="49.05093" lon="-0.43556">
        <ele>79.3</ele>
        <time>2018-12-28T15:21:16Z</time>
      </trkpt>
      <trkpt lat="49.05096" lon="-0.43555">
        <ele>79.2</ele>
        <time>2018-12-28T15:21:19Z</time>
      </trkpt>
      <trkpt lat="49.05101" lon="-0.43555">
        <ele>79</ele>
        <time>2018-12-28T15:21:22Z</time>
      </trkpt>
      <trkpt lat="49.05104" lon="-0.43555">
        <ele>78.9</ele>
        <time>2018-12-28T15:21:24Z</time>
      </trkpt>
      <trkpt lat="49.05107" lon="-0.43554">
        <ele>78.7</ele>
        <time>2018-12-28T15:21:27Z</time>
      </trkpt>
      <trkpt lat="49.05111" lon="-0.43553">
        <ele>78.6</ele>
        <time>2018-12-28T15:21:30Z</time>
      </trkpt>
      <trkpt lat="49.05115" lon="-0.43553">
        <ele>78.4</ele>
        <time>2018-12-28T15:21:33Z</time>
      </trkpt>
      <trkpt lat="49.05119" lon="-0.43553">
        <ele>78.3</ele>
        <time>2018-12-28T15:21:36Z</time>
      </trkpt>
      <trkpt lat="49.05122" lon="-0.43551">
        <ele>78.1</ele>
        <time>2018-12-28T15:21:40Z</time>
      </trkpt>
      <trkpt lat="49.05125" lon="-0.43551">
        <ele>78</ele>
        <time>2018-12-28T15:21:43Z</time>
      </trkpt>
      <trkpt lat="49.05129" lon="-0.43549">
        <ele>77.8</ele>
        <time>2018-12-28T15:21:46Z</time>
      </trkpt>
      <trkpt lat="49.05132" lon="-0.43548">
        <ele>77.7</ele>
        <time>2018-12-28T15:21:49Z</time>
      </trkpt>
      <trkpt lat="49.05135" lon="-0.43547">
        <ele>77.6</ele>
        <time>2018-12-28T15:21:53Z</time>
      </trkpt>
      <trkpt lat="49.05139" lon="-0.43546">
        <ele>77.4</ele>
        <time>2018-12-28T15:21:56Z</time>
      </trkpt>
      <trkpt lat="49.05142" lon="-0.43545">
        <ele>77.3</ele>
        <time>2018-12-28T15:21:59Z</time>
      </trkpt>
      <trkpt lat="49.05146" lon="-0.43545">
        <ele>77.1</ele>
        <time>2018-12-28T15:22:02Z</time>
      </trkpt>
      <trkpt lat="49.05149" lon="-0.43543">
        <ele>77</ele>
        <time>2018-12-28T15:22:05Z</time>
      </trkpt>
      <trkpt lat="49.05152" lon="-0.43542">
        <ele>76.9</ele>
        <time>2018-12-28T15:22:07Z</time>
      </trkpt>
      <trkpt lat="49.05155" lon="-0.43541">
        <ele>76.8</ele>
        <time>2018-12-28T15:22:10Z</time>
      </trkpt>
      <trkpt lat="49.05158" lon="-0.43539">
        <ele>76.6</ele>
        <time>2018-12-28T15:22:14Z</time>
      </trkpt>
      <trkpt lat="49.05162" lon="-0.43538">
        <ele>76.5</ele>
        <time>2018-12-28T15:22:17Z</time>
      </trkpt>
      <trkpt lat="49.05165" lon="-0.43537">
        <ele>76.3</ele>
        <time>2018-12-28T15:22:19Z</time>
      </trkpt>
      <trkpt lat="49.05168" lon="-0.43535">
        <ele>76.2</ele>
        <time>2018-12-28T15:22:22Z</time>
      </trkpt>
      <trkpt lat="49.05171" lon="-0.43536">
        <ele>76.1</ele>
        <time>2018-12-28T15:22:24Z</time>
      </trkpt>
      <trkpt lat="49.05174" lon="-0.43535">
        <ele>75.9</ele>
        <time>2018-12-28T15:22:26Z</time>
      </trkpt>
      <trkpt lat="49.05178" lon="-0.43533">
        <ele>75.8</ele>
        <time>2018-12-28T15:22:29Z</time>
      </trkpt>
      <trkpt lat="49.05181" lon="-0.43533">
        <ele>75.6</ele>
        <time>2018-12-28T15:22:32Z</time>
      </trkpt>
      <trkpt lat="49.05184" lon="-0.43533">
        <ele>75.5</ele>
        <time>2018-12-28T15:22:35Z</time>
      </trkpt>
      <trkpt lat="49.05187" lon="-0.43532">
        <ele>75.3</ele>
        <time>2018-12-28T15:22:38Z</time>
      </trkpt>
      <trkpt lat="49.0519" lon="-0.43531">
        <ele>75.2</ele>
        <time>2018-12-28T15:22:41Z</time>
      </trkpt>
      <trkpt lat="49.05193" lon="-0.43529">
        <ele>74.7</ele>
        <time>2018-12-28T15:22:44Z</time>
      </trkpt>
      <trkpt lat="49.05196" lon="-0.43531">
        <ele>74</ele>
        <time>2018-12-28T15:22:47Z</time>
      </trkpt>
      <trkpt lat="49.05199" lon="-0.43533">
        <ele>73.5</ele>
        <time>2018-12-28T15:22:50Z</time>
      </trkpt>
      <trkpt lat="49.05202" lon="-0.43535">
        <ele>73.2</ele>
        <time>2018-12-28T15:22:53Z</time>
      </trkpt>
      <trkpt lat="49.05204" lon="-0.4354">
        <ele>73.1</ele>
        <time>2018-12-28T15:23:03Z</time>
      </trkpt>
      <trkpt lat="49.05205" lon="-0.43545">
        <ele>72.8</ele>
        <time>2018-12-28T15:23:10Z</time>
      </trkpt>
      <trkpt lat="49.05205" lon="-0.4355">
        <ele>72.7</ele>
        <time>2018-12-28T15:23:13Z</time>
      </trkpt>
      <trkpt lat="49.05206" lon="-0.43554">
        <ele>72.6</ele>
        <time>2018-12-28T15:23:15Z</time>
      </trkpt>
      <trkpt lat="49.05208" lon="-0.43559">
        <ele>72.2</ele>
        <time>2018-12-28T15:23:17Z</time>
      </trkpt>
      <trkpt lat="49.05209" lon="-0.43563">
        <ele>72</ele>
        <time>2018-12-28T15:23:19Z</time>
      </trkpt>
      <trkpt lat="49.05211" lon="-0.43567">
        <ele>71.6</ele>
        <time>2018-12-28T15:23:21Z</time>
      </trkpt>
      <trkpt lat="49.05211" lon="-0.43573">
        <ele>71.5</ele>
        <time>2018-12-28T15:23:26Z</time>
      </trkpt>
      <trkpt lat="49.05212" lon="-0.43577">
        <ele>71.4</ele>
        <time>2018-12-28T15:23:28Z</time>
      </trkpt>
      <trkpt lat="49.05212" lon="-0.43583">
        <ele>71.3</ele>
        <time>2018-12-28T15:23:31Z</time>
      </trkpt>
      <trkpt lat="49.05213" lon="-0.43588">
        <ele>70.9</ele>
        <time>2018-12-28T15:23:34Z</time>
      </trkpt>
      <trkpt lat="49.05214" lon="-0.43593">
        <ele>70.8</ele>
        <time>2018-12-28T15:23:36Z</time>
      </trkpt>
      <trkpt lat="49.05213" lon="-0.43598">
        <ele>70.8</ele>
        <time>2018-12-28T15:23:38Z</time>
      </trkpt>
      <trkpt lat="49.05215" lon="-0.43603">
        <ele>70.6</ele>
        <time>2018-12-28T15:23:41Z</time>
      </trkpt>
      <trkpt lat="49.05216" lon="-0.43607">
        <ele>70.3</ele>
        <time>2018-12-28T15:23:43Z</time>
      </trkpt>
      <trkpt lat="49.05217" lon="-0.43612">
        <ele>70.1</ele>
        <time>2018-12-28T15:23:46Z</time>
      </trkpt>
      <trkpt lat="49.05219" lon="-0.43616">
        <ele>69.7</ele>
        <time>2018-12-28T15:23:48Z</time>
      </trkpt>
      <trkpt lat="49.0522" lon="-0.43621">
        <ele>69.6</ele>
        <time>2018-12-28T15:23:50Z</time>
      </trkpt>
      <trkpt lat="49.05221" lon="-0.43625">
        <ele>69.5</ele>
        <time>2018-12-28T15:23:52Z</time>
      </trkpt>
      <trkpt lat="49.05222" lon="-0.4363">
        <ele>69.1</ele>
        <time>2018-12-28T15:23:55Z</time>
      </trkpt>
      <trkpt lat="49.05224" lon="-0.43635">
        <ele>69</ele>
        <time>2018-12-28T15:23:58Z</time>
      </trkpt>
      <trkpt lat="49.05225" lon="-0.43641">
        <ele>68.6</ele>
        <time>2018-12-28T15:24:01Z</time>
      </trkpt>
      <trkpt lat="49.05226" lon="-0.43645">
        <ele>68.6</ele>
        <time>2018-12-28T15:24:03Z</time>
      </trkpt>
      <trkpt lat="49.05227" lon="-0.4365">
        <ele>68.2</ele>
        <time>2018-12-28T15:24:05Z</time>
      </trkpt>
      <trkpt lat="49.05229" lon="-0.43654">
        <ele>68.1</ele>
        <time>2018-12-28T15:24:07Z</time>
      </trkpt>
      <trkpt lat="49.05231" lon="-0.43658">
        <ele>67.8</ele>
        <time>2018-12-28T15:24:10Z</time>
      </trkpt>
      <trkpt lat="49.05232" lon="-0.43662">
        <ele>67.7</ele>
        <time>2018-12-28T15:24:12Z</time>
      </trkpt>
      <trkpt lat="49.05234" lon="-0.43666">
        <ele>67.4</ele>
        <time>2018-12-28T15:24:15Z</time>
      </trkpt>
      <trkpt lat="49.05236" lon="-0.43669">
        <ele>67.1</ele>
        <time>2018-12-28T15:24:17Z</time>
      </trkpt>
      <trkpt lat="49.05239" lon="-0.43673">
        <ele>66.9</ele>
        <time>2018-12-28T15:24:20Z</time>
      </trkpt>
      <trkpt lat="49.05242" lon="-0.43677">
        <ele>66.7</ele>
        <time>2018-12-28T15:24:23Z</time>
      </trkpt>
      <trkpt lat="49.05246" lon="-0.4368">
        <ele>66.5</ele>
        <time>2018-12-28T15:24:25Z</time>
      </trkpt>
      <trkpt lat="49.05249" lon="-0.43683">
        <ele>66.2</ele>
        <time>2018-12-28T15:24:27Z</time>
      </trkpt>
      <trkpt lat="49.05252" lon="-0.43687">
        <ele>66</ele>
        <time>2018-12-28T15:24:29Z</time>
      </trkpt>
      <trkpt lat="49.05254" lon="-0.4369">
        <ele>65.8</ele>
        <time>2018-12-28T15:24:30Z</time>
      </trkpt>
      <trkpt lat="49.05257" lon="-0.43694">
        <ele>65.6</ele>
        <time>2018-12-28T15:24:32Z</time>
      </trkpt>
      <trkpt lat="49.05259" lon="-0.43698">
        <ele>65.5</ele>
        <time>2018-12-28T15:24:34Z</time>
      </trkpt>
      <trkpt lat="49.05262" lon="-0.43703">
        <ele>65.5</ele>
        <time>2018-12-28T15:24:36Z</time>
      </trkpt>
      <trkpt lat="49.05264" lon="-0.43706">
        <ele>65.4</ele>
        <time>2018-12-28T15:24:38Z</time>
      </trkpt>
      <trkpt lat="49.05266" lon="-0.4371">
        <ele>65.3</ele>
        <time>2018-12-28T15:24:40Z</time>
      </trkpt>
      <trkpt lat="49.05269" lon="-0.43714">
        <ele>65.2</ele>
        <time>2018-12-28T15:24:43Z</time>
      </trkpt>
      <trkpt lat="49.05271" lon="-0.43717">
        <ele>65.2</ele>
        <time>2018-12-28T15:24:46Z</time>
      </trkpt>
      <trkpt lat="49.05273" lon="-0.43721">
        <ele>65.1</ele>
        <time>2018-12-28T15:24:48Z</time>
      </trkpt>
      <trkpt lat="49.05276" lon="-0.43724">
        <ele>65</ele>
        <time>2018-12-28T15:24:50Z</time>
      </trkpt>
      <trkpt lat="49.05278" lon="-0.43727">
        <ele>65</ele>
        <time>2018-12-28T15:24:52Z</time>
      </trkpt>
      <trkpt lat="49.05282" lon="-0.4373">
        <ele>64.9</ele>
        <time>2018-12-28T15:24:54Z</time>
      </trkpt>
      <trkpt lat="49.05285" lon="-0.43733">
        <ele>64.8</ele>
        <time>2018-12-28T15:24:56Z</time>
      </trkpt>
      <trkpt lat="49.05288" lon="-0.43735">
        <ele>64.7</ele>
        <time>2018-12-28T15:24:58Z</time>
      </trkpt>
      <trkpt lat="49.0529" lon="-0.43738">
        <ele>64.7</ele>
        <time>2018-12-28T15:25:00Z</time>
      </trkpt>
      <trkpt lat="49.05293" lon="-0.43741">
        <ele>64.6</ele>
        <time>2018-12-28T15:25:02Z</time>
      </trkpt>
      <trkpt lat="49.05295" lon="-0.43744">
        <ele>64.5</ele>
        <time>2018-12-28T15:25:04Z</time>
      </trkpt>
      <trkpt lat="49.05297" lon="-0.43747">
        <ele>64.4</ele>
        <time>2018-12-28T15:25:06Z</time>
      </trkpt>
      <trkpt lat="49.05299" lon="-0.43752">
        <ele>64.3</ele>
        <time>2018-12-28T15:25:09Z</time>
      </trkpt>
      <trkpt lat="49.05301" lon="-0.43755">
        <ele>64.2</ele>
        <time>2018-12-28T15:25:12Z</time>
      </trkpt>
      <trkpt lat="49.05303" lon="-0.43758">
        <ele>64.1</ele>
        <time>2018-12-28T15:25:14Z</time>
      </trkpt>
      <trkpt lat="49.05305" lon="-0.43762">
        <ele>64</ele>
        <time>2018-12-28T15:25:17Z</time>
      </trkpt>
      <trkpt lat="49.05309" lon="-0.43766">
        <ele>63.9</ele>
        <time>2018-12-28T15:25:20Z</time>
      </trkpt>
      <trkpt lat="49.05312" lon="-0.43768">
        <ele>63.8</ele>
        <time>2018-12-28T15:25:23Z</time>
      </trkpt>
      <trkpt lat="49.05314" lon="-0.43772">
        <ele>63.6</ele>
        <time>2018-12-28T15:25:26Z</time>
      </trkpt>
      <trkpt lat="49.05317" lon="-0.43776">
        <ele>63.5</ele>
        <time>2018-12-28T15:25:30Z</time>
      </trkpt>
      <trkpt lat="49.05319" lon="-0.43778">
        <ele>63.3</ele>
        <time>2018-12-28T15:25:32Z</time>
      </trkpt>
      <trkpt lat="49.05323" lon="-0.4378">
        <ele>63.2</ele>
        <time>2018-12-28T15:25:35Z</time>
      </trkpt>
      <trkpt lat="49.05326" lon="-0.43783">
        <ele>63.1</ele>
        <time>2018-12-28T15:25:38Z</time>
      </trkpt>
      <trkpt lat="49.05328" lon="-0.43787">
        <ele>62.9</ele>
        <time>2018-12-28T15:25:41Z</time>
      </trkpt>
      <trkpt lat="49.05331" lon="-0.43791">
        <ele>62.7</ele>
        <time>2018-12-28T15:25:44Z</time>
      </trkpt>
      <trkpt lat="49.05333" lon="-0.43794">
        <ele>62.6</ele>
        <time>2018-12-28T15:25:46Z</time>
      </trkpt>
      <trkpt lat="49.05335" lon="-0.43799">
        <ele>62.4</ele>
        <time>2018-12-28T15:25:49Z</time>
      </trkpt>
      <trkpt lat="49.05338" lon="-0.43803">
        <ele>62.2</ele>
        <time>2018-12-28T15:25:52Z</time>
      </trkpt>
      <trkpt lat="49.05341" lon="-0.43806">
        <ele>62.1</ele>
        <time>2018-12-28T15:25:54Z</time>
      </trkpt>
      <trkpt lat="49.05343" lon="-0.43809">
        <ele>61.9</ele>
        <time>2018-12-28T15:25:56Z</time>
      </trkpt>
      <trkpt lat="49.05346" lon="-0.43813">
        <ele>61.6</ele>
        <time>2018-12-28T15:25:59Z</time>
      </trkpt>
      <trkpt lat="49.05349" lon="-0.43815">
        <ele>61.5</ele>
        <time>2018-12-28T15:26:01Z</time>
      </trkpt>
      <trkpt lat="49.05351" lon="-0.43819">
        <ele>61.2</ele>
        <time>2018-12-28T15:26:04Z</time>
      </trkpt>
      <trkpt lat="49.05354" lon="-0.43822">
        <ele>61.1</ele>
        <time>2018-12-28T15:26:08Z</time>
      </trkpt>
      <trkpt lat="49.05355" lon="-0.43825">
        <ele>60.9</ele>
        <time>2018-12-28T15:26:10Z</time>
      </trkpt>
      <trkpt lat="49.05358" lon="-0.43829">
        <ele>60.8</ele>
        <time>2018-12-28T15:26:12Z</time>
      </trkpt>
      <trkpt lat="49.05361" lon="-0.43832">
        <ele>60.6</ele>
        <time>2018-12-28T15:26:15Z</time>
      </trkpt>
      <trkpt lat="49.05363" lon="-0.43835">
        <ele>60.5</ele>
        <time>2018-12-28T15:26:17Z</time>
      </trkpt>
      <trkpt lat="49.05365" lon="-0.43837">
        <ele>60.3</ele>
        <time>2018-12-28T15:26:19Z</time>
      </trkpt>
      <trkpt lat="49.05367" lon="-0.4384">
        <ele>60.2</ele>
        <time>2018-12-28T15:26:21Z</time>
      </trkpt>
      <trkpt lat="49.05369" lon="-0.43843">
        <ele>60</ele>
        <time>2018-12-28T15:26:23Z</time>
      </trkpt>
      <trkpt lat="49.05372" lon="-0.43848">
        <ele>59.8</ele>
        <time>2018-12-28T15:26:25Z</time>
      </trkpt>
      <trkpt lat="49.05375" lon="-0.43852">
        <ele>59.6</ele>
        <time>2018-12-28T15:26:27Z</time>
      </trkpt>
      <trkpt lat="49.05379" lon="-0.43855">
        <ele>59.3</ele>
        <time>2018-12-28T15:26:30Z</time>
      </trkpt>
      <trkpt lat="49.05381" lon="-0.43858">
        <ele>59.2</ele>
        <time>2018-12-28T15:26:32Z</time>
      </trkpt>
      <trkpt lat="49.05384" lon="-0.43861">
        <ele>59</ele>
        <time>2018-12-28T15:26:34Z</time>
      </trkpt>
      <trkpt lat="49.05387" lon="-0.43864">
        <ele>58.8</ele>
        <time>2018-12-28T15:26:36Z</time>
      </trkpt>
      <trkpt lat="49.0539" lon="-0.43866">
        <ele>58.6</ele>
        <time>2018-12-28T15:26:38Z</time>
      </trkpt>
      <trkpt lat="49.05393" lon="-0.4387">
        <ele>58.4</ele>
        <time>2018-12-28T15:26:41Z</time>
      </trkpt>
      <trkpt lat="49.05397" lon="-0.43872">
        <ele>58.1</ele>
        <time>2018-12-28T15:26:43Z</time>
      </trkpt>
      <trkpt lat="49.054" lon="-0.43875">
        <ele>57.9</ele>
        <time>2018-12-28T15:26:45Z</time>
      </trkpt>
      <trkpt lat="49.05402" lon="-0.43878">
        <ele>57.8</ele>
        <time>2018-12-28T15:26:48Z</time>
      </trkpt>
      <trkpt lat="49.05405" lon="-0.4388">
        <ele>57.6</ele>
        <time>2018-12-28T15:26:51Z</time>
      </trkpt>
      <trkpt lat="49.05407" lon="-0.43883">
        <ele>57.4</ele>
        <time>2018-12-28T15:26:54Z</time>
      </trkpt>
      <trkpt lat="49.05409" lon="-0.43885">
        <ele>57.3</ele>
        <time>2018-12-28T15:26:56Z</time>
      </trkpt>
      <trkpt lat="49.05412" lon="-0.4389">
        <ele>57</ele>
        <time>2018-12-28T15:26:59Z</time>
      </trkpt>
      <trkpt lat="49.05416" lon="-0.43893">
        <ele>56.7</ele>
        <time>2018-12-28T15:27:01Z</time>
      </trkpt>
      <trkpt lat="49.05418" lon="-0.43896">
        <ele>56.6</ele>
        <time>2018-12-28T15:27:03Z</time>
      </trkpt>
      <trkpt lat="49.05421" lon="-0.439">
        <ele>56.3</ele>
        <time>2018-12-28T15:27:06Z</time>
      </trkpt>
      <trkpt lat="49.05424" lon="-0.43903">
        <ele>56</ele>
        <time>2018-12-28T15:27:08Z</time>
      </trkpt>
      <trkpt lat="49.05428" lon="-0.43906">
        <ele>55.6</ele>
        <time>2018-12-28T15:27:10Z</time>
      </trkpt>
      <trkpt lat="49.05431" lon="-0.43909">
        <ele>55.4</ele>
        <time>2018-12-28T15:27:12Z</time>
      </trkpt>
      <trkpt lat="49.05435" lon="-0.43911">
        <ele>55.2</ele>
        <time>2018-12-28T15:27:16Z</time>
      </trkpt>
      <trkpt lat="49.05437" lon="-0.43914">
        <ele>55</ele>
        <time>2018-12-28T15:27:22Z</time>
      </trkpt>
      <trkpt lat="49.0544" lon="-0.43917">
        <ele>54.8</ele>
        <time>2018-12-28T15:27:25Z</time>
      </trkpt>
      <trkpt lat="49.05443" lon="-0.43919">
        <ele>54.7</ele>
        <time>2018-12-28T15:27:28Z</time>
      </trkpt>
      <trkpt lat="49.05446" lon="-0.43921">
        <ele>54.5</ele>
        <time>2018-12-28T15:27:31Z</time>
      </trkpt>
      <trkpt lat="49.05448" lon="-0.43923">
        <ele>54.2</ele>
        <time>2018-12-28T15:27:33Z</time>
      </trkpt>
      <trkpt lat="49.05451" lon="-0.43926">
        <ele>53.9</ele>
        <time>2018-12-28T15:27:35Z</time>
      </trkpt>
      <trkpt lat="49.05454" lon="-0.43929">
        <ele>53.6</ele>
        <time>2018-12-28T15:27:37Z</time>
      </trkpt>
      <trkpt lat="49.05457" lon="-0.4393">
        <ele>53</ele>
        <time>2018-12-28T15:27:39Z</time>
      </trkpt>
      <trkpt lat="49.0546" lon="-0.43933">
        <ele>53</ele>
        <time>2018-12-28T15:27:47Z</time>
      </trkpt>
      <trkpt lat="49.05461" lon="-0.43937">
        <ele>53</ele>
        <time>2018-12-28T15:27:54Z</time>
      </trkpt>
      <trkpt lat="49.05463" lon="-0.43941">
        <ele>53.8</ele>
        <time>2018-12-28T15:27:58Z</time>
      </trkpt>
      <trkpt lat="49.05466" lon="-0.43945">
        <ele>53.1</ele>
        <time>2018-12-28T15:28:01Z</time>
      </trkpt>
      <trkpt lat="49.05468" lon="-0.43953">
        <ele>54.1</ele>
        <time>2018-12-28T15:28:06Z</time>
      </trkpt>
      <trkpt lat="49.05469" lon="-0.43957">
        <ele>54.8</ele>
        <time>2018-12-28T15:28:08Z</time>
      </trkpt>
      <trkpt lat="49.0547" lon="-0.43962">
        <ele>54.7</ele>
        <time>2018-12-28T15:28:10Z</time>
      </trkpt>
      <trkpt lat="49.05472" lon="-0.43967">
        <ele>55</ele>
        <time>2018-12-28T15:28:12Z</time>
      </trkpt>
      <trkpt lat="49.05473" lon="-0.43972">
        <ele>55.7</ele>
        <time>2018-12-28T15:28:15Z</time>
      </trkpt>
      <trkpt lat="49.05475" lon="-0.43976">
        <ele>55.5</ele>
        <time>2018-12-28T15:28:16Z</time>
      </trkpt>
      <trkpt lat="49.05475" lon="-0.43981">
        <ele>56.1</ele>
        <time>2018-12-28T15:28:18Z</time>
      </trkpt>
      <trkpt lat="49.05476" lon="-0.43986">
        <ele>56.7</ele>
        <time>2018-12-28T15:28:20Z</time>
      </trkpt>
      <trkpt lat="49.05475" lon="-0.4399">
        <ele>57.4</ele>
        <time>2018-12-28T15:28:22Z</time>
      </trkpt>
      <trkpt lat="49.05476" lon="-0.43996">
        <ele>57.9</ele>
        <time>2018-12-28T15:28:25Z</time>
      </trkpt>
      <trkpt lat="49.05479" lon="-0.43999">
        <ele>57.7</ele>
        <time>2018-12-28T15:28:28Z</time>
      </trkpt>
      <trkpt lat="49.05482" lon="-0.44001">
        <ele>57</ele>
        <time>2018-12-28T15:28:30Z</time>
      </trkpt>
      <trkpt lat="49.05485" lon="-0.44002">
        <ele>56.9</ele>
        <time>2018-12-28T15:28:32Z</time>
      </trkpt>
      <trkpt lat="49.05489" lon="-0.44004">
        <ele>55.6</ele>
        <time>2018-12-28T15:28:36Z</time>
      </trkpt>
      <trkpt lat="49.05491" lon="-0.44006">
        <ele>56.2</ele>
        <time>2018-12-28T15:28:38Z</time>
      </trkpt>
      <trkpt lat="49.05493" lon="-0.44011">
        <ele>56.1</ele>
        <time>2018-12-28T15:28:41Z</time>
      </trkpt>
      <trkpt lat="49.05494" lon="-0.44014">
        <ele>56.1</ele>
        <time>2018-12-28T15:28:43Z</time>
      </trkpt>
      <trkpt lat="49.05496" lon="-0.44018">
        <ele>56.2</ele>
        <time>2018-12-28T15:28:45Z</time>
      </trkpt>
      <trkpt lat="49.05499" lon="-0.44023">
        <ele>56.8</ele>
        <time>2018-12-28T15:28:47Z</time>
      </trkpt>
      <trkpt lat="49.05501" lon="-0.44028">
        <ele>56.9</ele>
        <time>2018-12-28T15:28:49Z</time>
      </trkpt>
      <trkpt lat="49.05502" lon="-0.44033">
        <ele>57.6</ele>
        <time>2018-12-28T15:28:51Z</time>
      </trkpt>
      <trkpt lat="49.05504" lon="-0.44037">
        <ele>57.6</ele>
        <time>2018-12-28T15:28:53Z</time>
      </trkpt>
      <trkpt lat="49.05504" lon="-0.44042">
        <ele>58.2</ele>
        <time>2018-12-28T15:28:56Z</time>
      </trkpt>
      <trkpt lat="49.05504" lon="-0.44047">
        <ele>58.6</ele>
        <time>2018-12-28T15:28:58Z</time>
      </trkpt>
      <trkpt lat="49.05505" lon="-0.44051">
        <ele>59</ele>
        <time>2018-12-28T15:29:00Z</time>
      </trkpt>
      <trkpt lat="49.05506" lon="-0.44055">
        <ele>58.8</ele>
        <time>2018-12-28T15:29:02Z</time>
      </trkpt>
      <trkpt lat="49.05507" lon="-0.4406">
        <ele>59.1</ele>
        <time>2018-12-28T15:29:04Z</time>
      </trkpt>
      <trkpt lat="49.05507" lon="-0.44064">
        <ele>59.3</ele>
        <time>2018-12-28T15:29:06Z</time>
      </trkpt>
      <trkpt lat="49.05508" lon="-0.4407">
        <ele>59</ele>
        <time>2018-12-28T15:29:09Z</time>
      </trkpt>
      <trkpt lat="49.0551" lon="-0.44075">
        <ele>59.2</ele>
        <time>2018-12-28T15:29:12Z</time>
      </trkpt>
      <trkpt lat="49.05511" lon="-0.4408">
        <ele>59</ele>
        <time>2018-12-28T15:29:14Z</time>
      </trkpt>
      <trkpt lat="49.05512" lon="-0.44085">
        <ele>59.2</ele>
        <time>2018-12-28T15:29:17Z</time>
      </trkpt>
      <trkpt lat="49.05512" lon="-0.44089">
        <ele>59.4</ele>
        <time>2018-12-28T15:29:19Z</time>
      </trkpt>
      <trkpt lat="49.05511" lon="-0.44095">
        <ele>59.9</ele>
        <time>2018-12-28T15:29:22Z</time>
      </trkpt>
      <trkpt lat="49.0551" lon="-0.44099">
        <ele>60</ele>
        <time>2018-12-28T15:29:24Z</time>
      </trkpt>
      <trkpt lat="49.05508" lon="-0.44103">
        <ele>60.5</ele>
        <time>2018-12-28T15:29:26Z</time>
      </trkpt>
      <trkpt lat="49.05507" lon="-0.44107">
        <ele>60.6</ele>
        <time>2018-12-28T15:29:28Z</time>
      </trkpt>
      <trkpt lat="49.05505" lon="-0.44113">
        <ele>61</ele>
        <time>2018-12-28T15:29:31Z</time>
      </trkpt>
      <trkpt lat="49.05504" lon="-0.44117">
        <ele>61.2</ele>
        <time>2018-12-28T15:29:34Z</time>
      </trkpt>
      <trkpt lat="49.05504" lon="-0.44121">
        <ele>61.3</ele>
        <time>2018-12-28T15:29:37Z</time>
      </trkpt>
      <trkpt lat="49.05506" lon="-0.44126">
        <ele>61.1</ele>
        <time>2018-12-28T15:29:40Z</time>
      </trkpt>
      <trkpt lat="49.05509" lon="-0.4413">
        <ele>61</ele>
        <time>2018-12-28T15:29:43Z</time>
      </trkpt>
      <trkpt lat="49.05511" lon="-0.44132">
        <ele>60.8</ele>
        <time>2018-12-28T15:29:45Z</time>
      </trkpt>
      <trkpt lat="49.05513" lon="-0.44136">
        <ele>60.6</ele>
        <time>2018-12-28T15:29:48Z</time>
      </trkpt>
      <trkpt lat="49.05515" lon="-0.44139">
        <ele>60.5</ele>
        <time>2018-12-28T15:29:51Z</time>
      </trkpt>
      <trkpt lat="49.05518" lon="-0.4414">
        <ele>60.4</ele>
        <time>2018-12-28T15:30:05Z</time>
      </trkpt>
      <trkpt lat="49.0552" lon="-0.44144">
        <ele>59.9</ele>
        <time>2018-12-28T15:30:51Z</time>
      </trkpt>
      <trkpt lat="49.05522" lon="-0.44147">
        <ele>59.9</ele>
        <time>2018-12-28T15:30:53Z</time>
      </trkpt>
      <trkpt lat="49.05525" lon="-0.4415">
        <ele>59.9</ele>
        <time>2018-12-28T15:30:56Z</time>
      </trkpt>
      <trkpt lat="49.05528" lon="-0.44153">
        <ele>59.9</ele>
        <time>2018-12-28T15:31:02Z</time>
      </trkpt>
      <trkpt lat="49.0553" lon="-0.44155">
        <ele>59</ele>
        <time>2018-12-28T15:31:15Z</time>
      </trkpt>
      <trkpt lat="49.05533" lon="-0.44158">
        <ele>59.1</ele>
        <time>2018-12-28T15:31:18Z</time>
      </trkpt>
      <trkpt lat="49.05536" lon="-0.44162">
        <ele>59.2</ele>
        <time>2018-12-28T15:31:21Z</time>
      </trkpt>
      <trkpt lat="49.05539" lon="-0.44166">
        <ele>59.2</ele>
        <time>2018-12-28T15:31:23Z</time>
      </trkpt>
      <trkpt lat="49.05543" lon="-0.44169">
        <ele>59.3</ele>
        <time>2018-12-28T15:31:25Z</time>
      </trkpt>
      <trkpt lat="49.05546" lon="-0.44173">
        <ele>59.3</ele>
        <time>2018-12-28T15:31:28Z</time>
      </trkpt>
      <trkpt lat="49.05548" lon="-0.44177">
        <ele>59.3</ele>
        <time>2018-12-28T15:31:33Z</time>
      </trkpt>
      <trkpt lat="49.0555" lon="-0.4418">
        <ele>59.3</ele>
        <time>2018-12-28T15:31:35Z</time>
      </trkpt>
      <trkpt lat="49.05553" lon="-0.44183">
        <ele>59.3</ele>
        <time>2018-12-28T15:31:38Z</time>
      </trkpt>
      <trkpt lat="49.05556" lon="-0.44188">
        <ele>59.2</ele>
        <time>2018-12-28T15:31:41Z</time>
      </trkpt>
      <trkpt lat="49.05559" lon="-0.44191">
        <ele>59.1</ele>
        <time>2018-12-28T15:31:43Z</time>
      </trkpt>
      <trkpt lat="49.05562" lon="-0.44191">
        <ele>59</ele>
        <time>2018-12-28T15:31:45Z</time>
      </trkpt>
      <trkpt lat="49.05566" lon="-0.44192">
        <ele>58.8</ele>
        <time>2018-12-28T15:31:48Z</time>
      </trkpt>
      <trkpt lat="49.05569" lon="-0.44198">
        <ele>58.6</ele>
        <time>2018-12-28T15:31:51Z</time>
      </trkpt>
      <trkpt lat="49.05572" lon="-0.442">
        <ele>58.4</ele>
        <time>2018-12-28T15:31:53Z</time>
      </trkpt>
      <trkpt lat="49.05576" lon="-0.44205">
        <ele>58</ele>
        <time>2018-12-28T15:31:55Z</time>
      </trkpt>
      <trkpt lat="49.0558" lon="-0.44209">
        <ele>57.6</ele>
        <time>2018-12-28T15:31:57Z</time>
      </trkpt>
      <trkpt lat="49.05582" lon="-0.44211">
        <ele>57.4</ele>
        <time>2018-12-28T15:31:59Z</time>
      </trkpt>
      <trkpt lat="49.05586" lon="-0.44213">
        <ele>57.1</ele>
        <time>2018-12-28T15:32:02Z</time>
      </trkpt>
      <trkpt lat="49.05589" lon="-0.44216">
        <ele>56.8</ele>
        <time>2018-12-28T15:32:04Z</time>
      </trkpt>
      <trkpt lat="49.05589" lon="-0.4422">
        <ele>56.6</ele>
        <time>2018-12-28T15:32:07Z</time>
      </trkpt>
      <trkpt lat="49.05586" lon="-0.44219">
        <ele>56.4</ele>
        <time>2018-12-28T15:32:11Z</time>
      </trkpt>
      <trkpt lat="49.05589" lon="-0.44221">
        <ele>56.3</ele>
        <time>2018-12-28T15:32:29Z</time>
      </trkpt>
      <trkpt lat="49.05592" lon="-0.44222">
        <ele>56.1</ele>
        <time>2018-12-28T15:32:36Z</time>
      </trkpt>
      <trkpt lat="49.05596" lon="-0.44225">
        <ele>55.8</ele>
        <time>2018-12-28T15:32:52Z</time>
      </trkpt>
      <trkpt lat="49.05599" lon="-0.44229">
        <ele>55.7</ele>
        <time>2018-12-28T15:32:59Z</time>
      </trkpt>
      <trkpt lat="49.05602" lon="-0.44227">
        <ele>55.5</ele>
        <time>2018-12-28T15:33:03Z</time>
      </trkpt>
      <trkpt lat="49.05605" lon="-0.44226">
        <ele>55.4</ele>
        <time>2018-12-28T15:33:06Z</time>
      </trkpt>
      <trkpt lat="49.05608" lon="-0.44223">
        <ele>55.2</ele>
        <time>2018-12-28T15:33:09Z</time>
      </trkpt>
      <trkpt lat="49.05611" lon="-0.44224">
        <ele>55.1</ele>
        <time>2018-12-28T15:33:12Z</time>
      </trkpt>
      <trkpt lat="49.05614" lon="-0.44226">
        <ele>55</ele>
        <time>2018-12-28T15:33:15Z</time>
      </trkpt>
      <trkpt lat="49.05617" lon="-0.44226">
        <ele>54.8</ele>
        <time>2018-12-28T15:33:20Z</time>
      </trkpt>
      <trkpt lat="49.0562" lon="-0.44226">
        <ele>54.6</ele>
        <time>2018-12-28T15:33:22Z</time>
      </trkpt>
      <trkpt lat="49.05623" lon="-0.44225">
        <ele>54.4</ele>
        <time>2018-12-28T15:33:27Z</time>
      </trkpt>
      <trkpt lat="49.05626" lon="-0.44224">
        <ele>53.7</ele>
        <time>2018-12-28T15:33:30Z</time>
      </trkpt>
      <trkpt lat="49.05629" lon="-0.44221">
        <ele>53.1</ele>
        <time>2018-12-28T15:33:34Z</time>
      </trkpt>
      <trkpt lat="49.05632" lon="-0.44219">
        <ele>52.6</ele>
        <time>2018-12-28T15:33:37Z</time>
      </trkpt>
      <trkpt lat="49.05635" lon="-0.4422">
        <ele>52</ele>
        <time>2018-12-28T15:33:40Z</time>
      </trkpt>
      <trkpt lat="49.05639" lon="-0.4422">
        <ele>51.4</ele>
        <time>2018-12-28T15:33:43Z</time>
      </trkpt>
      <trkpt lat="49.05644" lon="-0.4422">
        <ele>50.9</ele>
        <time>2018-12-28T15:33:45Z</time>
      </trkpt>
      <trkpt lat="49.05648" lon="-0.44222">
        <ele>50.7</ele>
        <time>2018-12-28T15:33:47Z</time>
      </trkpt>
      <trkpt lat="49.05653" lon="-0.44224">
        <ele>50.4</ele>
        <time>2018-12-28T15:33:49Z</time>
      </trkpt>
      <trkpt lat="49.05656" lon="-0.44222">
        <ele>50.3</ele>
        <time>2018-12-28T15:33:51Z</time>
      </trkpt>
      <trkpt lat="49.05659" lon="-0.44223">
        <ele>50.1</ele>
        <time>2018-12-28T15:33:54Z</time>
      </trkpt>
      <trkpt lat="49.05663" lon="-0.44224">
        <ele>49.9</ele>
        <time>2018-12-28T15:33:56Z</time>
      </trkpt>
      <trkpt lat="49.05665" lon="-0.44227">
        <ele>49.7</ele>
        <time>2018-12-28T15:33:58Z</time>
      </trkpt>
      <trkpt lat="49.05668" lon="-0.44225">
        <ele>49.6</ele>
        <time>2018-12-28T15:34:05Z</time>
      </trkpt>
      <trkpt lat="49.05672" lon="-0.44226">
        <ele>49.5</ele>
        <time>2018-12-28T15:34:08Z</time>
      </trkpt>
      <trkpt lat="49.05674" lon="-0.44228">
        <ele>49.3</ele>
        <time>2018-12-28T15:34:12Z</time>
      </trkpt>
      <trkpt lat="49.05677" lon="-0.44232">
        <ele>49.2</ele>
        <time>2018-12-28T15:34:31Z</time>
      </trkpt>
      <trkpt lat="49.05682" lon="-0.44233">
        <ele>49</ele>
        <time>2018-12-28T15:34:33Z</time>
      </trkpt>
      <trkpt lat="49.05685" lon="-0.44234">
        <ele>48.9</ele>
        <time>2018-12-28T15:34:34Z</time>
      </trkpt>
      <trkpt lat="49.05689" lon="-0.44234">
        <ele>48.9</ele>
        <time>2018-12-28T15:34:35Z</time>
      </trkpt>
      <trkpt lat="49.05693" lon="-0.44235">
        <ele>49</ele>
        <time>2018-12-28T15:34:36Z</time>
      </trkpt>
      <trkpt lat="49.05697" lon="-0.44236">
        <ele>49</ele>
        <time>2018-12-28T15:34:37Z</time>
      </trkpt>
      <trkpt lat="49.057" lon="-0.44237">
        <ele>49.1</ele>
        <time>2018-12-28T15:34:38Z</time>
      </trkpt>
      <trkpt lat="49.05704" lon="-0.44239">
        <ele>49.1</ele>
        <time>2018-12-28T15:34:40Z</time>
      </trkpt>
      <trkpt lat="49.05707" lon="-0.44239">
        <ele>51.6</ele>
        <time>2018-12-28T15:34:42Z</time>
      </trkpt>
      <trkpt lat="49.05711" lon="-0.44242">
        <ele>51.6</ele>
        <time>2018-12-28T15:34:44Z</time>
      </trkpt>
      <trkpt lat="49.05715" lon="-0.44245">
        <ele>51.6</ele>
        <time>2018-12-28T15:34:46Z</time>
      </trkpt>
      <trkpt lat="49.05718" lon="-0.44248">
        <ele>51.6</ele>
        <time>2018-12-28T15:34:48Z</time>
      </trkpt>
      <trkpt lat="49.0572" lon="-0.44252">
        <ele>51.5</ele>
        <time>2018-12-28T15:34:50Z</time>
      </trkpt>
      <trkpt lat="49.05721" lon="-0.44255">
        <ele>51.5</ele>
        <time>2018-12-28T15:34:52Z</time>
      </trkpt>
      <trkpt lat="49.05723" lon="-0.4426">
        <ele>51.5</ele>
        <time>2018-12-28T15:34:55Z</time>
      </trkpt>
      <trkpt lat="49.05725" lon="-0.44265">
        <ele>51.4</ele>
        <time>2018-12-28T15:34:58Z</time>
      </trkpt>
      <trkpt lat="49.05727" lon="-0.44269">
        <ele>51.4</ele>
        <time>2018-12-28T15:35:00Z</time>
      </trkpt>
      <trkpt lat="49.05729" lon="-0.44274">
        <ele>51.4</ele>
        <time>2018-12-28T15:35:04Z</time>
      </trkpt>
      <trkpt lat="49.0573" lon="-0.44278">
        <ele>51.3</ele>
        <time>2018-12-28T15:35:08Z</time>
      </trkpt>
      <trkpt lat="49.05732" lon="-0.44281">
        <ele>51.3</ele>
        <time>2018-12-28T15:35:11Z</time>
      </trkpt>
      <trkpt lat="49.05735" lon="-0.44283">
        <ele>51.2</ele>
        <time>2018-12-28T15:35:13Z</time>
      </trkpt>
      <trkpt lat="49.05739" lon="-0.44285">
        <ele>51</ele>
        <time>2018-12-28T15:35:15Z</time>
      </trkpt>
      <trkpt lat="49.05742" lon="-0.44289">
        <ele>50.9</ele>
        <time>2018-12-28T15:35:17Z</time>
      </trkpt>
      <trkpt lat="49.05746" lon="-0.44292">
        <ele>50.8</ele>
        <time>2018-12-28T15:35:19Z</time>
      </trkpt>
      <trkpt lat="49.05747" lon="-0.44297">
        <ele>50.6</ele>
        <time>2018-12-28T15:35:23Z</time>
      </trkpt>
      <trkpt lat="49.05751" lon="-0.44299">
        <ele>50.4</ele>
        <time>2018-12-28T15:35:25Z</time>
      </trkpt>
      <trkpt lat="49.05754" lon="-0.44301">
        <ele>50.3</ele>
        <time>2018-12-28T15:35:26Z</time>
      </trkpt>
      <trkpt lat="49.05759" lon="-0.44304">
        <ele>50</ele>
        <time>2018-12-28T15:35:28Z</time>
      </trkpt>
      <trkpt lat="49.05763" lon="-0.44304">
        <ele>49.8</ele>
        <time>2018-12-28T15:35:29Z</time>
      </trkpt>
    </trkseg>
  </trk>
  <trk>
    <name><![CDATA[20181228202520-RcJYv]]></name>
    <trkseg>
      <trkpt lat="49.06498" lon="-0.44104">
        <ele>23</ele>
        <time>2010-01-01T00:00:00Z</time>
      </trkpt>
      <trkpt lat="49.06507" lon="-0.44106">
        <ele>23</ele>
        <time>2010-01-01T00:00:03Z</time>
      </trkpt>
      <trkpt lat="49.06499" lon="-0.44102">
        <ele>22</ele>
        <time>2010-01-01T00:00:07Z</time>
      </trkpt>
      <trkpt lat="49.06443" lon="-0.44424">
        <ele>35</ele>
        <time>2010-01-01T00:01:34Z</time>
      </trkpt>
      <trkpt lat="49.06471" lon="-0.44668">
        <ele>24</ele>
        <time>2010-01-01T00:02:39Z</time>
      </trkpt>
      <trkpt lat="49.06477" lon="-0.44681">
        <ele>25</ele>
        <time>2010-01-01T00:02:43Z</time>
      </trkpt>
      <trkpt lat="49.06484" lon="-0.44726">
        <ele>28</ele>
        <time>2010-01-01T00:02:55Z</time>
      </trkpt>
      <trkpt lat="49.0648" lon="-0.44739">
        <ele>31</ele>
        <time>2010-01-01T00:02:59Z</time>
      </trkpt>
      <trkpt lat="49.06441" lon="-0.4469">
        <ele>29</ele>
        <time>2010-01-01T00:03:19Z</time>
      </trkpt>
      <trkpt lat="49.06286" lon="-0.44566">
        <ele>30</ele>
        <time>2010-01-01T00:04:29Z</time>
      </trkpt>
      <trkpt lat="49.06225" lon="-0.44528">
        <ele>36</ele>
        <time>2010-01-01T00:04:56Z</time>
      </trkpt>
      <trkpt lat="49.06196" lon="-0.44479">
        <ele>28</ele>
        <time>2010-01-01T00:05:13Z</time>
      </trkpt>
      <trkpt lat="49.06103" lon="-0.44443">
        <ele>32</ele>
        <time>2010-01-01T00:05:52Z</time>
      </trkpt>
      <trkpt lat="49.06034" lon="-0.44389">
        <ele>32</ele>
        <time>2010-01-01T00:06:23Z</time>
      </trkpt>
      <trkpt lat="49.05983" lon="-0.44349">
        <ele>38</ele>
        <time>2010-01-01T00:06:46Z</time>
      </trkpt>
      <trkpt lat="49.059" lon="-0.44318">
        <ele>40</ele>
        <time>2010-01-01T00:07:20Z</time>
      </trkpt>
      <trkpt lat="49.05812" lon="-0.44345">
        <ele>47</ele>
        <time>2010-01-01T00:07:56Z</time>
      </trkpt>
      <trkpt lat="49.05729" lon="-0.44268">
        <ele>49</ele>
        <time>2010-01-01T00:08:35Z</time>
      </trkpt>
    </trkseg>
  </trk>
  <trk>
    <name><![CDATA[20181228202520-RcJYv]]></name>
    <trkseg>
      <trkpt lat="49.06508" lon="-0.44101">
        <ele>23</ele>
        <time>2010-01-01T00:00:00Z</time>
      </trkpt>
      <trkpt lat="49.06508" lon="-0.44102">
        <ele>23</ele>
        <time>2010-01-01T00:00:00Z</time>
      </trkpt>
      <trkpt lat="49.06493" lon="-0.44089">
        <ele>21</ele>
        <time>2010-01-01T00:00:07Z</time>
      </trkpt>
      <trkpt lat="49.06484" lon="-0.44087">
        <ele>21</ele>
        <time>2010-01-01T00:00:10Z</time>
      </trkpt>
      <trkpt lat="49.06476" lon="-0.44088">
        <ele>22</ele>
        <time>2010-01-01T00:00:14Z</time>
      </trkpt>
      <trkpt lat="49.06475" lon="-0.44088">
        <ele>22</ele>
        <time>2010-01-01T00:00:14Z</time>
      </trkpt>
      <trkpt lat="49.06467" lon="-0.44089">
        <ele>22</ele>
        <time>2010-01-01T00:00:17Z</time>
      </trkpt>
      <trkpt lat="49.06461" lon="-0.44084">
        <ele>22</ele>
        <time>2010-01-01T00:00:20Z</time>
      </trkpt>
      <trkpt lat="49.06461" lon="-0.44076">
        <ele>21</ele>
        <time>2010-01-01T00:00:22Z</time>
      </trkpt>
      <trkpt lat="49.06461" lon="-0.44077">
        <ele>21</ele>
        <time>2010-01-01T00:00:22Z</time>
      </trkpt>
      <trkpt lat="49.06461" lon="-0.44084">
        <ele>22</ele>
        <time>2010-01-01T00:00:24Z</time>
      </trkpt>
      <trkpt lat="49.0645" lon="-0.44097">
        <ele>22</ele>
        <time>2010-01-01T00:00:30Z</time>
      </trkpt>
      <trkpt lat="49.0643" lon="-0.44128">
        <ele>21</ele>
        <time>2010-01-01T00:00:41Z</time>
      </trkpt>
      <trkpt lat="49.06422" lon="-0.44157">
        <ele>22</ele>
        <time>2010-01-01T00:00:49Z</time>
      </trkpt>
      <trkpt lat="49.06406" lon="-0.442">
        <ele>24</ele>
        <time>2010-01-01T00:01:02Z</time>
      </trkpt>
      <trkpt lat="49.064" lon="-0.44196">
        <ele>23</ele>
        <time>2010-01-01T00:01:05Z</time>
      </trkpt>
      <trkpt lat="49.064" lon="-0.44195">
        <ele>23</ele>
        <time>2010-01-01T00:01:05Z</time>
      </trkpt>
      <trkpt lat="49.06364" lon="-0.4417">
        <ele>22</ele>
        <time>2010-01-01T00:01:21Z</time>
      </trkpt>
      <trkpt lat="49.06339" lon="-0.44165">
        <ele>19</ele>
        <time>2010-01-01T00:01:31Z</time>
      </trkpt>
      <trkpt lat="49.06334" lon="-0.44164">
        <ele>19</ele>
        <time>2010-01-01T00:01:33Z</time>
      </trkpt>
      <trkpt lat="49.06323" lon="-0.44168">
        <ele>17</ele>
        <time>2010-01-01T00:01:38Z</time>
      </trkpt>
      <trkpt lat="49.06318" lon="-0.44173">
        <ele>16</ele>
        <time>2010-01-01T00:01:40Z</time>
      </trkpt>
      <trkpt lat="49.063" lon="-0.44207">
        <ele>15</ele>
        <time>2010-01-01T00:01:52Z</time>
      </trkpt>
      <trkpt lat="49.06296" lon="-0.44221">
        <ele>16</ele>
        <time>2010-01-01T00:01:56Z</time>
      </trkpt>
      <trkpt lat="49.06296" lon="-0.44222">
        <ele>16</ele>
        <time>2010-01-01T00:01:56Z</time>
      </trkpt>
      <trkpt lat="49.0629" lon="-0.44239">
        <ele>17</ele>
        <time>2010-01-01T00:02:01Z</time>
      </trkpt>
      <trkpt lat="49.06287" lon="-0.44265">
        <ele>17</ele>
        <time>2010-01-01T00:02:08Z</time>
      </trkpt>
      <trkpt lat="49.06295" lon="-0.44306">
        <ele>16</ele>
        <time>2010-01-01T00:02:19Z</time>
      </trkpt>
      <trkpt lat="49.06309" lon="-0.44351">
        <ele>16</ele>
        <time>2010-01-01T00:02:32Z</time>
      </trkpt>
      <trkpt lat="49.06328" lon="-0.44401">
        <ele>16</ele>
        <time>2010-01-01T00:02:47Z</time>
      </trkpt>
      <trkpt lat="49.06341" lon="-0.44424">
        <ele>18</ele>
        <time>2010-01-01T00:02:55Z</time>
      </trkpt>
      <trkpt lat="49.0643" lon="-0.4457">
        <ele>18</ele>
        <time>2010-01-01T00:03:48Z</time>
      </trkpt>
      <trkpt lat="49.06441" lon="-0.44587">
        <ele>19</ele>
        <time>2010-01-01T00:03:54Z</time>
      </trkpt>
      <trkpt lat="49.06448" lon="-0.44591">
        <ele>19</ele>
        <time>2010-01-01T00:03:57Z</time>
      </trkpt>
      <trkpt lat="49.06443" lon="-0.44562">
        <ele>19</ele>
        <time>2010-01-01T00:04:05Z</time>
      </trkpt>
      <trkpt lat="49.06446" lon="-0.44553">
        <ele>20</ele>
        <time>2010-01-01T00:04:07Z</time>
      </trkpt>
      <trkpt lat="49.06445" lon="-0.44543">
        <ele>21</ele>
        <time>2010-01-01T00:04:10Z</time>
      </trkpt>
      <trkpt lat="49.06449" lon="-0.44536">
        <ele>22</ele>
        <time>2010-01-01T00:04:12Z</time>
      </trkpt>
      <trkpt lat="49.06453" lon="-0.44536">
        <ele>23</ele>
        <time>2010-01-01T00:04:14Z</time>
      </trkpt>
      <trkpt lat="49.06452" lon="-0.4452">
        <ele>25</ele>
        <time>2010-01-01T00:04:18Z</time>
      </trkpt>
      <trkpt lat="49.06457" lon="-0.4457">
        <ele>20</ele>
        <time>2010-01-01T00:04:31Z</time>
      </trkpt>
      <trkpt lat="49.06476" lon="-0.44678">
        <ele>25</ele>
        <time>2010-01-01T00:05:01Z</time>
      </trkpt>
      <trkpt lat="49.06477" lon="-0.44681">
        <ele>25</ele>
        <time>2010-01-01T00:05:02Z</time>
      </trkpt>
      <trkpt lat="49.06458" lon="-0.44686">
        <ele>27</ele>
        <time>2010-01-01T00:05:09Z</time>
      </trkpt>
      <trkpt lat="49.06443" lon="-0.44696">
        <ele>30</ele>
        <time>2010-01-01T00:05:16Z</time>
      </trkpt>
      <trkpt lat="49.06443" lon="-0.44695">
        <ele>30</ele>
        <time>2010-01-01T00:05:16Z</time>
      </trkpt>
      <trkpt lat="49.06465" lon="-0.44713">
        <ele>30</ele>
        <time>2010-01-01T00:05:26Z</time>
      </trkpt>
      <trkpt lat="49.06477" lon="-0.44735">
        <ele>31</ele>
        <time>2010-01-01T00:05:34Z</time>
      </trkpt>
      <trkpt lat="49.06479" lon="-0.44739">
        <ele>32</ele>
        <time>2010-01-01T00:05:35Z</time>
      </trkpt>
      <trkpt lat="49.06478" lon="-0.44753">
        <ele>34</ele>
        <time>2010-01-01T00:05:39Z</time>
      </trkpt>
      <trkpt lat="49.06475" lon="-0.44765">
        <ele>37</ele>
        <time>2010-01-01T00:05:42Z</time>
      </trkpt>
      <trkpt lat="49.06469" lon="-0.44762">
        <ele>38</ele>
        <time>2010-01-01T00:05:45Z</time>
      </trkpt>
      <trkpt lat="49.06469" lon="-0.44761">
        <ele>38</ele>
        <time>2010-01-01T00:05:45Z</time>
      </trkpt>
      <trkpt lat="49.06465" lon="-0.44756">
        <ele>38</ele>
        <time>2010-01-01T00:05:47Z</time>
      </trkpt>
      <trkpt lat="49.06458" lon="-0.44754">
        <ele>38</ele>
        <time>2010-01-01T00:05:50Z</time>
      </trkpt>
      <trkpt lat="49.0645" lon="-0.44757">
        <ele>40</ele>
        <time>2010-01-01T00:05:53Z</time>
      </trkpt>
      <trkpt lat="49.06436" lon="-0.44766">
        <ele>42</ele>
        <time>2010-01-01T00:05:59Z</time>
      </trkpt>
      <trkpt lat="49.06435" lon="-0.44769">
        <ele>43</ele>
        <time>2010-01-01T00:06:00Z</time>
      </trkpt>
      <trkpt lat="49.06434" lon="-0.44765">
        <ele>42</ele>
        <time>2010-01-01T00:06:01Z</time>
      </trkpt>
      <trkpt lat="49.06436" lon="-0.44772">
        <ele>43</ele>
        <time>2010-01-01T00:06:03Z</time>
      </trkpt>
      <trkpt lat="49.06436" lon="-0.44785">
        <ele>45</ele>
        <time>2010-01-01T00:06:07Z</time>
      </trkpt>
      <trkpt lat="49.06424" lon="-0.44818">
        <ele>49</ele>
        <time>2010-01-01T00:06:16Z</time>
      </trkpt>
      <trkpt lat="49.06406" lon="-0.44853">
        <ele>52</ele>
        <time>2010-01-01T00:06:28Z</time>
      </trkpt>
      <trkpt lat="49.06395" lon="-0.44855">
        <ele>53</ele>
        <time>2010-01-01T00:06:33Z</time>
      </trkpt>
      <trkpt lat="49.06389" lon="-0.44852">
        <ele>54</ele>
        <time>2010-01-01T00:06:35Z</time>
      </trkpt>
      <trkpt lat="49.06346" lon="-0.44784">
        <ele>56</ele>
        <time>2010-01-01T00:07:00Z</time>
      </trkpt>
      <trkpt lat="49.06331" lon="-0.44788">
        <ele>57</ele>
        <time>2010-01-01T00:07:06Z</time>
      </trkpt>
      <trkpt lat="49.06328" lon="-0.44791">
        <ele>58</ele>
        <time>2010-01-01T00:07:07Z</time>
      </trkpt>
      <trkpt lat="49.06327" lon="-0.44783">
        <ele>57</ele>
        <time>2010-01-01T00:07:10Z</time>
      </trkpt>
    </trkseg>
  </trk>
</gpx>